# Wetter Temperatur Luftdruck Luftfeuchtigkeit Sichtweite Windgeschwindigkeit Windrichtung Zeit
1 Clear 3 999 63 10000 5.7 250 21:41 28.01.2020
2 Clear 3 1000 63 10000 7.2 260 21:20 28.01.2020
3 Clear 3 1000 63 10000 7.2 260 21:20 28.01.2020
4 Clear 3 1000 63 10000 7.2 250 20:46 28.01.2020
5 Clear 3 999 75 10000 6.7 260 20:28 28.01.2020
6 Clouds 4 999 75 10000 6.7 250 19:59 28.01.2020
7 Clouds 4 998 61 10000 5.1 250 19:38 28.01.2020
8 Clouds 4 998 61 10000 5.1 250 19:20 28.01.2020
9 Clouds 4 998 61 10000 5.1 240 18:58 28.01.2020
10 Clouds 4 998 61 10000 5.1 250 18:39 28.01.2020
11 Clouds 4 998 61 10000 5.1 250 18:21 28.01.2020
12 Clouds 5 998 61 10000 5.7 260 17:56 28.01.2020
13 Clouds 5 997 61 10000 5.1 260 17:37 28.01.2020
14 Clouds 5 997 54 10000 6.7 250 17:19 28.01.2020
15 Clouds 6 997 54 10000 7.7 250 16:46 28.01.2020
16 Rain 6 997 54 10000 6.7 250 16:27 28.01.2020
17 Clouds 6 997 54 10000 6.7 250 15:59 28.01.2020
18 Clouds 6 997 61 10000 7.7 250 15:41 28.01.2020
19 Clouds 7 997 65 10000 8.2 260 15:18 28.01.2020
20 Clouds 7 997 61 10000 9.3 250 14:45 28.01.2020
21 Clouds 7 997 61 10000 6.7 250 14:20 28.01.2020
22 Clouds 7 997 65 10000 8.2 250 13:58 28.01.2020
23 Clouds 7 997 65 10000 6.7 250 13:39 28.01.2020
24 Clouds 6 997 65 10000 6.7 250 13:20 28.01.2020
25 Clouds 6 996 50 10000 8.2 250 12:42 28.01.2020
26 Clouds 5 996 50 10000 8.2 250 12:23 28.01.2020
27 Clouds 4 996 75 10000 9.3 250 11:48 28.01.2020
28 Clouds 4 996 75 10000 9.3 250 11:23 28.01.2020
29 Clear 4 995 80 10000 6.7 250 10:58 28.01.2020
30 Clear 3 995 80 10000 7.7 260 10:39 28.01.2020
31 Clouds 3 995 54 10000 6.7 250 10:20 28.01.2020
32 Clouds 2 994 54 10000 7.2 250 09:43 28.01.2020
33 Clear 2 993 80 10000 7.2 260 09:21 28.01.2020
34 Clear 2 993 80 10000 7.2 250 08:58 28.01.2020
35 Clear 2 992 80 10000 8.2 250 08:39 28.01.2020
36 Snow 2 992 80 10000 8.2 250 08:19 28.01.2020
37 Snow 2 992 80 10000 8.2 250 08:19 28.01.2020
38 Clouds 2 991 80 10000 8.2 260 07:37 28.01.2020
39 Snow 3 991 93 10000 7.2 250 06:50 28.01.2020
40 Rain 3 990 86 10000 7.7 250 06:26 28.01.2020
41 Rain 3 991 93 8000 10.3 270 05:55 28.01.2020
42 Rain 3 990 93 10000 5.7 280 05:27 28.01.2020
43 Rain 4 989 93 10000 5.1 260 04:30 28.01.2020
44 Rain 5 989 93 10000 4.6 220 02:58 28.01.2020
45 Rain 5 989 93 9000 5.1 220 02:25 28.01.2020
46 Rain 5 989 93 9000 5.1 220 02:25 28.01.2020
47 Rain 5 990 93 10000 4.6 200 01:57 28.01.2020
48 Rain 5 990 93 10000 3.6 210 01:32 28.01.2020
49 Clouds 5 991 87 10000 4.6 200 00:51 28.01.2020
50 Rain 5 991 93 10000 2.6 220 00:29 28.01.2020
51 Clouds 5 992 93 10000 6.2 220 23:51 27.01.2020
52 Clouds 5 992 93 10000 6.2 220 23:51 27.01.2020
53 Clouds 5 992 87 10000 2.6 220 23:30 27.01.2020
54 Clouds 6 993 87 10000 2.6 210 22:59 27.01.2020
55 Clouds 6 993 87 10000 3.1 240 22:40 27.01.2020
56 Clouds 5 993 87 10000 3.1 240 22:20 27.01.2020
57 Rain 5 993 87 10000 4.1 240 21:56 27.01.2020
58 Clouds 5 993 87 10000 3.1 230 21:37 27.01.2020
59 Clouds 5 993 87 10000 3.1 230 21:18 27.01.2020
60 Clouds 5 994 87 10000 2.1 230 20:55 27.01.2020
61 Rain 5 994 87 10000 2.6 0 20:37 27.01.2020
62 Rain 5 994 87 10000 2.6 0 20:18 27.01.2020
63 Clouds 5 994 100 10000 4.1 210 19:41 27.01.2020
64 Clouds 5 995 87 10000 2.1 0 19:23 27.01.2020
65 Rain 5 995 87 10000 2.6 230 18:57 27.01.2020
66 Rain 5 996 87 9000 3.6 250 18:39 27.01.2020
67 Rain 5 996 87 9000 3.6 250 18:20 27.01.2020
68 Rain 6 996 87 8000 3.6 280 17:55 27.01.2020
69 Rain 6 997 87 4100 4.6 240 17:37 27.01.2020
70 Rain 6 997 87 4100 4.6 240 17:18 27.01.2020
71 Rain 7 997 81 10000 4.6 200 16:42 27.01.2020
72 Rain 7 997 81 10000 4.6 200 16:42 27.01.2020
73 Rain 7 997 81 10000 4.6 200 16:23 27.01.2020
74 Rain 8 998 81 6000 3.1 220 15:55 27.01.2020
75 Rain 8 999 76 10000 4.1 240 15:37 27.01.2020
76 Rain 8 999 76 10000 4.1 240 15:19 27.01.2020
77 Rain 9 999 76 10000 4.6 210 14:54 27.01.2020
78 Rain 9 1000 76 10000 3.6 220 14:36 27.01.2020
79 Clouds 9 1000 76 10000 3.6 220 14:18 27.01.2020
80 Clouds 9 1001 76 10000 4.6 220 13:42 27.01.2020
81 Clouds 9 1001 76 10000 4.6 220 13:21 27.01.2020
82 Clouds 9 1002 76 10000 4.1 220 12:56 27.01.2020
83 Rain 9 1002 81 10000 4.1 210 12:37 27.01.2020
84 Rain 8 1002 81 10000 4.1 210 12:19 27.01.2020
85 Rain 8 1002 81 10000 4.1 230 11:41 27.01.2020
86 Clouds 8 1002 87 10000 6.7 200 11:21 27.01.2020
87 Clouds 8 1002 87 10000 6.7 200 11:21 27.01.2020
88 Clouds 7 1003 93 10000 6.7 210 10:44 27.01.2020
89 Clouds 7 1003 93 10000 6.7 210 10:25 27.01.2020
90 Clouds 7 1003 93 10000 7.2 200 09:58 27.01.2020
91 Clouds 7 1003 87 10000 7.7 210 09:39 27.01.2020
92 Clouds 7 1003 87 10000 7.7 210 09:39 27.01.2020
93 Rain 7 1003 87 10000 7.7 210 09:18 27.01.2020
94 Rain 7 1003 93 10000 7.2 210 08:47 27.01.2020
95 Clouds 7 1003 93 10000 6.7 210 08:23 27.01.2020
96 Clouds 8 1004 93 10000 6.7 210 07:55 27.01.2020
97 Clouds 8 1003 93 10000 3.1 220 07:36 27.01.2020
98 Clouds 8 1003 93 10000 4.1 210 06:55 27.01.2020
99 Clouds 8 1003 93 10000 3.6 210 06:32 27.01.2020
100 Clouds 7 1004 93 10000 4.1 220 05:37 27.01.2020
101 Clouds 8 1004 93 10000 3.6 230 04:20 27.01.2020
102 Clouds 8 1005 87 10000 3.1 220 03:27 27.01.2020
103 Clouds 8 1006 87 10000 1.5 0 01:42 27.01.2020
104 Clouds 8 1006 87 10000 2.6 220 01:22 27.01.2020
105 Rain 8 1006 87 10000 3.1 230 00:40 27.01.2020
106 Rain 8 1006 87 10000 3.1 230 00:19 27.01.2020
107 Rain 8 1005 93 10000 3.6 230 23:42 26.01.2020
108 Rain 8 1005 93 10000 3.6 230 23:20 26.01.2020
109 Clouds 8 1006 100 10000 6.7 220 22:57 26.01.2020
110 Clouds 8 1006 100 10000 6.2 220 22:37 26.01.2020
111 Clouds 8 1006 100 10000 6.2 220 22:19 26.01.2020
112 Clouds 8 1006 100 10000 6.2 220 22:19 26.01.2020
113 Clouds 8 1005 87 10000 3.6 230 21:57 26.01.2020
114 Clouds 8 1006 87 10000 3.6 230 21:38 26.01.2020
115 Clouds 9 1006 87 10000 3.6 230 21:20 26.01.2020
116 Clouds 9 1006 93 10000 8.2 210 20:57 26.01.2020
117 Clouds 9 1006 93 10000 8.2 210 20:38 26.01.2020
118 Rain 9 1006 100 10000 7.2 200 20:18 26.01.2020
119 Drizzle 9 1006 100 10000 9.8 200 19:57 26.01.2020
120 Rain 9 1006 87 10000 5.1 180 19:38 26.01.2020
121 Rain 9 1006 100 10000 9.3 190 19:18 26.01.2020
122 Rain 9 1005 93 6000 5.7 190 18:54 26.01.2020
123 Rain 9 1007 93 9000 9.3 200 18:36 26.01.2020
124 Rain 9 1007 87 10000 5.1 200 18:18 26.01.2020
125 Rain 9 1007 87 10000 5.1 200 17:54 26.01.2020
126 Rain 9 1007 87 10000 4.6 200 17:36 26.01.2020
127 Rain 9 1007 87 10000 4.6 200 17:18 26.01.2020
128 Rain 9 1008 87 8000 5.1 200 16:54 26.01.2020
129 Rain 9 1008 93 10000 8.2 190 16:36 26.01.2020
130 Rain 9 1008 93 10000 8.2 190 16:18 26.01.2020
131 Rain 9 1008 85 0 6.26 217 15:41 26.01.2020
132 Rain 10 1008 89 0 6.01 202 15:19 26.01.2020
133 Rain 10 1008 81 0 5.36 202 14:55 26.01.2020
134 Rain 10 1009 85 0 6.01 202 14:37 26.01.2020
135 Clouds 10 1009 81 0 4.92 219 14:18 26.01.2020
136 Clouds 10 1007 84 0 0.89 230 13:39 26.01.2020
137 Clouds 10 1010 86 0 5.43 204 13:18 26.01.2020
138 Clouds 9 1007 86 0 0.89 200 12:54 26.01.2020
139 Clouds 9 1008 86 0 0.89 202 12:36 26.01.2020
140 Clouds 9 1011 88 0 5.43 204 12:18 26.01.2020
141 Clouds 9 1011 89 0 5.43 204 11:56 26.01.2020
142 Clouds 9 1011 89 0 5.43 204 11:36 26.01.2020
143 Clouds 8 1012 81 10000 2.6 190 11:18 26.01.2020
144 Clouds 8 1012 81 10000 2.6 190 10:39 26.01.2020
145 Clouds 8 1012 81 10000 2.6 190 10:21 26.01.2020
146 Clouds 7 1012 87 10000 3.1 210 09:59 26.01.2020
147 Clouds 7 1012 87 10000 3.1 210 09:41 26.01.2020
148 Clouds 7 1012 87 10000 2.6 200 09:23 26.01.2020
149 Clouds 7 1012 87 10000 2.1 200 08:57 26.01.2020
150 Clouds 7 1012 87 10000 2.1 200 08:39 26.01.2020
151 Clouds 7 1012 87 10000 3.6 170 08:21 26.01.2020
152 Clouds 7 1012 87 10000 3.6 200 07:50 26.01.2020
153 Clouds 7 1012 87 10000 3.1 210 07:25 26.01.2020
154 Clouds 7 1012 87 10000 3.1 210 06:40 26.01.2020
155 Clouds 7 1012 87 10000 3.1 170 06:22 26.01.2020
156 Clouds 7 1012 100 5000 3.1 180 05:27 26.01.2020
157 Haze 7 1013 87 4300 1.5 0 03:23 26.01.2020
158 Mist 7 1014 93 3500 3.1 70 02:38 26.01.2020
159 Mist 7 1014 93 2900 2.6 70 01:43 26.01.2020
160 Mist 6 1015 100 2200 2.6 70 01:22 26.01.2020
161 Mist 6 1015 100 2100 2.1 70 00:42 26.01.2020
162 Mist 6 1015 93 1200 2.1 80 00:23 26.01.2020
163 Clouds 6 1015 96 0 3.07 174 23:39 25.01.2020
164 Clouds 6 1015 96 0 2.16 150 23:20 25.01.2020
165 Clouds 6 1015 96 0 2.16 150 22:56 25.01.2020
166 Clouds 6 1016 96 0 2.16 150 22:36 25.01.2020
167 Clouds 6 1016 96 0 2.16 150 22:18 25.01.2020
168 Clouds 5 1013 95 0 0.45 107 21:41 25.01.2020
169 Clouds 6 1016 94 0 2.16 150 21:23 25.01.2020
170 Clouds 5 1016 96 0 2.16 150 20:56 25.01.2020
171 Clouds 5 1016 96 0 2.16 150 20:38 25.01.2020
172 Clouds 6 1016 92 0 1.68 150 20:20 25.01.2020
173 Clouds 5 1017 95 0 1.83 144 19:44 25.01.2020
174 Clouds 6 1017 92 0 1.68 150 19:20 25.01.2020
175 Clouds 6 1017 92 0 1.68 150 18:59 25.01.2020
176 Clouds 6 1014 92 0 0.45 104 18:41 25.01.2020
177 Clouds 6 1014 92 0 0.45 97 18:20 25.01.2020
178 Clouds 6 1017 92 0 1.68 150 17:54 25.01.2020
179 Clouds 6 1017 92 0 1.68 150 17:36 25.01.2020
180 Clouds 6 1017 91 0 2.47 195 17:18 25.01.2020
181 Clouds 6 1014 91 0 0.89 102 16:42 25.01.2020
182 Clouds 6 1014 91 0 0.45 113 16:22 25.01.2020
183 Clouds 6 1014 91 0 0.89 113 15:56 25.01.2020
184 Clouds 6 1017 91 0 2.47 195 15:37 25.01.2020
185 Clouds 6 1018 91 0 2.47 195 15:19 25.01.2020
186 Clouds 6 1015 91 0 0.45 168 14:41 25.01.2020
187 Clouds 6 1018 92 0 2.75 185 14:19 25.01.2020
188 Clouds 6 1019 92 0 2.75 185 13:44 25.01.2020
189 Clouds 6 1019 92 0 2.75 185 13:26 25.01.2020
190 Clear 6 1019 92 0 2.49 191 12:57 25.01.2020
191 Clouds 6 1020 87 6000 3.1 170 12:37 25.01.2020
192 Clouds 6 1020 87 6000 3.1 170 12:19 25.01.2020
193 Clouds 6 1020 87 6000 3.1 170 11:40 25.01.2020
194 Haze 5 1020 93 4600 3.1 170 11:19 25.01.2020
195 Drizzle 5 1019 87 5000 2.6 190 10:55 25.01.2020
196 Haze 5 1020 87 3800 3.1 0 10:37 25.01.2020
197 Haze 5 1020 87 3800 3.1 0 10:18 25.01.2020
198 Drizzle 5 1020 100 1800 3.6 170 09:40 25.01.2020
199 Haze 5 1020 87 5000 2.1 210 09:19 25.01.2020
200 Clouds 5 1020 87 6000 2.1 210 08:42 25.01.2020
201 Clouds 5 1020 87 6000 1.5 0 07:57 25.01.2020
202 Clouds 5 1020 87 7000 2.1 220 07:28 25.01.2020
203 Clouds 5 1019 81 10000 4.1 240 06:33 25.01.2020
204 Clouds 5 1019 81 10000 4.1 240 06:33 25.01.2020
205 Clouds 5 1020 81 10000 2.6 230 05:57 25.01.2020
206 Clouds 5 1019 81 10000 2.1 210 05:38 25.01.2020
207 Clouds 5 1019 81 10000 2.1 210 05:38 25.01.2020
208 Clouds 5 1020 87 10000 2.6 210 04:19 25.01.2020
209 Clouds 5 1020 87 10000 3.1 190 03:49 25.01.2020
210 Clouds 5 1020 93 9000 2.6 210 02:37 25.01.2020
211 Clouds 6 1021 93 8000 1.5 210 01:57 25.01.2020
212 Clouds 6 1021 93 7000 2.1 210 01:23 25.01.2020
213 Clouds 6 1021 93 7000 2.1 220 00:39 25.01.2020
214 Clouds 6 1021 93 7000 2.1 220 00:18 25.01.2020
215 Clouds 6 1021 100 7000 3.6 210 23:42 24.01.2020
216 Clouds 6 1021 93 8000 1 200 23:24 24.01.2020
217 Clouds 6 1022 93 9000 3.1 210 22:47 24.01.2020
218 Clouds 6 1022 93 9000 3.1 200 22:28 24.01.2020
219 Clouds 6 1022 100 7000 2.6 200 21:59 24.01.2020
220 Clouds 6 1022 87 8000 2.6 0 21:41 24.01.2020
221 Clouds 6 1022 93 10000 2.6 220 21:19 24.01.2020
222 Clouds 6 1022 93 10000 2.6 220 20:44 24.01.2020
223 Clouds 6 1021 100 9000 3.1 190 20:23 24.01.2020
224 Haze 6 1021 87 7000 1.5 250 19:59 24.01.2020
225 Mist 6 1021 93 5000 2.6 190 19:40 24.01.2020
226 Mist 6 1021 93 5000 2.6 190 19:22 24.01.2020
227 Haze 6 1021 87 7000 1.5 240 18:57 24.01.2020
228 Mist 6 1021 93 3500 2.6 210 18:39 24.01.2020
229 Haze 6 1021 87 7000 1 230 18:21 24.01.2020
230 Haze 6 1021 87 7000 2.1 230 17:42 24.01.2020
231 Haze 6 1021 87 7000 1.5 260 17:21 24.01.2020
232 Haze 6 1021 87 6000 2.1 250 16:57 24.01.2020
233 Haze 6 1021 87 6000 2.1 250 16:57 24.01.2020
234 Rain 6 1022 87 10000 2.1 210 16:38 24.01.2020
235 Rain 6 1022 87 10000 2.1 210 16:18 24.01.2020
236 Rain 6 1022 87 10000 1.5 0 15:41 24.01.2020
237 Clouds 6 1022 87 10000 1.5 0 15:21 24.01.2020
238 Clouds 6 1022 87 10000 1.5 0 14:42 24.01.2020
239 Clouds 6 1022 87 10000 2.1 160 14:24 24.01.2020
240 Clouds 6 1023 87 10000 1 0 13:59 24.01.2020
241 Clouds 6 1023 87 10000 1.5 0 13:40 24.01.2020
242 Clouds 6 1023 87 10000 1.5 0 13:21 24.01.2020
243 Rain 6 1024 87 7000 0.5 0 12:43 24.01.2020
244 Rain 6 1024 87 7000 0.5 0 12:20 24.01.2020
245 Rain 6 1024 87 8000 1.74 211 11:45 24.01.2020
246 Mist 6 1023 100 2500 0.5 0 11:19 24.01.2020
247 Rain 6 1024 87 8000 1.36 269 11:19 24.01.2020
248 Mist 6 1023 100 2500 0.5 0 10:58 24.01.2020
249 Mist 6 1023 100 2000 1 0 10:40 24.01.2020
250 Mist 6 1023 100 2000 1 0 10:19 24.01.2020
251 Clouds 5 1024 93 8000 1 0 09:41 24.01.2020
252 Mist 5 1023 100 1800 2.6 10 09:23 24.01.2020
253 Mist 5 1023 100 1800 1.5 350 08:41 24.01.2020
254 Mist 5 1023 100 1800 1.5 350 08:41 24.01.2020
255 Mist 5 1023 100 2000 1.5 340 08:21 24.01.2020
256 Mist 5 1023 100 3000 0.97 227 07:59 24.01.2020
257 Clouds 5 1023 100 3300 2.1 340 07:39 24.01.2020
258 Clouds 5 1023 93 7000 1 350 06:55 24.01.2020
259 Clouds 5 1023 100 3800 1 340 06:35 24.01.2020
260 Clouds 5 1024 93 6000 1.5 360 05:59 24.01.2020
261 Clouds 6 1024 93 4100 1.5 350 05:18 24.01.2020
262 Haze 6 1025 93 4200 0.47 305 02:56 24.01.2020
263 Clouds 6 1025 93 3400 2.1 340 02:38 24.01.2020
264 Clouds 6 1025 93 3400 2.1 340 02:18 24.01.2020
265 Rain 6 1026 93 5000 1 0 01:37 24.01.2020
266 Rain 6 1027 93 7000 1 0 00:39 24.01.2020
267 Rain 6 1027 93 7000 1 0 00:18 24.01.2020
268 Rain 6 1027 93 3700 2.1 350 23:41 23.01.2020
269 Rain 6 1027 93 3700 2.1 350 23:21 23.01.2020
270 Rain 6 1027 93 4200 1 0 22:58 23.01.2020
271 Haze 6 1027 93 4000 2.1 340 22:36 23.01.2020
272 Haze 6 1027 93 4000 2.1 340 22:18 23.01.2020
273 Clouds 6 1027 93 7000 2.1 340 21:55 23.01.2020
274 Clouds 6 1027 93 5000 2.1 320 21:37 23.01.2020
275 Clouds 6 1027 93 5000 2.1 320 21:18 23.01.2020
276 Clouds 6 1027 93 10000 1.5 330 20:41 23.01.2020
277 Clouds 7 1027 93 10000 1.5 330 20:22 23.01.2020
278 Clouds 7 1027 87 10000 2.1 320 19:57 23.01.2020
279 Clouds 7 1027 87 10000 0.5 0 19:39 23.01.2020
280 Clouds 7 1027 87 10000 0.5 0 19:39 23.01.2020
281 Clouds 7 1027 87 10000 0.5 0 19:21 23.01.2020
282 Clouds 7 1028 87 10000 1.5 290 18:56 23.01.2020
283 Clouds 7 1028 93 10000 1 20 18:38 23.01.2020
284 Clouds 7 1028 93 10000 2.1 10 18:19 23.01.2020
285 Clouds 7 1028 81 10000 1.5 0 17:45 23.01.2020
286 Clouds 7 1028 87 10000 1 0 17:21 23.01.2020
287 Clouds 7 1029 81 10000 1.5 0 16:59 23.01.2020
288 Clouds 7 1029 87 6000 1.08 345 16:39 23.01.2020
289 Clouds 7 1029 87 6000 1.08 345 16:20 23.01.2020
290 Clouds 7 1030 87 7000 0.5 0 15:58 23.01.2020
291 Clouds 7 1030 87 6000 1.08 345 15:39 23.01.2020
292 Clouds 7 1030 87 6000 1.08 345 15:19 23.01.2020
293 Clouds 7 1031 87 7000 1 60 14:58 23.01.2020
294 Clouds 7 1031 87 6000 1.5 60 14:40 23.01.2020
295 Clouds 7 1031 87 6000 1.5 60 14:22 23.01.2020
296 Haze 7 1031 87 5000 1.5 70 13:54 23.01.2020
297 Haze 7 1032 93 5000 1.5 80 13:36 23.01.2020
298 Haze 7 1032 93 5000 1.5 80 13:18 23.01.2020
299 Clouds 7 1032 93 6000 2.1 120 12:41 23.01.2020
300 Clouds 7 1032 93 6000 2.1 120 12:22 23.01.2020
301 Clouds 7 1033 93 7000 1.5 90 11:56 23.01.2020
302 Mist 7 1033 100 2500 2.1 50 11:37 23.01.2020
303 Mist 7 1033 100 2500 2.1 50 11:18 23.01.2020
304 Mist 6 1032 93 2000 1.5 40 10:42 23.01.2020
305 Clouds 6 1033 93 6000 1 50 10:19 23.01.2020
306 Clouds 6 1033 93 6000 1 50 10:19 23.01.2020
307 Clouds 6 1033 93 9000 1.5 90 09:42 23.01.2020
308 Clouds 6 1033 93 9000 1.5 90 09:24 23.01.2020
309 Clouds 6 1033 87 10000 3.1 90 08:58 23.01.2020
310 Clouds 6 1033 93 6000 0.5 90 08:40 23.01.2020
311 Clouds 6 1033 93 6000 0.5 90 08:21 23.01.2020
312 Clouds 6 1033 93 6000 1.51 39 07:44 23.01.2020
313 Clouds 6 1033 87 10000 1.5 100 07:24 23.01.2020
314 Clouds 6 1033 93 10000 2.1 110 06:51 23.01.2020
315 Clouds 6 1033 93 8000 1.5 30 06:20 23.01.2020
316 Clouds 6 1034 93 9000 0.5 90 05:37 23.01.2020
317 Clouds 6 1034 93 9000 0.5 60 04:24 23.01.2020
318 Clouds 6 1035 93 10000 1.5 130 02:33 23.01.2020
319 Clouds 6 1036 93 10000 2.1 110 00:58 23.01.2020
320 Clouds 6 1036 93 10000 0.5 130 00:27 23.01.2020
321 Haze 6 1036 100 3300 1.5 90 23:47 22.01.2020
322 Clouds 6 1036 100 6000 3.1 90 23:29 22.01.2020
323 Clouds 6 1036 93 6000 1.5 0 22:59 22.01.2020
324 Clouds 6 1036 93 6000 1.5 0 22:40 22.01.2020
325 Mist 6 1036 93 2000 2.1 100 22:22 22.01.2020
326 Mist 7 1036 100 2900 1.5 70 21:40 22.01.2020
327 Fog 6 1036 100 600 2.1 50 21:22 22.01.2020
328 Fog 6 1036 100 400 2.1 50 20:57 22.01.2020
329 Fog 6 1036 100 400 1.5 50 20:38 22.01.2020
330 Fog 6 1036 100 400 1.5 50 20:38 22.01.2020
331 Mist 7 1037 93 3400 1 0 20:20 22.01.2020
332 Mist 7 1037 100 2500 1.5 0 19:56 22.01.2020
333 Drizzle 7 1037 93 3500 1.5 90 19:37 22.01.2020
334 Fog 7 1036 100 500 1.5 80 19:18 22.01.2020
335 Mist 7 1037 100 2200 1.5 90 18:56 22.01.2020
336 Mist 7 1037 93 2300 2.1 100 18:38 22.01.2020
337 Mist 7 1037 93 2300 2.1 100 18:19 22.01.2020
338 Mist 7 1037 93 2300 2.1 100 18:19 22.01.2020
339 Haze 7 1036 93 3100 2.1 70 17:54 22.01.2020
340 Haze 7 1036 93 3100 2.1 80 17:36 22.01.2020
341 Rain 7 1036 93 3300 1.5 0 17:18 22.01.2020
342 Rain 7 1036 100 3100 1 80 16:42 22.01.2020
343 Haze 7 1036 100 3100 1 80 16:22 22.01.2020
344 Haze 7 1037 100 3200 1.5 0 15:58 22.01.2020
345 Haze 7 1037 93 3300 0.98 66 15:38 22.01.2020
346 Haze 7 1037 93 3300 0.98 66 15:20 22.01.2020
347 Haze 6 1037 93 2300 1 330 14:40 22.01.2020
348 Haze 6 1037 93 2300 1 330 14:40 22.01.2020
349 Haze 6 1037 93 2400 1.21 55 14:21 22.01.2020
350 Haze 6 1037 93 2000 0.5 0 13:59 22.01.2020
351 Mist 6 1038 93 2100 0.87 36 13:38 22.01.2020
352 Mist 6 1038 93 2100 0.87 36 13:20 22.01.2020
353 Drizzle 6 1038 100 1500 0.87 36 12:58 22.01.2020
354 Mist 6 1038 93 1400 0.87 36 12:40 22.01.2020
355 Mist 5 1038 93 1400 0.87 36 12:20 22.01.2020
356 Mist 5 1038 93 2200 0.87 36 11:58 22.01.2020
357 Mist 5 1038 100 2200 0.5 0 11:40 22.01.2020
358 Mist 5 1038 100 2200 0.5 0 11:19 22.01.2020
359 Mist 5 1038 100 1800 1.5 0 10:59 22.01.2020
360 Rain 4 1038 93 2000 2.1 210 10:41 22.01.2020
361 Rain 4 1038 93 2000 2.1 210 10:18 22.01.2020
362 Haze 4 1037 93 2500 1 0 09:42 22.01.2020
363 Haze 4 1037 93 2500 1 0 09:24 22.01.2020
364 Mist 4 1037 100 2100 1.5 300 08:57 22.01.2020
365 Mist 4 1037 100 1700 1.5 0 08:39 22.01.2020
366 Mist 3 1037 100 1700 1.5 0 08:20 22.01.2020
367 Haze 3 1037 100 1200 1.5 290 07:46 22.01.2020
368 Haze 3 1037 93 1200 1 350 07:28 22.01.2020
369 Haze 3 1037 93 3000 1.5 0 06:38 22.01.2020
370 Haze 3 1037 93 3000 1.5 0 06:20 22.01.2020
371 Clouds 3 1038 86 10000 1 0 05:21 22.01.2020
372 Clouds 2 1038 93 10000 1.5 0 03:30 22.01.2020
373 Clouds 2 1039 93 9000 2.1 230 02:57 22.01.2020
374 Clouds 2 1039 93 9000 1.5 240 01:42 22.01.2020
375 Clouds 2 1040 86 9000 1.5 210 00:44 22.01.2020
376 Clouds 2 1039 93 9000 1.5 230 00:26 22.01.2020
377 Clouds 1 1039 86 9000 1.5 220 23:38 21.01.2020
378 Clouds 1 1039 86 9000 1.5 220 23:20 21.01.2020
379 Clear 1 1039 86 9000 2.6 220 22:56 21.01.2020
380 Clear 1 1039 93 10000 2.1 270 22:37 21.01.2020
381 Clear 1 1039 93 10000 2.1 270 22:19 21.01.2020
382 Clouds 1 1039 93 10000 1.5 270 21:55 21.01.2020
383 Clear 1 1039 93 10000 2.1 270 21:37 21.01.2020
384 Clear 1 1039 93 10000 2.1 270 21:18 21.01.2020
385 Clear 1 1040 90 10000 2.1 330 20:55 21.01.2020
386 Clear 2 1039 93 10000 2.1 230 20:37 21.01.2020
387 Clouds 2 1039 93 10000 2.1 230 20:18 21.01.2020
388 Clouds 2 1039 86 10000 2.1 240 19:55 21.01.2020
389 Clouds 2 1040 86 10000 1.5 240 19:36 21.01.2020
390 Clouds 2 1040 86 10000 1.5 240 19:18 21.01.2020
391 Clouds 3 1040 86 10000 1.5 300 18:54 21.01.2020
392 Clouds 3 1040 86 10000 1.5 250 18:36 21.01.2020
393 Clouds 4 1040 86 10000 1.5 250 18:18 21.01.2020
394 Clouds 5 1040 75 10000 2.1 240 17:42 21.01.2020
395 Clouds 6 1040 75 10000 2.1 240 17:19 21.01.2020
396 Clouds 6 1040 70 10000 2.1 250 16:57 21.01.2020
397 Clouds 7 1040 70 10000 2.1 280 16:36 21.01.2020
398 Clouds 7 1040 70 10000 2.1 280 16:18 21.01.2020
399 Clouds 7 1040 70 10000 2.1 270 15:40 21.01.2020
400 Clouds 7 1041 70 10000 1.5 0 15:20 21.01.2020
401 Clouds 7 1041 70 10000 2.6 240 14:57 21.01.2020
402 Clouds 7 1041 75 10000 2.1 260 14:37 21.01.2020
403 Clear 6 1041 75 10000 2.1 260 14:18 21.01.2020
404 Clear 6 1042 81 9000 2.1 230 13:39 21.01.2020
405 Clear 5 1042 75 10000 2.6 220 13:18 21.01.2020
406 Clear 4 1042 80 9000 2.6 220 12:43 21.01.2020
407 Clear 3 1043 86 9000 3.1 230 12:25 21.01.2020
408 Clear 3 1043 86 9000 2.6 230 11:57 21.01.2020
409 Clear 2 1043 86 8000 2.6 200 11:38 21.01.2020
410 Clear 1 1043 86 8000 2.6 200 11:19 21.01.2020
411 Clouds 0 1043 93 7000 2.1 270 10:44 21.01.2020
412 Clear 0 1042 93 7000 2.1 260 10:23 21.01.2020
413 Clear -1 1042 81 7000 2.6 240 09:58 21.01.2020
414 Clear -1 1042 81 7000 2.6 240 09:40 21.01.2020
415 Clear -1 1042 81 7000 3.1 230 09:21 21.01.2020
416 Clear -1 1042 81 7000 3.1 240 08:47 21.01.2020
417 Rain -2 1042 81 8000 2.6 230 08:27 21.01.2020
418 Rain -2 1042 75 8000 2.6 240 07:56 21.01.2020
419 Clear -2 1042 75 9000 2.1 240 07:37 21.01.2020
420 Clear -2 1042 75 9000 2.1 240 07:19 21.01.2020
421 Clear -2 1042 75 10000 2.6 230 06:44 21.01.2020
422 Clear -2 1042 100 5000 1 280 06:23 21.01.2020
423 Clear -1 1042 100 4000 0.5 330 05:41 21.01.2020
424 Clear -1 1043 100 3400 0.5 20 04:39 21.01.2020
425 Clear -1 1043 100 3400 0.5 20 04:39 21.01.2020
426 Clear -1 1044 72 10000 2.6 230 02:54 21.01.2020
427 Mist -1 1044 70 5000 1.5 0 01:47 21.01.2020
428 Clear 0 1045 69 6000 1 170 00:52 21.01.2020
429 Clear 0 1044 92 6000 1 240 00:29 21.01.2020
430 Clear 0 1045 86 10000 1.5 230 23:57 20.01.2020
431 Clear 0 1045 86 10000 2.1 240 23:36 20.01.2020
432 Clear 0 1045 86 10000 2.1 240 23:18 20.01.2020
433 Clear 0 1045 80 10000 1.5 240 22:56 20.01.2020
434 Clear 0 1045 80 10000 2.6 250 22:36 20.01.2020
435 Clear 1 1045 80 10000 2.6 250 22:18 20.01.2020
436 Clear 1 1045 74 10000 2.1 240 21:55 20.01.2020
437 Clear 1 1045 74 10000 2.1 240 21:36 20.01.2020
438 Clear 1 1045 74 10000 2.1 240 21:18 20.01.2020
439 Clear 1 1045 74 10000 2.6 240 20:55 20.01.2020
440 Clear 1 1045 74 10000 2.6 240 20:36 20.01.2020
441 Clear 2 1045 74 10000 2.6 240 20:18 20.01.2020
442 Clear 2 1045 56 10000 1.5 310 19:56 20.01.2020
443 Clear 2 1046 56 10000 3.1 200 19:37 20.01.2020
444 Clear 2 1046 56 10000 3.1 200 19:18 20.01.2020
445 Clear 3 1045 56 10000 2.6 210 18:42 20.01.2020
446 Clear 3 1046 56 10000 3.1 180 18:21 20.01.2020
447 Clear 4 1046 56 10000 1.5 220 17:40 20.01.2020
448 Clear 5 1046 65 10000 2.6 220 17:19 20.01.2020
449 Clear 6 1046 61 10000 2.1 230 16:58 20.01.2020
450 Clear 6 1047 61 10000 2.1 240 16:37 20.01.2020
451 Clear 7 1047 61 10000 2.1 240 16:18 20.01.2020
452 Clear 7 1047 61 10000 2.1 240 16:18 20.01.2020
453 Clear 7 1047 61 10000 2.1 250 15:54 20.01.2020
454 Clear 7 1047 61 10000 2.1 250 15:36 20.01.2020
455 Clear 7 1047 61 10000 2.1 250 15:18 20.01.2020
456 Clear 6 1048 65 10000 2.1 230 14:41 20.01.2020
457 Clouds 6 1048 65 10000 2.1 230 14:22 20.01.2020
458 Clouds 6 1048 70 10000 2.1 250 13:57 20.01.2020
459 Clouds 6 1048 70 10000 2.6 230 13:39 20.01.2020
460 Clear 5 1048 70 10000 2.6 230 13:20 20.01.2020
461 Clear 5 1048 70 10000 2.6 230 12:45 20.01.2020
462 Clear 5 1048 70 10000 2.6 240 12:26 20.01.2020
463 Clear 4 1049 75 10000 3.1 240 11:57 20.01.2020
464 Clear 3 1049 75 10000 3.1 240 11:38 20.01.2020
465 Clouds 3 1049 75 10000 3.1 240 11:19 20.01.2020
466 Clouds 2 1048 64 10000 1.5 230 10:47 20.01.2020
467 Clouds 2 1048 69 10000 2.1 220 10:21 20.01.2020
468 Clouds 2 1048 69 10000 2.1 220 10:21 20.01.2020
469 Clouds 1 1048 64 10000 1.5 230 09:54 20.01.2020
470 Clouds 1 1048 74 10000 1.5 260 09:36 20.01.2020
471 Clouds 1 1048 74 10000 1.5 260 09:18 20.01.2020
472 Clouds 1 1049 86 10000 2.6 230 08:42 20.01.2020
473 Clouds 1 1049 86 10000 2.6 230 08:24 20.01.2020
474 Clouds 1 1048 74 10000 2.1 200 07:42 20.01.2020
475 Clouds 0 1048 63 8000 1 250 07:23 20.01.2020
476 Clouds 0 1048 63 10000 2.1 230 06:46 20.01.2020
477 Clouds 0 1048 63 10000 2.1 230 06:26 20.01.2020
478 Clouds 0 1049 63 10000 1 280 05:42 20.01.2020
479 Clouds 0 1048 64 9000 0.5 340 05:21 20.01.2020
480 Clouds 1 1049 93 10000 1.5 0 04:41 20.01.2020
481 Clouds 1 1049 64 10000 1 0 02:55 20.01.2020
482 Clouds 1 1049 86 10000 2.1 210 01:52 20.01.2020
483 Clouds 1 1049 86 10000 2.1 230 01:26 20.01.2020
484 Clouds 1 1049 86 10000 1.5 220 00:44 20.01.2020
485 Clouds 1 1049 86 10000 2.6 220 00:22 20.01.2020
486 Clouds 1 1049 65 7000 1 0 23:39 19.01.2020
487 Clear 0 1048 86 10000 1.5 170 23:20 19.01.2020
488 Clear 0 1048 86 10000 1.5 170 23:20 19.01.2020
489 Clear 0 1048 86 10000 1.5 170 23:20 19.01.2020
490 Clear 0 1048 70 10000 0.5 0 22:56 19.01.2020
491 Clear 0 1048 70 10000 0.5 0 22:56 19.01.2020
492 Clear 0 1048 70 10000 0.5 0 22:38 19.01.2020
493 Clear 0 1048 70 10000 0.5 0 22:20 19.01.2020
494 Clear 0 1048 70 10000 0.5 0 21:56 19.01.2020
495 Clear 1 1048 70 10000 0.5 0 21:38 19.01.2020
496 Clear 1 1048 70 10000 1.5 310 21:20 19.01.2020
497 Clear 1 1048 70 10000 2.1 330 20:57 19.01.2020
498 Clear 1 1048 80 10000 1.5 340 20:39 19.01.2020
499 Clear 1 1048 80 10000 1.5 340 20:20 19.01.2020
500 Clear 2 1048 86 10000 1.5 330 19:57 19.01.2020
501 Clear 2 1047 73 10000 1.5 0 19:39 19.01.2020
502 Clear 2 1047 73 10000 1.5 0 19:20 19.01.2020
503 Clear 3 1047 73 10000 2.1 360 18:57 19.01.2020
504 Clear 3 1047 75 10000 0.5 0 18:38 19.01.2020
505 Clear 3 1047 75 10000 0.5 0 18:38 19.01.2020
506 Clear 3 1047 75 10000 0.5 0 18:38 19.01.2020
507 Clear 3 1047 75 10000 1.5 0 18:20 19.01.2020
508 Clear 4 1046 86 10000 3.1 360 17:58 19.01.2020
509 Clear 4 1046 86 10000 3.1 360 17:40 19.01.2020
510 Clear 5 1046 80 10000 3.6 360 17:21 19.01.2020
511 Clear 6 1046 80 10000 3.6 360 16:59 19.01.2020
512 Clear 6 1046 65 10000 2.6 340 16:39 19.01.2020
513 Clear 6 1046 65 10000 2.6 340 16:21 19.01.2020
514 Clear 7 1045 65 10000 3.6 320 15:59 19.01.2020
515 Clear 7 1045 65 10000 2.6 340 15:39 19.01.2020
516 Clear 7 1045 65 10000 2.6 340 15:20 19.01.2020
517 Clear 7 1045 65 10000 2.1 340 14:59 19.01.2020
518 Clear 6 1045 65 10000 2.6 310 14:39 19.01.2020
519 Clear 6 1045 65 10000 2.6 310 14:18 19.01.2020
520 Clear 6 1045 65 10000 2.6 310 13:58 19.01.2020
521 Clear 6 1045 70 10000 3.1 300 13:38 19.01.2020
522 Clear 5 1045 70 10000 3.1 300 13:20 19.01.2020
523 Clear 5 1045 65 10000 2.6 300 12:56 19.01.2020
524 Clear 4 1045 65 10000 1.5 0 12:37 19.01.2020
525 Clear 4 1045 65 10000 1.5 0 12:19 19.01.2020
526 Clear 3 1044 65 10000 2.6 300 11:43 19.01.2020
527 Clear 2 1044 73 10000 2.6 290 11:21 19.01.2020
528 Clear 1 1044 73 10000 2.1 270 10:57 19.01.2020
529 Clear 0 1043 80 10000 2.1 260 10:39 19.01.2020
530 Clear 0 1043 80 10000 2.1 260 10:19 19.01.2020
531 Clear 0 1043 80 10000 0.5 0 09:56 19.01.2020
532 Clear -1 1043 80 10000 0.5 0 09:56 19.01.2020
533 Clear -1 1043 80 10000 0.5 0 09:56 19.01.2020
534 Clear -1 1042 80 10000 1 0 09:37 19.01.2020
535 Clear -1 1042 80 10000 1 0 09:19 19.01.2020
536 Clear -1 1042 73 10000 1.5 0 08:54 19.01.2020
537 Clear -1 1041 73 10000 1.5 0 08:30 19.01.2020
538 Clouds -1 1041 73 10000 1.5 0 07:46 19.01.2020
539 Clouds -1 1040 73 10000 1.5 0 07:27 19.01.2020
540 Clouds 0 1040 73 10000 1.5 0 06:54 19.01.2020
541 Clouds 0 1040 73 10000 2.1 300 06:21 19.01.2020
542 Clouds 0 1039 74 10000 1 310 03:52 19.01.2020
543 Clouds 1 1037 92 10000 0.5 330 02:32 19.01.2020
544 Clouds 1 1037 72 10000 2.1 290 01:39 19.01.2020
545 Clouds 1 1036 100 10000 1 290 01:18 19.01.2020
546 Clouds 1 1035 86 10000 1.5 290 00:44 19.01.2020
547 Clouds 1 1035 80 10000 1 290 00:19 19.01.2020
548 Clouds 1 1035 80 10000 1 290 23:45 18.01.2020
549 Clouds 2 1034 72 10000 0.5 320 23:25 18.01.2020
550 Clouds 2 1034 75 10000 3.1 300 22:58 18.01.2020
551 Clouds 2 1034 75 10000 3.1 300 22:40 18.01.2020
552 Clouds 2 1033 75 10000 1.5 0 22:21 18.01.2020
553 Clouds 2 1033 75 10000 2.1 290 21:58 18.01.2020
554 Clouds 2 1033 71 10000 2.6 300 21:38 18.01.2020
555 Clouds 2 1033 71 10000 2.6 300 21:20 18.01.2020
556 Clouds 2 1032 71 10000 2.6 300 20:56 18.01.2020
557 Clouds 2 1032 71 10000 2.1 320 20:38 18.01.2020
558 Clouds 2 1032 74 10000 2.1 320 20:19 18.01.2020
559 Clouds 3 1031 72 10000 2.1 320 19:43 18.01.2020
560 Clouds 3 1031 72 10000 2.6 310 19:24 18.01.2020
561 Clouds 3 1031 72 10000 2.1 300 18:43 18.01.2020
562 Clouds 3 1030 72 10000 2.6 320 18:25 18.01.2020
563 Clouds 3 1030 72 10000 2.6 320 18:25 18.01.2020
564 Clouds 4 1030 72 10000 2.6 330 17:59 18.01.2020
565 Clouds 4 1030 72 10000 2.6 330 17:40 18.01.2020
566 Clear 5 1029 62 10000 3.6 320 17:20 18.01.2020
567 Clear 6 1029 62 10000 3.1 320 16:57 18.01.2020
568 Clouds 6 1029 62 10000 4.1 310 16:38 18.01.2020
569 Clouds 6 1029 62 10000 4.1 310 16:38 18.01.2020
570 Clouds 6 1029 62 10000 4.1 310 16:38 18.01.2020
571 Clouds 6 1029 62 10000 4.1 310 16:19 18.01.2020
572 Clear 7 1029 61 10000 3.6 310 15:47 18.01.2020
573 Clear 7 1029 61 10000 3.6 310 15:47 18.01.2020
574 Clear 7 1028 61 10000 5.1 300 15:26 18.01.2020
575 Clear 7 1028 61 10000 4.6 300 14:59 18.01.2020
576 Clear 7 1028 61 10000 4.6 300 14:40 18.01.2020
577 Clear 7 1028 61 10000 5.7 300 14:19 18.01.2020
578 Clear 6 1028 65 10000 4.6 280 13:57 18.01.2020
579 Clear 6 1028 65 10000 4.1 300 13:36 18.01.2020
580 Clear 6 1028 65 10000 4.1 300 13:18 18.01.2020
581 Clear 6 1028 65 10000 4.1 300 13:18 18.01.2020
582 Clear 5 1027 70 10000 4.1 280 12:41 18.01.2020
583 Clear 5 1027 70 10000 4.1 280 12:22 18.01.2020
584 Clear 4 1027 70 10000 4.1 280 11:57 18.01.2020
585 Clear 4 1027 75 10000 4.1 280 11:38 18.01.2020
586 Clear 3 1027 75 10000 4.1 280 11:19 18.01.2020
587 Clear 2 1026 73 10000 3.1 280 10:43 18.01.2020
588 Rain 1 1026 73 10000 3.1 270 10:21 18.01.2020
589 Rain 1 1026 73 10000 3.6 280 09:55 18.01.2020
590 Rain 1 1025 86 10000 3.1 250 09:37 18.01.2020
591 Clear 1 1025 86 10000 3.6 250 08:59 18.01.2020
592 Clear 1 1025 86 10000 3.6 250 08:41 18.01.2020
593 Clouds 1 1024 70 10000 0.5 350 08:20 18.01.2020
594 Clouds 1 1024 70 10000 0.5 350 08:20 18.01.2020
595 Clouds 1 1025 100 10000 3.1 270 07:56 18.01.2020
596 Clouds 1 1024 70 10000 2.1 270 07:37 18.01.2020
597 Clouds 1 1023 86 10000 2.1 250 06:50 18.01.2020
598 Clouds 1 1023 93 10000 3.6 240 06:22 18.01.2020
599 Clouds 1 1023 93 10000 3.1 240 05:45 18.01.2020
600 Clouds 2 1022 74 10000 1.5 300 04:19 18.01.2020
601 Clouds 2 1021 86 10000 4.6 260 02:33 18.01.2020
602 Clouds 2 1020 93 10000 2.6 270 01:36 18.01.2020
603 Clouds 3 1019 86 10000 3.1 260 00:39 18.01.2020
604 Clouds 3 1019 86 10000 3.1 260 00:39 18.01.2020
605 Clouds 3 1019 86 10000 3.1 260 00:19 18.01.2020
606 Clouds 3 1019 93 10000 3.6 230 23:58 17.01.2020
607 Clouds 3 1018 86 10000 3.1 230 23:38 17.01.2020
608 Clouds 3 1018 86 10000 3.1 230 23:18 17.01.2020
609 Clouds 3 1018 80 10000 4.1 250 22:41 17.01.2020
610 Clouds 3 1018 86 10000 3.6 230 22:19 17.01.2020
611 Clouds 3 1017 86 10000 4.1 230 21:54 17.01.2020
612 Clouds 4 1017 86 10000 5.1 220 21:36 17.01.2020
613 Clouds 4 1017 86 10000 5.1 220 21:18 17.01.2020
614 Clouds 4 1017 93 10000 3.6 220 20:41 17.01.2020
615 Clouds 4 1017 93 10000 3.6 220 20:21 17.01.2020
616 Clouds 4 1017 93 10000 3.6 220 20:21 17.01.2020
617 Clouds 4 1017 86 10000 4.1 220 19:58 17.01.2020
618 Clouds 4 1017 86 10000 4.1 220 19:38 17.01.2020
619 Clouds 4 1017 86 10000 4.1 220 19:20 17.01.2020
620 Clouds 5 1016 86 10000 4.1 240 18:58 17.01.2020
621 Clouds 5 1016 86 10000 4.1 240 18:58 17.01.2020
622 Clouds 5 1016 86 10000 3.6 240 18:39 17.01.2020
623 Clouds 5 1016 86 10000 3.6 240 18:21 17.01.2020
624 Clouds 6 1015 75 10000 4.1 260 17:40 17.01.2020
625 Clouds 6 1015 75 10000 4.1 260 17:22 17.01.2020
626 Clouds 6 1015 75 10000 5.1 260 16:57 17.01.2020
627 Clouds 7 1014 61 10000 6.7 290 16:38 17.01.2020
628 Clouds 7 1014 61 10000 6.7 290 16:19 17.01.2020
629 Clouds 7 1013 61 10000 10.8 270 15:45 17.01.2020
630 Clouds 7 1013 61 10000 7.7 270 15:26 17.01.2020
631 Clouds 7 1012 70 10000 8.2 270 14:45 17.01.2020
632 Clouds 7 1011 70 10000 9.3 260 14:27 17.01.2020
633 Clouds 8 1011 66 10000 10.8 250 13:58 17.01.2020
634 Clouds 8 1011 66 10000 10.8 250 13:58 17.01.2020
635 Clouds 8 1010 81 10000 7.2 240 13:38 17.01.2020
636 Clouds 8 1010 81 10000 7.2 240 13:19 17.01.2020
637 Clouds 8 1009 76 10000 6.2 230 12:44 17.01.2020
638 Clouds 8 1009 76 10000 6.2 230 12:22 17.01.2020
639 Clouds 8 1009 76 10000 5.7 210 11:40 17.01.2020
640 Rain 8 1009 81 10000 4.6 200 11:19 17.01.2020
641 Clouds 8 1009 100 10000 5.1 180 10:45 17.01.2020
642 Clouds 8 1009 100 10000 5.1 180 10:23 17.01.2020
643 Clouds 8 1008 93 10000 2.6 200 09:59 17.01.2020
644 Clouds 8 1008 93 10000 2.6 200 09:59 17.01.2020
645 Clouds 8 1009 93 10000 5.1 200 09:41 17.01.2020
646 Clouds 8 1009 93 10000 5.1 200 09:20 17.01.2020
647 Rain 8 1008 93 10000 4.6 210 08:46 17.01.2020
648 Rain 8 1009 87 10000 6.7 210 08:25 17.01.2020
649 Rain 8 1009 87 10000 7.7 220 07:56 17.01.2020
650 Rain 8 1008 93 2200 8.2 240 07:36 17.01.2020
651 Rain 9 1008 93 2200 8.2 240 07:18 17.01.2020
652 Rain 9 1008 93 10000 5.1 190 06:43 17.01.2020
653 Clouds 9 1009 87 10000 3.1 200 05:59 17.01.2020
654 Rain 10 1009 92 0 0.89 182 03:44 17.01.2020
655 Rain 10 1009 92 0 1.34 193 02:55 17.01.2020
656 Rain 10 1013 84 0 0.89 189 02:28 17.01.2020
657 Rain 10 1009 92 0 1.79 170 01:32 17.01.2020
658 Rain 10 1013 84 0 0.89 314 00:58 17.01.2020
659 Rain 10 1010 92 0 3.13 193 00:29 17.01.2020
660 Rain 10 1010 93 10000 10.8 190 23:54 16.01.2020
661 Rain 10 1010 93 10000 10.8 190 23:36 16.01.2020
662 Rain 11 1010 87 7000 7.2 200 23:18 16.01.2020
663 Rain 11 1010 93 10000 10.8 190 22:40 16.01.2020
664 Rain 11 1010 81 10000 6.2 200 22:21 16.01.2020
665 Rain 11 1010 81 10000 5.1 190 21:56 16.01.2020
666 Rain 11 1010 87 10000 10.8 180 21:37 16.01.2020
667 Rain 11 1010 87 10000 10.8 180 21:18 16.01.2020
668 Rain 11 1009 87 5000 7.2 200 20:56 16.01.2020
669 Rain 11 1010 87 10000 11.8 170 20:37 16.01.2020
670 Rain 11 1010 71 10000 6.2 180 20:18 16.01.2020
671 Rain 11 1010 76 10000 11.3 170 19:54 16.01.2020
672 Rain 11 1010 76 10000 11.3 170 19:54 16.01.2020
673 Rain 11 1010 66 10000 7.2 180 19:36 16.01.2020
674 Rain 11 1010 66 10000 7.2 180 19:18 16.01.2020
675 Rain 11 1011 76 10000 11.8 170 18:54 16.01.2020
676 Clouds 11 1011 76 10000 11.3 170 18:36 16.01.2020
677 Clouds 11 1011 76 10000 11.3 170 18:18 16.01.2020
678 Rain 11 1011 76 10000 10.3 180 17:41 16.01.2020
679 Rain 11 1011 76 10000 10.3 180 17:21 16.01.2020
680 Rain 11 1011 71 10000 6.2 180 16:57 16.01.2020
681 Rain 11 1011 71 10000 7.2 180 16:38 16.01.2020
682 Rain 11 1011 71 10000 7.2 180 16:19 16.01.2020
683 Clouds 11 1011 76 10000 6.2 180 15:44 16.01.2020
684 Rain 10 1012 76 10000 5.7 170 15:22 16.01.2020
685 Clouds 10 1012 81 10000 6.7 170 14:56 16.01.2020
686 Clouds 10 1013 87 10000 12.3 160 14:37 16.01.2020
687 Clouds 10 1013 87 10000 12.3 160 14:19 16.01.2020
688 Clouds 10 1015 76 10000 5.7 160 13:44 16.01.2020
689 Clouds 10 1015 76 10000 5.7 150 13:25 16.01.2020
690 Clouds 9 1016 81 10000 5.7 160 12:46 16.01.2020
691 Clouds 9 1017 76 10000 5.1 160 12:28 16.01.2020
692 Clouds 9 1017 76 10000 5.1 180 11:58 16.01.2020
693 Clouds 9 1017 76 10000 3.6 160 11:39 16.01.2020
694 Clouds 9 1017 76 10000 3.6 160 11:21 16.01.2020
695 Clouds 8 1018 87 10000 3.6 140 10:40 16.01.2020
696 Clouds 8 1018 87 10000 3.6 140 10:22 16.01.2020
697 Clouds 7 1018 87 10000 4.1 140 09:59 16.01.2020
698 Clouds 7 1018 87 10000 4.1 140 09:41 16.01.2020
699 Clouds 7 1018 93 10000 4.1 130 09:23 16.01.2020
700 Clouds 7 1018 87 10000 3.6 120 08:55 16.01.2020
701 Clouds 6 1018 87 10000 3.6 130 08:36 16.01.2020
702 Clouds 6 1017 87 10000 3.6 170 07:59 16.01.2020
703 Clouds 6 1018 93 10000 3.1 150 07:41 16.01.2020
704 Clouds 6 1018 93 10000 3.1 150 07:23 16.01.2020
705 Clouds 6 1019 93 10000 3.1 0 06:46 16.01.2020
706 Clouds 6 1019 87 10000 3.1 150 06:28 16.01.2020
707 Clouds 6 1020 81 10000 3.1 170 05:46 16.01.2020
708 Clouds 6 1019 93 10000 3.1 190 04:46 16.01.2020
709 Clouds 7 1019 87 10000 2.6 170 03:29 16.01.2020
710 Clouds 6 1019 81 10000 3.1 170 02:45 16.01.2020
711 Clouds 6 1018 81 10000 3.6 210 01:32 16.01.2020
712 Clouds 6 1019 81 10000 4.1 210 00:43 16.01.2020
713 Clouds 6 1018 75 10000 3.6 210 00:23 16.01.2020
714 Clouds 6 1018 87 10000 5.7 190 23:44 15.01.2020
715 Clouds 6 1018 87 10000 5.7 200 23:22 15.01.2020
716 Clouds 6 1018 87 10000 5.7 200 23:22 15.01.2020
717 Clouds 6 1018 87 10000 5.7 200 23:21 15.01.2020
718 Clouds 6 1017 75 10000 3.1 210 22:56 15.01.2020
719 Clouds 6 1017 75 10000 3.6 210 22:38 15.01.2020
720 Clouds 6 1017 81 10000 6.2 210 22:18 15.01.2020
721 Clouds 6 1017 75 10000 3.1 220 21:56 15.01.2020
722 Clouds 6 1016 87 10000 6.7 210 21:36 15.01.2020
723 Clouds 6 1016 87 10000 6.7 210 21:18 15.01.2020
724 Clouds 6 1016 87 10000 5.7 210 20:55 15.01.2020
725 Clouds 6 1015 87 10000 5.7 210 20:37 15.01.2020
726 Clouds 6 1015 87 10000 5.7 210 20:18 15.01.2020
727 Clouds 7 1015 87 10000 5.7 210 19:54 15.01.2020
728 Clouds 7 1014 81 10000 5.1 210 19:36 15.01.2020
729 Clouds 7 1014 81 10000 5.1 210 19:18 15.01.2020
730 Clouds 7 1013 81 10000 5.7 220 18:55 15.01.2020
731 Clouds 7 1013 87 10000 5.1 210 18:37 15.01.2020
732 Clouds 7 1013 87 10000 5.1 210 18:19 15.01.2020
733 Clouds 8 1011 87 10000 5.1 220 17:41 15.01.2020
734 Clouds 8 1011 87 10000 5.1 220 17:22 15.01.2020
735 Rain 8 1010 71 10000 5.7 240 16:59 15.01.2020
736 Rain 8 1009 71 10000 6.2 240 16:38 15.01.2020
737 Rain 9 1009 71 10000 6.2 240 16:20 15.01.2020
738 Rain 9 1009 71 10000 6.2 240 16:20 15.01.2020
739 Rain 9 1009 71 10000 7.7 230 15:43 15.01.2020
740 Clouds 9 1008 76 10000 5.7 240 15:21 15.01.2020
741 Rain 9 1008 76 10000 5.7 240 14:58 15.01.2020
742 Rain 8 1007 76 10000 5.7 240 14:39 15.01.2020
743 Rain 8 1007 76 10000 5.7 240 14:18 15.01.2020
744 Rain 8 1007 76 10000 5.7 240 14:18 15.01.2020
745 Rain 8 1006 81 10000 3.6 220 13:45 15.01.2020
746 Rain 7 1006 81 10000 3.6 220 13:26 15.01.2020
747 Clouds 7 1006 81 10000 3.1 210 12:58 15.01.2020
748 Clouds 7 1006 81 10000 3.1 210 12:39 15.01.2020
749 Rain 7 1005 81 10000 4.1 210 12:19 15.01.2020
750 Rain 6 1005 81 10000 3.6 210 11:56 15.01.2020
751 Rain 6 1005 81 10000 4.1 240 11:37 15.01.2020
752 Rain 6 1004 87 10000 3.6 200 11:19 15.01.2020
753 Rain 6 1004 93 8000 4.1 250 10:43 15.01.2020
754 Rain 6 1004 93 5000 3.6 260 10:25 15.01.2020
755 Rain 7 1003 87 10000 5.7 260 09:44 15.01.2020
756 Rain 7 1002 81 10000 5.7 270 09:23 15.01.2020
757 Rain 7 1002 93 9000 2.6 260 08:56 15.01.2020
758 Rain 7 1001 93 7000 3.6 260 08:38 15.01.2020
759 Rain 7 1001 93 7000 3.6 260 08:19 15.01.2020
760 Rain 8 1001 93 4000 3.1 250 07:51 15.01.2020
761 Drizzle 8 1000 93 3700 2.1 230 07:31 15.01.2020
762 Rain 8 1000 87 9000 2.6 250 06:45 15.01.2020
763 Rain 8 1000 93 4100 5.1 270 06:20 15.01.2020
764 Rain 10 998 82 10000 8.7 210 04:42 15.01.2020
765 Rain 12 997 82 7000 10.3 210 02:38 15.01.2020
766 Rain 12 997 82 8000 11.8 220 01:28 15.01.2020
767 Rain 11 997 82 10000 9.3 210 00:46 15.01.2020
768 Rain 11 997 82 6000 9.8 210 00:27 15.01.2020
769 Rain 12 996 82 10000 9.8 220 23:57 14.01.2020
770 Rain 12 996 82 6000 8.7 220 23:38 14.01.2020
771 Rain 12 997 93 3000 16.5 210 23:19 14.01.2020
772 Rain 12 996 87 5000 9.3 220 22:41 14.01.2020
773 Rain 12 996 87 5000 9.3 220 22:19 14.01.2020
774 Rain 12 995 87 6000 10.8 210 21:59 14.01.2020
775 Rain 12 995 87 6000 11.3 210 21:40 14.01.2020
776 Rain 12 995 87 6000 11.3 210 21:22 14.01.2020
777 Rain 12 995 87 6000 10.3 210 20:59 14.01.2020
778 Rain 12 995 87 6000 10.3 210 20:41 14.01.2020
779 Drizzle 12 995 100 2500 16.5 200 20:21 14.01.2020
780 Drizzle 12 995 100 2500 16.5 200 19:56 14.01.2020
781 Drizzle 12 995 100 2500 16.5 200 19:38 14.01.2020
782 Drizzle 12 995 100 2500 16.5 200 19:19 14.01.2020
783 Drizzle 12 995 100 2500 14.4 200 18:56 14.01.2020
784 Drizzle 12 995 93 2500 15.4 200 18:37 14.01.2020
785 Drizzle 12 995 93 2500 15.4 200 18:19 14.01.2020
786 Drizzle 12 995 93 2500 15.4 200 18:19 14.01.2020
787 Drizzle 12 995 93 2500 15.4 200 17:39 14.01.2020
788 Drizzle 12 992 93 4500 9.8 220 17:19 14.01.2020
789 Drizzle 12 992 93 5000 9.8 220 16:56 14.01.2020
790 Rain 13 992 93 5000 9.8 220 16:38 14.01.2020
791 Rain 13 992 93 5000 9.8 220 16:20 14.01.2020
792 Rain 12 992 93 10000 10.3 220 15:54 14.01.2020
793 Rain 12 993 82 10000 11.3 210 15:36 14.01.2020
794 Rain 12 994 87 7000 8.7 200 15:18 14.01.2020
795 Drizzle 12 994 87 4900 5.7 190 14:41 14.01.2020
796 Drizzle 11 994 87 4900 5.7 190 14:20 14.01.2020
797 Rain 10 994 93 9000 7.7 200 13:42 14.01.2020
798 Rain 10 996 81 10000 6.2 200 13:20 14.01.2020
799 Rain 10 997 81 10000 7.2 200 12:59 14.01.2020
800 Rain 10 998 81 10000 4.6 200 12:40 14.01.2020
801 Rain 10 998 81 10000 4.6 200 12:20 14.01.2020
802 Rain 9 999 93 10000 8.7 200 11:42 14.01.2020
803 Rain 9 999 93 10000 8.7 200 11:23 14.01.2020
804 Rain 9 999 93 10000 8.7 200 11:23 14.01.2020
805 Clouds 9 998 81 10000 5.1 200 10:58 14.01.2020
806 Clouds 9 999 81 10000 4.1 200 10:39 14.01.2020
807 Clouds 8 999 81 10000 4.1 200 10:20 14.01.2020
808 -273 0 0 0 0 0 09:57 14.01.2020
809 Rain 8 999 81 10000 4.1 210 09:39 14.01.2020
810 Rain 8 999 81 10000 4.1 210 09:20 14.01.2020
811 Clouds 7 999 81 10000 3.6 210 08:46 14.01.2020
812 Clouds 7 999 81 10000 4.1 220 08:24 14.01.2020
813 Clouds 7 999 81 10000 4.6 210 07:53 14.01.2020
814 Clouds 7 999 81 10000 3.6 220 07:33 14.01.2020
815 Clouds 7 998 81 10000 5.1 230 06:54 14.01.2020
816 Clouds 7 998 81 10000 4.1 230 06:27 14.01.2020
817 Clouds 8 997 87 10000 4.1 220 05:25 14.01.2020
818 Clouds 7 997 81 10000 3.1 230 03:52 14.01.2020
819 Clouds 7 997 81 10000 4.6 230 02:43 14.01.2020
820 Clouds 7 997 81 10000 4.6 230 01:53 14.01.2020
821 Rain 7 997 93 10000 7.7 250 00:51 14.01.2020
822 Drizzle 7 997 93 3800 7.2 260 00:33 14.01.2020
823 Drizzle 7 997 93 3800 7.2 260 00:33 14.01.2020
824 Rain 8 996 87 6000 9.3 260 23:55 13.01.2020
825 Rain 8 996 93 8000 15.9 200 23:37 13.01.2020
826 Rain 8 996 93 8000 15.9 200 23:18 13.01.2020
827 Rain 9 995 81 10000 11.8 200 22:42 13.01.2020
828 Rain 9 995 81 10000 11.8 200 22:21 13.01.2020
829 Rain 10 996 81 9000 11.8 200 21:57 13.01.2020
830 Rain 10 996 81 10000 10.3 210 21:38 13.01.2020
831 Rain 10 996 81 10000 10.3 210 21:19 13.01.2020
832 Drizzle 10 995 87 6000 10.8 210 20:59 13.01.2020
833 Rain 10 998 93 10000 15.9 190 20:41 13.01.2020
834 Rain 10 998 93 10000 15.9 190 20:22 13.01.2020
835 Rain 10 998 93 10000 15.9 190 20:22 13.01.2020
836 Rain 10 998 81 10000 8.7 210 19:59 13.01.2020
837 Rain 10 998 81 10000 8.7 210 19:40 13.01.2020
838 Rain 10 999 81 9000 9.8 210 19:20 13.01.2020
839 Clouds 10 999 87 10000 13.4 200 18:56 13.01.2020
840 Clouds 10 1000 76 10000 9.3 210 18:37 13.01.2020
841 Rain 10 1000 76 10000 9.3 210 18:19 13.01.2020
842 Rain 9 1001 76 10000 7.2 200 17:44 13.01.2020
843 Drizzle 9 1002 81 3600 5.7 180 17:25 13.01.2020
844 Drizzle 9 1001 87 4500 8.2 210 16:58 13.01.2020
845 Rain 9 1002 92 0 7.66 195 16:38 13.01.2020
846 Rain 9 1002 90 0 7.66 195 16:20 13.01.2020
847 Rain 9 1003 85 0 7.66 195 15:54 13.01.2020
848 Rain 9 1004 82 0 7.66 195 15:36 13.01.2020
849 Rain 9 1013 68 0 1.79 108 15:18 13.01.2020
850 Rain 9 1005 79 0 7.15 208 14:40 13.01.2020
851 Clouds 9 1007 84 0 7.28 196 14:22 13.01.2020
852 Clouds 9 1007 84 0 7.28 196 13:56 13.01.2020
853 Clouds 9 1008 83 0 7.28 196 13:38 13.01.2020
854 Clouds 9 1009 82 0 7.28 196 13:20 13.01.2020
855 Clouds 9 1009 82 0 7.28 196 13:20 13.01.2020
856 Clouds 9 1012 76 10000 4.6 0 12:43 13.01.2020
857 Clouds 8 1011 81 10000 6.2 190 12:23 13.01.2020
858 Clouds 8 1012 76 10000 4.6 0 11:59 13.01.2020
859 Clouds 8 1012 76 10000 4.6 190 11:39 13.01.2020
860 Clouds 8 1012 93 10000 8.7 180 11:19 13.01.2020
861 Clouds 8 1012 93 10000 5.1 190 10:56 13.01.2020
862 Clouds 8 1013 81 10000 3.6 0 10:38 13.01.2020
863 Clouds 7 1013 93 10000 7.2 180 10:20 13.01.2020
864 Rain 7 1014 93 10000 6.7 190 09:55 13.01.2020
865 Rain 7 1014 100 9000 6.7 180 09:37 13.01.2020
866 Rain 7 1014 100 9000 6.7 180 09:19 13.01.2020
867 Clouds 7 1015 93 10000 5.7 180 08:39 13.01.2020
868 Clouds 7 1015 93 10000 5.7 180 08:20 13.01.2020
869 Clouds 7 1015 93 10000 5.7 180 08:20 13.01.2020
870 Rain 6 1015 87 10000 4.1 210 07:46 13.01.2020
871 Rain 6 1015 87 10000 4.1 210 07:27 13.01.2020
872 Rain 6 1015 93 10000 3.6 220 06:40 13.01.2020
873 Rain 6 1017 87 10000 3.1 220 06:19 13.01.2020
874 Clouds 6 1017 81 10000 4.1 210 05:20 13.01.2020
875 Rain 6 1018 81 10000 3.1 200 03:52 13.01.2020
876 -273 0 0 0 0 0 03:22 13.01.2020
877 Clouds 6 1019 87 10000 2.6 230 02:38 13.01.2020
878 Clouds 5 1019 87 10000 2.6 230 02:18 13.01.2020
879 Clouds 5 1020 81 10000 2.6 230 00:59 13.01.2020
880 Clouds 5 1020 86 10000 3.1 230 00:40 13.01.2020
881 Clouds 5 1020 81 10000 2.6 230 00:21 13.01.2020
882 Clouds 5 1020 81 10000 2.6 230 23:42 12.01.2020
883 Clouds 5 1020 93 10000 3.6 210 23:23 12.01.2020
884 Clear 5 1021 93 10000 4.1 210 22:57 12.01.2020
885 Clouds 6 1021 87 10000 4.1 200 22:39 12.01.2020
886 Clouds 6 1021 87 10000 4.1 200 22:21 12.01.2020
887 Clouds 6 1021 87 10000 4.1 210 21:55 12.01.2020
888 Clouds 6 1021 87 10000 4.1 210 21:55 12.01.2020
889 Clouds 6 1021 87 10000 4.6 210 21:37 12.01.2020
890 Clouds 6 1021 87 10000 4.6 210 21:19 12.01.2020
891 Clouds 6 1020 81 10000 3.1 230 20:56 12.01.2020
892 Clear 6 1021 87 10000 3.6 220 20:37 12.01.2020
893 Clouds 7 1021 87 10000 3.6 220 20:19 12.01.2020
894 Clouds 7 1020 81 10000 3.1 230 19:55 12.01.2020
895 Clouds 7 1020 81 10000 3.6 240 19:37 12.01.2020
896 Clouds 7 1020 70 10000 5.7 250 19:18 12.01.2020
897 Clouds 7 1020 70 10000 5.7 250 19:18 12.01.2020
898 Clouds 8 1020 75 10000 4.1 250 18:57 12.01.2020
899 Clouds 8 1020 75 10000 5.1 250 18:38 12.01.2020
900 Clouds 8 1020 75 10000 5.1 250 18:20 12.01.2020
901 Clouds 9 1020 66 10000 6.2 260 17:42 12.01.2020
902 Clouds 9 1019 61 10000 7.7 260 17:22 12.01.2020
903 Clouds 9 1019 70 10000 5.7 270 16:59 12.01.2020
904 Clouds 10 1018 62 10000 10.3 260 16:39 12.01.2020
905 Clouds 10 1018 62 10000 10.3 260 16:20 12.01.2020
906 Clouds 10 1018 66 10000 8.2 260 15:57 12.01.2020
907 Clouds 10 1018 66 10000 9.8 270 15:38 12.01.2020
908 Clouds 11 1018 66 10000 9.8 270 15:20 12.01.2020
909 Clouds 11 1017 66 10000 6.2 260 14:43 12.01.2020
910 Clouds 11 1017 66 10000 6.2 260 14:43 12.01.2020
911 Clouds 11 1017 66 10000 8.7 250 14:24 12.01.2020
912 Clouds 11 1017 66 10000 8.7 260 13:57 12.01.2020
913 Clouds 11 1017 66 10000 8.7 260 13:57 12.01.2020
914 Clouds 11 1017 66 10000 8.2 250 13:39 12.01.2020
915 Clouds 11 1017 66 10000 8.2 250 13:20 12.01.2020
916 Clouds 11 1017 66 10000 9.3 250 12:57 12.01.2020
917 Clouds 11 1017 66 10000 9.3 250 12:38 12.01.2020
918 Clouds 11 1017 66 10000 9.3 250 12:19 12.01.2020
919 Clouds 11 1016 76 10000 7.7 250 11:42 12.01.2020
920 Clouds 10 1017 93 10000 6.7 220 11:22 12.01.2020
921 Rain 10 1016 76 10000 7.2 240 10:58 12.01.2020
922 Clouds 10 1016 87 10000 6.7 230 10:40 12.01.2020
923 Clouds 10 1016 93 10000 7.7 270 10:21 12.01.2020
924 Clouds 10 1015 81 10000 7.2 240 09:44 12.01.2020
925 Clouds 10 1015 81 10000 7.2 240 09:24 12.01.2020
926 Rain 10 1015 87 10000 5.1 230 08:57 12.01.2020
927 Clouds 10 1015 87 10000 5.1 230 08:38 12.01.2020
928 Clouds 10 1015 87 10000 5.1 230 08:19 12.01.2020
929 Drizzle 10 1015 87 4400 6.2 220 07:38 12.01.2020
930 Rain 10 1015 87 10000 7.7 220 07:19 12.01.2020
931 Rain 10 1016 87 9000 6.2 230 06:42 12.01.2020
932 Rain 9 1016 87 9000 6.2 230 06:18 12.01.2020
933 Rain 9 1016 87 10000 6.7 220 05:21 12.01.2020
934 Drizzle 9 1018 87 3200 6.2 220 03:45 12.01.2020
935 Rain 9 1017 93 10000 6.7 220 03:22 12.01.2020
936 Clouds 9 1018 87 10000 7.7 230 02:30 12.01.2020
937 Clouds 10 1018 76 10000 7.2 220 01:42 12.01.2020
938 Clouds 10 1019 76 10000 6.2 220 01:22 12.01.2020
939 Clouds 10 1020 76 10000 7.2 210 00:40 12.01.2020
940 Clouds 10 1020 76 10000 7.2 210 00:20 12.01.2020
941 Clouds 10 1020 76 10000 6.7 230 23:42 11.01.2020
942 Clouds 10 1020 76 10000 7.7 230 23:19 11.01.2020
943 Clouds 10 1020 76 10000 6.7 220 22:57 11.01.2020
944 Clouds 10 1021 76 10000 7.7 220 22:39 11.01.2020
945 Clouds 10 1021 76 10000 7.7 220 22:20 11.01.2020
946 Clouds 10 1021 76 10000 7.7 220 21:58 11.01.2020
947 Clouds 10 1021 76 10000 7.7 220 21:39 11.01.2020
948 Clouds 10 1021 76 10000 6.2 230 21:18 11.01.2020
949 Clouds 10 1021 76 10000 6.2 220 20:40 11.01.2020
950 Clouds 10 1021 76 10000 5.7 220 20:22 11.01.2020
951 Clouds 10 1022 76 10000 6.7 220 19:58 11.01.2020
952 Clouds 10 1022 76 10000 6.7 220 19:39 11.01.2020
953 Clouds 10 1022 76 10000 5.7 230 19:21 11.01.2020
954 Clouds 10 1022 76 10000 7.2 230 18:58 11.01.2020
955 Clouds 10 1022 76 10000 5.7 230 18:38 11.01.2020
956 Clouds 10 1022 76 10000 5.7 230 18:19 11.01.2020
957 Clouds 10 1022 76 10000 5.7 210 17:57 11.01.2020
958 Clouds 10 1022 76 10000 5.7 210 17:57 11.01.2020
959 Clouds 10 1022 76 10000 6.7 210 17:39 11.01.2020
960 Clouds 10 1022 76 10000 6.7 210 17:19 11.01.2020
961 Clouds 10 1022 76 10000 8.2 210 16:45 11.01.2020
962 Clouds 10 1023 76 10000 6.7 210 16:27 11.01.2020
963 Clouds 10 1023 76 10000 6.7 220 15:58 11.01.2020
964 Clouds 10 1023 76 10000 7.7 230 15:40 11.01.2020
965 Clouds 10 1023 76 10000 7.7 230 15:22 11.01.2020
966 Clouds 10 1023 76 10000 6.7 230 14:57 11.01.2020
967 Clouds 10 1023 76 10000 6.2 220 14:38 11.01.2020
968 Clouds 10 1023 76 10000 6.2 220 14:20 11.01.2020
969 Clouds 10 1024 76 10000 6.2 230 13:40 11.01.2020
970 Clouds 10 1024 76 10000 6.2 230 13:20 11.01.2020
971 Clouds 10 1025 76 10000 6.7 230 12:58 11.01.2020
972 Drizzle 9 1025 93 8000 8.7 210 12:40 11.01.2020
973 Drizzle 9 1025 93 8000 8.7 210 12:21 11.01.2020
974 Clouds 9 1025 81 10000 5.7 220 11:48 11.01.2020
975 Clouds 9 1025 76 10000 6.2 220 11:26 11.01.2020
976 Clouds 9 1026 76 10000 4.6 220 10:51 11.01.2020
977 Clouds 9 1026 76 10000 6.2 0 10:30 11.01.2020
978 Clouds 9 1025 76 10000 5.7 210 09:58 11.01.2020
979 Clouds 9 1025 76 10000 5.7 210 09:38 11.01.2020
980 Clouds 9 1025 76 10000 5.7 210 09:20 11.01.2020
981 Clouds 9 1026 76 10000 6.2 210 08:42 11.01.2020
982 Clouds 9 1026 76 10000 6.2 210 08:22 11.01.2020
983 Clouds 9 1026 76 10000 5.1 220 07:44 11.01.2020
984 Clouds 8 1026 81 10000 4.6 210 07:25 11.01.2020
985 Clouds 8 1026 76 10000 6.2 210 06:51 11.01.2020
986 Clouds 8 1027 76 10000 4.1 220 05:50 11.01.2020
987 Clouds 7 1027 70 10000 5.7 210 04:47 11.01.2020
988 Clouds 7 1028 75 10000 5.1 200 04:29 11.01.2020
989 Clouds 6 1029 75 10000 4.6 210 02:58 11.01.2020
990 Clouds 6 1029 75 10000 4.6 210 02:38 11.01.2020
991 Clouds 5 1029 75 10000 4.6 210 01:43 11.01.2020
992 Clouds 5 1029 75 10000 4.6 210 01:20 11.01.2020
993 Clouds 5 1029 81 10000 4.6 200 00:43 11.01.2020
994 Clouds 5 1029 75 10000 3.6 200 00:18 11.01.2020
995 Clouds 4 1030 75 10000 2.6 220 23:40 10.01.2020
996 Clouds 4 1030 75 10000 2.6 220 23:40 10.01.2020
997 Clouds 4 1030 75 10000 2.6 220 23:22 10.01.2020
998 Clouds 4 1030 75 10000 3.1 230 22:59 10.01.2020
999 Clouds 4 1030 75 10000 2.6 230 22:40 10.01.2020
1000 Clouds 4 1030 75 10000 2.6 230 22:20 10.01.2020
1001 Clouds 4 1029 75 10000 2.6 230 21:57 10.01.2020
1002 Clouds 4 1029 80 10000 3.6 200 21:37 10.01.2020
1003 Clouds 4 1029 80 10000 3.6 200 21:19 10.01.2020
1004 Clouds 4 1029 75 10000 3.1 220 20:43 10.01.2020
1005 Clouds 4 1029 75 10000 3.1 220 20:25 10.01.2020
1006 Clouds 4 1029 75 10000 3.1 220 20:25 10.01.2020
1007 Clouds 4 1029 75 10000 3.1 220 19:59 10.01.2020
1008 Clouds 5 1029 75 10000 2.6 230 19:38 10.01.2020
1009 Clouds 5 1029 75 10000 2.6 230 19:20 10.01.2020
1010 Clouds 5 1028 75 10000 2.1 180 18:44 10.01.2020
1011 Clouds 5 1028 75 10000 2.1 180 18:20 10.01.2020
1012 Clouds 6 1028 80 10000 1.5 0 17:58 10.01.2020
1013 Clouds 6 1028 70 10000 2.6 260 17:39 10.01.2020
1014 Clouds 6 1028 65 10000 2.1 290 17:21 10.01.2020
1015 Clear 7 1027 65 10000 3.6 290 16:59 10.01.2020
1016 Clear 7 1027 65 10000 2.6 290 16:40 10.01.2020
1017 Clear 7 1027 65 10000 2.6 290 16:21 10.01.2020
1018 Clouds 7 1027 65 10000 3.6 290 15:56 10.01.2020
1019 Clear 7 1027 65 10000 3.1 280 15:37 10.01.2020
1020 Clear 7 1027 65 10000 3.1 280 15:19 10.01.2020
1021 Clouds 7 1026 65 10000 2.1 290 14:56 10.01.2020
1022 Clouds 7 1026 65 10000 3.1 290 14:38 10.01.2020
1023 Clouds 7 1026 65 10000 3.1 290 14:19 10.01.2020
1024 Clouds 7 1026 70 10000 5.1 290 13:45 10.01.2020
1025 Clouds 7 1026 70 10000 5.1 290 13:27 10.01.2020
1026 Clouds 7 1026 70 10000 5.7 280 12:59 10.01.2020
1027 Clouds 7 1025 70 10000 6.2 290 12:40 10.01.2020
1028 Clouds 6 1025 70 10000 6.2 290 12:21 10.01.2020
1029 Clouds 6 1024 70 10000 5.1 290 11:58 10.01.2020
1030 Clouds 6 1024 75 10000 5.1 290 11:40 10.01.2020
1031 Clouds 6 1024 75 10000 5.1 290 11:19 10.01.2020
1032 Clouds 6 1023 70 10000 4.6 290 10:59 10.01.2020
1033 Clouds 6 1022 70 10000 4.6 290 10:38 10.01.2020
1034 Clouds 6 1022 80 10000 4.1 290 10:19 10.01.2020
1035 Clouds 5 1021 86 10000 4.6 290 09:46 10.01.2020
1036 Clouds 5 1021 80 10000 4.6 310 09:26 10.01.2020
1037 Clouds 5 1020 75 10000 5.7 300 08:59 10.01.2020
1038 Clouds 5 1019 75 10000 5.7 300 08:38 10.01.2020
1039 Clouds 5 1019 75 10000 5.7 300 08:20 10.01.2020
1040 Clouds 5 1019 75 10000 5.7 310 07:41 10.01.2020
1041 Clouds 5 1018 81 10000 6.2 310 07:22 10.01.2020
1042 Clouds 5 1017 81 10000 5.1 300 06:43 10.01.2020
1043 Clouds 5 1016 81 10000 4.1 320 06:24 10.01.2020
1044 Clouds 6 1015 81 10000 4.6 310 05:33 10.01.2020
1045 Clouds 6 1012 87 10000 5.1 310 03:34 10.01.2020
1046 Clouds 6 1011 87 10000 6.2 310 02:57 10.01.2020
1047 Clouds 6 1010 87 10000 5.7 300 02:37 10.01.2020
1048 Clouds 6 1008 87 10000 5.7 310 01:38 10.01.2020
1049 Rain 6 1007 81 10000 5.1 240 00:58 10.01.2020
1050 Clouds 6 1006 81 10000 6.7 250 00:38 10.01.2020
1051 Clouds 7 1006 76 10000 8.2 250 23:57 09.01.2020
1052 Clouds 7 1006 87 10000 4.6 220 23:38 09.01.2020
1053 Clouds 7 1006 87 10000 4.6 220 23:20 09.01.2020
1054 Clouds 7 1006 87 10000 6.2 210 22:57 09.01.2020
1055 Clouds 8 1005 87 10000 5.7 200 22:37 09.01.2020
1056 Clouds 8 1005 87 10000 5.7 200 22:18 09.01.2020
1057 Clouds 8 1004 87 10000 3.6 200 21:56 09.01.2020
1058 Clouds 8 1005 93 10000 6.2 210 21:37 09.01.2020
1059 Clouds 8 1005 93 10000 6.2 210 21:37 09.01.2020
1060 Clouds 8 1005 93 10000 6.2 210 21:18 09.01.2020
1061 Clouds 8 1005 87 10000 5.1 210 20:56 09.01.2020
1062 Clouds 8 1005 87 10000 5.1 210 20:38 09.01.2020
1063 Rain 9 1004 87 10000 5.1 230 20:19 09.01.2020
1064 Rain 9 1004 87 10000 5.1 230 20:19 09.01.2020
1065 Clouds 9 1004 87 10000 7.7 220 19:55 09.01.2020
1066 Clouds 9 1004 87 10000 7.7 220 19:36 09.01.2020
1067 Rain 9 1004 93 10000 7.7 210 19:18 09.01.2020
1068 Rain 10 1004 93 10000 7.7 210 18:54 09.01.2020
1069 Rain 10 1004 93 10000 7.7 210 18:54 09.01.2020
1070 Rain 10 1004 93 10000 7.7 210 18:36 09.01.2020
1071 Rain 10 1003 81 10000 4.6 210 18:18 09.01.2020
1072 Rain 11 1003 87 10000 4.1 220 17:41 09.01.2020
1073 Rain 11 1003 93 3500 2.1 140 17:18 09.01.2020
1074 Rain 11 1003 93 3500 2.1 140 17:18 09.01.2020
1075 Rain 11 1004 87 2900 2.6 190 16:47 09.01.2020
1076 Rain 11 1003 87 5000 4.1 200 16:23 09.01.2020
1077 Rain 11 1003 87 5000 4.1 200 16:23 09.01.2020
1078 Rain 12 1004 82 10000 3.6 220 15:56 09.01.2020
1079 Rain 12 1004 82 10000 3.6 220 15:56 09.01.2020
1080 Clouds 12 1004 82 10000 3.6 220 15:38 09.01.2020
1081 Mist 12 1005 93 4000 5.7 200 15:18 09.01.2020
1082 Clouds 12 1005 76 10000 4.6 240 14:41 09.01.2020
1083 Clouds 12 1005 87 10000 6.2 210 14:21 09.01.2020
1084 Clouds 12 1005 87 10000 6.2 210 13:57 09.01.2020
1085 Clouds 12 1006 71 10000 5.7 230 13:39 09.01.2020
1086 Clouds 12 1006 71 10000 7.2 240 13:20 09.01.2020
1087 Clouds 12 1006 71 10000 7.2 240 12:58 09.01.2020
1088 Clouds 12 1006 71 10000 6.7 230 12:38 09.01.2020
1089 Clouds 12 1007 76 10000 7.7 240 12:19 09.01.2020
1090 Clouds 11 1007 87 10000 9.3 220 11:55 09.01.2020
1091 Clouds 11 1007 87 10000 9.3 220 11:37 09.01.2020
1092 Clouds 11 1007 87 10000 8.7 220 11:19 09.01.2020
1093 Clouds 11 1007 87 10000 11.8 210 10:42 09.01.2020
1094 Clouds 11 1007 93 10000 9.8 210 10:22 09.01.2020
1095 Clouds 11 1007 93 10000 10.8 210 09:55 09.01.2020
1096 Clouds 11 1007 93 10000 10.8 210 09:37 09.01.2020
1097 Clouds 11 1007 93 10000 11.3 210 09:18 09.01.2020
1098 Clouds 11 1007 93 10000 11.3 210 08:54 09.01.2020
1099 Clouds 12 1007 82 10000 6.7 230 08:36 09.01.2020
1100 Clouds 12 1007 87 10000 6.7 220 08:18 09.01.2020
1101 Rain 12 1007 87 10000 7.7 210 07:41 09.01.2020
1102 Rain 12 1008 87 10000 6.7 220 07:23 09.01.2020
1103 Rain 12 1008 87 10000 7.2 220 06:38 09.01.2020
1104 Rain 12 1008 87 10000 7.7 210 06:18 09.01.2020
1105 Clouds 12 1009 87 8000 7.7 210 05:43 09.01.2020
1106 Clouds 12 1010 100 8000 7.2 200 04:42 09.01.2020
1107 Rain 11 1011 100 10000 8.2 200 03:30 09.01.2020
1108 Rain 11 1012 93 9000 4.6 180 02:48 09.01.2020
1109 Rain 11 1012 96 0 6.91 210 02:23 09.01.2020
1110 Rain 10 1013 93 4600 4.6 160 01:35 09.01.2020
1111 Clouds 10 1016 93 7000 4.1 140 00:42 09.01.2020
1112 Clouds 10 1016 93 7000 4.1 140 00:42 09.01.2020
1113 Clouds 10 1017 93 8000 3.6 140 00:21 09.01.2020
1114 Clouds 9 1018 87 7000 3.6 150 23:42 08.01.2020
1115 Clouds 9 1018 87 7000 3.6 150 23:42 08.01.2020
1116 Clouds 9 1018 93 8000 3.6 130 23:24 08.01.2020
1117 Drizzle 9 1019 93 8000 4.1 150 22:59 08.01.2020
1118 Drizzle 9 1019 93 8000 4.1 150 22:39 08.01.2020
1119 Mist 9 1020 93 8000 3.1 150 22:20 08.01.2020
1120 Mist 9 1020 93 8000 3.1 150 21:57 08.01.2020
1121 Rain 9 1020 93 3000 3.1 170 21:38 08.01.2020
1122 Mist 9 1021 100 4000 3.6 190 21:19 08.01.2020
1123 Mist 9 1021 100 4000 3.6 190 20:58 08.01.2020
1124 Clouds 10 1021 93 9000 3.1 180 20:38 08.01.2020
1125 Clouds 9 1021 93 9000 2.6 170 20:20 08.01.2020
1126 Clouds 10 1022 87 9000 2.6 210 19:56 08.01.2020
1127 Clouds 10 1022 87 9000 2.6 210 19:56 08.01.2020
1128 Clouds 10 1022 87 9000 2.6 210 19:56 08.01.2020
1129 Clouds 10 1021 81 10000 2.1 170 19:37 08.01.2020
1130 Clouds 10 1021 81 10000 2.1 170 19:37 08.01.2020
1131 Clouds 10 1022 87 8000 2.1 220 19:18 08.01.2020
1132 Clouds 10 1022 87 8000 2.1 220 18:55 08.01.2020
1133 Clouds 10 1022 81 10000 1 220 18:37 08.01.2020
1134 Clouds 10 1023 93 9000 3.1 190 18:18 08.01.2020
1135 Clouds 10 1022 81 10000 1.5 250 17:47 08.01.2020
1136 Clouds 10 1023 93 9000 2.1 230 17:24 08.01.2020
1137 Clouds 11 1022 76 9000 2.6 240 16:57 08.01.2020
1138 Clouds 11 1022 76 9000 2.6 240 16:39 08.01.2020
1139 Clouds 11 1022 76 9000 2.6 240 16:39 08.01.2020
1140 Clouds 11 1022 76 9000 3.1 270 16:19 08.01.2020
1141 Clouds 11 1022 76 9000 4.1 250 15:59 08.01.2020
1142 Clouds 11 1022 76 9000 4.1 250 15:40 08.01.2020
1143 Clouds 11 1022 76 9000 3.6 250 15:20 08.01.2020
1144 Clouds 11 1022 76 9000 3.6 250 14:56 08.01.2020
1145 Clouds 11 1022 76 9000 3.6 250 14:38 08.01.2020
1146 Clouds 11 1022 76 9000 4.1 250 14:19 08.01.2020
1147 Clouds 11 1022 76 9000 4.1 250 13:39 08.01.2020
1148 Clouds 11 1022 76 10000 5.7 250 13:19 08.01.2020
1149 Clouds 11 1023 76 10000 4.6 250 12:42 08.01.2020
1150 Clouds 11 1023 76 10000 5.1 260 12:19 08.01.2020
1151 Clouds 11 1022 76 10000 5.7 250 11:55 08.01.2020
1152 Clouds 11 1022 76 10000 5.7 250 11:37 08.01.2020
1153 Clouds 11 1022 76 10000 6.2 260 11:19 08.01.2020
1154 Clouds 11 1022 76 10000 6.2 260 10:55 08.01.2020
1155 Clouds 11 1022 76 10000 6.2 260 10:37 08.01.2020
1156 Clouds 11 1021 76 10000 5.7 260 10:18 08.01.2020
1157 Clouds 10 1021 81 10000 5.7 250 09:41 08.01.2020
1158 Clouds 11 1021 81 10000 5.7 250 09:19 08.01.2020
1159 Clouds 11 1021 81 10000 5.7 250 08:56 08.01.2020
1160 Clouds 11 1020 82 10000 6.2 250 08:37 08.01.2020
1161 Clouds 11 1021 93 10000 5.1 240 08:19 08.01.2020
1162 Clouds 11 1021 93 10000 5.1 240 08:19 08.01.2020
1163 Clouds 11 1020 93 10000 5.1 230 07:48 08.01.2020
1164 Clouds 11 1020 93 10000 5.1 230 07:29 08.01.2020
1165 Clouds 12 1019 93 10000 5.7 240 06:45 08.01.2020
1166 Clouds 12 1020 100 10000 4.6 240 06:22 08.01.2020
1167 Clouds 12 1019 87 10000 6.2 240 05:41 08.01.2020
1168 Clouds 12 1019 87 10000 6.2 240 04:57 08.01.2020
1169 Clouds 12 1018 87 10000 4.6 240 04:25 08.01.2020
1170 Clouds 12 1018 87 10000 7.2 240 02:45 08.01.2020
1171 Clouds 12 1018 87 10000 7.7 240 02:22 08.01.2020
1172 Clouds 12 1018 100 10000 7.2 230 01:48 08.01.2020
1173 Rain 12 1018 100 7000 6.2 230 01:19 08.01.2020
1174 Clouds 12 1018 87 10000 7.2 230 00:38 08.01.2020
1175 Clouds 12 1018 87 10000 6.7 230 00:20 08.01.2020
1176 Clouds 12 1018 87 10000 7.2 230 23:43 07.01.2020
1177 Clouds 12 1018 87 10000 6.2 240 23:20 07.01.2020
1178 Clouds 12 1018 87 10000 6.2 240 23:20 07.01.2020
1179 Clouds 12 1018 87 10000 6.7 230 22:40 07.01.2020
1180 Clouds 12 1018 87 10000 7.2 230 22:20 07.01.2020
1181 Clouds 12 1018 87 10000 6.2 230 21:57 07.01.2020
1182 Clouds 12 1018 87 10000 6.2 230 21:38 07.01.2020
1183 Clouds 12 1018 87 10000 5.7 230 21:20 07.01.2020
1184 Clouds 12 1018 87 10000 6.2 220 20:56 07.01.2020
1185 Clouds 12 1018 87 10000 6.2 220 20:38 07.01.2020
1186 Clouds 12 1019 87 10000 6.2 220 20:19 07.01.2020
1187 Clouds 12 1019 87 10000 6.2 220 19:55 07.01.2020
1188 Clouds 12 1019 87 10000 5.1 220 19:36 07.01.2020
1189 Clouds 12 1019 87 10000 6.2 220 19:18 07.01.2020
1190 Clouds 11 1019 87 10000 6.2 230 18:55 07.01.2020
1191 Clouds 11 1019 87 10000 6.2 230 18:36 07.01.2020
1192 Clouds 11 1019 87 10000 5.7 210 18:18 07.01.2020
1193 Clouds 11 1019 93 10000 5.7 210 17:40 07.01.2020
1194 Clouds 11 1020 87 10000 5.7 220 17:22 07.01.2020
1195 Clouds 10 1020 87 10000 5.7 220 16:57 07.01.2020
1196 Clouds 10 1020 87 10000 5.7 220 16:38 07.01.2020
1197 Clouds 10 1020 87 10000 5.1 210 16:19 07.01.2020
1198 Clouds 10 1020 81 10000 6.2 210 15:58 07.01.2020
1199 Clouds 11 1021 76 10000 5.7 220 15:40 07.01.2020
1200 Clouds 11 1021 76 10000 5.7 220 15:22 07.01.2020
1201 Clouds 11 1021 76 10000 5.7 220 15:22 07.01.2020
1202 Clouds 11 1022 87 10000 6.7 200 14:55 07.01.2020
1203 Clouds 11 1022 87 10000 6.7 200 14:37 07.01.2020
1204 Clouds 11 1022 71 10000 5.7 220 14:18 07.01.2020
1205 Clouds 11 1022 76 10000 6.2 230 13:39 07.01.2020
1206 Clouds 11 1023 71 10000 4.6 220 13:19 07.01.2020
1207 Clouds 10 1023 76 10000 4.1 220 12:42 07.01.2020
1208 Clouds 10 1023 76 10000 4.6 220 12:21 07.01.2020
1209 Clouds 10 1023 76 10000 4.6 220 11:58 07.01.2020
1210 Clouds 9 1024 81 10000 3.6 220 11:38 07.01.2020
1211 Clouds 9 1024 87 9000 4.1 230 11:20 07.01.2020
1212 Clouds 8 1024 87 9000 3.6 220 10:42 07.01.2020
1213 Clouds 8 1024 87 9000 3.6 220 10:42 07.01.2020
1214 Clouds 8 1024 87 9000 3.1 210 10:24 07.01.2020
1215 Clouds 8 1024 87 9000 3.1 210 09:59 07.01.2020
1216 Clouds 7 1024 81 9000 3.1 220 09:38 07.01.2020
1217 Clouds 7 1024 87 9000 3.6 230 09:20 07.01.2020
1218 Clouds 6 1024 87 9000 3.6 230 08:46 07.01.2020
1219 Clouds 6 1024 87 10000 4.1 240 08:26 07.01.2020
1220 Clouds 6 1024 93 9000 4.1 240 07:54 07.01.2020
1221 Clouds 6 1024 93 9000 4.1 240 07:34 07.01.2020
1222 Clouds 5 1024 87 10000 3.6 230 06:54 07.01.2020
1223 Clouds 5 1024 87 10000 3.6 230 06:35 07.01.2020
1224 Clouds 5 1024 87 8000 3.6 230 05:58 07.01.2020
1225 Clouds 5 1024 87 8000 3.6 230 05:38 07.01.2020
1226 Clouds 5 1024 93 8000 3.1 230 03:44 07.01.2020
1227 Rain 6 1024 100 7000 2.6 210 02:25 07.01.2020
1228 Rain 6 1024 93 7000 3.1 260 01:59 07.01.2020
1229 Mist 6 1023 93 7000 2.1 250 01:35 07.01.2020
1230 Clouds 6 1022 87 8000 4.1 240 00:51 07.01.2020
1231 Clouds 6 1021 93 9000 5.1 250 00:20 07.01.2020
1232 Clouds 6 1021 93 9000 5.1 250 23:56 06.01.2020
1233 Clouds 7 1021 93 10000 4.1 250 23:37 06.01.2020
1234 Clouds 7 1021 93 10000 4.6 250 23:19 06.01.2020
1235 Clouds 7 1021 93 10000 5.1 250 22:43 06.01.2020
1236 Clouds 7 1020 100 10000 5.7 260 22:24 06.01.2020
1237 Clouds 7 1020 100 10000 5.7 260 22:24 06.01.2020
1238 Clouds 7 1020 100 10000 5.1 250 21:58 06.01.2020
1239 Clouds 7 1020 100 10000 5.7 260 21:58 06.01.2020
1240 Clouds 7 1020 100 10000 5.1 250 21:39 06.01.2020
1241 Clouds 8 1019 100 10000 5.1 240 21:20 06.01.2020
1242 Clouds 8 1019 100 10000 5.1 240 21:20 06.01.2020
1243 Clouds 8 1019 100 10000 5.1 240 21:20 06.01.2020
1244 Clouds 8 1019 100 10000 5.1 220 20:57 06.01.2020
1245 Clouds 8 1019 100 10000 5.1 220 20:38 06.01.2020
1246 Clouds 8 1019 100 10000 5.1 220 20:38 06.01.2020
1247 Clouds 8 1018 93 10000 5.1 240 20:20 06.01.2020
1248 Rain 8 1018 93 10000 5.1 230 19:56 06.01.2020
1249 Rain 8 1018 93 10000 5.1 230 19:38 06.01.2020
1250 Rain 8 1018 87 10000 5.1 230 19:20 06.01.2020
1251 Rain 8 1017 87 10000 4.6 230 18:48 06.01.2020
1252 Rain 8 1017 81 10000 4.6 220 18:23 06.01.2020
1253 Rain 8 1017 81 10000 4.6 220 17:59 06.01.2020
1254 Rain 8 1018 81 10000 4.6 220 17:38 06.01.2020
1255 Rain 8 1017 87 10000 5.7 220 17:18 06.01.2020
1256 Clouds 8 1017 76 10000 5.1 220 16:46 06.01.2020
1257 Clouds 8 1017 76 10000 5.1 220 16:46 06.01.2020
1258 Clouds 8 1018 70 10000 5.7 220 16:27 06.01.2020
1259 Clouds 8 1018 70 10000 5.7 220 15:59 06.01.2020
1260 Clouds 8 1018 75 10000 5.7 210 15:41 06.01.2020
1261 Clouds 8 1019 70 10000 6.2 220 15:20 06.01.2020
1262 Clouds 8 1019 70 10000 6.2 220 14:58 06.01.2020
1263 Clouds 8 1018 66 10000 6.7 240 14:40 06.01.2020
1264 Clouds 8 1019 70 10000 6.2 230 14:20 06.01.2020
1265 Clouds 8 1019 70 10000 6.2 230 13:57 06.01.2020
1266 Clouds 8 1019 66 10000 6.2 210 13:37 06.01.2020
1267 Clouds 8 1019 70 10000 7.2 220 13:19 06.01.2020
1268 Clouds 7 1020 70 10000 5.1 210 12:43 06.01.2020
1269 Clouds 7 1021 70 10000 6.2 200 12:21 06.01.2020
1270 Clouds 7 1021 70 10000 6.2 200 11:58 06.01.2020
1271 Clouds 7 1021 70 10000 5.1 210 11:39 06.01.2020
1272 Clouds 7 1021 81 10000 8.7 180 11:20 06.01.2020
1273 Clouds 7 1021 75 10000 5.1 200 10:54 06.01.2020
1274 Clouds 7 1021 75 10000 5.1 200 10:36 06.01.2020
1275 Clouds 6 1022 75 10000 4.1 200 10:18 06.01.2020
1276 Clouds 6 1024 75 10000 4.1 220 09:38 06.01.2020
1277 Clouds 6 1024 75 10000 5.7 220 09:19 06.01.2020
1278 Clouds 6 1023 75 10000 5.1 210 08:46 06.01.2020
1279 Clouds 6 1025 70 10000 5.7 230 08:26 06.01.2020
1280 Clouds 6 1025 70 10000 4.6 220 07:53 06.01.2020
1281 Clouds 6 1025 70 10000 4.6 220 07:32 06.01.2020
1282 Clouds 6 1025 75 10000 4.6 220 06:46 06.01.2020
1283 Clouds 6 1026 70 10000 6.2 210 06:23 06.01.2020
1284 Clouds 6 1026 75 10000 5.7 210 05:45 06.01.2020
1285 Clouds 7 1027 75 10000 5.7 220 04:38 06.01.2020
1286 Clouds 7 1027 75 10000 4.6 210 04:19 06.01.2020
1287 Clouds 7 1028 81 10000 4.6 210 02:56 06.01.2020
1288 Clouds 7 1028 87 10000 4.1 190 02:24 06.01.2020
1289 Clouds 7 1029 87 10000 2.1 210 01:45 06.01.2020
1290 Clouds 7 1029 87 10000 2.1 210 01:26 06.01.2020
1291 Clouds 7 1029 87 10000 3.1 210 00:42 06.01.2020
1292 Clouds 7 1029 87 10000 3.6 220 00:23 06.01.2020
1293 Clouds 7 1030 87 10000 4.1 220 23:43 05.01.2020
1294 Clouds 7 1030 87 10000 4.1 220 23:23 05.01.2020
1295 Clouds 7 1030 81 10000 3.1 220 22:58 05.01.2020
1296 Clouds 7 1030 81 10000 3.1 220 22:39 05.01.2020
1297 Clouds 7 1030 81 10000 3.6 230 22:20 05.01.2020
1298 Clouds 7 1030 81 10000 3.1 220 21:55 05.01.2020
1299 Clouds 7 1030 81 10000 3.1 220 21:37 05.01.2020
1300 Clouds 7 1030 81 10000 3.1 220 21:37 05.01.2020
1301 Clouds 7 1031 81 10000 3.6 220 21:19 05.01.2020
1302 Clouds 7 1031 81 10000 3.6 220 20:56 05.01.2020
1303 Clouds 7 1031 81 10000 3.6 220 20:37 05.01.2020
1304 Clouds 7 1031 75 10000 4.6 230 20:19 05.01.2020
1305 Clouds 7 1031 75 10000 4.6 230 19:57 05.01.2020
1306 Clouds 7 1032 87 10000 3.6 220 19:38 05.01.2020
1307 Rain 8 1032 87 10000 4.1 220 19:19 05.01.2020
1308 Clouds 8 1031 75 10000 3.6 230 18:55 05.01.2020
1309 Clouds 8 1031 75 10000 3.6 230 18:37 05.01.2020
1310 Clouds 8 1032 81 10000 3.6 240 18:18 05.01.2020
1311 Clouds 8 1032 81 10000 3.1 230 17:57 05.01.2020
1312 Clouds 8 1032 81 10000 3.1 230 17:38 05.01.2020
1313 Clouds 8 1032 70 10000 5.7 260 17:19 05.01.2020
1314 Clouds 8 1032 70 10000 4.6 250 16:55 05.01.2020
1315 Clouds 8 1032 70 10000 4.6 250 16:37 05.01.2020
1316 Clouds 8 1032 70 10000 4.1 260 16:19 05.01.2020
1317 Clouds 8 1032 70 10000 4.1 260 16:19 05.01.2020
1318 Clouds 8 1032 70 10000 4.1 260 16:19 05.01.2020
1319 Clouds 8 1032 70 10000 3.6 250 15:37 05.01.2020
1320 Clouds 8 1033 70 10000 5.7 260 15:18 05.01.2020
1321 Clouds 8 1033 70 10000 6.7 250 14:55 05.01.2020
1322 Clouds 8 1033 70 10000 6.7 250 14:37 05.01.2020
1323 Clouds 8 1033 70 10000 6.2 260 14:18 05.01.2020
1324 Clouds 8 1033 70 10000 6.2 250 13:54 05.01.2020
1325 Clouds 8 1033 70 10000 6.2 250 13:36 05.01.2020
1326 Clouds 8 1033 70 10000 5.1 250 13:18 05.01.2020
1327 Clouds 8 1034 70 10000 4.6 250 12:55 05.01.2020
1328 Clouds 8 1034 70 10000 4.6 250 12:36 05.01.2020
1329 Clouds 8 1034 70 10000 4.6 250 12:36 05.01.2020
1330 Clouds 8 1034 70 10000 4.6 250 12:18 05.01.2020
1331 Clouds 7 1034 81 10000 3.6 240 11:43 05.01.2020
1332 Clouds 7 1034 81 10000 3.6 240 11:43 05.01.2020
1333 Clouds 7 1034 81 10000 3.6 240 11:43 05.01.2020
1334 Clouds 7 1034 81 10000 3.6 240 11:43 05.01.2020
1335 Clouds 7 1034 81 10000 3.6 240 11:43 05.01.2020
1336 Clouds 7 1034 81 10000 3.1 240 11:19 05.01.2020
1337 Clouds 7 1034 81 10000 3.1 240 10:58 05.01.2020
1338 Clouds 7 1034 81 10000 3.1 240 10:39 05.01.2020
1339 Clouds 7 1034 81 10000 3.1 240 10:39 05.01.2020
1340 Clouds 7 1034 81 10000 3.1 240 10:39 05.01.2020
1341 Clouds 7 1034 81 10000 3.1 240 10:39 05.01.2020
1342 Clouds 7 1034 81 10000 3.1 240 10:39 05.01.2020
1343 Clouds 7 1033 87 10000 3.6 250 10:18 05.01.2020
1344 Clouds 6 1033 93 10000 3.1 240 09:42 05.01.2020
1345 Clouds 6 1034 93 10000 4.6 220 09:22 05.01.2020
1346 Clouds 6 1034 87 10000 3.6 240 08:50 05.01.2020
1347 Clouds 6 1034 87 10000 3.6 240 08:30 05.01.2020
1348 Rain 6 1034 93 10000 4.1 250 07:56 05.01.2020
1349 Clouds 6 1034 93 10000 4.1 240 07:37 05.01.2020
1350 Clouds 6 1034 93 10000 4.1 240 07:19 05.01.2020
1351 Drizzle 6 1035 93 8000 4.1 230 06:20 05.01.2020
1352 Clouds 6 1035 93 10000 4.1 240 05:33 05.01.2020
1353 Clouds 6 1035 93 10000 4.1 240 05:33 05.01.2020
1354 Clouds 6 1035 93 10000 4.1 240 05:33 05.01.2020
1355 Clouds 6 1035 93 10000 3.1 240 04:44 05.01.2020
1356 Clouds 6 1035 93 10000 3.6 240 04:18 05.01.2020
1357 Clouds 6 1035 81 10000 3.1 240 02:46 05.01.2020
1358 Clouds 6 1035 93 10000 3.1 230 02:24 05.01.2020
1359 Clouds 6 1035 93 10000 3.1 240 01:48 05.01.2020
1360 Clouds 6 1035 93 10000 2.6 240 01:19 05.01.2020
1361 Clouds 6 1035 87 10000 2.1 230 00:54 05.01.2020
1362 Clouds 6 1035 87 10000 2.1 230 00:36 05.01.2020
1363 Clouds 6 1035 87 10000 2.6 260 00:18 05.01.2020
1364 Clouds 6 1035 87 10000 3.1 250 23:40 04.01.2020
1365 Clouds 6 1035 81 10000 3.1 240 23:20 04.01.2020
1366 Clouds 6 1035 75 10000 3.6 240 22:40 04.01.2020
1367 Clouds 6 1035 75 10000 3.1 240 22:22 04.01.2020
1368 Clouds 6 1035 75 10000 3.1 240 21:58 04.01.2020
1369 Clouds 6 1035 75 10000 3.1 230 21:40 04.01.2020
1370 Clouds 6 1035 75 10000 3.1 240 21:21 04.01.2020
1371 Clouds 6 1035 75 10000 3.1 240 20:59 04.01.2020
1372 Clouds 6 1035 70 10000 3.1 240 20:40 04.01.2020
1373 Clouds 6 1035 70 10000 3.6 240 20:22 04.01.2020
1374 Clouds 6 1035 70 10000 3.6 240 19:57 04.01.2020
1375 Clouds 6 1035 70 10000 4.1 260 19:38 04.01.2020
1376 Clouds 6 1035 70 10000 4.6 270 19:20 04.01.2020
1377 Clouds 6 1035 70 10000 3.6 270 18:56 04.01.2020
1378 Clouds 6 1035 81 10000 3.1 260 18:37 04.01.2020
1379 Clouds 6 1035 81 10000 2.6 240 18:19 04.01.2020
1380 Clouds 7 1034 81 10000 2.6 260 17:41 04.01.2020
1381 Clouds 7 1034 75 10000 3.1 280 17:23 04.01.2020
1382 Clouds 7 1034 75 10000 3.1 280 16:59 04.01.2020
1383 Clouds 8 1034 70 10000 4.1 260 16:40 04.01.2020
1384 Clouds 8 1033 70 10000 4.6 260 16:22 04.01.2020
1385 Clouds 8 1033 70 10000 4.6 260 15:56 04.01.2020
1386 Clouds 8 1033 70 10000 4.6 270 15:38 04.01.2020
1387 Clouds 8 1033 70 10000 5.1 270 15:19 04.01.2020
1388 Clouds 8 1033 66 10000 6.2 260 14:54 04.01.2020
1389 Clouds 8 1033 66 10000 6.2 260 14:36 04.01.2020
1390 Clouds 8 1033 70 10000 5.1 260 14:18 04.01.2020
1391 Clouds 8 1033 70 10000 5.1 260 13:39 04.01.2020
1392 Clouds 8 1033 70 10000 5.1 260 13:39 04.01.2020
1393 Clouds 8 1034 75 10000 5.1 260 13:20 04.01.2020
1394 Clouds 8 1034 75 10000 5.1 260 12:59 04.01.2020
1395 Clouds 7 1034 70 10000 5.7 260 12:41 04.01.2020
1396 Clouds 7 1034 75 10000 5.7 250 12:19 04.01.2020
1397 Clouds 7 1034 75 10000 5.7 250 11:57 04.01.2020
1398 Clouds 7 1034 75 10000 5.7 250 11:38 04.01.2020
1399 Clouds 6 1034 75 10000 6.7 250 11:19 04.01.2020
1400 Clouds 6 1033 75 10000 7.2 250 10:42 04.01.2020
1401 Clouds 5 1033 81 10000 6.2 250 10:23 04.01.2020
1402 Clouds 5 1033 81 10000 6.2 250 09:58 04.01.2020
1403 Clouds 5 1033 81 10000 6.2 260 09:39 04.01.2020
1404 Clouds 5 1033 81 10000 6.2 250 09:21 04.01.2020
1405 Clouds 4 1033 81 10000 5.7 250 08:41 04.01.2020
1406 Clouds 5 1033 81 10000 5.7 250 08:21 04.01.2020
1407 Clouds 5 1033 81 10000 4.6 240 07:42 04.01.2020
1408 Clouds 5 1032 81 10000 5.1 250 07:20 04.01.2020
1409 Clouds 5 1032 81 10000 5.1 240 06:33 04.01.2020
1410 Clouds 4 1033 80 10000 4.1 240 05:22 04.01.2020
1411 Clouds 4 1033 80 10000 4.6 250 04:42 04.01.2020
1412 Clouds 4 1032 80 10000 4.6 240 04:24 04.01.2020
1413 Clouds 3 1032 80 10000 5.1 230 03:18 04.01.2020
1414 Clouds 3 1032 80 10000 3.6 240 02:22 04.01.2020
1415 Clouds 3 1032 80 10000 3.6 240 01:55 04.01.2020
1416 Clouds 3 1033 86 10000 1 0 01:32 04.01.2020
1417 Clouds 4 1032 80 10000 2.6 310 00:46 04.01.2020
1418 Clouds 4 1032 80 10000 3.6 300 00:27 04.01.2020
1419 Clouds 4 1031 86 10000 3.1 260 23:48 03.01.2020
1420 Clouds 4 1031 80 10000 3.1 280 23:26 03.01.2020
1421 Clouds 4 1031 80 10000 3.1 280 22:55 03.01.2020
1422 Clouds 4 1031 80 10000 3.1 280 22:36 03.01.2020
1423 Clouds 4 1031 80 10000 3.1 280 22:18 03.01.2020
1424 Clouds 4 1031 80 10000 3.1 280 21:55 03.01.2020
1425 Clouds 4 1031 80 10000 3.6 280 21:37 03.01.2020
1426 Clouds 4 1030 86 10000 2.6 280 21:18 03.01.2020
1427 Clouds 4 1030 86 10000 3.1 260 20:43 03.01.2020
1428 Clouds 4 1029 75 10000 3.1 290 20:19 03.01.2020
1429 Clouds 5 1029 75 10000 3.1 290 19:59 03.01.2020
1430 Clouds 5 1029 75 10000 3.6 300 19:41 03.01.2020
1431 Clouds 5 1029 75 10000 3.6 300 19:22 03.01.2020
1432 Clouds 5 1028 75 10000 4.6 300 18:46 03.01.2020
1433 Clouds 5 1027 70 10000 3.6 310 18:26 03.01.2020
1434 Clouds 6 1027 70 10000 3.6 310 17:58 03.01.2020
1435 Clouds 6 1027 70 10000 3.6 310 17:40 03.01.2020
1436 Clouds 7 1026 70 10000 4.1 310 17:21 03.01.2020
1437 Clouds 7 1025 70 10000 4.6 330 16:44 03.01.2020
1438 Clouds 7 1024 65 10000 5.1 330 16:25 03.01.2020
1439 Clouds 8 1024 57 10000 5.1 310 15:59 03.01.2020
1440 Clouds 8 1024 61 10000 4.6 310 15:41 03.01.2020
1441 Clouds 8 1024 70 10000 5.7 300 15:19 03.01.2020
1442 Clouds 8 1023 75 10000 4.6 310 14:40 03.01.2020
1443 Clouds 8 1022 75 10000 5.1 310 14:20 03.01.2020
1444 Clouds 8 1022 75 10000 5.1 310 13:57 03.01.2020
1445 Clouds 8 1021 70 10000 4.6 310 13:39 03.01.2020
1446 Clouds 8 1021 70 10000 5.7 300 13:20 03.01.2020
1447 Clouds 8 1020 70 10000 6.7 300 12:41 03.01.2020
1448 Rain 8 1019 76 10000 6.7 300 12:22 03.01.2020
1449 Clouds 8 1019 76 10000 8.2 300 11:54 03.01.2020
1450 Rain 8 1019 76 10000 8.2 300 11:35 03.01.2020
1451 Rain 9 1017 100 10000 6.2 270 10:58 03.01.2020
1452 Clouds 9 1016 87 10000 5.7 260 10:39 03.01.2020
1453 Clouds 9 1016 87 10000 6.2 250 10:21 03.01.2020
1454 Clouds 10 1016 87 10000 6.2 250 09:55 03.01.2020
1455 Clouds 10 1015 87 10000 5.1 250 09:37 03.01.2020
1456 Rain 10 1015 87 10000 5.1 250 09:19 03.01.2020
1457 Rain 10 1014 87 10000 5.7 250 08:45 03.01.2020
1458 Rain 10 1014 87 10000 6.2 250 08:23 03.01.2020
1459 Rain 10 1013 87 10000 5.7 250 07:56 03.01.2020
1460 Rain 10 1013 87 10000 5.7 250 07:37 03.01.2020
1461 Rain 10 1013 87 10000 5.7 260 07:18 03.01.2020
1462 Clouds 10 1013 87 10000 7.7 260 06:42 03.01.2020
1463 Rain 10 1012 93 10000 8.2 250 06:22 03.01.2020
1464 Drizzle 10 1012 100 5000 6.2 230 05:20 03.01.2020
1465 Clouds 10 1013 87 10000 5.7 210 03:42 03.01.2020
1466 Clouds 10 1013 87 10000 5.1 210 02:54 03.01.2020
1467 Clouds 10 1014 87 10000 5.1 210 01:54 03.01.2020
1468 Clouds 10 1014 87 10000 5.1 210 01:36 03.01.2020
1469 Clouds 10 1014 87 10000 5.1 210 01:36 03.01.2020
1470 Clouds 10 1015 81 10000 5.1 220 00:46 03.01.2020
1471 Clouds 10 1015 81 10000 5.1 220 00:26 03.01.2020
1472 Clouds 10 1015 81 10000 6.2 230 23:55 02.01.2020
1473 Clouds 10 1015 81 10000 6.2 230 23:37 02.01.2020
1474 Clouds 10 1015 81 10000 5.7 230 23:18 02.01.2020
1475 Clouds 10 1015 81 10000 4.6 230 22:42 02.01.2020
1476 Clouds 10 1015 81 10000 4.6 210 22:20 02.01.2020
1477 Clouds 10 1016 81 10000 5.1 220 21:57 02.01.2020
1478 Clouds 10 1015 81 10000 4.6 210 21:57 02.01.2020
1479 Clouds 10 1016 81 10000 5.1 220 21:38 02.01.2020
1480 Clouds 10 1016 81 10000 4.6 230 21:20 02.01.2020
1481 Clouds 10 1016 81 10000 6.7 230 20:57 02.01.2020
1482 Rain 10 1016 93 10000 5.7 220 20:38 02.01.2020
1483 Clouds 10 1016 100 10000 5.1 220 20:20 02.01.2020
1484 Clouds 10 1016 100 10000 5.1 220 20:20 02.01.2020
1485 Drizzle 10 1016 100 10000 5.7 220 19:55 02.01.2020
1486 Drizzle 10 1016 100 10000 5.7 220 19:36 02.01.2020
1487 Rain 10 1016 93 6000 6.7 210 19:18 02.01.2020
1488 Clouds 9 1016 87 10000 7.2 220 18:56 02.01.2020
1489 Clouds 9 1016 87 10000 7.2 220 18:37 02.01.2020
1490 Clouds 9 1016 87 10000 6.2 230 18:19 02.01.2020
1491 Clouds 9 1016 81 10000 6.7 220 17:55 02.01.2020
1492 Clouds 9 1016 81 10000 6.7 220 17:36 02.01.2020
1493 Clouds 9 1017 81 10000 5.7 220 17:18 02.01.2020
1494 Clouds 9 1017 81 10000 5.7 220 17:18 02.01.2020
1495 Clouds 9 1017 76 10000 6.7 230 16:54 02.01.2020
1496 Clouds 10 1017 76 10000 6.7 230 16:36 02.01.2020
1497 Clouds 10 1018 81 10000 6.2 210 16:18 02.01.2020
1498 Clouds 10 1018 81 10000 8.7 200 15:42 02.01.2020
1499 Clouds 10 1018 76 10000 4.6 230 15:24 02.01.2020
1500 Clouds 10 1019 76 10000 5.7 210 14:57 02.01.2020
1501 Clouds 10 1019 87 10000 5.7 200 14:37 02.01.2020
1502 Clouds 10 1019 76 10000 5.7 200 14:19 02.01.2020
1503 Clouds 10 1020 81 10000 4.1 200 13:58 02.01.2020
1504 Clouds 9 1020 81 10000 4.1 200 13:38 02.01.2020
1505 Clouds 9 1021 81 10000 4.1 210 12:59 02.01.2020
1506 Clouds 9 1021 81 10000 4.1 210 12:40 02.01.2020
1507 Drizzle 9 1022 87 10000 3.6 190 12:20 02.01.2020
1508 Drizzle 8 1022 87 10000 3.6 190 11:41 02.01.2020
1509 Clouds 8 1022 87 10000 3.6 200 11:21 02.01.2020
1510 Clouds 8 1022 93 10000 4.1 200 10:46 02.01.2020
1511 Clouds 8 1022 93 10000 4.1 200 10:27 02.01.2020
1512 Rain 7 1022 100 8000 4.6 200 09:56 02.01.2020
1513 Mist 7 1023 100 5000 4.1 180 09:35 02.01.2020
1514 Clouds 7 1023 100 10000 3.6 150 08:59 02.01.2020
1515 Clouds 7 1023 87 10000 2.6 150 08:39 02.01.2020
1516 Clouds 7 1023 87 10000 3.6 150 08:19 02.01.2020
1517 Clouds 7 1023 87 10000 3.1 160 07:47 02.01.2020
1518 Rain 7 1023 87 10000 2.6 160 07:26 02.01.2020
1519 Clouds 7 1024 87 10000 2.6 180 06:41 02.01.2020
1520 Clouds 6 1024 93 10000 2.1 220 05:40 02.01.2020
1521 Clouds 6 1025 93 10000 2.1 180 04:35 02.01.2020
1522 Clouds 6 1025 93 10000 1.5 0 03:44 02.01.2020
1523 Clouds 6 1026 93 10000 2.6 220 02:21 02.01.2020
1524 Clouds 6 1026 93 10000 2.6 220 01:57 02.01.2020
1525 Clouds 6 1026 93 8000 2.6 220 01:26 02.01.2020
1526 Clouds 6 1027 87 6000 1.5 0 00:52 02.01.2020
1527 Clouds 6 1027 87 6000 1.5 0 00:28 02.01.2020
1528 Clouds 6 1028 87 6000 1 0 23:47 01.01.2020
1529 Haze 6 1028 87 5000 1.5 0 23:24 01.01.2020
1530 Clouds 6 1028 87 6000 1.5 0 22:54 01.01.2020
1531 Clouds 6 1028 87 6000 1.5 0 22:36 01.01.2020
1532 Clouds 6 1028 87 7000 1.5 0 22:18 01.01.2020
1533 Clouds 6 1028 87 7000 2.1 150 21:42 01.01.2020
1534 Clouds 6 1028 87 7000 1.5 0 21:21 01.01.2020
1535 Mist 6 1028 93 3000 3.1 180 20:58 01.01.2020
1536 Mist 6 1028 93 3000 2.1 170 20:39 01.01.2020
1537 Mist 6 1028 93 3000 1.5 170 20:20 01.01.2020
1538 Mist 6 1028 93 3000 1.5 170 19:58 01.01.2020
1539 Mist 6 1029 93 3000 1.5 180 19:39 01.01.2020
1540 Clouds 6 1029 93 10000 1.5 0 19:20 01.01.2020
1541 Clouds 6 1029 93 10000 1.5 0 18:57 01.01.2020
1542 Haze 6 1028 87 8000 1 130 18:39 01.01.2020
1543 Clouds 6 1029 87 6000 2.1 190 18:20 01.01.2020
1544 Haze 6 1028 87 5000 1.5 0 17:59 01.01.2020
1545 Haze 6 1028 87 5000 1.5 0 17:40 01.01.2020
1546 Clouds 6 1028 81 6000 1.5 0 17:20 01.01.2020
1547 Clouds 6 1028 81 6000 1.5 0 16:59 01.01.2020
1548 Haze 6 1028 81 5000 1.5 0 16:38 01.01.2020
1549 Haze 6 1029 87 5000 1.5 0 16:20 01.01.2020
1550 Haze 6 1029 87 5000 1.5 0 15:57 01.01.2020
1551 Haze 6 1029 87 5000 1.5 230 15:38 01.01.2020
1552 Clouds 6 1029 87 6000 1.5 0 15:20 01.01.2020
1553 Clouds 6 1029 87 7000 1.5 0 14:56 01.01.2020
1554 Clouds 6 1029 87 7000 1.5 0 14:37 01.01.2020
1555 Clouds 6 1029 87 7000 1.5 120 14:19 01.01.2020
1556 Clouds 6 1029 87 7000 1.5 120 14:19 01.01.2020
1557 Clouds 6 1029 87 6000 1.5 110 13:55 01.01.2020
1558 Clouds 6 1029 87 6000 1.5 110 13:36 01.01.2020
1559 Mist 5 1030 93 4300 2.6 100 13:18 01.01.2020
1560 Mist 5 1030 93 4000 2.1 110 12:54 01.01.2020
1561 Mist 5 1030 93 4300 2.6 100 12:54 01.01.2020
1562 Mist 5 1030 93 4300 2.6 100 12:54 01.01.2020
1563 Mist 5 1030 93 4000 2.1 110 12:36 01.01.2020
1564 Mist 5 1030 100 3700 2.6 90 12:18 01.01.2020
1565 Mist 5 1030 100 2900 2.1 90 11:42 01.01.2020
1566 Mist 5 1030 100 2200 2.1 100 11:21 01.01.2020
1567 Rain 4 1030 100 1900 2.6 100 10:57 01.01.2020
1568 Rain 4 1030 100 1900 2.6 100 10:38 01.01.2020
1569 Rain 4 1030 100 450 2.1 100 10:19 01.01.2020
1570 Drizzle 4 1030 100 150 2.1 70 09:55 01.01.2020
1571 Drizzle 4 1030 100 150 2.1 70 09:36 01.01.2020
1572 Rain 4 1030 100 150 2.1 60 09:18 01.01.2020
1573 Rain 4 1030 100 150 1.5 0 08:54 01.01.2020
1574 Rain 4 1030 100 150 1.5 0 08:36 01.01.2020
1575 Rain 4 1030 93 100 1.5 70 08:18 01.01.2020
1576 Fog 4 1029 100 50 2.1 60 07:42 01.01.2020
1577 Fog 4 1029 100 50 2.1 60 07:24 01.01.2020
1578 Fog 4 1030 93 50 0.5 0 06:44 01.01.2020
1579 Haze 4 1030 86 3400 0.5 0 06:19 01.01.2020
1580 Mist 4 1030 100 2200 2.6 120 04:38 01.01.2020
1581 Haze 4 1030 100 2800 3.1 110 03:41 01.01.2020
1582 Haze 4 1030 93 2400 1.5 100 03:22 01.01.2020
1583 Haze 4 1030 93 3800 1.5 100 02:55 01.01.2020
1584 Haze 4 1030 93 3800 1.5 100 02:32 01.01.2020
1585 Clouds 4 1031 86 7000 2.1 100 01:45 01.01.2020
1586 Clouds 4 1031 87 8000 3.1 90 01:24 01.01.2020
1587 Clouds 4 1031 87 8000 3.1 90 00:57 01.01.2020
1588 Clouds 5 1031 87 9000 3.1 110 00:37 01.01.2020
1589 Clouds 5 1031 81 10000 3.1 130 00:19 01.01.2020
1590 Clouds 5 1031 93 6000 4.1 110 23:40 31.12.2019
1591 Clouds 6 1031 87 7000 4.1 100 23:21 31.12.2019
1592 Clouds 7 1031 87 7000 4.1 100 22:57 31.12.2019
1593 Clouds 7 1031 87 7000 4.1 100 22:38 31.12.2019
1594 Clouds 7 1032 87 9000 5.7 90 22:18 31.12.2019
1595 Clouds 7 1032 87 9000 5.7 90 21:54 31.12.2019
1596 Clouds 7 1032 87 7000 4.6 90 21:36 31.12.2019
1597 Clouds 8 1032 87 6000 3.1 100 21:18 31.12.2019
1598 Haze 8 1032 87 5000 5.1 100 20:40 31.12.2019
1599 Clouds 8 1032 93 6000 4.6 100 20:22 31.12.2019
1600 Clouds 8 1032 93 6000 4.6 100 19:59 31.12.2019
1601 Clouds 8 1032 93 6000 6.2 90 19:40 31.12.2019
1602 Haze 8 1032 93 5000 6.2 90 19:22 31.12.2019
1603 Haze 8 1032 93 5000 6.2 90 19:22 31.12.2019
1604 Haze 8 1032 93 5000 6.2 90 18:58 31.12.2019
1605 Rain 8 1032 93 5000 6.2 100 18:40 31.12.2019
1606 Drizzle 8 1032 93 4100 6.2 90 18:20 31.12.2019
1607 Drizzle 8 1032 93 3800 5.7 80 17:56 31.12.2019
1608 Drizzle 8 1032 93 3800 5.7 80 17:38 31.12.2019
1609 Drizzle 8 1032 93 3700 5.1 100 17:19 31.12.2019
1610 Drizzle 8 1032 93 3700 5.1 100 16:57 31.12.2019
1611 Mist 9 1032 93 3300 5.1 90 16:38 31.12.2019
1612 Haze 9 1032 93 3400 5.1 90 16:19 31.12.2019
1613 Haze 8 1032 93 3400 5.1 90 15:56 31.12.2019
1614 Haze 8 1032 93 3800 4.6 90 15:38 31.12.2019
1615 Drizzle 8 1032 100 4300 5.1 100 15:20 31.12.2019
1616 Drizzle 8 1032 100 4300 5.1 100 14:58 31.12.2019
1617 Drizzle 8 1032 93 4000 4.6 90 14:38 31.12.2019
1618 Drizzle 8 1033 93 2400 3.6 90 14:19 31.12.2019
1619 Drizzle 8 1033 93 2400 3.6 90 13:58 31.12.2019
1620 Drizzle 8 1033 100 2200 3.6 80 13:40 31.12.2019
1621 Drizzle 8 1033 93 1800 3.6 80 13:21 31.12.2019
1622 Drizzle 8 1033 93 1800 3.6 80 12:58 31.12.2019
1623 Drizzle 8 1033 93 1700 3.6 80 12:40 31.12.2019
1624 Haze 7 1033 93 3300 3.6 80 12:20 31.12.2019
1625 Haze 7 1033 93 3300 3.6 80 11:56 31.12.2019
1626 Haze 7 1033 87 5000 3.6 70 11:38 31.12.2019
1627 Haze 7 1033 87 5000 3.6 70 11:20 31.12.2019
1628 Haze 7 1033 87 5000 3.6 70 10:58 31.12.2019
1629 Haze 6 1033 87 5000 3.1 80 10:38 31.12.2019
1630 Clouds 6 1032 93 6000 3.6 100 10:20 31.12.2019
1631 Clouds 6 1032 93 6000 3.6 100 09:59 31.12.2019
1632 Clouds 6 1032 93 6000 3.1 80 09:39 31.12.2019
1633 Clouds 6 1032 93 6000 3.6 70 09:21 31.12.2019
1634 Clouds 6 1032 93 6000 3.6 70 08:57 31.12.2019
1635 Clouds 6 1032 93 6000 3.6 90 08:39 31.12.2019
1636 Clouds 6 1032 93 6000 2.6 90 08:19 31.12.2019
1637 Clouds 6 1031 100 6000 1 0 07:43 31.12.2019
1638 Clouds 5 1031 100 6000 1 0 07:21 31.12.2019
1639 Mist 5 1031 100 4200 0.5 0 06:50 31.12.2019
1640 Mist 5 1031 100 2300 0.5 0 05:58 31.12.2019
1641 Fog 5 1031 93 150 0.5 0 04:30 31.12.2019
1642 Fog 5 1031 93 250 2.1 330 03:59 31.12.2019
1643 Fog 5 1031 93 250 2.1 330 03:59 31.12.2019
1644 Fog 5 1030 93 350 1 0 02:56 31.12.2019
1645 Mist 5 1030 93 1300 2.1 210 02:19 31.12.2019
1646 Mist 5 1030 100 1700 1.5 240 01:48 31.12.2019
1647 Mist 5 1030 100 1700 1.5 240 01:48 31.12.2019
1648 Mist 5 1030 100 1700 1.5 240 01:28 31.12.2019
1649 Mist 5 1031 93 2000 2.6 240 00:47 31.12.2019
1650 Haze 5 1030 93 2200 3.1 230 00:23 31.12.2019
1651 Haze 6 1030 93 3200 2.1 240 23:58 30.12.2019
1652 Rain 6 1030 93 3200 2.1 240 23:38 30.12.2019
1653 Rain 6 1030 93 4600 2.1 250 23:20 30.12.2019
1654 Rain 6 1030 87 8000 2.6 290 22:59 30.12.2019
1655 Clear 6 1030 87 8000 2.6 290 22:40 30.12.2019
1656 Clear 6 1029 87 10000 3.6 270 22:20 30.12.2019
1657 Clear 6 1029 87 10000 3.6 270 22:20 30.12.2019
1658 Clear 6 1029 87 10000 4.1 260 21:57 30.12.2019
1659 Clear 6 1029 87 10000 4.1 260 21:39 30.12.2019
1660 Clear 6 1029 87 10000 4.1 260 21:39 30.12.2019
1661 Clear 6 1028 87 10000 3.6 250 21:20 30.12.2019
1662 Clear 6 1028 87 10000 3.6 250 20:58 30.12.2019
1663 Clear 6 1029 81 10000 3.1 210 20:40 30.12.2019
1664 Clear 7 1028 81 10000 4.1 240 20:20 30.12.2019
1665 Clear 7 1028 81 10000 4.1 240 19:58 30.12.2019
1666 Clear 6 1028 81 10000 4.1 240 19:39 30.12.2019
1667 Clear 7 1028 81 10000 3.6 230 19:19 30.12.2019
1668 Clear 7 1028 81 10000 3.6 230 18:59 30.12.2019
1669 Clear 7 1028 81 10000 3.1 240 18:40 30.12.2019
1670 Clear 7 1028 81 10000 7.2 190 18:20 30.12.2019
1671 Clear 7 1028 81 10000 7.2 190 18:20 30.12.2019
1672 Clear 7 1028 81 10000 7.2 190 17:57 30.12.2019
1673 Clear 8 1027 81 10000 3.6 240 17:39 30.12.2019
1674 Clear 8 1027 81 10000 2.6 240 17:19 30.12.2019
1675 Clear 9 1028 76 10000 4.6 200 16:58 30.12.2019
1676 Clear 9 1027 71 10000 3.1 250 16:37 30.12.2019
1677 Clear 9 1028 76 10000 5.7 190 16:19 30.12.2019
1678 Clear 10 1027 71 10000 4.6 250 15:56 30.12.2019
1679 Clear 10 1027 71 10000 3.1 240 15:37 30.12.2019
1680 Clear 10 1027 71 10000 3.1 250 15:18 30.12.2019
1681 Clear 10 1028 71 10000 3.6 240 14:43 30.12.2019
1682 Clear 10 1028 71 10000 4.6 240 14:20 30.12.2019
1683 Clear 9 1028 71 10000 4.6 240 13:58 30.12.2019
1684 Clear 9 1028 81 10000 4.1 250 13:40 30.12.2019
1685 Clear 9 1029 81 10000 4.1 250 13:22 30.12.2019
1686 Clear 9 1029 81 10000 4.1 250 13:22 30.12.2019
1687 Clear 8 1029 81 10000 4.1 250 12:57 30.12.2019
1688 Clear 8 1029 87 10000 3.6 250 12:37 30.12.2019
1689 Clear 7 1029 93 9000 3.1 270 12:18 30.12.2019
1690 Clear 7 1029 93 8000 3.6 240 11:45 30.12.2019
1691 Mist 6 1030 93 5000 3.6 240 11:22 30.12.2019
1692 Mist 6 1030 93 5000 3.6 240 10:59 30.12.2019
1693 Mist 5 1030 100 3700 3.1 240 10:40 30.12.2019
1694 Mist 5 1029 93 2400 3.1 250 10:19 30.12.2019
1695 Fog 5 1030 93 450 4.1 240 09:42 30.12.2019
1696 Fog 5 1030 100 300 4.6 240 09:21 30.12.2019
1697 Fog 4 1029 93 350 5.1 250 08:57 30.12.2019
1698 Fog 5 1029 93 350 5.1 250 08:38 30.12.2019
1699 Clouds 4 1029 93 7000 4.1 250 08:19 30.12.2019
1700 Clouds 4 1029 93 6000 2.6 230 07:46 30.12.2019
1701 Rain 4 1030 93 4700 2.1 250 07:23 30.12.2019
1702 Mist 4 1030 93 3500 3.1 260 06:30 30.12.2019
1703 Mist 4 1030 100 2200 2.6 260 04:31 30.12.2019
1704 Mist 4 1030 100 3200 1 220 03:47 30.12.2019
1705 Haze 4 1031 93 4100 1.5 220 02:47 30.12.2019
1706 Haze 4 1031 93 4100 1.5 220 02:26 30.12.2019
1707 Haze 4 1031 93 4300 1 0 01:29 30.12.2019
1708 Haze 4 1031 93 5000 1 0 00:59 30.12.2019
1709 Rain 4 1031 93 5000 1 0 00:39 30.12.2019
1710 Rain 5 1031 93 5000 1.5 0 23:55 29.12.2019
1711 Haze 5 1031 93 5000 1.5 220 23:36 29.12.2019
1712 Clear 5 1031 93 6000 2.1 230 23:18 29.12.2019
1713 Clear 5 1032 87 6000 3.1 240 22:40 29.12.2019
1714 Clear 5 1032 93 6000 2.1 250 22:21 29.12.2019
1715 Clear 5 1032 87 8000 2.1 240 21:56 29.12.2019
1716 Clear 5 1032 87 8000 2.1 240 21:38 29.12.2019
1717 Clear 5 1032 87 8000 3.6 240 21:19 29.12.2019
1718 Clear 5 1032 87 10000 3.6 240 20:55 29.12.2019
1719 Clear 6 1032 87 10000 3.6 240 20:37 29.12.2019
1720 Clouds 6 1032 87 10000 2.6 0 20:18 29.12.2019
1721 Clouds 6 1032 87 10000 2.6 0 19:56 29.12.2019
1722 Clouds 6 1032 87 10000 2.1 230 19:38 29.12.2019
1723 Clouds 6 1031 100 9000 8.2 190 19:19 29.12.2019
1724 Clouds 6 1031 100 9000 8.2 190 18:55 29.12.2019
1725 Clouds 6 1031 100 10000 8.2 190 18:37 29.12.2019
1726 Clouds 6 1031 93 10000 7.7 190 18:18 29.12.2019
1727 Clouds 6 1032 93 10000 6.2 180 17:56 29.12.2019
1728 Clouds 7 1032 93 10000 6.2 180 17:38 29.12.2019
1729 Clouds 7 1032 93 10000 4.1 200 17:19 29.12.2019
1730 Clouds 8 1032 87 10000 5.1 200 16:56 29.12.2019
1731 Clouds 8 1032 87 10000 5.1 200 16:36 29.12.2019
1732 Clouds 8 1032 87 10000 5.7 190 16:18 29.12.2019
1733 Clouds 8 1032 81 10000 5.1 190 15:56 29.12.2019
1734 Clouds 9 1032 71 10000 4.1 210 15:38 29.12.2019
1735 Clouds 9 1032 81 10000 6.2 200 15:19 29.12.2019
1736 Clouds 9 1032 71 10000 4.1 210 14:55 29.12.2019
1737 Clouds 9 1033 76 10000 3.6 230 14:37 29.12.2019
1738 Clouds 8 1033 76 10000 4.1 220 14:18 29.12.2019
1739 Clouds 8 1033 76 10000 4.1 220 14:18 29.12.2019
1740 Clouds 8 1033 76 10000 3.1 210 13:55 29.12.2019
1741 Clouds 8 1033 76 10000 3.1 210 13:37 29.12.2019
1742 Clouds 8 1034 81 10000 3.1 210 13:18 29.12.2019
1743 Clouds 8 1034 81 10000 3.6 210 12:43 29.12.2019
1744 Clouds 8 1034 81 10000 4.1 210 12:25 29.12.2019
1745 Clouds 8 1034 81 10000 4.1 210 12:25 29.12.2019
1746 Clouds 7 1034 81 10000 4.1 210 11:56 29.12.2019
1747 Clouds 7 1034 81 10000 3.1 210 11:38 29.12.2019
1748 Clouds 7 1034 81 10000 2.1 220 11:20 29.12.2019
1749 Clouds 7 1034 81 10000 2.1 210 10:42 29.12.2019
1750 Clouds 7 1033 87 10000 3.1 210 10:23 29.12.2019
1751 Clouds 7 1033 87 10000 3.1 200 09:57 29.12.2019
1752 Clouds 6 1034 93 9000 6.2 190 09:38 29.12.2019
1753 Clouds 6 1034 81 10000 2.1 190 09:20 29.12.2019
1754 Clouds 7 1034 81 10000 3.1 200 08:47 29.12.2019
1755 Clouds 6 1034 81 10000 2.6 210 08:24 29.12.2019
1756 Clouds 7 1034 81 10000 2.6 210 07:55 29.12.2019
1757 Clouds 7 1034 81 10000 2.6 200 07:28 29.12.2019
1758 Clouds 7 1034 81 10000 1.5 0 06:56 29.12.2019
1759 Clouds 7 1035 81 10000 2.1 200 06:26 29.12.2019
1760 Clouds 7 1035 81 10000 2.6 220 05:52 29.12.2019
1761 Clouds 7 1035 81 10000 3.1 210 04:36 29.12.2019
1762 Clouds 7 1035 81 10000 2.6 220 03:54 29.12.2019
1763 Clouds 7 1035 81 10000 2.1 210 03:20 29.12.2019
1764 Clouds 7 1036 81 10000 2.6 210 02:20 29.12.2019
1765 Clouds 7 1035 81 10000 3.6 210 01:38 29.12.2019
1766 Clouds 7 1036 81 10000 4.1 210 01:19 29.12.2019
1767 Clouds 7 1036 81 10000 3.1 200 00:40 29.12.2019
1768 Clouds 7 1036 81 10000 3.6 190 00:22 29.12.2019
1769 Clouds 7 1036 81 10000 3.6 190 23:44 28.12.2019
1770 Clouds 7 1036 87 10000 4.6 190 23:18 28.12.2019
1771 Clouds 7 1036 87 10000 4.1 190 22:39 28.12.2019
1772 Clouds 8 1036 87 10000 4.6 190 22:21 28.12.2019
1773 Clouds 8 1036 87 10000 4.6 190 21:58 28.12.2019
1774 Clouds 8 1037 87 10000 3.6 190 21:39 28.12.2019
1775 Clouds 8 1036 87 10000 5.1 180 21:21 28.12.2019
1776 Clouds 8 1036 87 10000 5.1 180 20:58 28.12.2019
1777 Clouds 8 1036 87 10000 5.1 160 20:38 28.12.2019
1778 Clouds 8 1036 87 10000 5.1 180 20:20 28.12.2019
1779 Clouds 8 1036 81 10000 3.6 170 19:58 28.12.2019
1780 Clouds 8 1036 81 10000 3.6 170 19:39 28.12.2019
1781 Clouds 8 1037 81 10000 3.1 180 19:21 28.12.2019
1782 Clouds 8 1037 81 10000 3.1 180 18:58 28.12.2019
1783 Clouds 8 1037 81 10000 2.6 170 18:40 28.12.2019
1784 Clouds 8 1037 81 10000 2.6 230 18:19 28.12.2019
1785 Clouds 8 1036 93 10000 4.1 180 17:55 28.12.2019
1786 Clouds 8 1036 93 10000 4.1 180 17:37 28.12.2019
1787 Clouds 8 1036 87 10000 2.6 210 17:18 28.12.2019
1788 Clouds 8 1036 87 10000 2.6 210 17:18 28.12.2019
1789 Clouds 8 1036 87 10000 3.6 210 16:46 28.12.2019
1790 Clouds 9 1036 87 10000 4.1 190 16:26 28.12.2019
1791 Clouds 9 1036 87 10000 4.1 190 16:26 28.12.2019
1792 Clouds 9 1036 87 10000 4.1 190 16:26 28.12.2019
1793 Clouds 9 1036 87 10000 3.1 190 15:49 28.12.2019
1794 Clouds 9 1036 87 10000 3.1 210 15:25 28.12.2019
1795 Clouds 9 1036 87 10000 3.1 210 15:00 28.12.2019
1796 Clouds 9 1036 87 10000 4.1 200 14:40 28.12.2019
1797 Clouds 9 1036 87 10000 4.1 200 14:40 28.12.2019
1798 Clouds 9 1036 87 10000 4.1 190 14:21 28.12.2019
1799 Clouds 9 1036 87 10000 3.1 210 13:57 28.12.2019
1800 Clouds 9 1036 87 10000 3.1 210 13:38 28.12.2019
1801 Clouds 8 1037 87 10000 1 0 13:19 28.12.2019
1802 Clouds 8 1037 87 10000 1 0 13:19 28.12.2019
1803 Clouds 8 1037 87 10000 2.1 230 12:43 28.12.2019
1804 Clouds 8 1037 87 10000 2.1 230 12:24 28.12.2019
1805 Clouds 8 1037 87 10000 1.5 0 11:58 28.12.2019
1806 Clouds 8 1037 93 10000 3.6 180 11:39 28.12.2019
1807 Clouds 8 1037 87 10000 2.6 160 11:20 28.12.2019
1808 Clouds 7 1037 87 10000 1.5 0 10:46 28.12.2019
1809 Clouds 7 1037 87 10000 1 0 10:23 28.12.2019
1810 Clouds 7 1037 87 10000 1 0 09:58 28.12.2019
1811 Clouds 7 1037 87 9000 2.1 170 09:40 28.12.2019
1812 Clouds 7 1036 93 6000 2.1 80 09:21 28.12.2019
1813 Clouds 7 1036 93 7000 1.5 0 08:45 28.12.2019
1814 Clouds 7 1036 93 7000 1.5 0 08:27 28.12.2019
1815 Clouds 7 1036 100 6000 2.1 90 07:59 28.12.2019
1816 Mist 7 1036 93 5000 2.1 90 07:39 28.12.2019
1817 Mist 7 1036 93 2400 3.1 100 06:50 28.12.2019
1818 Mist 7 1036 93 2300 2.1 90 05:31 28.12.2019
1819 Mist 6 1036 100 3300 0.5 0 03:47 28.12.2019
1820 Mist 6 1035 100 3400 1 0 02:49 28.12.2019
1821 Mist 6 1035 100 2700 1 0 02:19 28.12.2019
1822 Mist 6 1035 93 2600 0.5 0 01:50 28.12.2019
1823 Mist 6 1035 93 3500 1.5 130 01:21 28.12.2019
1824 Mist 6 1035 93 2700 1 0 00:42 28.12.2019
1825 Haze 6 1035 93 3600 2.1 80 00:23 28.12.2019
1826 Haze 6 1035 93 4400 2.1 80 23:45 27.12.2019
1827 Clouds 6 1035 93 7000 1.65 160 23:21 27.12.2019
1828 Clouds 6 1034 93 8000 1 0 22:58 27.12.2019
1829 Clouds 6 1034 93 8000 1 0 22:39 27.12.2019
1830 Clouds 6 1034 87 6000 0.5 0 22:21 27.12.2019
1831 Clouds 6 1034 87 6000 0.5 0 21:59 27.12.2019
1832 Clouds 6 1034 93 8000 1.5 0 21:40 27.12.2019
1833 Clouds 6 1034 93 10000 1.5 0 21:22 27.12.2019
1834 Clouds 6 1034 93 10000 2.1 230 20:42 27.12.2019
1835 Haze 6 1033 93 9000 0.5 240 20:24 27.12.2019
1836 Haze 6 1033 93 9000 0.5 240 19:57 27.12.2019
1837 Haze 6 1033 93 9000 0.5 240 19:57 27.12.2019
1838 Clouds 6 1033 87 10000 2.1 230 19:38 27.12.2019
1839 Clouds 6 1033 87 10000 2.1 230 19:38 27.12.2019
1840 Clouds 6 1033 87 10000 2.1 250 19:19 27.12.2019
1841 Clouds 6 1033 87 10000 2.1 250 18:55 27.12.2019
1842 Clouds 7 1032 93 10000 0.5 0 18:36 27.12.2019
1843 Clouds 7 1032 93 10000 0.5 0 18:18 27.12.2019
1844 Clouds 7 1032 93 10000 2.1 290 17:42 27.12.2019
1845 Clouds 7 1032 81 10000 1.5 0 17:20 27.12.2019
1846 Clouds 7 1031 81 10000 1 0 16:59 27.12.2019
1847 Clouds 7 1031 81 10000 1 0 16:41 27.12.2019
1848 Clouds 7 1031 81 10000 1 0 16:41 27.12.2019
1849 Clouds 8 1031 81 10000 2.1 270 16:22 27.12.2019
1850 Clouds 8 1031 81 10000 2.1 270 15:57 27.12.2019
1851 Clouds 8 1031 81 10000 1.5 290 15:37 27.12.2019
1852 Clouds 8 1030 81 10000 1 0 15:18 27.12.2019
1853 Clouds 8 1030 76 10000 1.5 0 14:55 27.12.2019
1854 Clouds 8 1030 76 10000 1.5 0 14:37 27.12.2019
1855 Clouds 8 1030 76 10000 2.1 210 14:19 27.12.2019
1856 Clouds 8 1030 81 10000 1 120 13:44 27.12.2019
1857 Clouds 8 1029 93 10000 2.1 310 13:22 27.12.2019
1858 Clouds 8 1029 81 10000 2.1 300 12:49 27.12.2019
1859 Clouds 8 1029 81 10000 2.1 300 12:29 27.12.2019
1860 Clouds 7 1029 81 10000 1.5 0 11:59 27.12.2019
1861 Clouds 7 1029 87 10000 1.5 60 11:41 27.12.2019
1862 Clouds 7 1029 87 10000 2.1 340 11:20 27.12.2019
1863 Clouds 7 1029 87 10000 2.1 340 11:20 27.12.2019
1864 Clouds 7 1029 87 10000 2.1 340 11:20 27.12.2019
1865 Clouds 7 1029 87 10000 2.1 350 10:47 27.12.2019
1866 Clouds 7 1028 87 10000 2.6 300 10:24 27.12.2019
1867 Clouds 7 1028 93 10000 3.1 330 09:58 27.12.2019
1868 Clouds 7 1027 93 10000 3.1 330 09:38 27.12.2019
1869 Clouds 7 1027 93 10000 3.1 330 09:38 27.12.2019
1870 Clouds 7 1027 93 10000 2.6 320 09:20 27.12.2019
1871 Clouds 7 1026 93 10000 4.1 350 08:46 27.12.2019
1872 Clouds 7 1026 87 10000 2.6 300 08:27 27.12.2019
1873 Clouds 7 1025 87 10000 2.1 300 07:48 27.12.2019
1874 Clouds 7 1025 93 10000 2.6 360 07:25 27.12.2019
1875 Clouds 7 1024 87 10000 3.1 0 06:33 27.12.2019
1876 Clouds 7 1022 87 10000 3.6 310 04:48 27.12.2019
1877 Clouds 7 1020 87 10000 5.1 300 02:35 27.12.2019
1878 Clouds 7 1019 87 10000 5.7 300 01:48 27.12.2019
1879 Clouds 7 1018 81 10000 7.2 300 01:23 27.12.2019
1880 Clouds 8 1018 87 10000 6.2 310 00:52 27.12.2019
1881 Clouds 8 1018 87 10000 6.2 310 00:34 27.12.2019
1882 Clouds 8 1018 87 10000 6.2 310 00:34 27.12.2019
1883 Clouds 8 1018 93 9000 3.1 300 23:59 26.12.2019
1884 Clouds 8 1017 93 8000 3.6 290 23:40 26.12.2019
1885 Rain 8 1016 87 10000 4.6 290 23:21 26.12.2019
1886 Clouds 8 1015 81 10000 5.7 270 22:43 26.12.2019
1887 Clouds 8 1015 87 8000 6.2 260 22:21 26.12.2019
1888 Clouds 8 1015 100 8000 6.2 280 21:56 26.12.2019
1889 Rain 8 1015 87 8000 5.7 250 21:37 26.12.2019
1890 Rain 8 1015 87 7000 4.1 250 21:19 26.12.2019
1891 Clouds 9 1015 87 10000 3.6 250 20:45 26.12.2019
1892 Clouds 9 1015 87 10000 4.1 250 20:22 26.12.2019
1893 Clouds 8 1015 87 10000 4.1 250 19:58 26.12.2019
1894 Clouds 9 1014 87 10000 5.1 250 19:39 26.12.2019
1895 Clouds 9 1014 87 10000 5.1 250 19:20 26.12.2019
1896 Clouds 9 1014 81 10000 6.2 250 18:57 26.12.2019
1897 Clouds 9 1014 81 10000 6.2 250 18:38 26.12.2019
1898 Rain 9 1014 81 10000 8.7 250 18:19 26.12.2019
1899 Clouds 9 1013 81 10000 9.8 250 17:43 26.12.2019
1900 Clouds 9 1013 81 10000 9.8 250 17:43 26.12.2019
1901 Clouds 9 1013 81 10000 9.8 250 17:22 26.12.2019
1902 Clouds 9 1013 81 10000 9.8 250 16:59 26.12.2019
1903 Clouds 9 1013 87 10000 8.2 240 16:41 26.12.2019
1904 Clouds 9 1012 87 8000 8.7 240 16:21 26.12.2019
1905 Rain 9 1011 87 9000 7.7 230 15:55 26.12.2019
1906 Rain 9 1011 87 9000 7.7 230 15:37 26.12.2019
1907 Rain 9 1011 93 3500 6.2 200 15:18 26.12.2019
1908 Drizzle 9 1011 100 6000 10.3 190 14:39 26.12.2019
1909 Rain 9 1012 87 7000 4.6 170 14:21 26.12.2019
1910 Rain 9 1012 93 10000 6.2 140 13:43 26.12.2019
1911 Rain 9 1013 87 10000 6.7 130 13:21 26.12.2019
1912 Rain 9 1013 87 10000 6.7 130 13:21 26.12.2019
1913 Rain 8 1013 87 10000 6.7 130 12:58 26.12.2019
1914 Clouds 8 1014 87 10000 6.2 150 12:39 26.12.2019
1915 Clouds 8 1015 87 10000 6.2 140 12:20 26.12.2019
1916 Clouds 7 1015 87 10000 6.2 140 11:57 26.12.2019
1917 Rain 7 1016 93 10000 6.2 120 11:39 26.12.2019
1918 Rain 7 1016 87 9000 4.6 120 11:20 26.12.2019
1919 Rain 6 1017 87 10000 5.1 120 10:47 26.12.2019
1920 Rain 6 1017 81 10000 4.6 120 10:19 26.12.2019
1921 Rain 6 1017 81 10000 5.7 120 09:50 26.12.2019
1922 Rain 6 1017 81 10000 5.7 120 09:32 26.12.2019
1923 Clouds 6 1019 87 10000 5.7 120 08:55 26.12.2019
1924 Rain 6 1018 87 10000 5.1 100 08:36 26.12.2019
1925 Clouds 6 1019 87 10000 4.1 90 08:18 26.12.2019
1926 Clouds 5 1019 87 10000 3.1 90 07:30 26.12.2019
1927 Clouds 5 1019 87 10000 3.1 90 07:30 26.12.2019
1928 Clouds 5 1020 93 10000 3.1 100 06:54 26.12.2019
1929 Clouds 5 1020 93 10000 3.1 100 06:32 26.12.2019
1930 Clouds 4 1021 86 10000 3.1 110 05:46 26.12.2019
1931 Clouds 3 1021 93 10000 3.6 100 04:59 26.12.2019
1932 Clouds 3 1021 93 10000 3.6 100 04:30 26.12.2019
1933 Rain 2 1023 93 10000 2.6 100 03:19 26.12.2019
1934 Clouds 2 1023 93 10000 3.1 90 02:40 26.12.2019
1935 Clouds 1 1023 100 9000 3.6 100 02:19 26.12.2019
1936 Clouds 1 1023 100 10000 3.1 100 01:41 26.12.2019
1937 Clouds 1 1024 93 10000 3.6 100 01:22 26.12.2019
1938 Clouds 1 1024 93 10000 2.1 70 00:41 26.12.2019
1939 Clouds 1 1025 93 10000 1.5 0 00:22 26.12.2019
1940 Mist 1 1024 100 4700 1 0 23:42 25.12.2019
1941 Clouds 1 1024 100 7000 1 0 23:21 25.12.2019
1942 Clouds 1 1025 93 10000 1.82 162 22:59 25.12.2019
1943 Clouds 1 1025 93 10000 1.82 162 22:40 25.12.2019
1944 Clouds 1 1025 93 10000 1.82 162 22:22 25.12.2019
1945 Clouds 1 1025 93 10000 1.82 162 21:59 25.12.2019
1946 Clouds 1 1025 93 10000 0.5 0 21:40 25.12.2019
1947 Clouds 1 1025 93 10000 1.82 162 21:22 25.12.2019
1948 Clouds 1 1025 93 10000 1.82 162 20:58 25.12.2019
1949 Clouds 1 1025 93 10000 1.5 100 20:40 25.12.2019
1950 Clouds 2 1025 93 10000 1.5 0 20:18 25.12.2019
1951 Clouds 2 1025 93 10000 1.5 140 19:44 25.12.2019
1952 Clouds 2 1025 93 10000 1.5 140 19:25 25.12.2019
1953 Clouds 3 1025 93 10000 1.5 0 18:59 25.12.2019
1954 Clouds 3 1025 86 10000 2.1 190 18:39 25.12.2019
1955 Clouds 3 1025 93 10000 0.81 162 18:20 25.12.2019
1956 Clouds 4 1025 81 10000 1 40 17:43 25.12.2019
1957 Clouds 5 1025 81 10000 0.5 250 17:21 25.12.2019
1958 Clouds 6 1025 81 10000 0.5 250 16:59 25.12.2019
1959 Clouds 7 1025 70 10000 0.5 60 16:39 25.12.2019
1960 Clouds 7 1025 70 10000 2.1 290 16:19 25.12.2019
1961 Clouds 7 1025 70 10000 2.1 290 15:57 25.12.2019
1962 Clouds 8 1025 70 10000 2.1 300 15:39 25.12.2019
1963 Clouds 8 1025 70 10000 2.1 300 15:39 25.12.2019
1964 Clouds 8 1025 70 10000 2.1 300 15:39 25.12.2019
1965 Clouds 8 1025 70 10000 2.6 290 15:21 25.12.2019
1966 Clouds 8 1025 70 10000 2.6 290 14:58 25.12.2019
1967 Clouds 8 1025 70 10000 3.1 290 14:40 25.12.2019
1968 Clear 8 1025 75 10000 2.6 300 14:21 25.12.2019
1969 Clear 8 1025 75 10000 2.6 300 14:21 25.12.2019
1970 Clear 8 1025 75 10000 2.6 300 14:21 25.12.2019
1971 Clear 8 1025 75 10000 2.6 300 14:21 25.12.2019
1972 Clear 8 1025 75 10000 2.6 300 14:21 25.12.2019
1973 Clear 7 1025 75 10000 2.6 300 13:57 25.12.2019
1974 Clear 8 1025 70 10000 3.1 290 13:38 25.12.2019
1975 Clear 7 1025 70 10000 3.1 290 13:19 25.12.2019
1976 Clear 7 1025 75 10000 3.6 280 12:42 25.12.2019
1977 Clear 7 1025 75 10000 3.1 250 12:20 25.12.2019
1978 Clear 6 1025 81 10000 3.1 230 11:57 25.12.2019
1979 Clear 6 1025 81 10000 3.1 230 11:39 25.12.2019
1980 Clear 5 1024 81 10000 2.6 220 11:18 25.12.2019
1981 Clear 4 1024 81 10000 2.1 250 10:39 25.12.2019
1982 Clear 3 1023 100 10000 1.5 270 10:21 25.12.2019
1983 Clouds 3 1023 100 10000 1.5 260 09:51 25.12.2019
1984 Clouds 3 1023 100 10000 1.5 260 09:33 25.12.2019
1985 Clouds 4 1022 93 10000 0.5 190 08:51 25.12.2019
1986 Clouds 4 1022 93 10000 0.5 190 08:51 25.12.2019
1987 Clouds 4 1022 93 10000 0.5 190 08:31 25.12.2019
1988 Clear 4 1022 93 10000 1 300 07:59 25.12.2019
1989 Clear 4 1021 86 10000 3.6 270 07:37 25.12.2019
1990 Clear 4 1021 93 10000 3.1 280 07:19 25.12.2019
1991 Clear 5 1021 93 10000 3.1 280 06:23 25.12.2019
1992 Clear 5 1020 93 10000 4.1 270 05:43 25.12.2019
1993 Clouds 6 1019 81 10000 3.1 290 04:39 25.12.2019
1994 Clouds 6 1019 81 10000 3.6 300 04:20 25.12.2019
1995 Clouds 7 1019 75 10000 4.1 300 03:43 25.12.2019
1996 Clouds 7 1018 75 10000 4.6 290 02:57 25.12.2019
1997 Clouds 7 1018 75 10000 4.6 290 02:28 25.12.2019
1998 Clouds 8 1016 76 10000 5.1 290 01:36 25.12.2019
1999 Clouds 8 1017 76 10000 4.6 290 01:18 25.12.2019
2000 Clouds 8 1015 76 10000 6.7 290 00:40 25.12.2019
2001 Clouds 9 1014 81 10000 7.7 290 00:22 25.12.2019
2002 Clouds 9 1014 81 10000 7.7 290 00:22 25.12.2019
2003 Rain 9 1014 81 10000 7.2 290 23:39 24.12.2019
2004 Clouds 9 1013 87 10000 6.2 280 23:20 24.12.2019
2005 Rain 9 1013 87 10000 4.6 270 22:42 24.12.2019
2006 Rain 9 1012 87 10000 4.6 250 22:24 24.12.2019
2007 Clouds 9 1011 87 10000 5.7 250 21:59 24.12.2019
2008 Clouds 9 1011 87 10000 5.7 250 21:40 24.12.2019
2009 Clouds 9 1011 87 10000 5.1 250 21:19 24.12.2019
2010 Clouds 9 1010 87 10000 5.7 250 20:42 24.12.2019
2011 Clouds 9 1010 87 10000 6.7 250 20:23 24.12.2019
2012 Clouds 9 1009 81 10000 7.2 250 19:55 24.12.2019
2013 Clouds 9 1009 81 10000 7.2 250 19:37 24.12.2019
2014 Clouds 9 1009 81 10000 6.2 250 19:18 24.12.2019
2015 Clouds 9 1009 81 10000 6.2 250 19:18 24.12.2019
2016 Clouds 9 1009 76 10000 5.7 250 18:42 24.12.2019
2017 Clouds 10 1009 71 10000 5.7 250 18:19 24.12.2019
2018 Clouds 10 1008 76 10000 5.1 250 17:44 24.12.2019
2019 Clouds 10 1008 81 10000 5.1 230 17:23 24.12.2019
2020 Rain 10 1008 81 10000 5.1 230 16:58 24.12.2019
2021 Rain 10 1008 81 10000 5.1 230 16:58 24.12.2019
2022 Clouds 10 1008 81 10000 6.7 240 16:40 24.12.2019
2023 Clouds 10 1008 66 10000 6.7 250 16:21 24.12.2019
2024 Rain 11 1006 81 10000 7.7 250 15:58 24.12.2019
2025 Clouds 11 1008 66 10000 7.2 240 15:38 24.12.2019
2026 Clouds 11 1008 66 10000 7.7 250 15:19 24.12.2019
2027 Clouds 11 1007 71 10000 7.2 260 14:58 24.12.2019
2028 Clouds 11 1007 71 10000 7.2 260 14:40 24.12.2019
2029 Clouds 11 1007 71 10000 6.7 250 14:22 24.12.2019
2030 Clouds 11 1007 71 10000 6.7 250 13:56 24.12.2019
2031 Clouds 11 1007 71 10000 7.7 250 13:38 24.12.2019
2032 Clouds 11 1007 76 10000 8.7 250 13:20 24.12.2019
2033 Clouds 10 1007 76 10000 8.7 250 12:57 24.12.2019
2034 Clouds 10 1007 76 10000 8.2 250 12:38 24.12.2019
2035 Clouds 10 1007 76 10000 8.2 250 12:19 24.12.2019
2036 Clouds 10 1007 76 10000 8.2 250 11:57 24.12.2019
2037 Rain 9 1007 81 6000 7.7 250 11:38 24.12.2019
2038 Clouds 9 1007 81 10000 7.7 250 11:20 24.12.2019
2039 Clouds 9 1007 81 10000 7.7 250 10:57 24.12.2019
2040 Clouds 9 1006 81 10000 6.2 240 10:38 24.12.2019
2041 Clouds 8 1007 87 10000 6.7 220 10:20 24.12.2019
2042 Clouds 8 1007 87 10000 6.7 220 09:58 24.12.2019
2043 Clouds 8 1007 93 10000 5.7 230 09:40 24.12.2019
2044 Clouds 8 1006 87 10000 5.1 240 09:22 24.12.2019
2045 Clouds 8 1006 87 10000 5.1 240 08:56 24.12.2019
2046 Clouds 8 1006 87 10000 6.2 250 08:37 24.12.2019
2047 Clouds 8 1005 87 10000 5.7 250 08:18 24.12.2019
2048 Clouds 8 1005 93 10000 5.7 250 07:43 24.12.2019
2049 Clouds 8 1006 100 10000 4.6 240 07:21 24.12.2019
2050 Rain 8 1005 93 10000 3.1 250 06:41 24.12.2019
2051 Rain 8 1005 93 10000 2.1 230 06:22 24.12.2019
2052 Rain 8 1005 93 10000 2.1 230 05:56 24.12.2019
2053 Rain 8 1005 93 10000 1.5 0 05:20 24.12.2019
2054 Rain 8 1006 87 5000 3.6 150 04:22 24.12.2019
2055 Rain 7 1007 93 6000 2.6 160 03:50 24.12.2019
2056 Rain 8 1009 87 10000 2.6 180 02:37 24.12.2019
2057 Rain 8 1009 81 10000 2.6 170 02:18 24.12.2019
2058 Rain 7 1010 81 10000 2.1 180 01:42 24.12.2019
2059 Clouds 7 1010 81 10000 2.6 170 01:19 24.12.2019
2060 Clouds 7 1011 87 10000 2.1 170 00:41 24.12.2019
2061 Clouds 7 1011 87 10000 2.1 160 00:22 24.12.2019
2062 Clouds 7 1011 93 10000 4.1 180 23:55 23.12.2019
2063 Clouds 7 1011 93 10000 4.1 180 23:37 23.12.2019
2064 Clouds 7 1011 81 10000 3.1 200 23:19 23.12.2019
2065 Clouds 7 1012 81 10000 2.6 230 22:54 23.12.2019
2066 Clouds 7 1012 81 10000 2.6 230 22:36 23.12.2019
2067 Clouds 7 1012 81 10000 2.6 220 22:18 23.12.2019
2068 Clouds 7 1012 93 10000 4.6 200 21:54 23.12.2019
2069 Clouds 7 1012 81 10000 3.1 220 21:36 23.12.2019
2070 Clouds 7 1012 81 10000 2.6 230 21:18 23.12.2019
2071 Clouds 7 1012 81 10000 2.6 230 20:55 23.12.2019
2072 Clouds 7 1012 81 10000 3.6 230 20:37 23.12.2019
2073 Clouds 7 1012 87 10000 5.1 200 20:18 23.12.2019
2074 Clouds 7 1012 87 10000 5.1 200 19:54 23.12.2019
2075 Clouds 7 1012 76 10000 3.6 220 19:36 23.12.2019
2076 Clouds 7 1012 76 10000 4.1 250 19:18 23.12.2019
2077 Clouds 7 1012 87 10000 4.6 210 18:54 23.12.2019
2078 Clouds 8 1012 87 10000 4.6 210 18:36 23.12.2019
2079 Rain 8 1012 81 10000 4.6 210 18:18 23.12.2019
2080 Rain 8 1011 76 10000 5.7 240 17:55 23.12.2019
2081 Rain 8 1011 76 10000 5.7 240 17:37 23.12.2019
2082 Rain 8 1011 76 10000 5.7 240 17:37 23.12.2019
2083 Clouds 8 1011 81 10000 5.1 240 17:18 23.12.2019
2084 Clouds 8 1011 81 10000 4.6 240 16:42 23.12.2019
2085 Clouds 9 1011 75 10000 5.1 250 16:19 23.12.2019
2086 Clouds 9 1011 75 10000 5.1 250 16:19 23.12.2019
2087 Clouds 9 1011 75 10000 5.1 250 15:58 23.12.2019
2088 Clouds 9 1011 70 10000 5.7 260 15:38 23.12.2019
2089 Clouds 9 1010 70 10000 5.7 260 15:19 23.12.2019
2090 Clouds 10 1010 57 10000 7.2 270 14:58 23.12.2019
2091 Clouds 10 1009 62 10000 7.2 260 14:39 23.12.2019
2092 Clouds 10 1009 62 10000 7.2 260 14:21 23.12.2019
2093 Clouds 10 1009 66 10000 6.7 260 13:58 23.12.2019
2094 Clouds 10 1009 66 10000 6.7 260 13:40 23.12.2019
2095 Clouds 9 1009 71 10000 8.2 260 13:22 23.12.2019
2096 Clouds 9 1009 71 10000 7.2 250 12:56 23.12.2019
2097 Clouds 9 1009 71 10000 7.2 250 12:37 23.12.2019
2098 Clear 9 1008 76 10000 6.2 250 12:19 23.12.2019
2099 Clear 9 1008 76 10000 6.7 250 11:44 23.12.2019
2100 Clouds 8 1007 76 10000 6.2 250 11:26 23.12.2019
2101 Clear 8 1007 70 10000 6.2 260 10:57 23.12.2019
2102 Clear 8 1007 70 10000 6.2 260 10:57 23.12.2019
2103 Clear 7 1007 70 10000 6.2 260 10:39 23.12.2019
2104 Clear 7 1006 75 10000 7.2 260 10:20 23.12.2019
2105 Clear 7 1006 81 10000 8.2 250 09:59 23.12.2019
2106 Clear 7 1006 81 10000 8.2 250 09:40 23.12.2019
2107 Clear 7 1005 87 10000 6.7 260 09:21 23.12.2019
2108 Clear 7 1005 87 10000 6.7 260 08:58 23.12.2019
2109 Clouds 7 1005 87 10000 5.1 260 08:40 23.12.2019
2110 Clouds 7 1004 81 10000 6.2 260 08:22 23.12.2019
2111 Clouds 7 1003 87 10000 7.2 260 07:47 23.12.2019
2112 Clouds 7 1003 81 10000 5.7 250 07:20 23.12.2019
2113 Clouds 7 1002 87 10000 5.1 250 06:53 23.12.2019
2114 Clouds 7 1001 87 10000 6.2 250 06:26 23.12.2019
2115 Clouds 7 1001 81 10000 5.7 240 05:56 23.12.2019
2116 Clouds 7 1001 81 10000 5.7 240 05:29 23.12.2019
2117 Clear 6 1000 87 10000 4.1 250 04:34 23.12.2019
2118 Clear 6 998 87 10000 4.6 250 03:26 23.12.2019
2119 Rain 6 998 87 10000 3.6 250 02:42 23.12.2019
2120 Rain 6 998 87 10000 4.1 240 02:19 23.12.2019
2121 Clouds 6 997 87 10000 3.6 240 01:44 23.12.2019
2122 Clouds 6 997 87 10000 4.6 240 01:26 23.12.2019
2123 Clear 6 997 93 10000 4.6 260 00:44 23.12.2019
2124 Clear 6 996 93 10000 5.1 260 00:24 23.12.2019
2125 Clouds 6 995 87 10000 6.7 250 23:40 22.12.2019
2126 Clouds 6 994 87 10000 6.2 250 23:22 22.12.2019
2127 Clouds 6 994 87 10000 6.2 250 22:58 22.12.2019
2128 Clouds 7 994 81 10000 5.7 260 22:40 22.12.2019
2129 Clouds 7 993 81 10000 5.1 250 22:22 22.12.2019
2130 Clouds 7 993 81 10000 5.1 250 21:59 22.12.2019
2131 Clouds 7 993 93 10000 4.1 230 21:40 22.12.2019
2132 Clouds 7 992 93 10000 4.6 220 21:21 22.12.2019
2133 Clouds 7 992 93 10000 4.6 220 20:59 22.12.2019
2134 Clouds 7 992 93 10000 4.1 220 20:39 22.12.2019
2135 Clouds 7 992 93 10000 4.6 220 20:19 22.12.2019
2136 Clouds 7 991 93 10000 4.6 220 19:57 22.12.2019
2137 Clouds 7 991 93 10000 4.6 220 19:39 22.12.2019
2138 Clouds 7 991 93 10000 4.6 220 19:20 22.12.2019
2139 Clouds 7 991 93 10000 4.1 220 18:43 22.12.2019
2140 Clouds 7 990 93 10000 3.6 230 18:25 22.12.2019
2141 Clouds 7 990 93 10000 3.6 230 17:57 22.12.2019
2142 Clouds 7 990 81 10000 4.6 240 17:57 22.12.2019
2143 Clouds 7 990 81 10000 4.6 240 17:39 22.12.2019
2144 Clouds 8 989 81 10000 5.7 260 17:19 22.12.2019
2145 Clouds 8 989 81 10000 5.7 260 17:19 22.12.2019
2146 Clouds 8 989 81 10000 5.7 260 16:59 22.12.2019
2147 Clouds 8 988 87 10000 4.1 250 16:41 22.12.2019
2148 Clouds 8 988 87 10000 5.1 240 16:22 22.12.2019
2149 Clouds 8 988 87 10000 5.1 240 16:22 22.12.2019
2150 Clouds 8 988 81 10000 6.2 250 15:57 22.12.2019
2151 Clouds 8 988 81 10000 6.2 250 15:39 22.12.2019
2152 Clouds 9 987 76 10000 6.7 250 15:21 22.12.2019
2153 Clouds 9 987 76 10000 6.2 270 14:56 22.12.2019
2154 Clouds 8 987 76 10000 6.2 270 14:38 22.12.2019
2155 Clouds 8 987 76 10000 5.1 260 14:19 22.12.2019
2156 Clouds 8 986 76 10000 6.2 270 13:56 22.12.2019
2157 Clouds 8 986 76 10000 6.2 270 13:38 22.12.2019
2158 Clouds 8 986 76 10000 6.2 260 13:19 22.12.2019
2159 Clouds 8 986 76 10000 6.2 260 13:19 22.12.2019
2160 Clouds 8 986 81 10000 7.2 270 12:57 22.12.2019
2161 Clouds 8 986 81 10000 7.2 270 12:38 22.12.2019
2162 Clouds 8 985 81 10000 6.2 260 12:19 22.12.2019
2163 Clouds 7 985 81 10000 7.2 280 11:57 22.12.2019
2164 Clouds 7 985 93 10000 5.1 270 11:38 22.12.2019
2165 Clouds 7 985 100 10000 6.2 270 11:19 22.12.2019
2166 Clouds 7 985 100 10000 6.2 270 10:57 22.12.2019
2167 Drizzle 7 984 100 5000 6.2 280 10:38 22.12.2019
2168 Drizzle 7 983 100 10000 7.2 280 10:19 22.12.2019
2169 Drizzle 7 983 100 10000 7.2 280 09:58 22.12.2019
2170 Clouds 7 982 93 10000 6.7 280 09:39 22.12.2019
2171 Rain 7 981 93 10000 7.2 290 09:21 22.12.2019
2172 Rain 7 981 87 10000 6.2 300 08:45 22.12.2019
2173 Rain 7 980 93 10000 6.2 310 08:23 22.12.2019
2174 Rain 7 979 93 10000 5.7 290 07:50 22.12.2019
2175 Rain 8 979 93 9000 5.1 290 07:22 22.12.2019
2176 Rain 8 977 93 10000 3.6 250 06:57 22.12.2019
2177 Rain 8 977 93 10000 3.6 250 06:27 22.12.2019
2178 Rain 8 976 93 10000 2.6 230 05:43 22.12.2019
2179 Rain 8 975 93 9000 1.5 230 05:21 22.12.2019
2180 Clouds 8 975 93 9000 1.5 230 04:27 22.12.2019
2181 Clouds 8 974 93 7000 2.6 210 03:24 22.12.2019
2182 Rain 8 973 100 7000 3.1 190 02:34 22.12.2019
2183 Rain 8 973 93 8000 3.1 190 01:33 22.12.2019
2184 Rain 8 972 100 7000 2.6 220 00:59 22.12.2019
2185 Rain 8 972 100 7000 2.6 220 00:41 22.12.2019
2186 Rain 8 972 93 10000 3.6 200 00:21 22.12.2019
2187 Rain 8 972 93 9000 2.6 140 23:42 21.12.2019
2188 Rain 8 972 93 10000 5.7 110 23:24 21.12.2019
2189 Rain 8 972 93 10000 5.7 110 22:59 21.12.2019
2190 Rain 8 972 93 10000 6.2 110 22:40 21.12.2019
2191 Rain 8 972 87 10000 6.7 100 22:19 21.12.2019
2192 Rain 7 973 87 10000 6.2 100 21:57 21.12.2019
2193 Rain 7 973 87 10000 6.2 100 21:37 21.12.2019
2194 Rain 7 973 87 10000 6.7 110 21:19 21.12.2019
2195 Rain 7 973 87 10000 6.7 120 20:58 21.12.2019
2196 Rain 8 974 87 10000 4.6 150 20:39 21.12.2019
2197 Rain 8 975 87 10000 4.6 130 20:21 21.12.2019
2198 Rain 8 974 93 10000 4.1 130 19:58 21.12.2019
2199 Rain 8 975 87 10000 4.1 130 19:40 21.12.2019
2200 Rain 8 976 87 10000 4.1 130 19:19 21.12.2019
2201 Rain 8 976 87 10000 4.1 130 19:19 21.12.2019
2202 Rain 8 976 93 10000 7.2 150 18:45 21.12.2019
2203 Rain 8 976 93 10000 6.2 150 18:24 21.12.2019
2204 Rain 9 978 81 10000 4.1 170 17:57 21.12.2019
2205 Rain 9 978 81 10000 4.1 170 17:39 21.12.2019
2206 Clouds 9 978 81 10000 4.6 180 17:21 21.12.2019
2207 Rain 9 977 93 10000 5.1 160 16:59 21.12.2019
2208 Clouds 9 979 81 10000 4.1 190 16:41 21.12.2019
2209 Clouds 9 978 87 10000 3.6 170 16:19 21.12.2019
2210 Clouds 9 978 87 10000 3.6 170 15:57 21.12.2019
2211 Rain 9 979 87 10000 4.1 170 15:38 21.12.2019
2212 Rain 9 979 81 10000 4.6 180 15:19 21.12.2019
2213 Rain 9 979 93 10000 6.2 180 14:57 21.12.2019
2214 Rain 9 979 93 10000 6.2 180 14:38 21.12.2019
2215 Rain 9 980 93 10000 7.7 180 14:18 21.12.2019
2216 Rain 9 980 76 10000 4.6 200 13:55 21.12.2019
2217 Clouds 9 980 76 10000 5.1 200 13:37 21.12.2019
2218 Clouds 9 981 81 10000 5.1 200 13:18 21.12.2019
2219 Rain 9 981 81 10000 4.6 190 12:54 21.12.2019
2220 Rain 9 981 81 10000 4.6 190 12:36 21.12.2019
2221 Rain 9 982 81 10000 5.1 200 12:18 21.12.2019
2222 Rain 8 982 93 10000 8.2 190 11:42 21.12.2019
2223 Clouds 8 982 93 10000 7.7 200 11:24 21.12.2019
2224 Rain 8 982 81 10000 3.1 200 10:56 21.12.2019
2225 Rain 7 982 81 10000 3.1 200 10:37 21.12.2019
2226 Rain 7 982 81 10000 4.1 200 10:19 21.12.2019
2227 Rain 7 982 81 10000 4.1 200 10:19 21.12.2019
2228 Rain 7 982 87 10000 4.1 190 09:42 21.12.2019
2229 Rain 7 982 100 8000 5.1 200 09:21 21.12.2019
2230 Rain 7 982 100 8000 5.1 200 08:57 21.12.2019
2231 Rain 7 982 87 10000 4.1 210 08:37 21.12.2019
2232 Rain 7 982 87 10000 5.1 220 08:19 21.12.2019
2233 Rain 7 982 93 6000 5.1 210 07:44 21.12.2019
2234 Rain 7 982 93 10000 7.7 190 07:22 21.12.2019
2235 Rain 8 982 87 10000 4.1 180 06:44 21.12.2019
2236 Rain 8 983 87 10000 3.6 190 06:25 21.12.2019
2237 Clouds 7 983 87 10000 3.6 190 05:49 21.12.2019
2238 Rain 7 983 93 10000 3.6 190 04:58 21.12.2019
2239 Rain 7 984 87 10000 2.6 170 03:57 21.12.2019
2240 Rain 6 984 87 10000 2.6 180 02:52 21.12.2019
2241 Rain 6 984 87 10000 3.6 200 01:59 21.12.2019
2242 Rain 6 985 87 10000 4.1 200 01:28 21.12.2019
2243 Rain 6 984 93 10000 3.1 180 00:55 21.12.2019
2244 Clouds 5 985 87 10000 2.6 170 00:37 21.12.2019
2245 Rain 5 985 87 10000 2.1 0 00:18 21.12.2019
2246 Rain 5 984 93 10000 4.6 180 23:38 20.12.2019
2247 Clouds 5 984 93 10000 5.1 190 23:19 20.12.2019
2248 Clouds 5 984 93 10000 5.1 190 23:19 20.12.2019
2249 Clouds 5 984 93 10000 3.6 210 22:43 20.12.2019
2250 Clouds 5 984 93 10000 4.6 210 22:21 20.12.2019
2251 Clouds 5 984 93 10000 4.6 210 21:59 20.12.2019
2252 Clouds 5 984 93 10000 4.1 210 21:40 20.12.2019
2253 Clouds 5 984 93 10000 4.6 210 21:20 20.12.2019
2254 Clouds 6 984 100 10000 4.1 220 20:55 20.12.2019
2255 Clouds 6 984 100 10000 4.1 220 20:36 20.12.2019
2256 Clouds 6 983 87 10000 3.6 230 20:18 20.12.2019
2257 Clouds 6 983 81 10000 3.6 240 19:41 20.12.2019
2258 Rain 7 982 81 10000 4.1 240 19:20 20.12.2019
2259 Rain 7 982 81 10000 4.1 240 18:58 20.12.2019
2260 Rain 7 982 81 10000 5.1 260 18:38 20.12.2019
2261 Rain 7 981 87 5000 7.7 260 18:20 20.12.2019
2262 Rain 7 980 81 10000 6.2 230 17:54 20.12.2019
2263 Rain 8 980 81 10000 6.2 230 17:36 20.12.2019
2264 Clouds 8 980 81 10000 6.2 230 17:18 20.12.2019
2265 Clouds 8 980 81 10000 6.2 230 17:18 20.12.2019
2266 Rain 8 980 93 10000 6.7 220 16:40 20.12.2019
2267 Rain 8 979 81 10000 5.7 230 16:20 20.12.2019
2268 Rain 8 979 81 10000 7.7 210 15:57 20.12.2019
2269 Clouds 9 979 81 10000 7.7 210 15:39 20.12.2019
2270 Clouds 9 978 81 10000 8.2 220 15:20 20.12.2019
2271 Rain 9 978 93 10000 5.7 250 14:59 20.12.2019
2272 Rain 9 978 93 10000 5.7 250 14:59 20.12.2019
2273 Rain 9 978 93 10000 5.7 250 14:40 20.12.2019
2274 Rain 9 978 93 10000 7.2 220 14:22 20.12.2019
2275 Rain 9 978 87 10000 6.7 240 13:56 20.12.2019
2276 Rain 9 978 87 10000 6.2 240 13:37 20.12.2019
2277 Rain 9 978 87 10000 6.2 240 13:18 20.12.2019
2278 Rain 9 978 93 10000 5.1 240 12:55 20.12.2019
2279 Rain 9 977 87 10000 7.2 250 12:36 20.12.2019
2280 Rain 9 977 87 10000 7.2 250 12:18 20.12.2019
2281 Rain 9 977 93 10000 7.2 270 11:56 20.12.2019
2282 Rain 9 977 93 9000 6.2 220 11:37 20.12.2019
2283 Rain 9 977 93 9000 6.2 220 11:18 20.12.2019
2284 Rain 9 976 93 8000 3.1 240 10:54 20.12.2019
2285 Rain 9 976 93 9000 3.1 240 10:36 20.12.2019
2286 Rain 9 976 93 9000 3.1 240 10:18 20.12.2019
2287 Rain 9 976 93 5000 2.1 230 09:41 20.12.2019
2288 Rain 9 976 93 5000 2.1 260 09:21 20.12.2019
2289 Rain 9 976 93 5000 2.1 260 09:21 20.12.2019
2290 Rain 9 976 93 2300 1.5 300 08:44 20.12.2019
2291 Rain 9 977 93 2200 1 310 08:26 20.12.2019
2292 Rain 9 977 100 1200 2.35 309 07:59 20.12.2019
2293 Rain 9 977 100 1200 2.35 309 07:41 20.12.2019
2294 Rain 9 978 100 6000 1.5 0 07:20 20.12.2019
2295 Rain 9 979 100 4800 2.6 60 06:52 20.12.2019
2296 Rain 9 980 100 6000 1.5 0 06:33 20.12.2019
2297 Rain 9 981 100 5000 1.5 0 05:56 20.12.2019
2298 Rain 9 982 93 3300 2.6 70 05:38 20.12.2019
2299 Rain 8 983 93 9000 2.6 70 04:46 20.12.2019
2300 Rain 8 985 93 7000 4.1 140 03:33 20.12.2019
2301 Rain 8 985 87 10000 3.1 120 02:45 20.12.2019
2302 Rain 9 987 87 10000 2.6 100 01:55 20.12.2019
2303 Rain 9 988 81 10000 2.6 150 01:35 20.12.2019
2304 Rain 9 989 81 10000 4.6 150 00:53 20.12.2019
2305 Rain 9 988 87 10000 4.6 180 00:34 20.12.2019
2306 Rain 10 990 87 10000 7.7 170 23:57 19.12.2019
2307 Rain 10 990 93 10000 9.3 170 23:39 19.12.2019
2308 Rain 10 990 93 10000 9.3 170 23:19 19.12.2019
2309 Rain 11 991 87 10000 9.3 170 22:39 19.12.2019
2310 Rain 11 991 87 10000 9.3 170 22:20 19.12.2019
2311 Clouds 11 991 81 10000 10.3 170 21:56 19.12.2019
2312 Clouds 11 991 81 10000 10.3 170 21:56 19.12.2019
2313 Clouds 11 991 76 10000 10.3 170 21:38 19.12.2019
2314 Clouds 11 991 76 10000 10.3 170 21:19 19.12.2019
2315 Clouds 12 991 81 10000 10.3 160 20:56 19.12.2019
2316 Rain 12 992 76 10000 6.7 150 20:37 19.12.2019
2317 Rain 12 992 76 10000 6.7 150 20:19 19.12.2019
2318 Rain 11 992 76 10000 6.2 150 19:58 19.12.2019
2319 Rain 11 992 87 10000 8.2 160 19:39 19.12.2019
2320 Rain 11 992 87 10000 8.2 160 19:19 19.12.2019
2321 Rain 11 992 87 10000 8.2 160 19:19 19.12.2019
2322 Clouds 11 993 87 10000 8.7 170 18:57 19.12.2019
2323 Clouds 11 993 87 10000 10.3 180 18:39 19.12.2019
2324 Clouds 11 993 87 10000 10.3 180 18:19 19.12.2019
2325 Clouds 11 993 87 10000 10.3 170 17:55 19.12.2019
2326 Rain 11 994 93 10000 9.8 170 17:37 19.12.2019
2327 Rain 12 993 82 10000 7.2 170 17:18 19.12.2019
2328 Rain 12 994 93 10000 10.3 160 16:55 19.12.2019
2329 Rain 11 994 87 10000 5.7 140 16:37 19.12.2019
2330 Rain 11 994 87 10000 5.7 140 16:19 19.12.2019
2331 Rain 11 995 87 10000 4.6 150 15:56 19.12.2019
2332 Rain 11 995 87 8000 4.1 130 15:37 19.12.2019
2333 Rain 11 995 87 8000 4.1 130 15:18 19.12.2019
2334 Rain 11 995 87 8000 4.1 130 15:18 19.12.2019
2335 Rain 11 995 87 8000 8.2 160 14:43 19.12.2019
2336 Clouds 12 996 76 10000 5.1 130 14:20 19.12.2019
2337 Clouds 12 996 76 10000 6.2 170 13:59 19.12.2019
2338 Clouds 12 998 87 10000 6.7 160 13:38 19.12.2019
2339 Clouds 12 998 87 10000 6.7 160 13:19 19.12.2019
2340 Clouds 12 998 87 10000 6.7 160 12:57 19.12.2019
2341 Clouds 12 999 87 10000 8.2 170 12:39 19.12.2019
2342 Clouds 12 999 87 10000 8.2 170 12:19 19.12.2019
2343 Clouds 12 999 87 10000 7.7 170 11:58 19.12.2019
2344 Clouds 12 999 87 10000 7.7 170 11:40 19.12.2019
2345 Clouds 11 999 87 10000 9.8 180 11:18 19.12.2019
2346 Clouds 11 999 87 10000 4.1 180 10:58 19.12.2019
2347 Clouds 11 1000 93 9000 9.8 180 10:38 19.12.2019
2348 Clouds 11 1000 93 9000 9.8 180 10:20 19.12.2019
2349 Rain 11 999 87 10000 4.6 190 09:55 19.12.2019
2350 Clouds 11 1000 87 10000 5.1 180 09:37 19.12.2019
2351 Clouds 11 1000 87 10000 5.1 180 09:18 19.12.2019
2352 Clouds 11 1000 87 10000 5.1 180 08:55 19.12.2019
2353 Clouds 11 1000 87 10000 5.7 170 08:36 19.12.2019
2354 Clouds 11 1000 87 10000 5.7 170 08:18 19.12.2019
2355 Clouds 11 1000 87 10000 5.7 160 07:40 19.12.2019
2356 Rain 11 999 93 10000 5.1 180 07:22 19.12.2019
2357 Rain 10 1000 81 10000 5.7 160 06:54 19.12.2019
2358 Rain 10 999 93 10000 5.1 170 06:36 19.12.2019
2359 Rain 10 999 93 10000 5.1 170 06:18 19.12.2019
2360 Rain 10 1001 93 10000 5.1 150 05:42 19.12.2019
2361 Rain 10 1001 93 10000 5.1 150 05:18 19.12.2019
2362 Rain 10 1002 87 8000 5.7 170 03:51 19.12.2019
2363 Rain 10 1002 87 10000 5.1 170 02:28 19.12.2019
2364 Rain 10 1003 87 10000 6.2 180 01:24 19.12.2019
2365 Rain 10 1003 87 10000 6.2 180 00:57 19.12.2019
2366 Rain 10 1003 87 10000 6.2 170 00:38 19.12.2019
2367 Rain 10 1003 87 10000 6.2 170 00:19 19.12.2019
2368 Rain 10 1003 100 10000 10.3 170 23:44 18.12.2019
2369 Rain 10 1003 93 10000 8.7 170 23:19 18.12.2019
2370 Rain 10 1004 93 8000 9.8 170 22:56 18.12.2019
2371 Rain 9 1004 81 10000 6.2 150 22:38 18.12.2019
2372 Rain 9 1004 81 10000 6.2 150 22:20 18.12.2019
2373 Rain 9 1005 87 10000 5.7 150 21:58 18.12.2019
2374 Rain 9 1005 87 10000 5.7 150 21:40 18.12.2019
2375 Rain 9 1005 87 10000 5.1 150 21:20 18.12.2019
2376 Rain 9 1005 81 10000 6.2 150 20:57 18.12.2019
2377 Rain 9 1006 87 10000 4.6 140 20:38 18.12.2019
2378 Rain 8 1006 87 10000 4.6 140 20:20 18.12.2019
2379 Rain 8 1005 87 10000 6.2 130 19:57 18.12.2019
2380 Rain 8 1006 81 10000 6.2 130 19:39 18.12.2019
2381 Rain 8 1006 81 10000 6.2 130 19:19 18.12.2019
2382 Rain 8 1006 81 10000 7.2 130 18:55 18.12.2019
2383 Clouds 8 1006 81 10000 6.7 130 18:37 18.12.2019
2384 Clouds 8 1006 81 10000 6.7 130 18:18 18.12.2019
2385 Clouds 8 1007 76 10000 5.7 120 17:55 18.12.2019
2386 Clouds 8 1007 81 10000 5.7 120 17:37 18.12.2019
2387 Clouds 8 1007 81 10000 5.7 120 17:18 18.12.2019
2388 Clouds 8 1008 81 10000 4.6 120 16:42 18.12.2019
2389 Clouds 8 1008 87 10000 5.1 140 16:23 18.12.2019
2390 Clouds 8 1008 87 10000 5.1 140 15:57 18.12.2019
2391 Clouds 9 1009 76 10000 5.1 140 15:39 18.12.2019
2392 Clouds 9 1009 76 10000 4.1 140 15:21 18.12.2019
2393 Clouds 9 1009 76 10000 4.1 140 14:56 18.12.2019
2394 Clouds 9 1009 76 10000 4.1 140 14:56 18.12.2019
2395 Clouds 9 1010 76 10000 4.6 150 14:38 18.12.2019
2396 Clouds 9 1010 76 10000 5.7 150 14:19 18.12.2019
2397 Clouds 9 1011 81 10000 4.1 160 13:55 18.12.2019
2398 Clouds 8 1011 81 10000 4.1 160 13:36 18.12.2019
2399 Clear 8 1011 81 10000 4.1 160 13:18 18.12.2019
2400 Clear 8 1011 81 10000 4.1 160 13:18 18.12.2019
2401 Clear 8 1011 81 10000 4.1 160 13:18 18.12.2019
2402 Clear 8 1011 81 10000 3.1 140 12:40 18.12.2019
2403 Clear 7 1011 87 10000 3.1 140 12:21 18.12.2019
2404 Clear 6 1011 81 10000 3.6 130 11:57 18.12.2019
2405 Clear 6 1011 81 10000 3.6 130 11:39 18.12.2019
2406 Clouds 5 1011 93 10000 6.7 170 11:20 18.12.2019
2407 Clouds 5 1011 93 10000 6.7 170 10:58 18.12.2019
2408 Clear 4 1010 93 10000 6.2 170 10:39 18.12.2019
2409 Clear 4 1010 93 10000 3.6 170 10:21 18.12.2019
2410 Clear 4 1010 93 10000 3.6 170 09:59 18.12.2019
2411 Clear 4 1010 93 10000 3.6 170 09:59 18.12.2019
2412 Rain 3 1010 93 10000 2.1 160 09:21 18.12.2019
2413 Rain 3 1010 93 10000 1.5 0 08:55 18.12.2019
2414 Rain 3 1010 93 10000 1.5 0 08:37 18.12.2019
2415 Clouds 2 1010 93 10000 1 0 08:19 18.12.2019
2416 Clouds 3 1010 100 10000 0.5 0 07:42 18.12.2019
2417 Clouds 2 1010 93 10000 2.24 187 07:21 18.12.2019
2418 Clouds 2 1009 93 7000 2.24 187 06:52 18.12.2019
2419 Clouds 2 1009 93 8000 0.5 0 06:26 18.12.2019
2420 Clouds 3 1009 93 7000 1.5 0 05:39 18.12.2019
2421 Haze 3 1009 93 5000 1.61 184 04:35 18.12.2019
2422 Clouds 4 1008 93 6000 1.5 210 02:50 18.12.2019
2423 Clouds 4 1008 93 6000 1.5 210 02:30 18.12.2019
2424 Clouds 4 1008 93 7000 1.5 0 01:47 18.12.2019
2425 Clouds 4 1008 93 7000 1.5 0 01:28 18.12.2019
2426 Clouds 5 1007 93 7000 0.5 0 00:59 18.12.2019
2427 Mist 4 1007 93 2900 1.5 0 00:40 18.12.2019
2428 Clouds 5 1006 93 6000 1.5 250 00:21 18.12.2019
2429 Clouds 5 1006 100 10000 3.1 190 23:54 17.12.2019
2430 Clouds 5 1006 100 10000 3.1 190 23:36 17.12.2019
2431 Clouds 5 1006 93 10000 3.1 190 23:18 17.12.2019
2432 Mist 5 1005 100 7000 2.1 230 22:54 17.12.2019
2433 Mist 5 1005 100 7000 2.1 230 22:36 17.12.2019
2434 Clouds 5 1005 93 10000 3.1 190 22:18 17.12.2019
2435 Haze 5 1004 100 7000 2.6 250 21:55 17.12.2019
2436 Haze 5 1004 100 7000 2.6 250 21:36 17.12.2019
2437 Clouds 6 1004 100 10000 3.1 200 21:18 17.12.2019
2438 Haze 6 1004 93 7000 3.1 250 20:40 17.12.2019
2439 Clouds 6 1004 100 10000 3.1 200 20:19 17.12.2019
2440 Clouds 6 1004 100 10000 3.1 200 19:59 17.12.2019
2441 Clouds 6 1003 93 10000 3.1 200 19:41 17.12.2019
2442 Clouds 6 1003 93 10000 3.1 200 19:41 17.12.2019
2443 Clouds 6 1003 93 10000 3.1 200 19:41 17.12.2019
2444 Clouds 6 1003 100 10000 3.1 190 19:20 17.12.2019
2445 Clouds 6 1003 100 10000 3.1 190 18:58 17.12.2019
2446 Rain 6 1003 93 10000 1.5 240 18:40 17.12.2019
2447 Drizzle 6 1003 93 8000 2.6 220 18:21 17.12.2019
2448 Drizzle 6 1002 93 8000 2.1 220 17:58 17.12.2019
2449 Drizzle 6 1002 93 8000 2.1 220 17:39 17.12.2019
2450 Drizzle 6 1002 100 8000 2.1 240 17:18 17.12.2019
2451 Rain 7 1001 100 5000 2.1 240 16:56 17.12.2019
2452 Rain 7 1001 100 5000 2.1 240 16:37 17.12.2019
2453 Rain 7 1001 87 10000 2.1 250 16:18 17.12.2019
2454 Rain 7 1001 87 10000 1.5 0 15:54 17.12.2019
2455 Rain 7 1001 87 10000 1.5 0 15:36 17.12.2019
2456 Rain 7 1001 87 10000 2.1 290 15:18 17.12.2019
2457 Clouds 7 1000 87 10000 2.1 270 14:54 17.12.2019
2458 Clouds 7 1000 87 10000 2.6 300 14:36 17.12.2019
2459 Clouds 7 1000 87 10000 2.1 270 14:36 17.12.2019
2460 Clouds 7 1000 87 10000 2.6 300 14:18 17.12.2019
2461 Rain 7 999 87 10000 2.1 310 13:55 17.12.2019
2462 Rain 7 999 87 10000 2.1 310 13:37 17.12.2019
2463 Rain 7 999 87 10000 3.1 310 13:18 17.12.2019
2464 Rain 7 999 87 10000 2.1 300 12:40 17.12.2019
2465 Rain 7 999 93 9000 1 0 12:19 17.12.2019
2466 Rain 7 999 93 7000 1.5 0 11:59 17.12.2019
2467 Rain 6 999 93 7000 1.5 0 11:37 17.12.2019
2468 Rain 6 999 93 8000 3.1 300 11:19 17.12.2019
2469 Rain 6 998 93 10000 2.1 300 10:59 17.12.2019
2470 Rain 6 998 93 10000 2.1 300 10:40 17.12.2019
2471 Rain 6 998 93 10000 1 0 10:21 17.12.2019
2472 Rain 6 997 93 10000 2.1 70 09:59 17.12.2019
2473 Rain 6 997 93 10000 2.1 70 09:41 17.12.2019
2474 Rain 6 997 93 10000 2.1 70 09:41 17.12.2019
2475 Rain 6 997 93 10000 1.5 0 09:20 17.12.2019
2476 Rain 6 997 93 10000 1.5 0 08:56 17.12.2019
2477 Rain 6 997 93 10000 1.5 0 08:38 17.12.2019
2478 Rain 6 997 100 7000 2.1 20 08:19 17.12.2019
2479 Rain 6 997 93 7000 1.5 0 07:46 17.12.2019
2480 Rain 6 997 93 10000 1 0 07:26 17.12.2019
2481 Rain 6 996 93 10000 2.1 60 06:59 17.12.2019
2482 Rain 6 996 93 10000 2.1 60 06:35 17.12.2019
2483 Rain 6 996 93 10000 2.1 60 05:54 17.12.2019
2484 Rain 6 997 93 10000 4.1 100 05:36 17.12.2019
2485 Rain 6 997 93 10000 3.6 80 04:31 17.12.2019
2486 Rain 6 997 100 3300 3.1 90 02:34 17.12.2019
2487 Rain 6 998 100 5000 2.1 70 01:55 17.12.2019
2488 Rain 6 998 100 9000 1.5 80 01:18 17.12.2019
2489 Rain 7 998 100 9000 2.1 100 00:38 17.12.2019
2490 Rain 7 998 93 4300 1 70 00:19 17.12.2019
2491 Rain 7 998 93 6000 1 0 23:42 16.12.2019
2492 Rain 7 999 93 7000 1.5 50 23:19 16.12.2019
2493 Rain 7 999 93 7000 1.5 50 23:19 16.12.2019
2494 Rain 7 999 93 7000 1.5 50 23:19 16.12.2019
2495 Rain 7 999 93 8000 2.1 40 22:58 16.12.2019
2496 Rain 7 999 93 8000 2.1 40 22:37 16.12.2019
2497 Rain 7 999 93 10000 2.1 40 22:19 16.12.2019
2498 Rain 7 999 93 10000 2.1 40 22:19 16.12.2019
2499 Rain 7 999 93 10000 2.1 40 22:19 16.12.2019
2500 Rain 7 999 93 10000 2.1 50 21:56 16.12.2019
2501 Rain 7 999 93 10000 2.1 50 21:37 16.12.2019
2502 Rain 7 999 93 10000 2.1 50 21:19 16.12.2019
2503 Rain 7 999 93 10000 2.1 50 20:57 16.12.2019
2504 Rain 7 999 93 10000 1.5 0 20:38 16.12.2019
2505 Rain 7 999 93 10000 1.5 0 20:38 16.12.2019
2506 Clouds 7 999 93 10000 2.6 140 20:19 16.12.2019
2507 Clouds 7 999 87 10000 1.5 130 19:56 16.12.2019
2508 Clouds 7 999 87 10000 1.5 130 19:37 16.12.2019
2509 Clouds 7 1000 100 10000 2.6 130 19:19 16.12.2019
2510 Clouds 7 999 87 10000 2.1 130 18:56 16.12.2019
2511 Clouds 7 999 87 10000 2.1 130 18:38 16.12.2019
2512 Clouds 7 1000 100 10000 2.6 140 18:38 16.12.2019
2513 Clouds 7 1000 100 10000 2.6 140 18:19 16.12.2019
2514 Clouds 7 1000 93 10000 2.1 160 17:57 16.12.2019
2515 Clouds 7 1000 93 10000 3.6 150 17:38 16.12.2019
2516 Clouds 7 1000 93 10000 3.6 150 17:20 16.12.2019
2517 Clouds 7 1000 87 10000 1.5 170 16:57 16.12.2019
2518 Clouds 8 1001 81 10000 1.5 0 16:38 16.12.2019
2519 Rain 8 1000 81 10000 1.5 0 16:19 16.12.2019
2520 Rain 8 1000 81 10000 1.5 0 15:58 16.12.2019
2521 Clouds 8 1000 81 10000 2.1 170 15:38 16.12.2019
2522 Clouds 8 1000 93 10000 3.6 180 15:20 16.12.2019
2523 Clouds 8 1000 93 10000 4.6 180 14:57 16.12.2019
2524 Clouds 8 1000 93 10000 4.6 180 14:37 16.12.2019
2525 Clouds 8 1000 93 10000 4.6 180 14:19 16.12.2019
2526 Clouds 8 1000 93 10000 4.6 180 14:19 16.12.2019
2527 Clouds 8 1000 93 10000 4.6 180 13:56 16.12.2019
2528 Clouds 8 1000 93 10000 4.6 180 13:56 16.12.2019
2529 Clouds 8 1001 81 10000 2.6 210 13:37 16.12.2019
2530 Clouds 8 1001 81 10000 3.1 210 13:19 16.12.2019
2531 Clouds 8 1001 81 10000 3.6 230 12:57 16.12.2019
2532 Clouds 8 1001 81 10000 3.6 230 12:39 16.12.2019
2533 Clouds 8 1001 87 10000 3.1 200 12:19 16.12.2019
2534 Clouds 7 1002 93 10000 4.6 190 11:58 16.12.2019
2535 Clouds 7 1002 93 10000 4.6 190 11:40 16.12.2019
2536 Clouds 7 1002 93 10000 4.6 190 11:20 16.12.2019
2537 Clouds 7 1001 81 10000 3.6 240 10:56 16.12.2019
2538 Clouds 6 1001 93 10000 4.6 190 10:38 16.12.2019
2539 Clouds 6 1001 93 10000 4.6 190 10:19 16.12.2019
2540 Clouds 6 1001 93 10000 4.6 190 09:45 16.12.2019
2541 Clouds 6 1000 93 10000 5.7 180 09:27 16.12.2019
2542 Clouds 6 999 93 10000 3.6 210 08:55 16.12.2019
2543 Clouds 6 999 93 10000 3.6 210 08:37 16.12.2019
2544 Rain 6 1000 87 10000 7.2 210 08:18 16.12.2019
2545 Clouds 6 1000 93 10000 7.2 200 07:42 16.12.2019
2546 Rain 6 999 93 10000 3.6 220 07:21 16.12.2019
2547 Rain 6 999 93 10000 3.6 200 06:45 16.12.2019
2548 Rain 6 999 93 10000 3.1 210 06:22 16.12.2019
2549 Rain 6 999 93 10000 3.1 200 05:49 16.12.2019
2550 Rain 6 999 93 10000 3.1 200 05:30 16.12.2019
2551 Rain 6 999 93 10000 4.1 190 04:21 16.12.2019
2552 Rain 6 999 87 10000 5.7 210 01:59 16.12.2019
2553 Rain 6 1000 87 10000 4.6 220 01:40 16.12.2019
2554 Rain 6 999 76 10000 6.7 200 00:42 16.12.2019
2555 Clouds 7 999 76 10000 6.2 210 00:24 16.12.2019
2556 Thunderstorm 7 998 87 7000 5.1 200 23:58 15.12.2019
2557 Thunderstorm 7 998 87 7000 5.1 200 23:38 15.12.2019
2558 Rain 7 999 76 10000 5.7 200 23:20 15.12.2019
2559 Rain 7 999 76 10000 6.2 200 22:56 15.12.2019
2560 Rain 7 998 87 10000 4.1 200 22:37 15.12.2019
2561 Clouds 7 999 87 10000 8.7 200 22:18 15.12.2019
2562 Clouds 7 999 87 10000 8.7 200 22:18 15.12.2019
2563 Clouds 7 999 87 10000 8.7 200 21:56 15.12.2019
2564 Rain 7 999 93 6000 4.1 230 21:56 15.12.2019
2565 Rain 7 999 93 6000 4.1 230 21:37 15.12.2019
2566 Rain 7 999 93 6000 4.1 230 21:37 15.12.2019
2567 Rain 7 999 81 10000 8.7 200 21:19 15.12.2019
2568 Rain 7 999 87 10000 9.3 190 20:56 15.12.2019
2569 Rain 7 999 87 10000 9.3 190 20:37 15.12.2019
2570 Rain 7 999 87 10000 7.7 190 20:18 15.12.2019
2571 Clouds 7 999 87 10000 7.7 190 19:57 15.12.2019
2572 Clouds 7 999 87 10000 7.7 190 19:57 15.12.2019
2573 Clouds 7 999 87 10000 8.2 200 19:38 15.12.2019
2574 Clouds 7 999 81 10000 7.7 200 19:18 15.12.2019
2575 Clouds 7 999 81 10000 7.7 200 19:18 15.12.2019
2576 Clouds 7 999 81 10000 9.3 200 18:56 15.12.2019
2577 Clouds 7 999 81 10000 9.3 200 18:56 15.12.2019
2578 Clouds 7 999 81 10000 9.3 200 18:38 15.12.2019
2579 Clouds 7 999 75 10000 8.7 210 18:18 15.12.2019
2580 Clouds 8 999 75 10000 7.7 200 17:56 15.12.2019
2581 Clouds 8 998 66 10000 5.7 210 17:37 15.12.2019
2582 Clouds 8 999 75 10000 6.2 220 17:18 15.12.2019
2583 Clouds 8 998 75 10000 6.2 220 16:56 15.12.2019
2584 Clouds 8 998 75 10000 6.2 220 16:38 15.12.2019
2585 Clouds 8 998 61 10000 6.7 230 16:20 15.12.2019
2586 Clouds 9 997 61 10000 7.2 240 15:55 15.12.2019
2587 Clouds 9 997 61 10000 7.2 240 15:55 15.12.2019
2588 Clouds 9 997 61 10000 7.2 240 15:36 15.12.2019
2589 Clouds 9 998 75 10000 7.2 220 15:18 15.12.2019
2590 Clouds 9 997 70 10000 5.7 220 14:55 15.12.2019
2591 Clouds 9 997 70 10000 5.7 220 14:36 15.12.2019
2592 Clouds 9 997 66 10000 6.7 240 14:18 15.12.2019
2593 Clouds 9 997 66 10000 6.7 240 14:18 15.12.2019
2594 Clouds 9 997 66 10000 7.2 230 13:55 15.12.2019
2595 Clouds 9 997 66 10000 7.2 230 13:36 15.12.2019
2596 Clouds 9 997 66 10000 7.2 240 13:18 15.12.2019
2597 Clouds 8 997 70 10000 4.6 230 12:55 15.12.2019
2598 Clouds 8 997 70 10000 4.6 230 12:37 15.12.2019
2599 Clouds 8 997 70 10000 4.6 230 12:37 15.12.2019
2600 Clouds 8 996 70 10000 4.1 230 12:19 15.12.2019
2601 Clouds 7 996 70 10000 4.6 230 11:38 15.12.2019
2602 Clouds 7 996 75 10000 3.6 220 11:20 15.12.2019
2603 Clouds 7 996 70 10000 4.6 230 10:58 15.12.2019
2604 Clouds 7 996 70 10000 4.6 230 10:40 15.12.2019
2605 Clouds 6 995 75 10000 4.1 220 10:20 15.12.2019
2606 Clouds 6 995 70 10000 3.6 230 09:59 15.12.2019
2607 Clouds 6 995 70 10000 3.6 230 09:38 15.12.2019
2608 Clouds 5 994 70 10000 4.6 230 09:20 15.12.2019
2609 Clouds 5 994 70 10000 5.1 250 08:55 15.12.2019
2610 Clouds 5 993 75 10000 5.7 230 08:37 15.12.2019
2611 Rain 5 993 75 10000 5.7 240 08:19 15.12.2019
2612 Clouds 5 993 70 10000 6.2 240 07:53 15.12.2019
2613 Clouds 5 993 70 10000 6.2 240 07:31 15.12.2019
2614 Rain 5 991 75 10000 6.2 250 06:30 15.12.2019
2615 Rain 5 991 75 10000 8.2 240 05:49 15.12.2019
2616 Clouds 5 990 75 10000 7.7 250 05:22 15.12.2019
2617 Rain 6 989 87 10000 8.2 250 04:24 15.12.2019
2618 Rain 6 988 93 10000 6.7 230 02:59 15.12.2019
2619 Rain 6 988 93 10000 5.7 230 02:32 15.12.2019
2620 Rain 7 988 87 10000 7.2 240 01:42 15.12.2019
2621 Rain 7 988 87 3200 4.6 260 01:20 15.12.2019
2622 Rain 7 988 87 10000 3.6 240 00:51 15.12.2019
2623 Rain 7 987 87 5000 4.6 230 00:33 15.12.2019
2624 Thunderstorm 8 989 93 3000 8.2 260 23:56 14.12.2019
2625 Thunderstorm 8 989 93 3000 8.2 260 23:38 14.12.2019
2626 Rain 8 989 71 10000 5.7 200 23:18 14.12.2019
2627 Clouds 8 990 66 10000 4.6 190 22:56 14.12.2019
2628 Clouds 8 989 75 10000 10.3 180 22:37 14.12.2019
2629 Clouds 8 990 70 10000 4.6 190 22:19 14.12.2019
2630 Clouds 8 991 70 10000 5.7 190 21:55 14.12.2019
2631 Clouds 7 991 70 10000 5.7 190 21:37 14.12.2019
2632 Clouds 7 991 70 10000 5.7 190 21:37 14.12.2019
2633 Clouds 7 992 65 10000 3.6 190 21:18 14.12.2019
2634 Clouds 6 993 65 10000 2.6 190 20:43 14.12.2019
2635 Clouds 5 993 65 10000 4.1 200 20:21 14.12.2019
2636 Clouds 5 993 65 10000 4.1 200 19:59 14.12.2019
2637 Clouds 5 994 57 10000 5.7 190 19:40 14.12.2019
2638 Clouds 5 994 57 10000 6.2 200 19:21 14.12.2019
2639 Clouds 5 994 57 10000 6.2 200 19:21 14.12.2019
2640 Clouds 5 995 57 10000 5.1 210 18:57 14.12.2019
2641 Clouds 5 995 57 10000 5.1 210 18:39 14.12.2019
2642 Clouds 5 995 65 10000 5.7 220 18:21 14.12.2019
2643 Clouds 6 995 57 10000 5.1 220 17:59 14.12.2019
2644 Clouds 6 995 57 10000 5.1 220 17:41 14.12.2019
2645 Clouds 6 995 46 10000 5.7 240 17:22 14.12.2019
2646 Clouds 6 994 70 10000 6.2 230 16:41 14.12.2019
2647 Clouds 7 993 52 10000 9.3 260 16:19 14.12.2019
2648 Clouds 7 993 52 10000 9.8 260 15:57 14.12.2019
2649 Clouds 7 993 52 10000 9.8 260 15:38 14.12.2019
2650 Clouds 7 993 52 10000 10.8 260 15:19 14.12.2019
2651 Clear 7 992 52 10000 11.3 270 14:57 14.12.2019
2652 Clear 7 992 52 10000 11.3 270 14:38 14.12.2019
2653 Clouds 7 992 54 10000 8.2 270 14:18 14.12.2019
2654 Clouds 7 992 54 10000 8.2 270 14:18 14.12.2019
2655 Clouds 7 991 54 10000 11.8 280 13:44 14.12.2019
2656 Clouds 7 990 61 10000 11.3 250 13:20 14.12.2019
2657 Clouds 7 990 70 10000 9.8 280 12:58 14.12.2019
2658 Clouds 7 989 61 10000 12.9 270 12:40 14.12.2019
2659 Clouds 7 989 61 10000 12.9 270 12:40 14.12.2019
2660 Clouds 7 989 66 10000 11.3 250 12:20 14.12.2019
2661 Rain 7 989 70 10000 4.6 220 11:58 14.12.2019
2662 Rain 7 989 70 10000 4.6 220 11:58 14.12.2019
2663 Rain 7 989 70 10000 4.6 220 11:39 14.12.2019
2664 Rain 6 989 70 10000 5.7 240 11:19 14.12.2019
2665 Clouds 6 989 75 10000 6.7 240 10:57 14.12.2019
2666 Clouds 6 989 75 10000 6.7 240 10:39 14.12.2019
2667 Clouds 6 990 70 10000 6.2 240 10:20 14.12.2019
2668 Clouds 5 988 80 10000 6.2 220 09:55 14.12.2019
2669 Clouds 5 989 70 10000 5.1 240 09:37 14.12.2019
2670 Clouds 5 989 70 10000 5.1 240 09:18 14.12.2019
2671 Clouds 4 989 70 10000 5.7 240 08:42 14.12.2019
2672 Clouds 4 989 70 10000 5.7 240 08:42 14.12.2019
2673 Rain 4 988 61 10000 8.2 250 08:19 14.12.2019
2674 Rain 5 988 70 10000 9.8 260 07:44 14.12.2019
2675 Clouds 5 988 75 10000 8.2 260 07:23 14.12.2019
2676 Rain 5 987 81 10000 8.2 250 06:56 14.12.2019
2677 Rain 5 987 81 10000 8.2 250 06:37 14.12.2019
2678 Rain 5 985 87 10000 7.7 250 05:59 14.12.2019
2679 Clouds 5 984 87 10000 8.7 250 04:48 14.12.2019
2680 Clouds 5 983 93 10000 5.7 260 02:35 14.12.2019
2681 Rain 5 982 93 7000 4.1 300 01:56 14.12.2019
2682 Rain 5 982 93 7000 4.1 300 01:37 14.12.2019
2683 Drizzle 5 980 93 2900 1 0 00:49 14.12.2019
2684 Rain 5 980 93 8000 1 0 00:28 14.12.2019
2685 Rain 5 981 93 8000 1.5 0 23:57 13.12.2019
2686 Rain 5 981 93 8000 1.5 0 23:37 13.12.2019
2687 Rain 5 981 93 10000 2.6 210 23:18 13.12.2019
2688 Drizzle 6 982 93 3000 4.6 220 22:41 13.12.2019
2689 Rain 6 982 75 10000 6.2 220 22:19 13.12.2019
2690 Clouds 6 982 70 10000 8.7 220 21:56 13.12.2019
2691 Clouds 6 982 70 10000 8.7 220 21:38 13.12.2019
2692 Clouds 6 982 75 10000 7.7 220 21:20 13.12.2019
2693 Clouds 6 983 75 10000 6.7 230 20:54 13.12.2019
2694 Clouds 6 983 75 10000 6.7 230 20:36 13.12.2019
2695 Clouds 6 984 70 10000 6.7 240 20:18 13.12.2019
2696 Clouds 6 984 70 10000 6.7 240 19:41 13.12.2019
2697 Clouds 6 984 75 10000 6.7 240 19:23 13.12.2019
2698 Clouds 6 984 75 10000 5.1 230 18:59 13.12.2019
2699 Clouds 6 984 70 10000 6.7 250 18:41 13.12.2019
2700 Clouds 6 984 70 10000 6.7 250 18:19 13.12.2019
2701 Clouds 6 985 70 10000 6.2 250 17:57 13.12.2019
2702 Clouds 7 984 70 10000 5.1 250 17:39 13.12.2019
2703 Clouds 7 984 70 10000 5.1 250 17:18 13.12.2019
2704 Clouds 7 984 70 10000 5.1 250 17:18 13.12.2019
2705 Clouds 7 984 65 10000 6.7 260 16:55 13.12.2019
2706 Clouds 7 984 65 10000 7.2 260 16:36 13.12.2019
2707 Clouds 8 983 65 10000 7.2 270 16:18 13.12.2019
2708 Clouds 8 983 65 10000 7.2 270 15:41 13.12.2019
2709 Clouds 8 983 65 10000 6.7 270 15:21 13.12.2019
2710 Clouds 8 983 65 10000 7.7 260 14:56 13.12.2019
2711 Clouds 8 983 65 10000 7.7 260 14:36 13.12.2019
2712 Clouds 8 983 65 10000 7.7 260 14:18 13.12.2019
2713 Clouds 8 982 70 10000 7.7 280 13:43 13.12.2019
2714 Clouds 8 982 65 10000 8.2 280 13:24 13.12.2019
2715 Clouds 8 981 70 10000 8.2 260 12:55 13.12.2019
2716 Clouds 8 981 70 10000 8.2 270 12:37 13.12.2019
2717 Clouds 7 980 70 10000 8.2 260 12:18 13.12.2019
2718 Clouds 7 980 70 10000 8.7 260 11:43 13.12.2019
2719 Clouds 7 980 81 10000 6.7 280 11:25 13.12.2019
2720 Clouds 7 979 81 10000 8.2 280 10:56 13.12.2019
2721 Clouds 6 979 81 10000 7.7 280 10:38 13.12.2019
2722 Clouds 6 979 81 10000 7.7 280 10:20 13.12.2019
2723 Rain 6 977 86 10000 7.2 280 09:42 13.12.2019
2724 Rain 6 977 86 10000 7.2 280 09:21 13.12.2019
2725 Rain 6 975 86 10000 8.2 280 08:45 13.12.2019
2726 Rain 6 975 86 10000 8.2 280 08:27 13.12.2019
2727 Rain 6 974 81 10000 8.2 290 07:50 13.12.2019
2728 Rain 6 974 75 10000 7.7 290 07:26 13.12.2019
2729 Rain 6 973 87 10000 7.7 280 06:57 13.12.2019
2730 Rain 6 972 87 10000 10.3 280 06:32 13.12.2019
2731 Clouds 6 973 87 10000 7.2 280 05:52 13.12.2019
2732 Rain 6 972 81 10000 8.2 290 05:33 13.12.2019
2733 Clouds 6 972 87 10000 7.7 280 04:54 13.12.2019
2734 Rain 6 971 87 10000 6.7 290 03:52 13.12.2019
2735 Rain 7 970 93 10000 4.1 250 02:35 13.12.2019
2736 Rain 7 971 93 6000 3.1 210 01:54 13.12.2019
2737 Rain 7 972 93 8000 3.6 210 01:34 13.12.2019
2738 Rain 7 973 87 10000 3.1 210 00:50 13.12.2019
2739 Rain 7 974 87 10000 2.6 210 00:28 13.12.2019
2740 Clouds 7 974 100 10000 5.7 210 23:43 12.12.2019
2741 Clouds 7 975 93 10000 5.1 210 23:25 12.12.2019
2742 Clouds 7 976 93 10000 5.7 220 22:57 12.12.2019
2743 Clouds 7 976 93 10000 5.7 230 22:39 12.12.2019
2744 Clouds 7 976 93 10000 5.7 230 22:21 12.12.2019
2745 Clouds 7 977 93 10000 6.2 240 21:56 12.12.2019
2746 Clouds 7 977 93 10000 6.2 250 21:37 12.12.2019
2747 Clouds 8 977 93 10000 6.2 250 21:19 12.12.2019
2748 Clouds 8 977 93 10000 6.7 260 20:59 12.12.2019
2749 Rain 8 977 100 10000 6.2 260 20:40 12.12.2019
2750 Rain 8 977 100 10000 6.2 260 20:22 12.12.2019
2751 Drizzle 8 977 100 8000 5.1 240 19:56 12.12.2019
2752 Rain 8 977 100 9000 4.1 260 19:37 12.12.2019
2753 Rain 8 977 100 9000 4.1 260 19:18 12.12.2019
2754 Rain 8 978 100 9000 8.2 160 18:56 12.12.2019
2755 Drizzle 8 979 93 8000 8.2 170 18:38 12.12.2019
2756 Drizzle 8 979 93 8000 8.2 170 18:19 12.12.2019
2757 Drizzle 8 980 93 6000 9.8 180 17:57 12.12.2019
2758 Drizzle 8 981 93 6000 10.8 180 17:38 12.12.2019
2759 Drizzle 8 981 93 6000 10.8 180 17:19 12.12.2019
2760 Rain 8 982 93 7000 4.6 170 16:55 12.12.2019
2761 Drizzle 8 982 100 7000 9.3 180 16:36 12.12.2019
2762 Drizzle 8 982 100 7000 9.3 180 16:18 12.12.2019
2763 Drizzle 8 983 93 6000 9.3 170 15:54 12.12.2019
2764 Rain 8 984 93 8000 5.1 170 15:36 12.12.2019
2765 Rain 8 984 93 8000 5.1 170 15:18 12.12.2019
2766 Drizzle 8 986 87 4000 5.7 180 14:38 12.12.2019
2767 Drizzle 8 986 87 4000 5.7 180 14:19 12.12.2019
2768 Rain 8 987 87 6000 6.2 170 13:57 12.12.2019
2769 Drizzle 8 988 93 4200 6.2 160 13:38 12.12.2019
2770 Drizzle 8 988 93 4200 6.2 160 13:20 12.12.2019
2771 Rain 7 990 87 10000 5.7 150 12:57 12.12.2019
2772 Rain 7 991 81 10000 5.1 160 12:38 12.12.2019
2773 Rain 7 991 81 10000 5.1 160 12:38 12.12.2019
2774 Rain 7 991 81 10000 5.1 160 12:19 12.12.2019
2775 Rain 6 992 87 10000 4.6 160 11:55 12.12.2019
2776 Rain 6 993 87 10000 4.1 140 11:37 12.12.2019
2777 Rain 6 993 87 10000 4.1 140 11:19 12.12.2019
2778 Clouds 5 994 87 10000 4.1 150 10:54 12.12.2019
2779 Clouds 5 995 81 10000 3.6 160 10:36 12.12.2019
2780 Clouds 4 995 81 10000 3.6 160 10:18 12.12.2019
2781 Rain 4 996 81 10000 4.1 160 09:41 12.12.2019
2782 Rain 3 997 80 10000 3.6 170 09:23 12.12.2019
2783 Clouds 3 998 80 10000 3.1 170 08:56 12.12.2019
2784 Clouds 2 998 93 10000 5.1 180 08:38 12.12.2019
2785 Clouds 2 998 93 10000 5.1 180 08:20 12.12.2019
2786 Clouds 2 999 93 10000 3.6 180 07:43 12.12.2019
2787 Clouds 2 999 86 10000 2.6 230 07:24 12.12.2019
2788 Clouds 1 1000 86 10000 2.1 230 06:50 12.12.2019
2789 Clouds 1 1000 86 10000 2.6 240 06:32 12.12.2019
2790 Clouds 1 1001 74 10000 1.5 170 05:39 12.12.2019
2791 Clear 1 1002 100 10000 3.1 220 04:52 12.12.2019
2792 Rain 1 1003 86 10000 3.6 250 03:31 12.12.2019
2793 Clear 1 1003 72 10000 2.1 250 02:38 12.12.2019
2794 Clouds 1 1003 73 10000 2.1 250 02:20 12.12.2019
2795 Clouds 1 1003 93 10000 2.6 260 01:40 12.12.2019
2796 Clouds 1 1003 93 10000 2.6 260 01:22 12.12.2019
2797 Clouds 1 1003 93 10000 3.1 260 00:46 12.12.2019
2798 Clouds 2 1003 93 10000 2.6 260 00:20 12.12.2019
2799 Clouds 2 1003 93 10000 3.6 260 23:44 11.12.2019
2800 Clouds 2 1003 93 10000 3.6 250 23:21 11.12.2019
2801 Clouds 2 1003 93 10000 4.1 250 22:57 11.12.2019
2802 Clouds 2 1003 93 10000 3.1 260 22:39 11.12.2019
2803 Clouds 3 1003 93 10000 3.1 260 22:20 11.12.2019
2804 Clouds 3 1002 93 10000 4.1 260 21:57 11.12.2019
2805 Clouds 3 1002 93 10000 3.6 260 21:38 11.12.2019
2806 Clouds 3 1002 93 10000 3.6 260 21:20 11.12.2019
2807 Clouds 3 1002 93 10000 3.6 260 20:56 11.12.2019
2808 Clouds 4 1002 93 10000 3.1 240 20:38 11.12.2019
2809 Rain 4 1002 93 10000 3.1 240 20:19 11.12.2019
2810 Rain 4 1001 93 10000 3.1 240 19:58 11.12.2019
2811 Clouds 4 1001 93 10000 4.1 230 19:39 11.12.2019
2812 Clouds 4 1001 93 10000 4.1 230 19:19 11.12.2019
2813 Clouds 5 1001 81 10000 4.6 260 18:55 11.12.2019
2814 Clouds 5 1001 93 10000 4.1 220 18:36 11.12.2019
2815 Clouds 5 1001 81 10000 4.6 240 18:18 11.12.2019
2816 Clouds 5 1001 86 10000 4.1 220 17:54 11.12.2019
2817 Rain 6 1001 86 10000 4.6 210 17:36 11.12.2019
2818 Rain 6 1001 86 10000 4.6 210 17:18 11.12.2019
2819 Clouds 6 1001 93 10000 7.2 190 16:55 11.12.2019
2820 Rain 6 1001 93 10000 5.1 180 16:36 11.12.2019
2821 Rain 6 1001 93 10000 6.2 180 16:18 11.12.2019
2822 Rain 7 1001 75 10000 5.1 210 15:41 11.12.2019
2823 Rain 7 1002 87 10000 6.2 200 15:23 11.12.2019
2824 Clouds 7 1002 87 10000 6.2 200 14:57 11.12.2019
2825 Clouds 7 1003 70 10000 5.1 220 14:39 11.12.2019
2826 Clouds 7 1003 70 10000 5.1 220 14:20 11.12.2019
2827 Rain 7 1003 87 10000 5.1 210 13:56 11.12.2019
2828 Clouds 7 1004 70 10000 4.6 210 13:38 11.12.2019
2829 Clouds 7 1004 70 10000 4.6 210 13:19 11.12.2019
2830 Clouds 7 1004 70 10000 4.1 210 12:57 11.12.2019
2831 Clouds 7 1005 75 10000 3.6 230 12:38 11.12.2019
2832 Clouds 7 1005 75 10000 3.6 230 12:19 11.12.2019
2833 Clouds 6 1006 75 10000 3.6 230 11:57 11.12.2019
2834 Clouds 6 1006 75 10000 3.1 0 11:38 11.12.2019
2835 Clouds 6 1006 75 10000 3.1 0 11:38 11.12.2019
2836 Clear 5 1006 81 10000 2.1 240 11:18 11.12.2019
2837 Clear 5 1006 81 10000 2.1 240 11:18 11.12.2019
2838 Clear 4 1006 81 10000 3.1 230 10:55 11.12.2019
2839 Clear 4 1006 81 10000 3.1 230 10:37 11.12.2019
2840 Clear 3 1006 93 10000 5.1 210 10:19 11.12.2019
2841 Clear 3 1007 86 10000 2.6 230 09:40 11.12.2019
2842 Clear 3 1007 86 10000 2.6 230 09:21 11.12.2019
2843 Clear 3 1007 93 10000 5.1 200 08:58 11.12.2019
2844 Clear 3 1007 93 10000 4.1 200 08:38 11.12.2019
2845 Clouds 3 1007 86 10000 4.1 210 08:19 11.12.2019
2846 Clouds 3 1007 86 10000 4.1 210 07:56 11.12.2019
2847 Clouds 3 1007 93 10000 1 150 07:38 11.12.2019
2848 Clouds 3 1007 93 10000 1 150 07:19 11.12.2019
2849 Clouds 3 1008 93 10000 3.6 220 06:44 11.12.2019
2850 Clouds 3 1008 81 10000 5.1 240 06:22 11.12.2019
2851 Clouds 4 1008 86 10000 3.6 220 05:45 11.12.2019
2852 Clouds 4 1008 93 10000 3.6 210 05:21 11.12.2019
2853 Clouds 4 1008 93 10000 3.6 220 04:38 11.12.2019
2854 Clouds 6 1009 93 10000 3.6 220 02:49 11.12.2019
2855 Rain 7 1008 87 10000 3.6 250 01:26 11.12.2019
2856 Rain 7 1007 81 10000 6.2 250 00:49 11.12.2019
2857 Rain 8 1007 87 10000 5.1 260 00:23 11.12.2019
2858 Rain 8 1006 87 10000 4.6 250 23:59 10.12.2019
2859 Rain 8 1006 87 10000 5.7 260 23:40 10.12.2019
2860 Rain 8 1006 81 10000 6.7 260 23:21 10.12.2019
2861 Rain 9 1006 87 10000 7.7 260 22:41 10.12.2019
2862 Rain 9 1005 87 8000 8.2 260 22:22 10.12.2019
2863 Rain 10 1004 87 10000 11.3 280 21:58 10.12.2019
2864 Rain 10 1004 87 10000 8.7 270 21:39 10.12.2019
2865 Rain 10 1004 87 10000 8.7 270 21:21 10.12.2019
2866 Rain 11 1003 87 7000 8.2 210 20:58 10.12.2019
2867 Rain 11 1004 87 6000 8.7 200 20:38 10.12.2019
2868 Rain 11 1004 87 6000 8.7 200 20:19 10.12.2019
2869 Rain 11 1004 87 6000 8.7 200 20:19 10.12.2019
2870 Rain 11 1004 87 6000 8.7 200 20:19 10.12.2019
2871 Rain 11 1004 87 6000 8.7 200 20:19 10.12.2019
2872 Clouds 11 1005 87 7000 9.3 200 19:56 10.12.2019
2873 Rain 11 1005 87 6000 9.8 200 19:38 10.12.2019
2874 Rain 11 1005 87 6000 9.8 200 19:20 10.12.2019
2875 Drizzle 10 1006 100 3000 14.4 200 18:55 10.12.2019
2876 Clouds 10 1006 87 10000 8.7 210 18:36 10.12.2019
2877 Clouds 10 1006 87 10000 8.7 210 18:36 10.12.2019
2878 Clouds 10 1006 87 10000 8.7 210 18:18 10.12.2019
2879 Haze 10 1008 81 5000 9.8 210 17:42 10.12.2019
2880 Haze 10 1008 81 5000 9.8 210 17:23 10.12.2019
2881 Clouds 10 1008 81 10000 7.7 200 16:58 10.12.2019
2882 Clouds 10 1009 81 10000 8.2 210 16:39 10.12.2019
2883 Clouds 9 1010 87 8000 8.2 200 16:19 10.12.2019
2884 Clouds 9 1010 87 9000 9.8 210 15:39 10.12.2019
2885 Clouds 9 1010 87 9000 9.8 210 15:19 10.12.2019
2886 Clouds 9 1011 87 10000 8.2 200 14:57 10.12.2019
2887 Rain 9 1012 81 4900 8.2 210 14:38 10.12.2019
2888 Rain 9 1013 81 10000 8.2 210 14:20 10.12.2019
2889 Rain 9 1013 81 10000 8.2 210 13:58 10.12.2019
2890 Rain 9 1012 93 4000 6.7 200 13:40 10.12.2019
2891 Rain 9 1015 81 10000 8.2 200 13:20 10.12.2019
2892 Rain 9 1015 81 10000 8.2 200 12:55 10.12.2019
2893 Rain 9 1015 76 10000 7.7 200 12:36 10.12.2019
2894 Rain 9 1015 76 10000 7.7 200 12:18 10.12.2019
2895 Clouds 9 1017 76 10000 7.2 210 11:40 10.12.2019
2896 Clouds 9 1017 76 10000 7.2 210 11:22 10.12.2019
2897 Clouds 8 1018 76 10000 6.2 210 10:55 10.12.2019
2898 Clouds 8 1018 76 10000 5.7 200 10:36 10.12.2019
2899 Clouds 8 1018 76 10000 5.7 200 10:18 10.12.2019
2900 Clouds 7 1019 76 10000 5.7 210 09:54 10.12.2019
2901 Clouds 7 1019 75 10000 3.1 190 09:36 10.12.2019
2902 Clouds 7 1019 75 10000 3.1 190 09:18 10.12.2019
2903 Clouds 5 1020 75 10000 3.6 170 08:41 10.12.2019
2904 Clouds 4 1020 75 10000 3.6 170 08:22 10.12.2019
2905 Clouds 4 1020 75 10000 3.6 170 08:22 10.12.2019
2906 Clouds 4 1021 81 10000 3.1 170 07:57 10.12.2019
2907 Clouds 3 1022 81 10000 2.1 0 07:39 10.12.2019
2908 Clouds 3 1022 81 10000 2.1 0 07:21 10.12.2019
2909 Clouds 2 1022 80 10000 4.1 210 06:46 10.12.2019
2910 Clouds 2 1023 75 10000 2.6 200 06:19 10.12.2019
2911 Clouds 2 1023 80 10000 3.1 210 05:52 10.12.2019
2912 Clouds 0 1024 86 10000 1.5 0 04:51 10.12.2019
2913 Clouds 0 1024 92 10000 1 170 03:36 10.12.2019
2914 Clouds 0 1024 93 10000 2.1 190 02:44 10.12.2019
2915 Clear 0 1025 93 10000 1.5 230 01:44 10.12.2019
2916 Clear 1 1024 75 10000 1.5 150 01:20 10.12.2019
2917 Clear 1 1025 93 10000 1.5 0 00:41 10.12.2019
2918 Clear 1 1025 75 10000 0.5 300 00:21 10.12.2019
2919 Clear 1 1025 75 10000 2.6 240 23:41 09.12.2019
2920 Clear 1 1024 64 10000 2.6 220 23:23 09.12.2019
2921 Clear 2 1024 64 10000 2.1 250 22:58 09.12.2019
2922 Clear 2 1024 64 10000 3.1 250 22:40 09.12.2019
2923 Clear 2 1024 64 10000 3.1 250 22:20 09.12.2019
2924 Clear 2 1024 64 10000 2.6 250 21:57 09.12.2019
2925 Clear 3 1024 74 10000 2.6 270 21:38 09.12.2019
2926 Clear 3 1024 74 10000 2.6 270 21:19 09.12.2019
2927 Clear 3 1023 74 10000 2.6 270 20:56 09.12.2019
2928 Clear 3 1023 65 10000 3.6 300 20:38 09.12.2019
2929 Clear 4 1023 65 10000 3.6 300 20:20 09.12.2019
2930 Clear 4 1022 65 10000 3.6 300 19:56 09.12.2019
2931 Clear 4 1021 56 10000 3.6 310 19:37 09.12.2019
2932 Clear 5 1021 56 10000 3.6 310 19:19 09.12.2019
2933 Clear 5 1021 56 10000 3.6 310 19:19 09.12.2019
2934 Clear 5 1021 56 10000 3.1 280 18:56 09.12.2019
2935 Clear 5 1020 56 10000 4.6 310 18:38 09.12.2019
2936 Clear 6 1020 56 10000 4.6 310 18:19 09.12.2019
2937 Clear 6 1019 60 10000 6.2 320 17:58 09.12.2019
2938 Clouds 6 1018 56 10000 7.2 310 17:39 09.12.2019
2939 Clouds 7 1018 52 10000 7.2 310 17:20 09.12.2019
2940 Clear 7 1018 52 10000 6.2 300 16:56 09.12.2019
2941 Clouds 8 1017 57 10000 6.7 300 16:37 09.12.2019
2942 Clouds 8 1017 57 10000 6.7 300 16:19 09.12.2019
2943 Clouds 8 1016 52 10000 6.2 330 15:55 09.12.2019
2944 Clouds 8 1015 52 10000 10.3 320 15:37 09.12.2019
2945 Clear 9 1015 52 10000 7.7 300 15:19 09.12.2019
2946 Clear 9 1014 52 10000 7.2 300 14:57 09.12.2019
2947 Clear 9 1013 52 10000 8.2 310 14:39 09.12.2019
2948 Clouds 9 1013 54 10000 8.2 310 14:18 09.12.2019
2949 Clouds 9 1012 54 10000 7.2 300 13:40 09.12.2019
2950 Clouds 9 1012 54 10000 7.2 300 13:40 09.12.2019
2951 Clouds 9 1011 54 10000 8.7 300 13:20 09.12.2019
2952 Clouds 9 1010 53 10000 8.7 300 12:58 09.12.2019
2953 Clouds 9 1009 61 10000 9.3 300 12:40 09.12.2019
2954 Clouds 9 1009 61 10000 9.3 300 12:21 09.12.2019
2955 Clouds 8 1008 61 10000 9.3 300 11:59 09.12.2019
2956 Clouds 8 1007 66 10000 7.7 300 11:40 09.12.2019
2957 Clouds 8 1007 66 10000 7.7 300 11:21 09.12.2019
2958 Clouds 8 1006 66 10000 7.7 300 10:57 09.12.2019
2959 Clouds 8 1004 66 10000 9.3 300 10:38 09.12.2019
2960 Clouds 8 1003 70 10000 8.7 310 10:19 09.12.2019
2961 Clouds 8 1003 70 10000 8.7 310 10:19 09.12.2019
2962 Clouds 8 1003 70 10000 8.7 310 09:44 09.12.2019
2963 Clouds 8 1002 70 10000 8.7 300 09:24 09.12.2019
2964 Clouds 8 1000 76 10000 7.2 300 08:57 09.12.2019
2965 Clouds 8 999 76 10000 7.7 290 08:39 09.12.2019
2966 Rain 8 997 76 10000 6.2 300 08:20 09.12.2019
2967 Rain 8 997 76 10000 6.2 300 07:49 09.12.2019
2968 Clouds 8 996 76 10000 7.2 300 07:30 09.12.2019
2969 Rain 8 995 87 10000 6.2 280 06:58 09.12.2019
2970 Rain 8 994 87 10000 5.1 260 06:31 09.12.2019
2971 Rain 7 993 81 10000 5.7 250 05:48 09.12.2019
2972 Rain 7 992 81 10000 5.1 250 05:23 09.12.2019
2973 Clouds 7 992 75 10000 7.2 260 04:28 09.12.2019
2974 Rain 7 990 87 10000 5.7 240 02:35 09.12.2019
2975 Rain 7 991 81 7000 5.1 230 01:47 09.12.2019
2976 Rain 7 992 70 10000 4.6 230 00:59 09.12.2019
2977 Rain 7 993 70 10000 6.2 230 00:34 09.12.2019
2978 Rain 7 993 70 10000 6.2 230 00:34 09.12.2019
2979 Rain 6 994 70 10000 6.7 240 23:58 08.12.2019
2980 Rain 6 994 70 10000 7.2 240 23:37 08.12.2019
2981 Clouds 6 994 70 10000 7.2 240 23:19 08.12.2019
2982 Clouds 6 995 80 10000 8.2 220 22:56 08.12.2019
2983 Clouds 6 996 75 10000 7.2 220 22:38 08.12.2019
2984 Clouds 6 996 75 10000 7.2 220 22:18 08.12.2019
2985 Clouds 6 996 75 10000 6.7 220 21:57 08.12.2019
2986 Clouds 6 997 75 10000 6.7 230 21:38 08.12.2019
2987 Clouds 6 996 70 10000 7.2 240 21:19 08.12.2019
2988 Clouds 7 997 70 10000 7.7 240 20:56 08.12.2019
2989 Clouds 7 997 70 10000 7.7 240 20:38 08.12.2019
2990 Clouds 6 997 75 10000 7.2 230 20:19 08.12.2019
2991 Clouds 6 998 75 10000 7.7 220 19:56 08.12.2019
2992 Clouds 6 998 75 10000 6.2 220 19:38 08.12.2019
2993 Clouds 6 997 70 10000 6.7 240 19:20 08.12.2019
2994 Clouds 6 998 70 10000 7.2 240 18:55 08.12.2019
2995 Clouds 7 998 70 10000 7.2 250 18:36 08.12.2019
2996 Clouds 7 998 70 10000 7.2 250 18:18 08.12.2019
2997 Clouds 7 998 75 10000 6.7 240 17:56 08.12.2019
2998 Clouds 7 999 75 10000 7.2 240 17:37 08.12.2019
2999 Rain 7 999 75 10000 7.2 240 17:19 08.12.2019
3000 Rain 7 999 70 10000 6.2 240 16:55 08.12.2019
3001 Rain 8 998 66 10000 8.7 250 16:37 08.12.2019
3002 Rain 8 998 66 10000 8.7 250 16:18 08.12.2019
3003 Rain 9 999 57 10000 10.3 250 15:38 08.12.2019
3004 Rain 9 999 57 10000 10.3 250 15:19 08.12.2019
3005 Clouds 10 999 57 10000 9.8 250 14:59 08.12.2019
3006 Clouds 10 1000 62 10000 7.7 250 14:39 08.12.2019
3007 Clouds 10 1000 62 10000 7.7 250 14:21 08.12.2019
3008 Clouds 10 1000 62 10000 10.8 250 13:57 08.12.2019
3009 Clouds 10 1000 62 10000 10.8 250 13:57 08.12.2019
3010 Clouds 10 1000 62 10000 10.3 250 13:38 08.12.2019
3011 Clouds 10 1000 62 10000 10.3 250 13:19 08.12.2019
3012 Clouds 10 1001 66 10000 8.7 240 12:54 08.12.2019
3013 Clouds 10 1001 66 10000 8.2 240 12:36 08.12.2019
3014 Clouds 10 1001 66 10000 8.2 240 12:18 08.12.2019
3015 Clouds 10 1001 71 10000 7.7 250 11:39 08.12.2019
3016 Clouds 10 1001 71 10000 7.7 250 11:20 08.12.2019
3017 Clouds 10 1001 71 10000 7.7 250 10:59 08.12.2019
3018 Clouds 9 1001 81 10000 7.2 240 10:38 08.12.2019
3019 Clouds 9 1001 81 10000 7.2 240 10:20 08.12.2019
3020 Clouds 9 1000 76 10000 7.2 260 09:57 08.12.2019
3021 Clouds 9 1000 76 10000 7.2 260 09:57 08.12.2019
3022 Clouds 9 1000 76 10000 8.2 250 09:38 08.12.2019
3023 Clouds 9 1000 76 10000 8.2 250 09:19 08.12.2019
3024 Clouds 9 1000 71 10000 8.2 250 08:58 08.12.2019
3025 Clouds 9 999 71 10000 9.8 260 08:38 08.12.2019
3026 Rain 10 999 71 10000 9.8 260 08:19 08.12.2019
3027 Clouds 10 999 71 10000 9.3 250 07:44 08.12.2019
3028 Rain 11 998 93 10000 7.2 240 07:20 08.12.2019
3029 Rain 11 998 87 6000 7.2 230 06:51 08.12.2019
3030 Clouds 11 999 87 10000 6.7 230 06:22 08.12.2019
3031 Clouds 11 999 87 10000 7.2 230 05:51 08.12.2019
3032 Rain 11 1000 87 10000 7.2 220 05:18 08.12.2019
3033 Rain 10 1002 87 6000 6.7 220 03:51 08.12.2019
3034 Rain 10 1002 87 10000 6.2 220 03:26 08.12.2019
3035 Rain 10 1003 81 10000 9.3 220 02:40 08.12.2019
3036 Clouds 11 1005 81 10000 6.7 210 01:56 08.12.2019
3037 Clouds 11 1005 87 10000 7.2 220 01:27 08.12.2019
3038 Clouds 11 1006 87 10000 6.2 210 00:42 08.12.2019
3039 Clouds 11 1007 81 10000 6.7 230 00:21 08.12.2019
3040 Clouds 10 1008 81 10000 7.2 230 23:55 07.12.2019
3041 Clouds 10 1008 81 10000 6.7 230 23:36 07.12.2019
3042 Clouds 10 1008 81 10000 6.7 230 23:18 07.12.2019
3043 Clouds 10 1009 81 10000 7.2 230 22:54 07.12.2019
3044 Clouds 10 1009 76 10000 6.7 230 22:36 07.12.2019
3045 Clouds 10 1009 76 10000 6.7 230 22:18 07.12.2019
3046 Clouds 10 1010 76 10000 6.2 230 21:54 07.12.2019
3047 Clouds 10 1011 76 10000 7.2 230 21:36 07.12.2019
3048 Clouds 10 1011 76 10000 7.2 230 21:18 07.12.2019
3049 Clouds 10 1012 81 10000 6.7 220 20:37 07.12.2019
3050 Clouds 10 1012 81 10000 6.7 220 20:19 07.12.2019
3051 Clouds 10 1012 76 10000 6.2 240 19:57 07.12.2019
3052 Clouds 9 1012 76 10000 5.1 230 19:38 07.12.2019
3053 Clouds 9 1012 76 10000 5.1 230 19:20 07.12.2019
3054 Clouds 9 1012 76 10000 4.6 230 18:57 07.12.2019
3055 Clouds 9 1013 81 10000 5.1 220 18:38 07.12.2019
3056 Clouds 9 1013 81 10000 5.1 220 18:18 07.12.2019
3057 Clouds 9 1013 81 10000 5.1 220 17:55 07.12.2019
3058 Clouds 10 1013 81 10000 4.6 210 17:36 07.12.2019
3059 Clouds 10 1013 81 10000 4.6 210 17:18 07.12.2019
3060 Clouds 10 1013 76 10000 4.6 230 16:54 07.12.2019
3061 Clouds 10 1013 71 10000 5.1 240 16:36 07.12.2019
3062 Clouds 10 1013 71 10000 5.1 240 16:18 07.12.2019
3063 Clouds 10 1013 66 10000 4.1 240 15:40 07.12.2019
3064 Clouds 10 1013 66 10000 4.1 240 15:22 07.12.2019
3065 Clouds 10 1014 66 10000 5.7 250 14:43 07.12.2019
3066 Clouds 10 1014 66 10000 5.7 250 14:19 07.12.2019
3067 Clouds 10 1014 71 10000 4.1 250 13:59 07.12.2019
3068 Clouds 10 1014 71 10000 5.1 250 13:39 07.12.2019
3069 Clouds 10 1014 71 10000 5.1 250 13:19 07.12.2019
3070 Clouds 10 1014 71 10000 4.6 250 12:55 07.12.2019
3071 Clouds 9 1014 76 10000 4.1 250 12:36 07.12.2019
3072 Clouds 9 1014 76 10000 4.1 250 12:18 07.12.2019
3073 Clouds 9 1015 76 10000 4.1 240 11:41 07.12.2019
3074 Clouds 9 1014 81 10000 3.6 250 11:23 07.12.2019
3075 Clouds 8 1014 81 10000 5.1 250 10:56 07.12.2019
3076 Clouds 8 1014 87 10000 3.1 220 10:36 07.12.2019
3077 Clouds 8 1014 87 10000 3.1 220 10:18 07.12.2019
3078 Clouds 7 1014 81 10000 4.1 240 09:39 07.12.2019
3079 Clouds 7 1014 81 10000 4.1 240 09:21 07.12.2019
3080 Clouds 7 1013 81 10000 3.1 220 08:46 07.12.2019
3081 Clouds 7 1013 87 10000 2.1 250 08:25 07.12.2019
3082 Clouds 7 1013 87 10000 2.6 240 07:53 07.12.2019
3083 Clear 7 1012 87 10000 3.6 240 07:30 07.12.2019
3084 Clear 7 1012 87 10000 3.6 260 06:53 07.12.2019
3085 Clear 7 1012 87 10000 3.6 260 06:53 07.12.2019
3086 Clear 8 1011 81 10000 3.1 250 06:28 07.12.2019
3087 Clouds 8 1011 81 10000 3.6 270 05:50 07.12.2019
3088 Clouds 8 1011 81 10000 5.1 270 04:49 07.12.2019
3089 Clouds 9 1011 81 10000 5.7 270 03:52 07.12.2019
3090 Clouds 8 1010 81 10000 5.7 260 02:50 07.12.2019
3091 Clouds 8 1009 81 10000 5.1 250 02:19 07.12.2019
3092 Clear 8 1009 81 10000 6.2 250 01:31 07.12.2019
3093 Clear 8 1009 87 10000 5.1 250 00:43 07.12.2019
3094 Clear 8 1009 87 10000 5.1 250 00:19 07.12.2019
3095 Clouds 8 1008 87 10000 5.7 250 23:45 06.12.2019
3096 Clouds 8 1008 87 10000 4.6 250 23:24 06.12.2019
3097 Clouds 8 1007 81 10000 5.1 260 22:58 06.12.2019
3098 Clouds 9 1007 81 10000 6.2 270 22:37 06.12.2019
3099 Clouds 9 1007 81 10000 6.2 270 22:18 06.12.2019
3100 Clouds 9 1007 87 10000 6.7 260 21:56 06.12.2019
3101 Clouds 9 1006 81 10000 5.7 260 21:38 06.12.2019
3102 Clouds 9 1006 81 10000 5.7 260 21:19 06.12.2019
3103 Clouds 10 1006 87 10000 5.7 260 20:42 06.12.2019
3104 Clouds 10 1006 87 10000 5.7 260 20:42 06.12.2019
3105 Clouds 10 1005 81 10000 7.7 250 20:22 06.12.2019
3106 Clouds 10 1004 81 10000 6.7 280 19:58 06.12.2019
3107 Clouds 10 1004 81 10000 6.7 280 19:57 06.12.2019
3108 Clouds 10 1004 81 10000 7.7 260 19:39 06.12.2019
3109 Clouds 10 1004 81 10000 7.7 260 19:21 06.12.2019
3110 Drizzle 10 1003 81 10000 7.2 250 18:55 06.12.2019
3111 Clouds 10 1002 76 10000 8.7 260 18:36 06.12.2019
3112 Clouds 10 1002 76 10000 8.7 260 18:18 06.12.2019
3113 Rain 11 1001 81 10000 9.3 250 17:55 06.12.2019
3114 Rain 11 1002 93 2500 6.2 230 17:37 06.12.2019
3115 Rain 11 1002 93 2500 6.2 230 17:19 06.12.2019
3116 Rain 11 1002 87 10000 6.2 230 16:42 06.12.2019
3117 Rain 11 1001 71 10000 7.2 250 16:23 06.12.2019
3118 Rain 12 1002 71 10000 9.3 260 15:56 06.12.2019
3119 Clouds 12 1003 87 10000 6.7 240 15:38 06.12.2019
3120 Rain 12 1003 87 10000 6.7 240 15:18 06.12.2019
3121 Rain 12 1003 93 10000 8.2 240 14:55 06.12.2019
3122 Rain 12 1002 82 10000 9.3 240 14:37 06.12.2019
3123 Rain 12 1002 82 10000 9.3 240 14:18 06.12.2019
3124 Clouds 12 1003 87 10000 8.2 240 13:42 06.12.2019
3125 Clouds 12 1003 87 10000 8.2 240 13:23 06.12.2019
3126 Clouds 12 1004 87 8000 7.7 240 12:42 06.12.2019
3127 Clouds 12 1004 87 10000 7.7 240 12:22 06.12.2019
3128 Clouds 12 1005 93 10000 9.3 220 11:57 06.12.2019
3129 Rain 12 1006 100 10000 8.7 220 11:39 06.12.2019
3130 Rain 12 1005 87 10000 6.7 240 11:19 06.12.2019
3131 Drizzle 12 1005 87 3500 7.2 240 10:43 06.12.2019
3132 Rain 11 1006 87 10000 8.2 240 10:21 06.12.2019
3133 Rain 11 1006 87 10000 6.2 240 09:57 06.12.2019
3134 Rain 11 1006 93 9000 6.2 230 09:37 06.12.2019
3135 Rain 11 1006 93 9000 6.2 230 09:37 06.12.2019
3136 Rain 11 1006 93 9000 6.2 230 09:19 06.12.2019
3137 Rain 11 1007 93 10000 5.1 230 08:45 06.12.2019
3138 Rain 11 1007 93 10000 5.7 230 08:26 06.12.2019
3139 Rain 11 1007 87 6000 5.7 230 07:56 06.12.2019
3140 Clouds 11 1007 87 10000 7.2 240 07:36 06.12.2019
3141 Clouds 11 1007 87 10000 7.2 240 07:18 06.12.2019
3142 Clouds 11 1008 87 10000 7.2 230 06:29 06.12.2019
3143 Rain 11 1008 87 7000 7.7 230 05:53 06.12.2019
3144 Rain 11 1008 87 10000 7.7 230 05:33 06.12.2019
3145 Clouds 10 1010 93 10000 7.7 230 02:19 06.12.2019
3146 Clouds 10 1011 93 10000 7.2 240 01:30 06.12.2019
3147 Clouds 9 1012 81 10000 7.2 230 00:41 06.12.2019
3148 Clouds 9 1012 87 10000 6.7 240 00:20 06.12.2019
3149 Clouds 9 1013 87 10000 9.8 220 23:47 05.12.2019
3150 Clouds 10 1013 87 10000 8.7 220 23:19 05.12.2019
3151 Clouds 9 1014 81 10000 8.7 220 22:57 05.12.2019
3152 Clouds 9 1014 87 10000 9.8 220 22:38 05.12.2019
3153 Clouds 9 1014 87 10000 9.8 220 22:18 05.12.2019
3154 Clouds 9 1014 87 10000 9.8 220 22:18 05.12.2019
3155 Clouds 9 1014 87 10000 7.7 220 21:55 05.12.2019
3156 Clouds 9 1015 93 10000 8.2 220 21:36 05.12.2019
3157 Clouds 9 1015 93 10000 8.2 220 21:18 05.12.2019
3158 Clouds 9 1014 76 10000 7.2 240 20:40 05.12.2019
3159 Clouds 9 1014 76 10000 7.2 240 20:40 05.12.2019
3160 Clouds 9 1015 87 10000 9.3 210 20:21 05.12.2019
3161 Clouds 9 1015 93 10000 8.2 220 19:59 05.12.2019
3162 Clouds 9 1015 93 10000 8.2 220 19:40 05.12.2019
3163 Clouds 9 1015 76 10000 6.2 230 19:21 05.12.2019
3164 Clouds 9 1015 76 10000 6.2 230 18:58 05.12.2019
3165 Clouds 8 1015 81 10000 5.1 230 18:38 05.12.2019
3166 Clouds 8 1016 81 10000 5.1 230 18:20 05.12.2019
3167 Clouds 8 1016 81 10000 5.1 230 17:40 05.12.2019
3168 Clouds 7 1016 81 10000 4.6 220 17:20 05.12.2019
3169 Clouds 7 1016 81 10000 4.6 220 16:58 05.12.2019
3170 Clouds 7 1017 81 10000 4.1 220 16:40 05.12.2019
3171 Clouds 7 1017 81 10000 6.2 240 16:21 05.12.2019
3172 Clouds 7 1017 81 10000 6.2 240 15:58 05.12.2019
3173 Clouds 7 1018 81 10000 5.1 240 15:58 05.12.2019
3174 Clouds 8 1018 81 10000 5.1 240 15:39 05.12.2019
3175 Clouds 8 1018 81 10000 4.6 240 15:20 05.12.2019
3176 Clouds 7 1019 81 10000 4.1 240 14:56 05.12.2019
3177 Clouds 7 1019 81 10000 4.1 240 14:56 05.12.2019
3178 Rain 7 1019 81 10000 4.1 240 14:38 05.12.2019
3179 Rain 7 1019 81 10000 2.6 240 14:19 05.12.2019
3180 Rain 6 1020 81 10000 4.1 250 13:57 05.12.2019
3181 Clouds 6 1020 81 10000 4.1 250 13:39 05.12.2019
3182 Clouds 6 1020 87 10000 3.1 250 13:20 05.12.2019
3183 Clouds 6 1020 87 10000 4.1 250 12:58 05.12.2019
3184 Clouds 6 1020 87 10000 4.1 250 12:39 05.12.2019
3185 Clouds 5 1021 81 10000 4.1 250 12:21 05.12.2019
3186 Clouds 5 1021 81 9000 4.1 250 11:40 05.12.2019
3187 Clouds 4 1021 87 8000 3.1 250 11:22 05.12.2019
3188 Clouds 4 1021 87 8000 3.1 250 10:58 05.12.2019
3189 Clouds 4 1021 86 8000 2.6 0 10:40 05.12.2019
3190 Clouds 3 1021 86 7000 3.6 240 10:19 05.12.2019
3191 Clouds 3 1021 86 7000 3.6 240 09:57 05.12.2019
3192 Clouds 4 1021 86 10000 3.6 260 09:38 05.12.2019
3193 Clouds 3 1021 93 10000 2.6 250 09:20 05.12.2019
3194 Clouds 2 1021 93 10000 3.1 250 08:56 05.12.2019
3195 Clouds 2 1021 93 10000 3.1 250 08:37 05.12.2019
3196 Clouds 2 1021 93 10000 3.1 230 08:18 05.12.2019
3197 Clouds 2 1021 93 10000 3.1 230 08:18 05.12.2019
3198 Haze 2 1021 93 5000 2.6 230 07:41 05.12.2019
3199 Clouds 2 1021 93 6000 2.6 230 07:22 05.12.2019
3200 Mist 2 1021 100 5000 2.6 230 06:48 05.12.2019
3201 Mist 2 1021 93 5000 3.1 250 06:24 05.12.2019
3202 Mist 1 1021 93 4200 2.6 240 05:54 05.12.2019
3203 Mist 2 1021 100 3800 3.1 250 05:24 05.12.2019
3204 Mist 1 1020 100 1100 3.1 240 04:40 05.12.2019
3205 Fog 0 1021 93 300 3.1 220 03:40 05.12.2019
3206 Fog 0 1021 93 250 3.1 230 02:42 05.12.2019
3207 Fog 0 1021 91 100 2.1 270 02:22 05.12.2019
3208 Fog 0 1021 91 100 1.5 270 01:51 05.12.2019
3209 Fog 0 1021 91 100 1 0 01:23 05.12.2019
3210 Rain 0 1021 93 4900 2.6 230 00:44 05.12.2019
3211 Rain 1 1021 93 6000 1.5 260 00:21 05.12.2019
3212 Rain 1 1021 93 6000 1.5 260 23:56 04.12.2019
3213 Clear 0 1021 86 6000 2.6 250 23:37 04.12.2019
3214 Clear 0 1020 100 10000 2.6 210 23:18 04.12.2019
3215 Clear 0 1020 100 10000 2.1 210 22:39 04.12.2019
3216 Clear 1 1020 93 10000 2.1 220 22:20 04.12.2019
3217 Clear 1 1020 100 10000 2.1 230 21:58 04.12.2019
3218 Clear 1 1020 100 10000 2.1 230 21:39 04.12.2019
3219 Clear 1 1020 100 10000 2.1 240 21:20 04.12.2019
3220 Clear 1 1020 100 10000 2.1 240 20:58 04.12.2019
3221 Clear 1 1020 93 10000 2.1 210 20:40 04.12.2019
3222 Clear 1 1020 93 10000 2.1 210 20:40 04.12.2019
3223 Clear 1 1020 93 10000 3.1 200 20:22 04.12.2019
3224 Clear 1 1020 93 10000 3.1 200 19:59 04.12.2019
3225 Mist 1 1020 85 6000 1 330 19:38 04.12.2019
3226 Clear 2 1020 100 10000 1.5 240 19:20 04.12.2019
3227 Clear 2 1020 100 10000 1.5 240 18:57 04.12.2019
3228 Clear 2 1020 100 10000 1.5 0 18:39 04.12.2019
3229 Clear 2 1019 86 10000 2.1 160 18:20 04.12.2019
3230 Clear 3 1019 86 10000 2.6 190 17:40 04.12.2019
3231 Clear 4 1019 86 10000 1.5 210 17:21 04.12.2019
3232 Clear 5 1019 81 10000 0.5 0 16:59 04.12.2019
3233 Clear 5 1019 70 10000 2.1 70 16:40 04.12.2019
3234 Clear 6 1019 70 10000 1 0 16:20 04.12.2019
3235 Clear 6 1019 75 10000 1 0 15:56 04.12.2019
3236 Clear 6 1019 75 10000 1 0 15:38 04.12.2019
3237 Clear 6 1019 70 10000 2.1 110 15:19 04.12.2019
3238 Clear 6 1020 70 10000 2.6 140 14:44 04.12.2019
3239 Clear 7 1019 87 10000 1.5 0 14:24 04.12.2019
3240 Clear 6 1020 75 10000 2.6 120 13:59 04.12.2019
3241 Clear 6 1020 75 10000 2.6 100 13:38 04.12.2019
3242 Clear 6 1021 81 10000 2.1 80 13:20 04.12.2019
3243 Clear 6 1021 87 10000 1.5 80 12:45 04.12.2019
3244 Clear 6 1021 87 10000 2.6 90 12:25 04.12.2019
3245 Clear 6 1021 87 10000 2.6 90 12:25 04.12.2019
3246 Clear 6 1020 93 8000 1 0 11:59 04.12.2019
3247 Clear 5 1021 87 8000 2.1 100 11:41 04.12.2019
3248 Clear 2 1021 86 8000 2.1 90 11:22 04.12.2019
3249 Clear 1 1021 93 10000 2.1 70 10:44 04.12.2019
3250 Clear 0 1021 93 10000 1.5 10 10:24 04.12.2019
3251 Clear 0 1021 93 10000 1.5 10 09:58 04.12.2019
3252 Clear 1 1021 100 6000 1.5 0 09:39 04.12.2019
3253 Clear 1 1021 93 9000 1 0 09:21 04.12.2019
3254 Rain 1 1021 93 8000 1.5 80 08:43 04.12.2019
3255 Rain 0 1020 93 10000 1.5 120 08:24 04.12.2019
3256 Clouds 0 1021 93 8000 1.5 80 07:51 04.12.2019
3257 Clouds 0 1021 93 8000 1.5 80 07:31 04.12.2019
3258 Fog -1 1020 100 5000 0.5 310 06:57 04.12.2019
3259 Mist 0 1021 100 5000 0.5 40 06:31 04.12.2019
3260 Mist 0 1021 100 1400 1 100 05:46 04.12.2019
3261 Clouds 0 1022 100 6000 0.5 0 04:34 04.12.2019
3262 Mist 1 1023 100 5000 0.5 160 03:51 04.12.2019
3263 Clouds 1 1023 100 6000 1.62 180 01:49 04.12.2019
3264 Haze 1 1023 88 9000 0.5 110 00:48 04.12.2019
3265 Mist 1 1023 93 9000 0.5 110 00:22 04.12.2019
3266 Mist 1 1023 93 9000 0.5 110 00:22 04.12.2019
3267 Clouds 2 1023 93 10000 0.5 210 23:55 03.12.2019
3268 Clouds 2 1023 93 10000 0.5 210 23:36 03.12.2019
3269 Clear 2 1024 93 10000 3.6 190 23:18 03.12.2019
3270 Clear 3 1024 87 10000 1.5 0 22:39 03.12.2019
3271 Clear 2 1024 93 10000 3.1 190 22:18 03.12.2019
3272 Clear 2 1024 93 10000 3.1 190 21:57 03.12.2019
3273 Clear 2 1024 93 10000 3.1 190 21:37 03.12.2019
3274 Clear 2 1025 93 10000 3.1 210 21:18 03.12.2019
3275 Clear 3 1025 86 10000 3.6 210 20:54 03.12.2019
3276 Clear 3 1025 86 10000 3.6 210 20:36 03.12.2019
3277 Clouds 3 1025 86 10000 3.6 210 20:18 03.12.2019
3278 Clouds 3 1025 86 10000 3.1 210 19:54 03.12.2019
3279 Clouds 3 1025 86 10000 3.1 210 19:36 03.12.2019
3280 Clouds 4 1025 86 10000 3.6 210 19:18 03.12.2019
3281 Clouds 4 1025 80 10000 3.6 210 18:55 03.12.2019
3282 Clouds 4 1025 80 10000 3.6 210 18:36 03.12.2019
3283 Clouds 5 1025 70 10000 3.1 210 18:18 03.12.2019
3284 Clouds 5 1025 61 10000 3.1 230 17:40 03.12.2019
3285 Clouds 6 1025 75 10000 3.1 210 17:19 03.12.2019
3286 -273 0 0 0 0 0 16:59 03.12.2019
3287 Clouds 7 1025 65 10000 3.1 230 16:40 03.12.2019
3288 Clouds 7 1025 70 10000 3.1 220 16:21 03.12.2019
3289 Clouds 8 1025 61 10000 3.6 230 15:59 03.12.2019
3290 Clouds 8 1025 61 10000 3.6 250 15:39 03.12.2019
3291 -273 0 0 0 0 0 15:39 03.12.2019
3292 Clouds 8 1026 66 10000 3.6 260 15:19 03.12.2019
3293 Clouds 8 1026 70 10000 3.6 260 14:54 03.12.2019
3294 Clouds 8 1026 70 10000 3.6 260 14:36 03.12.2019
3295 Clouds 8 1027 70 10000 3.6 270 14:18 03.12.2019
3296 Clouds 8 1027 70 10000 4.1 250 13:38 03.12.2019
3297 Clouds 7 1028 75 10000 3.6 250 13:20 03.12.2019
3298 Clouds 7 1028 75 10000 4.1 250 12:58 03.12.2019
3299 Clouds 7 1028 75 10000 4.1 250 12:37 03.12.2019
3300 Clouds 6 1028 70 10000 3.1 260 12:18 03.12.2019
3301 Clouds 6 1028 70 10000 3.1 260 11:57 03.12.2019
3302 Clouds 6 1028 81 10000 3.1 240 11:37 03.12.2019
3303 Clouds 4 1028 81 10000 2.6 230 11:19 03.12.2019
3304 Clouds 4 1029 80 10000 2.6 240 10:56 03.12.2019
3305 Clouds 3 1029 80 10000 2.6 240 10:38 03.12.2019
3306 Clouds 3 1029 86 10000 2.6 230 10:18 03.12.2019
3307 Clouds 3 1029 86 10000 2.6 220 09:42 03.12.2019
3308 Clouds 2 1029 86 10000 2.6 240 09:24 03.12.2019
3309 Clouds 2 1029 86 10000 2.6 240 08:56 03.12.2019
3310 Clouds 2 1029 86 10000 2.1 240 08:38 03.12.2019
3311 Clouds 2 1029 86 10000 2.1 230 08:20 03.12.2019
3312 Clouds 2 1029 86 10000 3.1 200 07:51 03.12.2019
3313 Clouds 2 1029 86 10000 3.1 200 07:51 03.12.2019
3314 Clouds 2 1029 86 10000 3.1 200 07:28 03.12.2019
3315 Clouds 1 1029 86 10000 2.1 230 06:42 03.12.2019
3316 Clouds 1 1029 86 10000 3.1 230 06:20 03.12.2019
3317 Clouds 1 1029 86 10000 2.1 230 05:53 03.12.2019
3318 Clouds 1 1030 86 10000 2.1 230 03:42 03.12.2019
3319 Clouds 1 1030 86 10000 2.6 220 03:22 03.12.2019
3320 Clouds 1 1030 86 10000 2.6 250 02:53 03.12.2019
3321 Clouds 2 1030 86 10000 2.6 250 02:32 03.12.2019
3322 Clear 2 1031 86 10000 3.6 230 01:59 03.12.2019
3323 Clear 2 1031 93 10000 1.5 200 01:39 03.12.2019
3324 Clear 2 1031 93 10000 1 270 01:20 03.12.2019
3325 Clear 2 1031 93 10000 1.5 0 00:42 03.12.2019
3326 Clear 2 1031 93 10000 0.5 230 00:23 03.12.2019
3327 Clear 1 1031 93 10000 2.1 270 23:44 02.12.2019
3328 Clear 1 1031 93 10000 2.1 270 23:22 02.12.2019
3329 Clear 1 1031 93 10000 2.1 270 22:58 02.12.2019
3330 Clear 1 1031 100 10000 2.1 260 22:39 02.12.2019
3331 Clear 1 1031 93 10000 2.1 280 22:20 02.12.2019
3332 Clear 1 1031 93 10000 2.1 270 21:54 02.12.2019
3333 Clear 1 1031 93 10000 2.1 270 21:36 02.12.2019
3334 Clear 1 1031 93 10000 2.6 290 21:18 02.12.2019
3335 Clear 1 1031 93 10000 2.6 290 20:54 02.12.2019
3336 Clear 1 1031 93 10000 2.6 290 20:36 02.12.2019
3337 Clear 1 1031 93 10000 2.1 290 20:18 02.12.2019
3338 Clear 1 1031 93 10000 2.6 280 19:41 02.12.2019
3339 Clear 2 1031 86 10000 2.6 280 19:21 02.12.2019
3340 Clouds 2 1031 86 10000 1 240 18:55 02.12.2019
3341 Clouds 2 1031 86 10000 1 240 18:36 02.12.2019
3342 Clear 2 1030 86 10000 2.6 260 18:18 02.12.2019
3343 Clear 3 1031 86 10000 1 280 17:41 02.12.2019
3344 Clear 4 1030 86 10000 2.1 260 17:21 02.12.2019
3345 Clear 5 1031 65 10000 3.1 300 16:59 02.12.2019
3346 Clear 5 1031 65 10000 3.1 300 16:39 02.12.2019
3347 -273 0 0 0 0 0 16:39 02.12.2019
3348 Clear 5 1031 65 10000 3.1 290 16:18 02.12.2019
3349 Rain 6 1031 65 10000 3.1 290 15:57 02.12.2019
3350 Rain 6 1031 61 10000 3.1 280 15:38 02.12.2019
3351 Rain 6 1031 65 10000 2.6 260 15:20 02.12.2019
3352 Clear 6 1031 65 10000 2.6 240 14:55 02.12.2019
3353 Clear 6 1031 70 10000 2.6 250 14:37 02.12.2019
3354 Clear 5 1031 70 10000 2.6 250 14:19 02.12.2019
3355 Clear 5 1031 55 10000 3.1 250 13:55 02.12.2019
3356 Clear 5 1031 55 10000 3.1 250 13:36 02.12.2019
3357 Clear 5 1031 75 10000 2.6 250 13:18 02.12.2019
3358 Clear 4 1031 56 10000 3.1 240 12:42 02.12.2019
3359 Clear 4 1031 56 10000 3.1 240 12:42 02.12.2019
3360 Clear 3 1032 56 10000 3.1 250 12:21 02.12.2019
3361 Clear 3 1032 56 10000 3.6 240 11:57 02.12.2019
3362 Clear 3 1032 56 10000 3.6 240 11:38 02.12.2019
3363 Clear 2 1031 71 10000 2.6 250 11:19 02.12.2019
3364 Clear 1 1031 71 10000 2.6 250 10:57 02.12.2019
3365 Clear 1 1031 71 10000 2.6 250 10:57 02.12.2019
3366 Clear 1 1031 71 10000 2.6 230 10:39 02.12.2019
3367 Clear 0 1030 92 10000 2.1 240 10:21 02.12.2019
3368 Clear 0 1030 92 10000 2.1 240 10:21 02.12.2019
3369 Clear 0 1031 86 10000 2.1 270 09:56 02.12.2019
3370 Clear 0 1031 86 10000 2.1 270 09:38 02.12.2019
3371 Clear -1 1031 86 10000 2.1 270 09:18 02.12.2019
3372 Clear -1 1031 80 10000 2.6 300 08:42 02.12.2019
3373 Clear -1 1030 92 10000 2.1 240 08:23 02.12.2019
3374 Clear -1 1030 92 10000 2.1 240 07:59 02.12.2019
3375 Clear -1 1029 100 10000 2.1 240 07:38 02.12.2019
3376 Clear -1 1030 80 10000 2.1 300 07:38 02.12.2019
3377 Clear -1 1030 80 10000 2.1 300 07:19 02.12.2019
3378 Clear 0 1030 80 10000 1.5 0 06:42 02.12.2019
3379 Clear 0 1030 80 10000 1.5 0 05:45 02.12.2019
3380 Clear 0 1030 80 10000 2.1 300 05:19 02.12.2019
3381 Clear 0 1029 80 10000 1.5 0 03:28 02.12.2019
3382 Clear 0 1029 80 10000 2.6 290 02:50 02.12.2019
3383 Clear 1 1028 86 10000 2.6 330 01:49 02.12.2019
3384 Clear 1 1029 86 10000 3.1 300 01:21 02.12.2019
3385 Clear 1 1028 86 10000 3.1 300 00:39 02.12.2019
3386 Clear 1 1028 86 10000 1.5 0 00:21 02.12.2019
3387 Clouds 2 1028 86 10000 2.1 310 23:43 01.12.2019
3388 Clear 2 1028 86 10000 2.6 340 23:22 01.12.2019
3389 Clear 2 1028 86 10000 2.6 340 22:56 01.12.2019
3390 Clear 2 1028 86 10000 3.1 350 22:38 01.12.2019
3391 Clouds 2 1027 86 10000 3.1 350 22:19 01.12.2019
3392 Clear 3 1027 86 10000 2.6 360 21:56 01.12.2019
3393 Clear 3 1027 86 10000 2.6 360 21:38 01.12.2019
3394 Clouds 3 1026 100 10000 5.1 350 21:20 01.12.2019
3395 Clear 3 1027 86 10000 2.6 360 20:58 01.12.2019
3396 Clear 3 1027 86 10000 2.6 350 20:39 01.12.2019
3397 Clouds 4 1026 86 10000 3.6 350 20:21 01.12.2019
3398 Clouds 4 1026 86 10000 3.6 350 19:58 01.12.2019
3399 Clouds 4 1026 81 10000 3.6 350 19:39 01.12.2019
3400 Clouds 4 1026 87 10000 4.1 350 19:21 01.12.2019
3401 Clouds 5 1025 86 10000 5.7 360 18:57 01.12.2019
3402 Clouds 5 1025 81 10000 4.1 360 18:38 01.12.2019
3403 Clouds 5 1025 81 10000 4.1 350 18:19 01.12.2019
3404 Clouds 6 1024 93 10000 5.1 360 17:57 01.12.2019
3405 Clouds 6 1024 93 10000 5.1 360 17:39 01.12.2019
3406 Clouds 6 1024 93 10000 4.1 10 17:20 01.12.2019
3407 Clouds 6 1024 93 10000 4.1 10 17:20 01.12.2019
3408 Rain 6 1023 93 10000 5.7 20 16:55 01.12.2019
3409 Rain 6 1023 93 10000 5.7 20 16:37 01.12.2019
3410 Clouds 6 1023 86 10000 6.2 20 16:18 01.12.2019
3411 Clouds 6 1023 81 10000 5.1 0 15:44 01.12.2019
3412 Clouds 7 1023 81 10000 5.1 0 15:26 01.12.2019
3413 Clouds 7 1023 81 10000 5.1 20 15:26 01.12.2019
3414 Clouds 7 1022 81 10000 5.1 20 14:41 01.12.2019
3415 Clouds 7 1022 81 10000 5.1 20 14:41 01.12.2019
3416 Clouds 7 1022 81 10000 5.1 20 14:41 01.12.2019
3417 Clouds 7 1022 81 10000 5.1 20 14:41 01.12.2019
3418 Clouds 7 1023 81 10000 3.1 40 14:19 01.12.2019
3419 Clouds 7 1023 75 10000 3.6 0 13:56 01.12.2019
3420 Clouds 6 1023 75 10000 3.6 0 13:37 01.12.2019
3421 Clouds 7 1023 75 10000 3.1 40 13:19 01.12.2019
3422 Clouds 7 1023 75 10000 3.1 40 13:19 01.12.2019
3423 Clouds 6 1023 81 10000 3.1 0 12:42 01.12.2019
3424 Clouds 5 1023 81 10000 3.1 0 11:55 01.12.2019
3425 Clouds 5 1023 75 10000 3.6 0 11:37 01.12.2019
3426 Clouds 5 1023 75 10000 3.6 0 11:37 01.12.2019
3427 Clouds 5 1023 75 10000 3.6 0 11:19 01.12.2019
3428 Clouds 4 1022 75 10000 2.6 0 10:43 01.12.2019
3429 Clouds 4 1022 75 10000 3.1 50 10:21 01.12.2019
3430 Clouds 4 1021 75 10000 2.6 0 09:55 01.12.2019
3431 Clouds 4 1021 93 10000 4.1 30 09:36 01.12.2019
3432 Clouds 4 1021 86 10000 2.6 0 09:18 01.12.2019
3433 Clouds 3 1021 86 10000 2.6 20 08:42 01.12.2019
3434 Clouds 3 1021 86 10000 3.1 0 08:19 01.12.2019
3435 Clouds 3 1020 86 10000 3.6 0 07:50 01.12.2019
3436 Clouds 3 1020 86 10000 3.6 0 07:29 01.12.2019
3437 Clouds 3 1020 86 10000 2.6 50 06:54 01.12.2019
3438 Clouds 3 1020 80 10000 4.1 60 06:21 01.12.2019
3439 Clouds 3 1020 86 10000 3.1 50 05:45 01.12.2019
3440 Clouds 3 1020 86 10000 3.6 50 04:34 01.12.2019
3441 Clouds 3 1020 86 10000 2.6 50 02:47 01.12.2019
3442 Clouds 3 1020 86 10000 2.6 50 02:29 01.12.2019
3443 Clouds 3 1021 86 10000 2.1 50 01:56 01.12.2019
3444 Clouds 3 1021 80 10000 2.6 50 01:38 01.12.2019
3445 Clouds 3 1021 86 10000 1.5 0 00:59 01.12.2019
3446 Clouds 3 1021 86 10000 1.5 0 00:39 01.12.2019
3447 Clouds 3 1021 86 10000 1.5 0 00:20 01.12.2019
3448 Clouds 3 1021 86 10000 1.5 0 23:41 30.11.2019
3449 Clouds 3 1020 80 10000 2.6 40 23:22 30.11.2019
3450 Clouds 3 1021 75 10000 2.6 60 22:49 30.11.2019
3451 Clouds 3 1021 75 10000 2.6 60 22:30 30.11.2019
3452 Clouds 3 1020 86 10000 3.1 50 21:57 30.11.2019
3453 Clouds 3 1020 86 10000 3.1 50 21:39 30.11.2019
3454 Clouds 4 1021 81 10000 3.1 40 21:20 30.11.2019
3455 Clouds 3 1021 81 10000 2.6 70 20:55 30.11.2019
3456 Clouds 4 1021 81 10000 2.6 70 20:37 30.11.2019
3457 Clouds 4 1021 81 10000 3.6 60 20:18 30.11.2019
3458 Clouds 4 1021 81 10000 3.6 70 19:55 30.11.2019
3459 Clouds 4 1021 81 10000 3.6 70 19:36 30.11.2019
3460 Clouds 4 1021 81 10000 3.1 70 19:18 30.11.2019
3461 Clouds 4 1020 86 10000 3.1 80 18:54 30.11.2019
3462 Clouds 4 1020 86 10000 3.1 80 18:36 30.11.2019
3463 Clouds 4 1020 86 10000 3.1 80 18:18 30.11.2019
3464 Clouds 4 1020 86 10000 3.1 80 18:18 30.11.2019
3465 Clouds 4 1020 86 10000 2.6 80 17:56 30.11.2019
3466 Clouds 4 1020 86 10000 2.6 80 17:37 30.11.2019
3467 Clouds 5 1021 81 10000 4.6 80 17:19 30.11.2019
3468 Fog 5 1020 86 10000 2.1 70 16:42 30.11.2019
3469 Fog 5 1020 80 10000 2.1 70 16:22 30.11.2019
3470 Clouds 6 1021 75 10000 5.1 80 15:58 30.11.2019
3471 Clouds 6 1021 75 10000 5.1 90 15:40 30.11.2019
3472 Clouds 6 1021 75 10000 5.1 90 15:19 30.11.2019
3473 Clouds 6 1021 81 10000 1.5 0 14:56 30.11.2019
3474 Clouds 6 1021 81 10000 1.5 0 14:37 30.11.2019
3475 Clouds 6 1021 81 10000 1.5 0 14:37 30.11.2019
3476 Clear 6 1021 81 10000 2.1 110 14:18 30.11.2019
3477 Clear 6 1021 87 10000 3.1 90 13:56 30.11.2019
3478 Clear 6 1021 87 10000 3.1 90 13:36 30.11.2019
3479 Clear 5 1022 87 10000 3.1 90 13:18 30.11.2019
3480 Clear 5 1022 87 10000 3.1 90 13:18 30.11.2019
3481 Clear 5 1022 93 10000 2.6 100 12:42 30.11.2019
3482 Clear 4 1022 93 8000 3.6 90 12:24 30.11.2019
3483 Clouds 3 1022 100 6000 2.1 70 11:43 30.11.2019
3484 Rain 2 1022 100 1300 2.1 70 11:20 30.11.2019
3485 Rain 2 1022 100 1300 2.1 70 11:20 30.11.2019
3486 Rain 2 1023 100 150 2.6 50 10:56 30.11.2019
3487 Rain 1 1023 100 150 2.6 50 10:38 30.11.2019
3488 Fog 1 1022 100 150 2.1 30 10:19 30.11.2019
3489 Fog 1 1022 93 100 2.1 60 09:46 30.11.2019
3490 Fog 0 1022 100 100 2.6 70 09:27 30.11.2019
3491 Fog 0 1022 100 150 2.1 90 08:44 30.11.2019
3492 Fog 0 1022 100 150 2.1 90 08:44 30.11.2019
3493 Fog 0 1022 100 150 1.5 0 08:23 30.11.2019
3494 Fog 0 1022 100 100 2.6 70 07:59 30.11.2019
3495 Fog 0 1022 100 100 2.6 70 07:40 30.11.2019
3496 Fog 0 1022 100 100 2.6 100 07:20 30.11.2019
3497 Rain 0 1022 100 100 2.1 100 06:30 30.11.2019
3498 Fog 0 1022 93 150 1.5 0 05:55 30.11.2019
3499 Mist -1 1023 93 5000 1.5 50 03:54 30.11.2019
3500 Clear -1 1023 93 7000 1 0 02:53 30.11.2019
3501 Mist -1 1022 100 5000 1 40 02:22 30.11.2019
3502 Clear -1 1023 93 7000 0.5 0 01:46 30.11.2019
3503 Clear -1 1022 100 6000 1.5 40 01:24 30.11.2019
3504 Mist 0 1022 100 4900 1.5 60 00:38 30.11.2019
3505 Clear 0 1022 93 10000 1.5 0 00:18 30.11.2019
3506 Clear 0 1022 93 10000 1.2 63 23:43 29.11.2019
3507 Rain 0 1021 83 10000 1.5 80 23:23 29.11.2019
3508 Rain 0 1021 83 10000 1.5 80 23:23 29.11.2019
3509 Rain 0 1021 100 10000 1 0 22:47 29.11.2019
3510 Fog 1 1021 100 10000 0.5 0 22:26 29.11.2019
3511 Fog 1 1021 100 10000 1 0 21:55 29.11.2019
3512 Fog 1 1021 100 10000 1 0 21:36 29.11.2019
3513 Clear 1 1021 100 10000 0.5 110 21:18 29.11.2019
3514 Clear 1 1021 100 10000 1.31 35 20:40 29.11.2019
3515 Clear 2 1021 100 10000 0.5 0 20:22 29.11.2019
3516 Clear 2 1021 100 10000 0.5 0 19:59 29.11.2019
3517 Clear 2 1020 100 10000 0.5 0 19:41 29.11.2019
3518 Clear 2 1020 100 10000 0.5 0 19:41 29.11.2019
3519 Clear 2 1020 93 10000 1 40 19:21 29.11.2019
3520 Clear 3 1020 93 10000 1 40 18:59 29.11.2019
3521 Clear 3 1020 93 10000 2.6 20 18:40 29.11.2019
3522 Clear 3 1020 87 10000 1 0 18:22 29.11.2019
3523 Clear 4 1019 86 10000 0.5 0 17:54 29.11.2019
3524 Clear 4 1019 86 10000 0.5 0 17:36 29.11.2019
3525 Clear 5 1019 75 10000 1.5 340 17:18 29.11.2019
3526 Clouds 6 1018 86 10000 1 0 16:42 29.11.2019
3527 Clear 6 1018 70 10000 2.6 340 16:21 29.11.2019
3528 Clear 7 1018 70 10000 2.1 330 15:43 29.11.2019
3529 Clouds 7 1018 70 10000 1.5 0 15:25 29.11.2019
3530 Clouds 7 1018 70 10000 1.5 0 14:59 29.11.2019
3531 Clear 7 1017 70 10000 2.1 0 14:40 29.11.2019
3532 Clouds 7 1017 75 10000 1.5 0 14:21 29.11.2019
3533 Clouds 7 1017 75 10000 1.5 0 13:56 29.11.2019
3534 Clouds 7 1017 75 10000 1.5 0 13:37 29.11.2019
3535 Clouds 6 1017 75 10000 3.1 290 13:19 29.11.2019
3536 Clouds 6 1016 75 10000 2.1 340 12:42 29.11.2019
3537 Clouds 5 1016 81 10000 2.1 360 12:23 29.11.2019
3538 Clouds 5 1016 81 10000 2.1 360 11:56 29.11.2019
3539 Clouds 4 1016 86 10000 1.5 0 11:38 29.11.2019
3540 Clouds 4 1015 86 10000 2.1 330 11:18 29.11.2019
3541 Clouds 4 1015 86 10000 2.1 330 10:57 29.11.2019
3542 Clouds 3 1015 86 10000 2.6 340 10:38 29.11.2019
3543 Clouds 3 1014 86 10000 2.1 330 10:20 29.11.2019
3544 Rain 2 1014 86 10000 2.1 330 09:57 29.11.2019
3545 Rain 2 1014 86 10000 2.1 330 09:38 29.11.2019
3546 Rain 2 1013 86 10000 2.6 330 09:20 29.11.2019
3547 Clouds 2 1012 86 10000 2.1 330 08:54 29.11.2019
3548 Clouds 2 1012 86 10000 2.1 330 08:36 29.11.2019
3549 Clouds 2 1012 86 10000 1.5 0 08:36 29.11.2019
3550 Clouds 2 1012 86 10000 1.5 0 08:18 29.11.2019
3551 Clouds 3 1011 86 10000 2.1 330 07:41 29.11.2019
3552 Clouds 3 1011 80 10000 2.1 340 07:23 29.11.2019
3553 Clouds 4 1010 86 10000 2.6 360 06:46 29.11.2019
3554 Clouds 4 1010 86 10000 2.6 360 06:27 29.11.2019
3555 Clouds 5 1009 81 10000 3.1 340 05:32 29.11.2019
3556 Clouds 5 1008 87 10000 2.6 350 04:49 29.11.2019
3557 Clouds 5 1007 87 10000 2.6 330 03:37 29.11.2019
3558 Clouds 6 1007 87 10000 2.6 340 03:18 29.11.2019
3559 Clouds 6 1007 87 10000 2.6 340 03:18 29.11.2019
3560 Rain 6 1006 87 10000 1.5 0 02:22 29.11.2019
3561 Rain 6 1006 87 10000 1.5 0 01:40 29.11.2019
3562 Rain 6 1006 87 10000 2.1 350 01:20 29.11.2019
3563 Rain 6 1006 87 10000 2.1 350 01:20 29.11.2019
3564 Rain 6 1005 87 10000 2.1 40 00:40 29.11.2019
3565 Rain 6 1005 87 10000 2.6 50 00:18 29.11.2019
3566 Rain 7 1004 75 10000 2.6 50 23:41 28.11.2019
3567 Rain 7 1004 81 10000 2.6 0 23:21 28.11.2019
3568 Rain 7 1004 81 10000 2.6 0 22:57 28.11.2019
3569 Clouds 7 1003 81 10000 2.1 0 22:37 28.11.2019
3570 Rain 7 1003 87 10000 2.6 10 22:19 28.11.2019
3571 Rain 7 1003 87 10000 2.6 10 21:55 28.11.2019
3572 Rain 7 1002 87 10000 1.5 0 21:36 28.11.2019
3573 Rain 8 1002 93 10000 3.6 0 21:18 28.11.2019
3574 Drizzle 8 1001 93 5000 3.1 340 20:42 28.11.2019
3575 Rain 8 1001 87 10000 3.1 10 20:22 28.11.2019
3576 Rain 8 1001 87 10000 3.1 10 19:58 28.11.2019
3577 Clouds 8 1000 87 10000 2.6 300 19:40 28.11.2019
3578 Clouds 9 1000 93 10000 2.1 310 19:22 28.11.2019
3579 Rain 9 1000 93 10000 2.1 310 18:59 28.11.2019
3580 Rain 9 999 87 10000 2.6 280 18:39 28.11.2019
3581 Rain 9 999 87 10000 1 0 18:18 28.11.2019
3582 Rain 9 999 87 10000 1 0 17:59 28.11.2019
3583 Rain 9 999 87 10000 1 0 17:59 28.11.2019
3584 Drizzle 9 999 87 5000 2.6 330 17:41 28.11.2019
3585 Rain 9 998 87 10000 2.6 300 17:21 28.11.2019
3586 Rain 9 998 87 10000 4.1 290 16:57 28.11.2019
3587 Rain 9 998 87 10000 4.1 290 16:56 28.11.2019
3588 Rain 9 998 87 10000 4.1 290 16:38 28.11.2019
3589 Rain 9 997 87 10000 3.6 290 16:18 28.11.2019
3590 Rain 9 997 87 10000 3.6 290 16:18 28.11.2019
3591 Clouds 9 997 87 10000 4.1 280 15:41 28.11.2019
3592 Clouds 9 996 87 10000 4.1 290 15:20 28.11.2019
3593 Clouds 10 996 87 10000 5.1 280 14:59 28.11.2019
3594 Clouds 10 996 87 10000 5.1 280 14:41 28.11.2019
3595 Clouds 10 996 81 10000 4.1 290 14:22 28.11.2019
3596 Clouds 10 995 81 10000 4.6 290 13:57 28.11.2019
3597 Clouds 10 995 81 10000 4.6 290 13:39 28.11.2019
3598 Clouds 9 995 81 10000 5.1 290 13:21 28.11.2019
3599 Rain 9 995 81 10000 5.7 280 12:45 28.11.2019
3600 Clouds 9 995 81 10000 5.7 280 12:27 28.11.2019
3601 Clouds 9 994 81 10000 5.7 280 11:58 28.11.2019
3602 Clouds 9 994 81 10000 5.7 280 11:40 28.11.2019
3603 Clouds 9 994 87 10000 4.6 300 11:20 28.11.2019
3604 Clouds 8 993 81 10000 5.1 280 10:57 28.11.2019
3605 Clouds 8 993 81 10000 5.1 280 10:38 28.11.2019
3606 Rain 8 993 87 10000 6.2 260 10:18 28.11.2019
3607 Clouds 8 992 93 10000 4.6 270 09:41 28.11.2019
3608 Clouds 8 992 93 10000 4.6 270 09:41 28.11.2019
3609 Rain 8 992 93 10000 5.1 270 09:23 28.11.2019
3610 Rain 8 991 87 10000 4.6 270 08:58 28.11.2019
3611 Rain 8 991 87 10000 4.6 270 08:58 28.11.2019
3612 Rain 8 991 87 10000 5.1 250 08:38 28.11.2019
3613 Rain 8 991 87 10000 4.6 260 08:20 28.11.2019
3614 Rain 8 991 100 10000 4.1 270 07:42 28.11.2019
3615 Rain 8 991 93 10000 4.6 270 07:24 28.11.2019
3616 Rain 8 991 93 10000 4.6 270 07:24 28.11.2019
3617 Rain 8 991 93 10000 4.6 270 07:23 28.11.2019
3618 Clouds 8 990 100 10000 5.1 280 06:44 28.11.2019
3619 Clouds 8 990 100 10000 5.1 270 06:23 28.11.2019
3620 Clouds 8 990 100 10000 4.6 270 05:49 28.11.2019
3621 Clouds 8 989 100 10000 5.1 270 05:18 28.11.2019
3622 Clouds 8 989 93 7000 5.1 260 02:37 28.11.2019
3623 Rain 8 988 93 7000 5.1 260 01:47 28.11.2019
3624 Clouds 9 988 93 8000 5.1 260 00:47 28.11.2019
3625 Clouds 9 987 93 8000 6.2 270 00:22 28.11.2019
3626 Drizzle 9 987 100 10000 4.1 260 23:55 27.11.2019
3627 Drizzle 9 987 100 10000 4.1 260 23:37 27.11.2019
3628 Clouds 9 987 100 10000 4.6 260 23:19 27.11.2019
3629 Drizzle 9 986 100 5000 4.6 260 22:39 27.11.2019
3630 Drizzle 9 986 100 6000 5.1 260 22:20 27.11.2019
3631 Drizzle 9 986 100 6000 5.1 260 21:56 27.11.2019
3632 Drizzle 9 986 100 6000 5.7 250 21:38 27.11.2019
3633 Rain 9 985 100 8000 5.7 260 21:19 27.11.2019
3634 Rain 9 985 100 8000 5.7 260 20:59 27.11.2019
3635 Rain 9 985 100 3000 4.6 260 20:39 27.11.2019
3636 Rain 9 985 93 10000 5.7 250 20:21 27.11.2019
3637 Clouds 9 985 93 10000 5.7 250 19:58 27.11.2019
3638 Clouds 9 984 93 10000 5.1 260 19:40 27.11.2019
3639 Clouds 9 984 93 10000 5.1 270 19:21 27.11.2019
3640 Rain 9 983 100 10000 4.6 290 18:59 27.11.2019
3641 Rain 9 983 100 10000 4.6 290 18:37 27.11.2019
3642 Clouds 9 983 100 10000 3.1 270 18:19 27.11.2019
3643 Clouds 10 982 93 10000 3.1 300 17:58 27.11.2019
3644 Clouds 10 982 93 10000 3.1 300 17:40 27.11.2019
3645 Rain 10 981 93 10000 1.5 0 17:20 27.11.2019
3646 Rain 10 981 93 10000 1.5 0 16:56 27.11.2019
3647 Rain 10 981 93 10000 1.5 0 16:38 27.11.2019
3648 Rain 10 980 93 10000 1 340 16:20 27.11.2019
3649 Rain 11 980 93 10000 2.1 270 15:57 27.11.2019
3650 Rain 11 980 93 10000 2.1 270 15:38 27.11.2019
3651 Rain 11 981 93 10000 2.1 310 15:20 27.11.2019
3652 Rain 11 981 93 8000 2.6 100 14:57 27.11.2019
3653 Rain 11 981 93 8000 2.6 100 14:39 27.11.2019
3654 Rain 11 981 87 4900 1.5 0 14:21 27.11.2019
3655 Rain 11 981 87 4900 1.5 0 13:57 27.11.2019
3656 Drizzle 11 982 93 2500 2.6 140 13:38 27.11.2019
3657 Drizzle 11 982 93 2500 2.6 140 13:38 27.11.2019
3658 Drizzle 11 982 93 10000 5.1 180 13:19 27.11.2019
3659 -273 0 0 0 0 0 12:55 27.11.2019
3660 Clouds 10 983 93 10000 5.1 190 12:37 27.11.2019
3661 Clouds 11 983 81 10000 3.6 210 12:18 27.11.2019
3662 Clouds 10 983 100 10000 4.6 220 11:38 27.11.2019
3663 Clouds 10 983 87 10000 3.1 240 11:19 27.11.2019
3664 Rain 10 983 100 10000 4.6 210 10:57 27.11.2019
3665 Rain 10 983 100 10000 4.6 210 10:39 27.11.2019
3666 Rain 10 983 100 10000 4.1 220 10:21 27.11.2019
3667 Drizzle 9 982 100 5000 1.5 180 09:43 27.11.2019
3668 Drizzle 9 982 100 5000 1.5 180 09:43 27.11.2019
3669 Rain 9 983 93 10000 4.6 220 09:25 27.11.2019
3670 Clouds 9 983 100 10000 3.1 210 08:57 27.11.2019
3671 Clouds 9 983 100 10000 3.1 210 08:38 27.11.2019
3672 Rain 9 983 100 10000 0.5 0 08:19 27.11.2019
3673 Rain 10 983 100 10000 1.91 162 07:45 27.11.2019
3674 Rain 10 983 100 8000 1.5 270 07:27 27.11.2019
3675 Rain 10 983 93 9000 1.5 270 06:47 27.11.2019
3676 Rain 10 983 93 9000 1 300 06:29 27.11.2019
3677 Rain 10 984 93 5000 2.1 70 05:27 27.11.2019
3678 Rain 10 984 100 10000 4.1 130 04:59 27.11.2019
3679 Rain 10 985 93 7000 2.6 90 04:40 27.11.2019
3680 Rain 10 985 93 10000 2.1 120 03:53 27.11.2019
3681 Rain 10 986 93 10000 3.1 140 03:22 27.11.2019
3682 Rain 10 986 93 10000 2.6 140 02:54 27.11.2019
3683 Rain 11 987 87 10000 4.6 180 01:35 27.11.2019
3684 Clouds 11 987 93 10000 3.1 140 00:44 27.11.2019
3685 Rain 11 989 87 10000 3.1 130 00:25 27.11.2019
3686 Clouds 11 988 100 10000 3.6 150 23:48 26.11.2019
3687 Rain 11 990 87 10000 2.6 140 23:26 26.11.2019
3688 Rain 10 990 87 10000 3.1 150 22:58 26.11.2019
3689 Clouds 10 990 87 10000 3.1 150 22:38 26.11.2019
3690 Clouds 10 991 81 10000 3.1 160 22:19 26.11.2019
3691 Clouds 10 991 81 10000 3.6 180 21:58 26.11.2019
3692 Clouds 10 991 81 10000 3.6 180 21:37 26.11.2019
3693 Clouds 10 992 87 10000 2.6 170 21:19 26.11.2019
3694 Clouds 10 992 81 10000 3.1 200 20:55 26.11.2019
3695 Clouds 10 992 81 10000 3.1 200 20:36 26.11.2019
3696 Rain 10 992 81 10000 3.1 180 20:18 26.11.2019
3697 Rain 11 992 81 10000 3.6 190 19:55 26.11.2019
3698 Rain 11 992 93 10000 5.1 190 19:37 26.11.2019
3699 Rain 11 991 87 10000 4.1 200 19:18 26.11.2019
3700 Rain 11 992 87 2000 9.8 210 18:56 26.11.2019
3701 Rain 12 992 87 2000 9.8 210 18:38 26.11.2019
3702 Rain 12 993 100 10000 7.2 190 18:20 26.11.2019
3703 Drizzle 12 993 100 9000 7.7 190 17:55 26.11.2019
3704 Drizzle 12 993 100 9000 7.7 190 17:37 26.11.2019
3705 Clouds 12 993 93 9000 9.3 190 17:18 26.11.2019
3706 Rain 12 993 93 9000 8.7 190 16:55 26.11.2019
3707 Rain 12 993 93 9000 8.7 190 16:37 26.11.2019
3708 Rain 12 993 100 9000 9.3 190 16:18 26.11.2019
3709 Rain 13 993 93 2000 7.7 180 15:57 26.11.2019
3710 Rain 13 993 93 2000 7.2 190 15:37 26.11.2019
3711 Rain 13 993 93 2000 7.2 190 15:37 26.11.2019
3712 Rain 13 993 93 2000 7.2 190 15:18 26.11.2019
3713 Drizzle 13 994 93 4000 8.2 190 14:45 26.11.2019
3714 Drizzle 13 994 100 3500 8.2 190 14:24 26.11.2019
3715 Rain 12 994 100 7000 8.7 190 13:44 26.11.2019
3716 Clouds 12 994 87 10000 4.1 200 13:24 26.11.2019
3717 Drizzle 12 995 87 4700 3.6 190 12:58 26.11.2019
3718 Drizzle 12 995 87 4700 3.6 190 12:37 26.11.2019
3719 Rain 12 995 93 6000 4.1 170 12:19 26.11.2019
3720 Drizzle 11 995 87 5000 4.6 150 11:56 26.11.2019
3721 Rain 11 996 87 5000 4.6 150 11:37 26.11.2019
3722 Rain 11 996 87 5000 4.6 150 11:19 26.11.2019
3723 Rain 11 996 93 6000 4.1 160 10:56 26.11.2019
3724 Rain 11 996 93 6000 4.1 160 10:38 26.11.2019
3725 Drizzle 10 997 100 2000 7.2 170 10:20 26.11.2019
3726 Drizzle 10 997 100 2000 8.2 170 09:43 26.11.2019
3727 Drizzle 10 997 100 3500 8.2 170 09:24 26.11.2019
3728 Drizzle 10 997 100 3500 8.2 170 08:58 26.11.2019
3729 Clouds 10 997 100 10000 7.7 180 08:38 26.11.2019
3730 Clouds 10 997 100 10000 7.2 180 08:18 26.11.2019
3731 Clouds 10 998 93 10000 2.6 180 07:43 26.11.2019
3732 Rain 10 998 87 10000 2.6 170 07:24 26.11.2019
3733 Rain 10 998 93 10000 2.6 180 06:53 26.11.2019
3734 Clouds 10 998 93 10000 2.6 170 06:21 26.11.2019
3735 Clouds 10 999 93 10000 2.6 180 05:38 26.11.2019
3736 Clouds 10 1000 100 10000 3.1 210 03:43 26.11.2019
3737 Clouds 10 1001 93 10000 3.1 190 01:55 26.11.2019
3738 Clouds 10 1000 93 10000 3.6 210 01:29 26.11.2019
3739 Clouds 11 1001 100 10000 2.6 210 00:48 26.11.2019
3740 Clouds 11 1000 93 10000 3.6 230 00:23 26.11.2019
3741 Clouds 11 1001 100 10000 6.2 200 23:39 25.11.2019
3742 Clouds 11 1001 100 10000 5.7 210 23:39 25.11.2019
3743 Clouds 11 1001 100 10000 6.2 200 23:20 25.11.2019
3744 Clouds 11 1001 100 10000 4.6 190 22:58 25.11.2019
3745 Clouds 11 1001 100 10000 4.6 190 22:37 25.11.2019
3746 Clouds 11 1001 100 10000 4.6 180 22:18 25.11.2019
3747 Clouds 11 1001 100 10000 4.6 180 21:58 25.11.2019
3748 Rain 11 1002 100 10000 4.1 190 21:39 25.11.2019
3749 Rain 11 1002 100 10000 5.1 190 21:19 25.11.2019
3750 Drizzle 11 1002 100 2500 4.6 160 20:55 25.11.2019
3751 Drizzle 11 1002 100 2500 4.6 160 20:37 25.11.2019
3752 Drizzle 11 1002 100 4000 4.6 180 20:18 25.11.2019
3753 Drizzle 11 1002 100 10000 5.7 180 19:55 25.11.2019
3754 Rain 11 1002 100 10000 5.7 190 19:37 25.11.2019
3755 Rain 11 1002 100 10000 5.7 190 19:18 25.11.2019
3756 Drizzle 11 1002 100 7000 5.1 200 18:56 25.11.2019
3757 Drizzle 11 1002 100 7000 5.1 200 18:37 25.11.2019
3758 Drizzle 11 1002 100 2000 4.6 180 18:18 25.11.2019
3759 Rain 11 1002 87 10000 2.6 160 17:56 25.11.2019
3760 Clouds 11 1002 87 10000 2.6 160 17:37 25.11.2019
3761 Drizzle 11 1002 100 2000 4.1 160 17:18 25.11.2019
3762 Drizzle 11 1002 100 2200 5.1 150 16:55 25.11.2019
3763 Drizzle 11 1002 100 2200 5.1 150 16:37 25.11.2019
3764 Rain 11 1002 87 10000 4.1 150 16:18 25.11.2019
3765 Rain 11 1002 87 10000 3.1 150 15:41 25.11.2019
3766 Rain 11 1002 87 10000 3.6 150 15:20 25.11.2019
3767 Rain 11 1002 87 10000 3.6 150 14:57 25.11.2019
3768 Rain 11 1002 87 10000 3.6 150 14:39 25.11.2019
3769 Rain 11 1002 87 9000 3.1 150 14:20 25.11.2019
3770 Clouds 11 1002 87 10000 3.6 140 13:40 25.11.2019
3771 Clouds 11 1002 93 8000 3.6 140 13:21 25.11.2019
3772 Clouds 11 1003 93 7000 3.6 140 12:59 25.11.2019
3773 Clouds 11 1003 93 7000 3.6 140 12:59 25.11.2019
3774 Clouds 11 1003 93 7000 3.6 140 12:40 25.11.2019
3775 Drizzle 11 1002 93 4000 5.1 150 12:21 25.11.2019
3776 Clouds 10 1003 93 10000 3.6 130 11:58 25.11.2019
3777 Clouds 10 1003 93 8000 4.1 140 11:39 25.11.2019
3778 Clouds 10 1003 93 8000 4.1 140 11:20 25.11.2019
3779 Rain 10 1003 93 10000 3.6 120 10:46 25.11.2019
3780 Clouds 10 1003 93 6000 3.6 110 10:27 25.11.2019
3781 Drizzle 10 1003 100 4100 3.1 110 09:59 25.11.2019
3782 Drizzle 10 1003 100 4100 3.1 110 09:40 25.11.2019
3783 Clouds 10 1003 93 6000 3.6 120 09:22 25.11.2019
3784 Haze 10 1003 93 3500 3.6 120 08:41 25.11.2019
3785 Clouds 10 1003 93 10000 2.6 120 08:22 25.11.2019
3786 Clouds 9 1003 93 10000 3.6 90 07:45 25.11.2019
3787 Rain 9 1003 93 10000 3.1 100 07:25 25.11.2019
3788 Rain 9 1003 93 10000 3.6 100 06:51 25.11.2019
3789 Clouds 9 1003 93 10000 2.6 100 06:22 25.11.2019
3790 Clouds 9 1003 93 10000 3.1 110 05:50 25.11.2019
3791 Clouds 9 1003 93 10000 4.1 100 05:29 25.11.2019
3792 Clouds 9 1004 87 10000 2.6 110 03:49 25.11.2019
3793 Clouds 9 1004 93 10000 3.1 110 02:35 25.11.2019
3794 Clouds 9 1004 93 10000 2.6 90 01:43 25.11.2019
3795 Clouds 9 1004 87 10000 3.1 80 01:24 25.11.2019
3796 Clouds 9 1004 87 10000 4.1 80 00:39 25.11.2019
3797 Clouds 9 1004 93 10000 3.1 100 00:18 25.11.2019
3798 Clouds 9 1005 87 10000 3.6 80 23:44 24.11.2019
3799 Clouds 9 1005 87 10000 3.1 100 23:20 24.11.2019
3800 Clouds 10 1005 100 10000 6.2 160 22:57 24.11.2019
3801 Clouds 10 1005 100 10000 6.2 160 22:38 24.11.2019
3802 Clouds 10 1005 81 10000 3.1 140 22:19 24.11.2019
3803 Clouds 10 1005 81 10000 3.1 140 21:57 24.11.2019
3804 Clouds 10 1005 87 10000 3.1 140 21:38 24.11.2019
3805 Rain 10 1005 87 10000 3.1 150 21:20 24.11.2019
3806 Rain 10 1005 87 10000 3.1 150 20:56 24.11.2019
3807 Clouds 10 1005 100 10000 4.6 150 20:37 24.11.2019
3808 Drizzle 10 1004 100 10000 5.7 150 20:18 24.11.2019
3809 Clouds 10 1004 100 10000 5.7 160 19:56 24.11.2019
3810 Clouds 10 1004 100 10000 5.7 160 19:56 24.11.2019
3811 Clouds 10 1004 100 10000 5.7 160 19:38 24.11.2019
3812 Clouds 10 1004 100 10000 6.2 170 19:19 24.11.2019
3813 Clouds 10 1004 93 10000 6.7 180 18:56 24.11.2019
3814 Clouds 10 1004 93 10000 6.7 180 18:36 24.11.2019
3815 Clouds 10 1004 93 10000 5.7 190 18:18 24.11.2019
3816 Clouds 10 1004 87 10000 1.5 0 17:55 24.11.2019
3817 Clouds 10 1004 87 10000 1.5 0 17:37 24.11.2019
3818 Clouds 10 1004 87 10000 1.5 0 17:37 24.11.2019
3819 Clouds 10 1004 93 10000 3.6 190 17:19 24.11.2019
3820 Clouds 10 1004 93 10000 3.1 200 16:56 24.11.2019
3821 Clouds 10 1004 93 10000 3.1 200 16:38 24.11.2019
3822 Clouds 10 1004 81 10000 3.1 220 16:19 24.11.2019
3823 Clouds 10 1004 81 10000 3.1 220 16:19 24.11.2019
3824 Clouds 11 1004 81 10000 4.1 210 15:43 24.11.2019
3825 Clouds 11 1004 81 10000 3.6 220 15:25 24.11.2019
3826 Clouds 11 1004 87 10000 4.6 210 14:57 24.11.2019
3827 Clouds 11 1004 87 10000 4.6 210 14:57 24.11.2019
3828 Clouds 11 1004 87 10000 4.6 210 14:38 24.11.2019
3829 Clouds 11 1004 87 10000 4.6 210 14:38 24.11.2019
3830 Clouds 11 1004 87 10000 2.6 220 14:18 24.11.2019
3831 Haze 10 1004 100 4900 1 0 13:41 24.11.2019
3832 Haze 10 1004 100 5000 1.5 270 13:22 24.11.2019
3833 Haze 10 1004 100 5000 1.5 270 12:59 24.11.2019
3834 Mist 10 1004 100 3400 1.5 240 12:41 24.11.2019
3835 Mist 10 1004 93 2400 1.5 230 12:19 24.11.2019
3836 Fog 9 1004 100 900 0.5 0 11:57 24.11.2019
3837 Fog 9 1004 100 900 0.5 0 11:37 24.11.2019
3838 Fog 9 1004 100 900 0.5 0 11:37 24.11.2019
3839 Fog 9 1004 93 300 0.8 208 11:18 24.11.2019
3840 Mist 9 1004 93 1300 0.8 208 10:47 24.11.2019
3841 Mist 9 1004 93 1300 0.8 208 10:29 24.11.2019
3842 Haze 9 1003 93 2100 0.5 90 09:58 24.11.2019
3843 Clouds 8 1003 93 6000 0.8 208 09:37 24.11.2019
3844 Haze 8 1003 93 4700 1.5 110 09:19 24.11.2019
3845 Rain 8 1002 93 6000 0.8 208 08:45 24.11.2019
3846 Rain 8 1002 93 5000 0.5 0 08:23 24.11.2019
3847 Rain 8 1002 93 5000 0.5 0 08:23 24.11.2019
3848 Haze 8 1002 100 4700 0.5 0 07:58 24.11.2019
3849 Haze 8 1002 100 4700 0.5 0 07:38 24.11.2019
3850 Clouds 8 1002 100 6000 1.18 149 07:20 24.11.2019
3851 Rain 8 1001 93 4800 0.5 50 06:21 24.11.2019
3852 Haze 8 1000 93 5000 1 0 04:49 24.11.2019
3853 Rain 7 1000 93 5000 1.5 90 03:41 24.11.2019
3854 Haze 7 1000 100 4200 0.95 121 02:31 24.11.2019
3855 Haze 7 1000 93 5000 2.6 90 01:41 24.11.2019
3856 Clouds 7 999 93 6000 2.6 90 01:22 24.11.2019
3857 Clouds 7 999 93 6000 2.6 90 01:22 24.11.2019
3858 Clouds 7 999 87 6000 2.1 70 00:48 24.11.2019
3859 Clouds 7 999 93 7000 1.5 70 00:24 24.11.2019
3860 Clouds 7 999 93 7000 1.5 70 00:24 24.11.2019
3861 Clouds 8 998 93 6000 2.6 90 23:56 23.11.2019
3862 Clouds 8 998 93 6000 2.6 90 23:37 23.11.2019
3863 Clouds 8 998 93 9000 3.1 70 23:19 23.11.2019
3864 Clouds 8 998 100 10000 3.1 80 22:54 23.11.2019
3865 Clouds 8 998 87 9000 3.1 80 22:36 23.11.2019
3866 Clouds 8 998 87 10000 2.6 70 22:18 23.11.2019
3867 Clouds 9 998 87 10000 3.6 70 21:42 23.11.2019
3868 Clouds 9 998 87 10000 3.6 70 21:42 23.11.2019
3869 Clouds 9 998 87 10000 3.1 90 21:23 23.11.2019
3870 Clouds 9 998 87 10000 3.1 90 20:59 23.11.2019
3871 Rain 9 997 87 10000 2.6 80 20:37 23.11.2019
3872 Clouds 10 997 87 10000 3.1 80 20:19 23.11.2019
3873 Clouds 10 996 81 10000 5.7 80 19:56 23.11.2019
3874 Rain 10 996 81 10000 5.7 80 19:38 23.11.2019
3875 Rain 10 996 81 10000 6.2 80 19:18 23.11.2019
3876 Rain 10 996 81 10000 6.7 80 18:55 23.11.2019
3877 Clouds 10 996 81 10000 6.7 80 18:36 23.11.2019
3878 Clouds 10 996 81 10000 6.7 80 18:36 23.11.2019
3879 Clouds 10 995 87 10000 6.2 80 18:18 23.11.2019
3880 Clouds 10 995 87 10000 5.7 80 17:41 23.11.2019
3881 Rain 10 995 87 10000 5.1 80 17:21 23.11.2019
3882 Rain 10 994 87 10000 3.1 70 16:56 23.11.2019
3883 Rain 10 994 87 10000 3.1 70 16:38 23.11.2019
3884 Clouds 10 994 87 10000 4.6 80 16:20 23.11.2019
3885 Clouds 10 994 87 10000 4.6 80 15:58 23.11.2019
3886 Rain 10 994 87 10000 5.1 70 15:39 23.11.2019
3887 Clouds 10 994 87 10000 4.6 90 15:19 23.11.2019
3888 Clouds 10 994 87 10000 4.6 90 14:56 23.11.2019
3889 Rain 10 994 87 10000 3.6 70 14:38 23.11.2019
3890 Rain 10 994 87 10000 3.6 70 14:38 23.11.2019
3891 Clouds 10 994 87 10000 3.6 60 14:20 23.11.2019
3892 Clouds 10 994 93 10000 3.1 70 13:43 23.11.2019
3893 Rain 10 994 93 8000 4.1 70 13:20 23.11.2019
3894 Rain 10 993 93 7000 4.6 90 12:58 23.11.2019
3895 Rain 10 993 93 7000 4.6 90 12:40 23.11.2019
3896 Clouds 9 993 87 6000 3.6 80 12:22 23.11.2019
3897 Rain 9 993 87 10000 4.6 80 11:42 23.11.2019
3898 Rain 9 993 93 9000 4.6 90 11:20 23.11.2019
3899 Clouds 9 993 93 10000 5.7 90 10:45 23.11.2019
3900 Clouds 9 992 93 10000 5.7 90 10:22 23.11.2019
3901 Clouds 9 992 93 10000 5.1 80 09:43 23.11.2019
3902 Clouds 9 992 93 10000 5.1 80 09:21 23.11.2019
3903 Clouds 8 992 93 10000 5.1 80 08:55 23.11.2019
3904 Clouds 8 992 93 10000 5.1 80 08:36 23.11.2019
3905 Clouds 8 992 93 10000 5.1 80 08:18 23.11.2019
3906 Rain 8 991 93 10000 5.7 90 07:39 23.11.2019
3907 Rain 8 991 93 10000 5.1 80 06:48 23.11.2019
3908 Rain 8 991 93 10000 5.1 80 06:22 23.11.2019
3909 Rain 8 991 87 10000 4.6 80 05:53 23.11.2019
3910 Rain 8 991 87 10000 4.6 80 05:31 23.11.2019
3911 Rain 8 991 87 10000 4.1 80 04:50 23.11.2019
3912 Rain 8 991 87 10000 4.1 70 04:29 23.11.2019
3913 Rain 8 991 87 10000 5.1 80 03:20 23.11.2019
3914 Clouds 8 992 87 10000 6.2 100 02:27 23.11.2019
3915 Clouds 8 992 81 10000 6.7 90 01:38 23.11.2019
3916 Clouds 8 993 81 10000 6.7 90 00:45 23.11.2019
3917 Clouds 8 993 81 10000 5.7 90 00:19 23.11.2019
3918 Clouds 8 993 81 10000 6.2 80 23:42 22.11.2019
3919 Clouds 8 994 81 10000 6.7 90 23:21 22.11.2019
3920 Clouds 8 994 81 10000 5.1 90 22:59 22.11.2019
3921 Clouds 8 994 81 10000 5.1 90 22:41 22.11.2019
3922 Clouds 8 994 81 10000 6.2 80 22:23 22.11.2019
3923 Clouds 8 994 81 10000 6.2 80 21:59 22.11.2019
3924 Clouds 8 994 87 10000 6.2 90 21:40 22.11.2019
3925 Clouds 8 995 81 10000 6.2 90 21:20 22.11.2019
3926 Clouds 8 995 81 10000 7.2 100 20:44 22.11.2019
3927 Clouds 8 995 81 10000 6.7 100 20:23 22.11.2019
3928 Clouds 8 995 87 10000 6.2 100 19:58 22.11.2019
3929 Clouds 8 995 87 10000 6.2 100 19:39 22.11.2019
3930 Clouds 8 995 87 10000 5.1 100 19:19 22.11.2019
3931 Clouds 8 995 87 10000 5.1 100 18:59 22.11.2019
3932 Clouds 8 995 87 10000 5.1 90 18:37 22.11.2019
3933 Clouds 8 995 87 10000 5.1 90 18:18 22.11.2019
3934 Clouds 8 995 87 10000 5.7 100 17:41 22.11.2019
3935 Clouds 8 995 100 10000 4.6 110 17:22 22.11.2019
3936 Clouds 9 995 93 10000 4.6 120 16:48 22.11.2019
3937 Clouds 9 995 93 10000 4.6 120 16:30 22.11.2019
3938 Clouds 9 995 93 10000 4.6 120 15:55 22.11.2019
3939 Clouds 9 995 93 10000 4.6 120 15:37 22.11.2019
3940 Rain 9 995 93 10000 4.6 130 15:19 22.11.2019
3941 Clouds 9 995 87 10000 5.7 140 14:54 22.11.2019
3942 Clouds 9 995 87 10000 5.7 140 14:36 22.11.2019
3943 Clouds 9 996 81 10000 4.6 130 14:18 22.11.2019
3944 Clouds 9 996 81 10000 4.6 140 13:38 22.11.2019
3945 Clouds 9 996 81 10000 5.1 140 13:19 22.11.2019
3946 Clouds 9 997 81 10000 5.1 140 12:58 22.11.2019
3947 Clouds 9 997 81 10000 5.1 140 12:40 22.11.2019
3948 Clouds 9 997 81 10000 5.1 140 12:40 22.11.2019
3949 Clouds 8 997 81 10000 4.1 140 12:19 22.11.2019
3950 Rain 8 997 81 10000 4.1 140 11:57 22.11.2019
3951 Rain 8 997 93 10000 5.1 150 11:37 22.11.2019
3952 Rain 8 997 100 10000 5.7 150 11:18 22.11.2019
3953 Rain 8 997 100 10000 5.7 150 11:18 22.11.2019
3954 Clouds 8 997 87 10000 4.1 140 10:54 22.11.2019
3955 Clouds 7 997 87 10000 4.1 140 10:36 22.11.2019
3956 Clouds 7 997 87 10000 3.6 130 10:18 22.11.2019
3957 Clouds 7 997 87 10000 3.1 130 09:41 22.11.2019
3958 Rain 6 996 87 10000 3.6 130 09:22 22.11.2019
3959 Rain 6 996 87 10000 3.6 130 08:58 22.11.2019
3960 Rain 6 996 93 10000 3.1 130 08:39 22.11.2019
3961 Rain 6 996 93 10000 3.1 120 08:21 22.11.2019
3962 Rain 6 996 93 10000 2.6 110 07:43 22.11.2019
3963 Rain 6 997 93 10000 1.5 0 07:21 22.11.2019
3964 Rain 6 997 87 5000 3.1 160 06:48 22.11.2019
3965 Rain 6 997 87 5000 3.1 160 06:27 22.11.2019
3966 Rain 6 996 87 10000 4.6 150 05:37 22.11.2019
3967 Rain 7 997 93 8000 3.6 130 03:34 22.11.2019
3968 Clouds 7 997 93 6000 3.6 110 02:47 22.11.2019
3969 Mist 7 997 100 4000 3.1 100 02:28 22.11.2019
3970 Rain 7 997 100 2800 3.6 100 01:44 22.11.2019
3971 Rain 7 998 93 2600 4.1 100 01:19 22.11.2019
3972 Rain 7 998 93 2700 4.1 100 00:49 22.11.2019
3973 Drizzle 7 998 93 2800 4.1 100 00:23 22.11.2019
3974 Drizzle 6 999 93 2800 4.6 100 23:44 21.11.2019
3975 Rain 6 999 93 3100 4.6 100 23:25 21.11.2019
3976 Rain 6 999 93 3600 5.1 110 22:58 21.11.2019
3977 Rain 6 999 93 3600 5.1 110 22:39 21.11.2019
3978 Rain 6 999 93 3600 5.1 110 22:38 21.11.2019
3979 Drizzle 6 999 87 4500 4.6 100 22:20 21.11.2019
3980 Haze 6 1000 93 4600 4.1 100 21:56 21.11.2019
3981 Haze 6 1000 93 4600 4.1 100 21:37 21.11.2019
3982 Haze 5 1000 93 4600 6.2 90 21:19 21.11.2019
3983 Haze 5 1000 93 4600 6.2 90 20:58 21.11.2019
3984 Haze 5 1000 93 5000 5.7 90 20:38 21.11.2019
3985 Haze 5 1001 93 4600 6.2 90 20:19 21.11.2019
3986 Haze 5 1001 93 4700 5.7 90 19:59 21.11.2019
3987 Haze 5 1001 93 4700 5.7 90 19:40 21.11.2019
3988 Haze 5 1001 93 4800 5.7 100 19:21 21.11.2019
3989 Haze 5 1001 93 4800 5.7 100 18:56 21.11.2019
3990 Haze 5 1001 93 4800 5.1 90 18:37 21.11.2019
3991 Haze 5 1001 93 5000 5.1 90 18:18 21.11.2019
3992 Haze 5 1002 93 4400 5.1 90 17:57 21.11.2019
3993 Haze 5 1002 93 4400 5.1 90 17:38 21.11.2019
3994 Haze 5 1002 93 3500 5.7 90 17:19 21.11.2019
3995 Haze 5 1002 93 3800 4.6 90 16:41 21.11.2019
3996 Haze 5 1002 93 3500 5.7 90 16:21 21.11.2019
3997 Haze 5 1002 93 3900 5.1 90 15:57 21.11.2019
3998 Haze 5 1002 93 3900 5.1 90 15:38 21.11.2019
3999 Haze 5 1002 93 4800 5.7 80 15:19 21.11.2019
4000 Haze 5 1003 87 5000 5.1 90 14:56 21.11.2019
4001 Haze 5 1003 87 5000 5.1 90 14:36 21.11.2019
4002 Clouds 5 1003 87 6000 5.1 100 14:18 21.11.2019
4003 Clouds 5 1003 81 7000 4.6 110 13:39 21.11.2019
4004 Clouds 5 1004 86 7000 5.1 110 13:20 21.11.2019
4005 Clouds 5 1004 86 7000 5.1 110 12:57 21.11.2019
4006 Clouds 5 1004 86 7000 5.7 90 12:38 21.11.2019
4007 Clouds 5 1004 86 7000 5.1 90 12:19 21.11.2019
4008 Clouds 5 1005 86 7000 5.1 100 11:41 21.11.2019
4009 Clouds 4 1005 86 7000 6.7 100 11:21 21.11.2019
4010 Clouds 4 1005 86 7000 6.7 100 10:59 21.11.2019
4011 Clouds 4 1005 93 7000 5.7 110 10:41 21.11.2019
4012 Clouds 4 1005 86 6000 4.6 120 10:22 21.11.2019
4013 Clouds 4 1005 86 7000 4.6 120 09:56 21.11.2019
4014 Clouds 4 1005 86 7000 4.6 120 09:38 21.11.2019
4015 Clouds 4 1006 86 8000 5.1 110 09:19 21.11.2019
4016 Clouds 4 1006 86 8000 5.1 110 09:19 21.11.2019
4017 Clouds 4 1006 86 8000 4.1 110 08:41 21.11.2019
4018 Clouds 4 1006 86 8000 4.6 100 08:20 21.11.2019
4019 Clouds 4 1006 86 7000 4.1 110 07:42 21.11.2019
4020 Clouds 4 1006 86 8000 5.1 110 07:18 21.11.2019
4021 Clouds 4 1006 86 8000 5.1 110 06:57 21.11.2019
4022 Clouds 4 1006 86 7000 5.7 90 06:34 21.11.2019
4023 Clouds 4 1007 86 7000 4.6 90 05:37 21.11.2019
4024 Clouds 4 1007 86 8000 5.1 100 03:34 21.11.2019
4025 Clouds 4 1007 86 8000 5.1 90 02:42 21.11.2019
4026 Clouds 4 1008 86 8000 4.6 90 02:21 21.11.2019
4027 Clouds 4 1008 86 9000 4.6 80 01:42 21.11.2019
4028 Clouds 4 1008 86 10000 4.6 100 01:19 21.11.2019
4029 Clouds 4 1008 86 10000 5.1 90 00:37 21.11.2019
4030 Clouds 4 1009 86 10000 5.1 100 00:18 21.11.2019
4031 Clouds 3 1009 86 10000 5.7 100 23:41 20.11.2019
4032 Clouds 3 1009 86 10000 5.7 100 23:21 20.11.2019
4033 Clouds 3 1009 86 10000 5.7 100 22:56 20.11.2019
4034 Clouds 3 1009 86 10000 5.7 100 22:37 20.11.2019
4035 Clouds 3 1009 86 10000 5.7 100 22:19 20.11.2019
4036 Clouds 3 1009 86 10000 5.7 100 21:57 20.11.2019
4037 Clouds 3 1010 86 10000 4.6 100 21:38 20.11.2019
4038 Clouds 3 1010 80 10000 5.7 100 21:19 20.11.2019
4039 Clouds 4 1010 75 10000 6.2 110 20:56 20.11.2019
4040 Clouds 4 1010 75 10000 6.2 110 20:56 20.11.2019
4041 Clouds 4 1010 75 10000 6.2 110 20:38 20.11.2019
4042 Clouds 4 1010 75 10000 5.7 100 20:19 20.11.2019
4043 Clouds 4 1010 75 10000 5.1 100 19:55 20.11.2019
4044 Clouds 4 1010 75 10000 5.1 100 19:55 20.11.2019
4045 Clouds 4 1010 75 10000 5.1 100 19:36 20.11.2019
4046 Clouds 4 1010 75 10000 7.2 100 19:18 20.11.2019
4047 Clouds 4 1010 75 10000 7.2 100 18:58 20.11.2019
4048 Clouds 4 1010 75 10000 7.2 100 18:38 20.11.2019
4049 Clouds 4 1009 64 10000 5.7 110 18:20 20.11.2019
4050 Clouds 4 1009 64 10000 5.7 110 17:56 20.11.2019
4051 Clouds 4 1009 64 10000 5.7 110 17:38 20.11.2019
4052 Clouds 5 1010 63 10000 6.2 110 17:19 20.11.2019
4053 Clouds 5 1010 63 10000 5.7 110 16:43 20.11.2019
4054 Clouds 6 1011 56 10000 6.7 110 16:21 20.11.2019
4055 Clouds 6 1011 56 10000 6.7 110 15:59 20.11.2019
4056 Clouds 6 1010 63 10000 6.7 120 15:41 20.11.2019
4057 Clouds 6 1010 63 10000 6.2 110 15:21 20.11.2019
4058 Clouds 7 1012 61 10000 4.6 120 14:59 20.11.2019
4059 Clouds 7 1012 61 10000 4.6 120 14:40 20.11.2019
4060 Clouds 7 1012 61 10000 6.7 110 14:21 20.11.2019
4061 Clouds 7 1013 61 10000 5.1 130 13:57 20.11.2019
4062 Clouds 7 1013 61 10000 5.1 130 13:39 20.11.2019
4063 Clouds 7 1013 65 10000 4.6 150 13:19 20.11.2019
4064 Clouds 7 1013 65 10000 5.7 140 12:43 20.11.2019
4065 Clouds 7 1014 65 10000 4.6 130 12:25 20.11.2019
4066 Clouds 7 1014 70 10000 5.1 140 11:59 20.11.2019
4067 Clouds 7 1014 70 10000 5.1 140 11:40 20.11.2019
4068 Clouds 6 1014 75 10000 3.1 110 11:21 20.11.2019
4069 Clouds 6 1014 80 10000 3.1 110 10:55 20.11.2019
4070 Clouds 5 1014 80 10000 3.1 110 10:37 20.11.2019
4071 Clouds 5 1014 80 10000 3.1 110 10:37 20.11.2019
4072 Clouds 5 1015 80 10000 2.6 100 10:19 20.11.2019
4073 Clouds 5 1015 80 10000 3.1 90 09:43 20.11.2019
4074 Clouds 4 1015 80 10000 2.1 80 09:22 20.11.2019
4075 Clouds 4 1014 86 10000 3.1 100 08:58 20.11.2019
4076 Clouds 4 1014 86 10000 3.1 100 08:39 20.11.2019
4077 Clouds 4 1014 86 10000 3.6 110 08:20 20.11.2019
4078 Clouds 4 1014 80 10000 4.1 90 07:47 20.11.2019
4079 Clouds 4 1014 80 10000 4.1 90 07:26 20.11.2019
4080 Clouds 4 1014 80 10000 2.6 130 06:49 20.11.2019
4081 Clouds 4 1014 80 10000 3.6 90 06:22 20.11.2019
4082 Clouds 4 1014 75 10000 2.6 130 05:42 20.11.2019
4083 Clouds 4 1015 75 10000 4.6 150 03:42 20.11.2019
4084 Clouds 4 1015 75 10000 3.1 160 02:22 20.11.2019
4085 Clouds 4 1015 86 10000 1.5 0 01:33 20.11.2019
4086 Clouds 4 1016 93 10000 2.1 70 00:42 20.11.2019
4087 Clouds 4 1016 93 9000 1.5 80 23:57 19.11.2019
4088 Clouds 4 1016 93 9000 1.5 80 23:27 19.11.2019
4089 Clouds 4 1016 93 9000 2.6 70 22:59 19.11.2019
4090 Clouds 4 1016 93 10000 2.6 80 22:41 19.11.2019
4091 Clouds 4 1016 87 10000 3.1 90 22:19 19.11.2019
4092 Clouds 4 1016 87 10000 3.1 90 21:57 19.11.2019
4093 Clouds 4 1016 87 10000 2.1 90 21:38 19.11.2019
4094 Clouds 4 1016 87 10000 2.1 60 21:20 19.11.2019
4095 Clouds 4 1016 86 10000 2.6 90 20:57 19.11.2019
4096 Clouds 4 1016 86 10000 2.6 90 20:39 19.11.2019
4097 Clouds 4 1016 81 10000 3.6 100 20:20 19.11.2019
4098 Clouds 4 1016 81 10000 3.6 100 19:59 19.11.2019
4099 Clouds 4 1016 81 10000 3.6 100 19:41 19.11.2019
4100 Clouds 4 1016 81 10000 4.1 100 19:19 19.11.2019
4101 Clouds 4 1016 81 10000 4.1 100 18:56 19.11.2019
4102 Clouds 4 1016 81 10000 4.1 100 18:38 19.11.2019
4103 Clouds 4 1016 81 10000 3.1 90 18:18 19.11.2019
4104 Clouds 5 1016 81 10000 3.1 90 17:56 19.11.2019
4105 Clouds 5 1016 70 10000 2.6 90 17:37 19.11.2019
4106 Clouds 5 1016 75 10000 2.1 110 17:18 19.11.2019
4107 Clouds 6 1016 75 10000 1.5 120 16:55 19.11.2019
4108 Clouds 6 1016 75 10000 3.1 110 16:37 19.11.2019
4109 Clouds 6 1016 75 10000 3.1 110 16:18 19.11.2019
4110 Clouds 6 1016 81 10000 5.1 170 15:42 19.11.2019
4111 Clouds 6 1016 70 10000 1.5 0 15:23 19.11.2019
4112 Clouds 6 1016 70 10000 1.5 0 14:57 19.11.2019
4113 Clouds 6 1017 70 10000 2.6 160 14:38 19.11.2019
4114 Clouds 5 1016 70 10000 1 0 14:20 19.11.2019
4115 Clouds 5 1017 81 10000 1.5 80 13:41 19.11.2019
4116 Clouds 4 1017 81 10000 2.1 70 13:20 19.11.2019
4117 Clouds 4 1017 86 10000 1 0 12:42 19.11.2019
4118 Clouds 4 1017 93 10000 1 0 12:23 19.11.2019
4119 Clouds 3 1018 86 10000 1.5 60 11:59 19.11.2019
4120 Clouds 3 1018 86 10000 1.5 60 11:39 19.11.2019
4121 Clouds 2 1017 86 8000 2.6 100 11:20 19.11.2019
4122 Clouds 2 1017 86 8000 2.6 100 10:58 19.11.2019
4123 Clouds 1 1018 93 7000 2.1 100 10:40 19.11.2019
4124 Clouds 0 1018 86 10000 1 0 10:20 19.11.2019
4125 Clouds 0 1018 86 10000 1 0 10:20 19.11.2019
4126 Clouds -1 1017 86 10000 3.1 190 09:42 19.11.2019
4127 Clouds -1 1017 83 10000 4.1 190 09:20 19.11.2019
4128 Clouds -1 1017 83 10000 4.1 200 08:56 19.11.2019
4129 -273 0 0 0 0 0 08:38 19.11.2019
4130 Fog -2 1017 100 300 0.5 310 08:20 19.11.2019
4131 Clouds -2 1017 87 9000 0.5 0 07:42 19.11.2019
4132 Fog -2 1017 92 600 1 0 07:23 19.11.2019
4133 Fog -2 1017 92 100 0.5 0 06:55 19.11.2019
4134 Rain -2 1017 92 100 0.5 0 06:36 19.11.2019
4135 Rain -2 1017 100 100 1 0 05:51 19.11.2019
4136 Clouds -2 1017 93 10000 2.6 230 04:48 19.11.2019
4137 Fog -1 1017 82 3000 0.5 260 03:35 19.11.2019
4138 Clouds -1 1017 93 10000 2.1 230 02:59 19.11.2019
4139 Clouds 0 1017 93 10000 1.5 230 02:39 19.11.2019
4140 Clouds -1 1017 80 9000 1.45 293 01:47 19.11.2019
4141 Mist 0 1017 92 10000 0.5 280 00:41 19.11.2019
4142 Mist 1 1017 92 10000 1 280 00:19 19.11.2019
4143 Clouds 1 1017 78 10000 2.6 250 23:38 18.11.2019
4144 Clear 1 1017 76 10000 2.6 250 23:19 18.11.2019
4145 Clear 1 1017 93 10000 3.1 250 22:46 18.11.2019
4146 Clear 2 1017 86 10000 2.6 270 22:24 18.11.2019
4147 Clear 2 1017 86 10000 2.6 270 21:57 18.11.2019
4148 Clear 2 1017 86 10000 1.5 290 21:39 18.11.2019
4149 Clear 2 1017 86 10000 2.1 300 21:20 18.11.2019
4150 Clear 2 1017 86 10000 2.6 300 20:57 18.11.2019
4151 Clear 3 1017 86 10000 2.6 300 20:39 18.11.2019
4152 Clouds 3 1016 86 10000 2.6 300 20:18 18.11.2019
4153 Clouds 3 1016 86 10000 2.6 330 19:56 18.11.2019
4154 Clouds 3 1016 86 10000 2.6 330 19:38 18.11.2019
4155 Clouds 4 1016 80 10000 2.1 330 19:19 18.11.2019
4156 Clouds 4 1016 80 10000 3.6 330 18:56 18.11.2019
4157 Clouds 4 1016 80 10000 3.6 330 18:38 18.11.2019
4158 Clouds 5 1016 80 10000 3.6 330 18:19 18.11.2019
4159 Clouds 5 1016 80 10000 3.6 340 17:55 18.11.2019
4160 Clouds 6 1016 80 10000 3.6 340 17:36 18.11.2019
4161 Clouds 6 1016 80 10000 5.1 340 17:18 18.11.2019
4162 Clouds 7 1015 75 10000 5.7 340 16:42 18.11.2019
4163 Clouds 7 1015 75 10000 4.1 350 16:23 18.11.2019
4164 Clouds 8 1016 66 10000 3.1 320 15:56 18.11.2019
4165 Clouds 8 1016 66 10000 3.6 0 15:56 18.11.2019
4166 Clouds 8 1016 66 10000 3.6 0 15:38 18.11.2019
4167 Clouds 8 1015 70 10000 4.1 360 15:20 18.11.2019
4168 Clouds 8 1015 70 10000 2.6 340 14:43 18.11.2019
4169 Clouds 8 1015 70 10000 4.6 340 14:24 18.11.2019
4170 Clouds 8 1015 70 10000 3.1 350 13:57 18.11.2019
4171 Clouds 8 1015 70 10000 3.1 350 13:39 18.11.2019
4172 Clouds 8 1015 75 10000 4.1 340 13:21 18.11.2019
4173 Clouds 8 1015 70 10000 3.1 330 12:40 18.11.2019
4174 Clouds 7 1015 75 10000 3.1 320 12:20 18.11.2019
4175 Clouds 7 1015 75 10000 3.6 300 11:55 18.11.2019
4176 Clouds 7 1015 75 10000 3.6 300 11:37 18.11.2019
4177 Clouds 6 1016 81 10000 4.6 300 11:19 18.11.2019
4178 Clouds 6 1015 81 10000 4.1 300 10:42 18.11.2019
4179 Clouds 5 1015 81 10000 3.6 300 10:23 18.11.2019
4180 Clouds 5 1015 93 10000 2.6 330 09:57 18.11.2019
4181 Clouds 5 1015 93 10000 2.6 330 09:38 18.11.2019
4182 Clouds 5 1015 93 10000 4.6 330 09:19 18.11.2019
4183 Clouds 5 1015 93 10000 4.6 330 09:19 18.11.2019
4184 Clouds 5 1015 93 10000 4.6 330 08:47 18.11.2019
4185 Clouds 5 1015 87 10000 2.6 0 08:24 18.11.2019
4186 Clouds 5 1014 87 10000 3.6 300 07:55 18.11.2019
4187 Clouds 5 1014 87 10000 3.6 300 07:37 18.11.2019
4188 Clouds 5 1015 93 10000 2.6 320 07:19 18.11.2019
4189 Clouds 5 1015 93 10000 2.6 320 06:41 18.11.2019
4190 Clouds 5 1014 81 10000 4.6 340 06:21 18.11.2019
4191 Clouds 6 1014 81 10000 2.6 350 05:41 18.11.2019
4192 Clouds 6 1014 93 10000 2.6 350 03:53 18.11.2019
4193 Drizzle 6 1013 93 2400 2.6 300 01:40 18.11.2019
4194 Haze 6 1013 93 4900 1 0 00:53 18.11.2019
4195 Haze 6 1013 93 4500 0.5 0 00:18 18.11.2019
4196 Haze 5 1013 87 4600 1 0 23:41 17.11.2019
4197 Haze 5 1013 87 4400 1 0 23:21 17.11.2019
4198 Haze 5 1013 87 4400 1 0 22:57 17.11.2019
4199 Haze 5 1013 93 5000 1.5 0 22:39 17.11.2019
4200 Haze 5 1013 93 5000 1.5 0 22:39 17.11.2019
4201 Clouds 5 1013 87 6000 1 0 22:20 17.11.2019
4202 Clouds 5 1013 87 6000 1 0 21:55 17.11.2019
4203 Clouds 4 1013 87 6000 1 0 21:36 17.11.2019
4204 Clouds 4 1013 87 9000 1.5 300 21:18 17.11.2019
4205 Clouds 4 1013 87 10000 1 340 20:55 17.11.2019
4206 Clouds 4 1013 87 10000 1 340 20:36 17.11.2019
4207 Clouds 4 1013 87 10000 0.5 0 20:18 17.11.2019
4208 Clouds 4 1012 81 10000 0.5 0 19:55 17.11.2019
4209 Clouds 4 1012 81 10000 0.5 0 19:36 17.11.2019
4210 Clouds 5 1012 81 10000 1 0 19:18 17.11.2019
4211 Clouds 5 1012 86 10000 1.5 340 18:54 17.11.2019
4212 Clouds 5 1012 86 10000 1.5 340 18:54 17.11.2019
4213 Clouds 5 1012 86 10000 1.5 340 18:36 17.11.2019
4214 Clouds 6 1012 70 10000 2.1 60 18:18 17.11.2019
4215 Clouds 6 1012 70 10000 2.1 60 17:56 17.11.2019
4216 Clouds 6 1012 70 10000 1 0 17:38 17.11.2019
4217 Clouds 7 1011 87 10000 2.6 10 17:18 17.11.2019
4218 Clouds 7 1011 81 10000 2.6 360 16:42 17.11.2019
4219 Clouds 8 1011 81 10000 2.1 10 16:22 17.11.2019
4220 Clouds 8 1012 70 10000 1 0 15:59 17.11.2019
4221 Clouds 8 1011 70 10000 1.5 0 15:41 17.11.2019
4222 Clouds 8 1011 70 10000 1.5 0 15:19 17.11.2019
4223 Clouds 8 1011 70 10000 1.5 0 14:57 17.11.2019
4224 Clouds 8 1011 70 10000 1.5 0 14:39 17.11.2019
4225 Clouds 8 1011 66 10000 2.1 340 14:20 17.11.2019
4226 Clouds 8 1011 66 10000 2.1 340 13:59 17.11.2019
4227 Clouds 8 1011 70 10000 0.5 0 13:40 17.11.2019
4228 Clouds 8 1011 75 10000 2.1 90 13:20 17.11.2019
4229 Clouds 7 1011 75 10000 0.5 0 12:45 17.11.2019
4230 Clouds 6 1011 87 10000 1 0 12:25 17.11.2019
4231 Clouds 6 1011 87 10000 1 0 11:59 17.11.2019
4232 Clouds 5 1011 87 10000 1.51 12 11:40 17.11.2019
4233 Clouds 5 1011 93 7000 1 0 11:21 17.11.2019
4234 Clouds 5 1011 93 7000 1 0 11:21 17.11.2019
4235 Clouds 4 1011 93 7000 1 0 10:59 17.11.2019
4236 Clouds 4 1010 93 10000 1 0 10:40 17.11.2019
4237 Clouds 3 1011 93 6000 1 0 10:21 17.11.2019
4238 Clouds 3 1011 93 6000 1 0 09:42 17.11.2019
4239 Clouds 3 1011 93 6000 0.5 0 09:24 17.11.2019
4240 Clouds 2 1010 93 6000 1.5 250 08:44 17.11.2019
4241 Clouds 2 1010 93 7000 1 0 08:26 17.11.2019
4242 Clouds 2 1010 93 8000 1 100 07:59 17.11.2019
4243 Clouds 2 1010 93 8000 1 100 07:40 17.11.2019
4244 Clouds 2 1009 93 8000 1 0 07:20 17.11.2019
4245 Mist 2 1009 100 3000 0.5 350 06:53 17.11.2019
4246 Clouds 2 1009 93 8000 0.54 35 06:29 17.11.2019
4247 Clouds 3 1009 93 9000 0.5 0 05:24 17.11.2019
4248 Mist 3 1009 100 2600 0.5 130 04:18 17.11.2019
4249 Mist 3 1009 100 4000 0.5 130 03:39 17.11.2019
4250 Mist 3 1009 100 4000 0.71 297 03:20 17.11.2019
4251 Mist 3 1009 100 3900 0.69 244 02:19 17.11.2019
4252 Clouds 3 1009 87 10000 0.5 0 01:22 17.11.2019
4253 Clouds 3 1009 87 10000 1 0 00:41 17.11.2019
4254 Clouds 4 1009 87 10000 1 0 00:21 17.11.2019
4255 Clouds 4 1009 87 10000 1.5 220 23:42 16.11.2019
4256 Clouds 4 1009 87 10000 1 220 23:19 16.11.2019
4257 Clouds 4 1009 87 10000 1 230 22:56 16.11.2019
4258 Clouds 4 1009 87 10000 1 230 22:38 16.11.2019
4259 Clouds 5 1009 87 10000 1 0 22:18 16.11.2019
4260 Clouds 5 1008 86 10000 2.1 170 21:41 16.11.2019
4261 Clouds 5 1008 93 10000 1 170 21:23 16.11.2019
4262 Clouds 5 1008 93 10000 1 170 20:58 16.11.2019
4263 Clouds 5 1008 86 10000 1 150 20:39 16.11.2019
4264 Clouds 5 1008 93 10000 2.1 170 20:19 16.11.2019
4265 Clouds 5 1007 86 10000 2.1 160 19:56 16.11.2019
4266 Clouds 5 1007 86 10000 2.1 160 19:38 16.11.2019
4267 Clouds 6 1008 81 10000 1.5 140 19:19 16.11.2019
4268 Clouds 6 1008 81 10000 2.1 100 18:43 16.11.2019
4269 Clouds 6 1007 86 10000 1.24 242 18:25 16.11.2019
4270 Clouds 6 1008 81 10000 1.5 100 17:56 16.11.2019
4271 Clouds 6 1008 81 10000 1.5 100 17:37 16.11.2019
4272 Clouds 6 1007 81 10000 0.99 266 17:18 16.11.2019
4273 Clouds 7 1007 81 10000 1.5 300 16:46 16.11.2019
4274 Clouds 7 1007 81 10000 0.5 0 16:28 16.11.2019
4275 Clouds 7 1007 75 10000 1 0 15:56 16.11.2019
4276 Clouds 7 1007 70 10000 1.5 0 15:38 16.11.2019
4277 Clouds 7 1006 70 10000 1 0 15:20 16.11.2019
4278 Clouds 7 1006 70 10000 1 0 14:42 16.11.2019
4279 Clouds 7 1006 70 10000 1 0 14:22 16.11.2019
4280 Clouds 7 1006 70 10000 1 0 13:58 16.11.2019
4281 Clouds 7 1006 70 10000 0.5 0 13:39 16.11.2019
4282 Clouds 7 1006 70 10000 0.5 0 13:39 16.11.2019
4283 Clouds 7 1006 70 10000 1 0 13:19 16.11.2019
4284 Clouds 7 1006 70 10000 1 0 12:59 16.11.2019
4285 Clouds 7 1006 75 10000 1.5 0 12:41 16.11.2019
4286 Clouds 6 1006 81 10000 1 0 12:20 16.11.2019
4287 Clouds 6 1006 81 10000 1 0 12:20 16.11.2019
4288 Clouds 6 1006 87 10000 1 0 11:47 16.11.2019
4289 Clouds 6 1006 87 10000 1.5 360 11:28 16.11.2019
4290 Clouds 6 1006 87 10000 1.5 360 10:59 16.11.2019
4291 Haze 5 1006 93 8000 1 30 10:41 16.11.2019
4292 Clouds 5 1006 93 10000 1 0 10:22 16.11.2019
4293 Clouds 5 1006 93 10000 1.5 0 09:56 16.11.2019
4294 Clouds 5 1006 93 10000 1.5 0 09:38 16.11.2019
4295 Clouds 4 1006 93 10000 1 340 09:19 16.11.2019
4296 Rain 4 1005 93 10000 1.5 0 08:40 16.11.2019
4297 Rain 4 1005 93 10000 1.5 0 08:20 16.11.2019
4298 Rain 5 1005 87 9000 1 0 07:44 16.11.2019
4299 Rain 5 1004 87 7000 2.1 60 07:22 16.11.2019
4300 Rain 5 1004 87 9000 2.6 60 06:59 16.11.2019
4301 Rain 5 1004 87 9000 2.6 60 06:41 16.11.2019
4302 Clouds 5 1004 87 10000 2.6 60 06:19 16.11.2019
4303 Rain 5 1003 93 6000 3.1 50 04:21 16.11.2019
4304 Rain 5 1003 93 6000 3.1 50 04:21 16.11.2019
4305 Rain 5 1003 93 7000 3.6 40 03:26 16.11.2019
4306 Rain 5 1002 93 8000 3.6 40 02:36 16.11.2019
4307 Rain 5 1002 87 10000 5.7 50 01:38 16.11.2019
4308 Clouds 5 1001 87 10000 5.7 50 00:49 16.11.2019
4309 Rain 6 1001 87 9000 5.7 50 00:30 16.11.2019
4310 Rain 6 1001 93 9000 6.2 50 23:56 15.11.2019
4311 Rain 6 1001 93 9000 6.2 50 23:38 15.11.2019
4312 Rain 6 1001 87 10000 4.6 50 23:20 15.11.2019
4313 Rain 6 1001 87 10000 4.6 40 22:40 15.11.2019
4314 Rain 6 1000 93 4000 5.1 30 22:20 15.11.2019
4315 Rain 6 1001 87 10000 4.6 60 22:20 15.11.2019
4316 Rain 6 1001 87 10000 5.1 60 21:57 15.11.2019
4317 Rain 6 1001 87 10000 5.1 60 21:38 15.11.2019
4318 Rain 6 1001 87 6000 5.1 60 21:20 15.11.2019
4319 Rain 6 1001 93 8000 6.2 20 20:56 15.11.2019
4320 Rain 6 1001 93 8000 6.2 20 20:38 15.11.2019
4321 Rain 6 1001 87 10000 7.2 20 20:20 15.11.2019
4322 Rain 7 1001 87 9000 7.2 10 19:57 15.11.2019
4323 Rain 7 1001 87 9000 7.2 10 19:38 15.11.2019
4324 Rain 7 1001 87 9000 7.2 10 19:19 15.11.2019
4325 Rain 7 1001 87 10000 4.1 360 18:55 15.11.2019
4326 Rain 7 1001 87 10000 4.1 360 18:37 15.11.2019
4327 Rain 7 1001 87 10000 3.6 10 18:19 15.11.2019
4328 Rain 7 1002 81 10000 4.1 10 17:41 15.11.2019
4329 Rain 7 1002 87 9000 2.6 0 17:23 15.11.2019
4330 Rain 7 1001 81 10000 4.1 20 16:56 15.11.2019
4331 Rain 7 1001 81 10000 4.1 20 16:37 15.11.2019
4332 Rain 7 1002 81 10000 6.2 20 16:19 15.11.2019
4333 Clouds 8 1002 76 10000 5.1 10 15:38 15.11.2019
4334 Clouds 8 1002 76 10000 5.1 10 15:38 15.11.2019
4335 Clouds 8 1002 76 10000 4.6 10 15:20 15.11.2019
4336 Clouds 8 1002 76 10000 5.7 30 14:57 15.11.2019
4337 Clouds 8 1002 76 10000 5.7 30 14:38 15.11.2019
4338 Clouds 8 1002 76 10000 4.6 10 14:19 15.11.2019
4339 Clouds 8 1002 76 10000 4.6 10 13:57 15.11.2019
4340 Clouds 8 1002 76 10000 4.6 10 13:39 15.11.2019
4341 Clouds 8 1003 87 10000 6.2 20 13:20 15.11.2019
4342 Rain 7 1004 87 10000 6.2 30 12:57 15.11.2019
4343 Rain 7 1004 87 10000 6.2 30 12:39 15.11.2019
4344 Rain 7 1004 87 10000 3.1 360 12:20 15.11.2019
4345 Clouds 7 1004 87 10000 3.6 350 11:57 15.11.2019
4346 Rain 6 1004 87 10000 5.1 20 11:38 15.11.2019
4347 Rain 6 1004 87 10000 3.6 340 11:20 15.11.2019
4348 Rain 6 1004 87 10000 2.6 10 10:56 15.11.2019
4349 Rain 6 1004 87 10000 2.6 10 10:38 15.11.2019
4350 Mist 6 1003 93 2200 4.6 350 10:18 15.11.2019
4351 Rain 5 1004 87 10000 4.6 10 09:40 15.11.2019
4352 Rain 5 1003 93 10000 3.6 340 09:19 15.11.2019
4353 Rain 5 1003 87 10000 3.1 330 08:44 15.11.2019
4354 Rain 5 1004 93 10000 3.6 360 08:23 15.11.2019
4355 Rain 4 1003 93 10000 3.1 340 07:49 15.11.2019
4356 Rain 4 1003 93 10000 3.1 340 07:49 15.11.2019
4357 Clouds 4 1003 86 10000 2.1 320 07:28 15.11.2019
4358 Clouds 4 1003 86 10000 2.1 300 06:50 15.11.2019
4359 Clouds 4 1003 86 10000 2.1 300 06:31 15.11.2019
4360 Clouds 4 1004 86 10000 1.5 0 05:48 15.11.2019
4361 Clouds 4 1003 86 9000 2.6 300 05:26 15.11.2019
4362 Clouds 4 1004 93 10000 2.1 340 03:56 15.11.2019
4363 Clouds 4 1004 100 10000 2.6 360 03:24 15.11.2019
4364 Rain 4 1004 100 10000 2.6 10 02:21 15.11.2019
4365 Clouds 4 1004 100 10000 2.6 360 01:36 15.11.2019
4366 Clouds 4 1004 93 10000 1 0 01:18 15.11.2019
4367 Clouds 4 1003 93 10000 3.6 20 00:34 15.11.2019
4368 Clouds 4 1003 93 10000 1.5 0 23:57 14.11.2019
4369 Clouds 4 1003 93 10000 1.5 0 23:38 14.11.2019
4370 Clouds 4 1003 93 10000 1.5 0 23:18 14.11.2019
4371 Rain 5 1003 93 10000 2.1 30 22:40 14.11.2019
4372 Rain 5 1003 93 10000 2.1 30 22:40 14.11.2019
4373 Rain 5 1002 100 10000 2.1 90 22:21 14.11.2019
4374 Rain 5 1002 100 10000 2.1 90 22:21 14.11.2019
4375 Rain 5 1002 100 10000 2.1 90 21:57 14.11.2019
4376 Clouds 5 1002 93 10000 3.6 40 21:39 14.11.2019
4377 Clouds 5 1001 93 10000 3.1 80 21:21 14.11.2019
4378 Clouds 5 1001 100 10000 2.6 80 20:43 14.11.2019
4379 Clouds 4 1000 87 10000 3.1 50 20:24 14.11.2019
4380 Clouds 4 1000 87 10000 3.1 50 19:59 14.11.2019
4381 Clouds 5 1001 81 10000 2.6 80 19:41 14.11.2019
4382 Clouds 5 1000 81 10000 3.1 60 19:19 14.11.2019
4383 Clouds 5 999 93 10000 1.5 90 18:59 14.11.2019
4384 Clouds 5 999 93 10000 2.6 120 18:41 14.11.2019
4385 Clouds 5 999 93 10000 2.6 120 18:21 14.11.2019
4386 Clouds 5 999 93 10000 2.6 120 17:57 14.11.2019
4387 Clouds 6 998 93 10000 2.6 100 17:37 14.11.2019
4388 Clouds 6 998 93 10000 2.6 100 17:19 14.11.2019
4389 Clear 6 998 75 10000 4.1 100 16:57 14.11.2019
4390 Clear 7 998 75 10000 4.1 100 16:37 14.11.2019
4391 Clouds 7 997 81 10000 2.6 130 16:19 14.11.2019
4392 Clouds 7 997 81 10000 2.6 130 16:19 14.11.2019
4393 Clear 7 997 70 10000 3.6 120 15:57 14.11.2019
4394 Clouds 7 997 70 10000 3.6 110 15:38 14.11.2019
4395 Clouds 7 996 70 10000 3.1 120 15:19 14.11.2019
4396 Clouds 7 996 70 10000 2.6 130 14:46 14.11.2019
4397 Clouds 7 995 70 10000 3.6 150 14:23 14.11.2019
4398 Clouds 7 995 70 10000 3.6 140 13:58 14.11.2019
4399 Clouds 7 995 70 10000 3.6 140 13:39 14.11.2019
4400 Clouds 6 995 81 10000 3.6 120 13:20 14.11.2019
4401 Clouds 6 995 75 10000 4.1 120 12:56 14.11.2019
4402 Clouds 6 995 75 10000 4.1 120 12:37 14.11.2019
4403 Clouds 6 995 75 10000 3.6 110 12:19 14.11.2019
4404 Clouds 6 994 81 10000 3.6 120 11:54 14.11.2019
4405 Clouds 5 994 81 10000 3.6 120 11:36 14.11.2019
4406 Clouds 5 994 87 10000 2.6 80 11:18 14.11.2019
4407 Clouds 5 993 87 10000 3.1 130 10:41 14.11.2019
4408 Clouds 4 993 86 10000 2.1 170 10:20 14.11.2019
4409 Clouds 4 993 86 10000 2.1 170 09:59 14.11.2019
4410 Clouds 4 993 86 10000 2.6 140 09:41 14.11.2019
4411 Clouds 4 991 86 10000 2.1 160 09:22 14.11.2019
4412 Clouds 4 991 86 10000 2.1 160 08:48 14.11.2019
4413 Clouds 4 990 86 10000 2.1 210 08:26 14.11.2019
4414 Rain 4 990 86 10000 2.1 210 07:57 14.11.2019
4415 Clouds 4 990 86 10000 2.1 210 07:38 14.11.2019
4416 Rain 4 990 86 10000 2.6 230 07:20 14.11.2019
4417 Rain 5 989 93 10000 3.6 210 06:44 14.11.2019
4418 Rain 5 989 87 10000 3.1 210 06:19 14.11.2019
4419 Rain 5 988 93 10000 8.2 80 04:49 14.11.2019
4420 Rain 7 990 86 0 5.54 106 04:27 14.11.2019
4421 Rain 6 989 87 7000 6.2 140 02:49 14.11.2019
4422 Rain 6 989 87 7000 6.2 140 02:28 14.11.2019
4423 Rain 6 990 87 10000 6.7 100 01:34 14.11.2019
4424 Rain 6 990 81 10000 5.1 100 00:55 14.11.2019
4425 Rain 6 990 81 10000 5.1 100 00:36 14.11.2019
4426 Rain 6 990 87 10000 6.2 110 00:18 14.11.2019
4427 Rain 6 991 87 10000 5.7 110 23:37 13.11.2019
4428 Rain 6 991 87 10000 5.7 100 23:19 13.11.2019
4429 Rain 6 992 87 10000 4.6 110 22:41 13.11.2019
4430 Rain 6 992 87 10000 5.7 110 22:23 13.11.2019
4431 Rain 6 992 87 10000 5.7 110 21:57 13.11.2019
4432 Rain 6 993 81 10000 5.1 120 21:39 13.11.2019
4433 Rain 6 993 81 9000 5.1 140 21:20 13.11.2019
4434 Rain 6 993 81 9000 5.1 140 20:58 13.11.2019
4435 Rain 6 994 81 10000 4.1 120 20:38 13.11.2019
4436 Rain 6 994 81 10000 4.1 120 20:38 13.11.2019
4437 Rain 5 994 75 10000 4.6 110 20:20 13.11.2019
4438 Clouds 5 994 75 10000 4.6 110 19:59 13.11.2019
4439 Clouds 5 994 81 10000 3.6 120 19:40 13.11.2019
4440 Clouds 5 995 81 10000 3.6 120 19:18 13.11.2019
4441 Clouds 5 996 81 10000 3.1 120 18:55 13.11.2019
4442 Clouds 5 996 81 10000 3.1 120 18:37 13.11.2019
4443 Clouds 6 996 93 10000 3.6 140 18:18 13.11.2019
4444 Clouds 6 996 70 10000 2.6 150 17:56 13.11.2019
4445 Clouds 6 996 70 10000 2.6 150 17:38 13.11.2019
4446 Clouds 7 997 81 10000 3.6 170 17:19 13.11.2019
4447 Clouds 7 997 81 10000 4.6 190 16:57 13.11.2019
4448 Clouds 7 997 81 10000 4.6 190 16:38 13.11.2019
4449 Clouds 8 998 75 10000 4.1 190 16:20 13.11.2019
4450 Clouds 8 998 66 10000 3.1 240 15:57 13.11.2019
4451 Clouds 8 998 66 10000 3.1 240 15:38 13.11.2019
4452 Clouds 8 998 66 10000 3.1 230 15:18 13.11.2019
4453 Clouds 8 999 66 10000 3.6 240 14:41 13.11.2019
4454 Clouds 8 999 70 10000 2.1 260 14:21 13.11.2019
4455 Clouds 8 999 70 10000 2.6 230 13:56 13.11.2019
4456 Clouds 8 1000 70 10000 2.1 210 13:36 13.11.2019
4457 Clouds 9 1000 70 10000 2.1 210 13:18 13.11.2019
4458 Clouds 8 1000 75 10000 3.6 260 12:42 13.11.2019
4459 Clouds 8 1001 75 10000 3.6 250 12:24 13.11.2019
4460 Clouds 7 1001 75 10000 3.6 250 11:59 13.11.2019
4461 Clouds 7 1001 81 10000 4.1 250 11:38 13.11.2019
4462 Clouds 6 1002 81 10000 4.1 250 11:19 13.11.2019
4463 Clouds 5 1002 87 10000 4.6 240 10:57 13.11.2019
4464 Clouds 5 1002 87 10000 4.6 240 10:39 13.11.2019
4465 Clouds 5 1002 81 10000 4.1 250 10:19 13.11.2019
4466 Clouds 4 1001 100 10000 3.1 250 09:43 13.11.2019
4467 Clouds 3 1002 100 10000 3.6 260 09:21 13.11.2019
4468 Clouds 3 1002 100 10000 3.6 260 09:21 13.11.2019
4469 Clouds 3 1002 100 10000 3.6 260 09:21 13.11.2019
4470 Clouds 3 1002 100 10000 3.6 260 09:21 13.11.2019
4471 Clouds 3 1002 86 10000 3.1 230 08:55 13.11.2019
4472 Clouds 3 1002 86 10000 3.1 230 08:36 13.11.2019
4473 Clouds 3 1001 93 10000 3.6 250 08:18 13.11.2019
4474 Clouds 3 1002 93 10000 4.1 240 07:42 13.11.2019
4475 Clouds 3 1002 93 10000 3.1 250 07:20 13.11.2019
4476 Clouds 3 1002 93 10000 2.6 260 06:43 13.11.2019
4477 Clouds 4 1002 93 10000 3.1 250 06:19 13.11.2019
4478 Clouds 4 1002 93 10000 3.1 250 06:19 13.11.2019
4479 Clouds 3 1002 93 10000 3.1 250 06:19 13.11.2019
4480 Clouds 4 1001 100 10000 2.1 260 05:52 13.11.2019
4481 Clouds 4 1001 100 10000 2.1 260 05:31 13.11.2019
4482 Clouds 5 1001 81 10000 4.1 280 04:27 13.11.2019
4483 Clouds 6 1001 87 10000 4.1 290 02:19 13.11.2019
4484 Clouds 7 1001 87 10000 4.6 280 01:41 13.11.2019
4485 Clouds 7 1001 87 10000 4.1 270 00:44 13.11.2019
4486 Clouds 7 1001 87 10000 4.1 270 00:44 13.11.2019
4487 Clouds 7 1000 87 10000 5.7 280 00:21 13.11.2019
4488 Clouds 7 999 87 10000 4.6 280 23:41 12.11.2019
4489 Clouds 7 999 87 10000 4.1 270 23:21 12.11.2019
4490 Clouds 7 999 87 10000 5.7 290 22:55 12.11.2019
4491 Clouds 7 999 87 10000 5.7 290 22:37 12.11.2019
4492 Clouds 7 999 87 10000 4.6 280 22:18 12.11.2019
4493 Clouds 7 999 87 10000 5.7 290 21:43 12.11.2019
4494 Clouds 7 998 87 10000 5.7 270 21:24 12.11.2019
4495 Clouds 7 998 87 10000 5.7 270 20:57 12.11.2019
4496 Clouds 7 998 93 10000 5.1 280 20:37 12.11.2019
4497 Clouds 7 998 93 10000 5.1 280 20:19 12.11.2019
4498 Clouds 7 998 93 10000 5.1 280 19:57 12.11.2019
4499 Clouds 7 998 93 10000 3.6 280 19:39 12.11.2019
4500 Clouds 7 997 87 10000 5.1 270 19:19 12.11.2019
4501 Clouds 7 997 87 10000 5.1 270 18:58 12.11.2019
4502 Clouds 7 997 81 10000 6.2 270 18:40 12.11.2019
4503 Clouds 7 996 81 10000 6.7 260 18:21 12.11.2019
4504 Clouds 7 996 81 10000 6.7 250 17:57 12.11.2019
4505 Clouds 7 996 81 10000 6.7 250 17:39 12.11.2019
4506 Rain 6 996 87 10000 6.2 240 17:21 12.11.2019
4507 Rain 6 996 87 10000 6.2 240 16:57 12.11.2019
4508 Rain 6 996 81 10000 6.7 250 16:39 12.11.2019
4509 Clouds 6 996 81 10000 5.1 240 16:20 12.11.2019
4510 Rain 6 996 81 10000 6.7 250 15:41 12.11.2019
4511 Rain 6 997 81 10000 6.7 250 15:21 12.11.2019
4512 Rain 6 997 81 7000 7.2 250 14:56 12.11.2019
4513 Rain 6 997 81 7000 7.2 250 14:37 12.11.2019
4514 Rain 7 997 70 8000 7.7 250 14:18 12.11.2019
4515 Rain 7 997 57 10000 8.2 250 13:56 12.11.2019
4516 Clouds 7 997 57 10000 8.2 250 13:37 12.11.2019
4517 Clouds 8 997 57 10000 7.7 250 13:18 12.11.2019
4518 Clouds 8 997 65 10000 7.7 250 12:42 12.11.2019
4519 Clouds 8 997 65 10000 7.7 250 12:42 12.11.2019
4520 Clouds 8 998 65 10000 7.2 250 12:19 12.11.2019
4521 Clouds 7 998 70 10000 7.2 250 11:58 12.11.2019
4522 Clouds 7 998 70 10000 7.2 250 11:40 12.11.2019
4523 Clouds 6 998 65 10000 6.7 250 11:21 12.11.2019
4524 Clouds 6 998 70 10000 6.7 250 10:56 12.11.2019
4525 Clouds 5 998 70 10000 6.7 250 10:37 12.11.2019
4526 Clouds 5 999 70 10000 6.7 250 10:19 12.11.2019
4527 Clouds 4 999 75 10000 6.2 250 09:42 12.11.2019
4528 Clouds 3 999 75 10000 6.2 250 09:21 12.11.2019
4529 Clouds 3 999 80 10000 6.2 250 08:54 12.11.2019
4530 Clouds 3 998 86 10000 4.1 250 08:36 12.11.2019
4531 Rain 3 999 80 10000 6.2 250 08:18 12.11.2019
4532 Rain 3 999 80 10000 6.2 250 07:40 12.11.2019
4533 Rain 3 999 80 10000 5.7 250 07:20 12.11.2019
4534 Rain 3 999 80 10000 5.7 250 06:42 12.11.2019
4535 Rain 3 1000 80 10000 5.1 250 06:22 12.11.2019
4536 Rain 4 999 80 10000 6.2 250 05:46 12.11.2019
4537 Clouds 4 1000 80 10000 5.1 260 04:44 12.11.2019
4538 Clouds 4 1000 86 10000 4.6 250 03:40 12.11.2019
4539 Clouds 4 1001 86 10000 4.6 230 01:47 12.11.2019
4540 Clouds 4 1001 86 10000 4.1 240 01:22 12.11.2019
4541 Clouds 4 1001 93 10000 3.6 220 00:47 12.11.2019
4542 Clouds 4 1001 75 10000 5.1 240 00:24 12.11.2019
4543 Clouds 4 1001 75 10000 5.7 240 23:44 11.11.2019
4544 Clouds 4 1001 81 10000 5.7 240 23:23 11.11.2019
4545 Clouds 4 1001 86 10000 5.7 240 22:57 11.11.2019
4546 Clouds 4 1001 86 10000 5.7 240 22:36 11.11.2019
4547 Clouds 4 1001 86 10000 5.7 240 22:36 11.11.2019
4548 Clouds 4 1002 86 10000 5.1 240 22:18 11.11.2019
4549 Clouds 5 1001 80 10000 4.6 250 21:57 11.11.2019
4550 Clouds 5 1001 80 10000 4.6 250 21:38 11.11.2019
4551 Clouds 5 1001 70 10000 7.2 250 21:19 11.11.2019
4552 Clouds 5 1002 80 10000 5.1 250 20:42 11.11.2019
4553 Clouds 6 1002 80 10000 5.7 250 20:20 11.11.2019
4554 Clouds 6 1002 80 10000 5.7 250 19:59 11.11.2019
4555 Rain 6 1002 75 10000 3.6 240 19:41 11.11.2019
4556 Clouds 6 1002 75 10000 3.6 250 19:19 11.11.2019
4557 Clouds 7 1002 75 10000 3.6 250 18:56 11.11.2019
4558 Clouds 7 1002 75 10000 5.1 260 18:38 11.11.2019
4559 Clouds 7 1001 61 10000 6.2 270 18:19 11.11.2019
4560 Clouds 8 1001 66 10000 6.2 260 17:42 11.11.2019
4561 Clouds 8 1001 70 10000 5.1 250 17:24 11.11.2019
4562 Clouds 8 1001 66 10000 5.7 280 16:44 11.11.2019
4563 Clouds 9 1001 66 10000 6.2 270 16:24 11.11.2019
4564 Clouds 8 1000 75 10000 10.8 270 16:24 11.11.2019
4565 Clouds 9 1001 57 10000 6.7 260 15:59 11.11.2019
4566 Clouds 9 1001 61 10000 6.7 280 15:40 11.11.2019
4567 Clouds 9 1001 61 10000 9.3 270 15:20 11.11.2019
4568 Clouds 9 1001 61 10000 7.7 280 14:45 11.11.2019
4569 Clouds 9 1001 61 10000 7.2 280 14:26 11.11.2019
4570 Clouds 9 1001 66 10000 5.7 280 13:59 11.11.2019
4571 Clouds 9 1001 66 10000 5.7 280 13:38 11.11.2019
4572 Clouds 9 1001 70 10000 7.2 280 13:20 11.11.2019
4573 Clouds 8 1001 70 10000 7.2 280 12:58 11.11.2019
4574 Clouds 8 1001 70 10000 7.7 280 12:40 11.11.2019
4575 Clouds 8 1001 76 10000 7.2 270 12:22 11.11.2019
4576 Clouds 8 1001 75 10000 7.7 260 11:55 11.11.2019
4577 Clouds 8 1001 75 10000 7.7 260 11:37 11.11.2019
4578 Rain 7 1001 75 10000 7.7 270 11:19 11.11.2019
4579 Rain 7 1000 75 10000 6.7 270 10:42 11.11.2019
4580 Clouds 6 1000 86 10000 6.2 280 10:18 11.11.2019
4581 Clouds 6 1000 93 10000 6.2 280 09:56 11.11.2019
4582 Clouds 6 1000 93 10000 6.2 280 09:37 11.11.2019
4583 Clouds 6 1000 87 10000 6.7 290 09:18 11.11.2019
4584 Clouds 6 1000 87 10000 6.7 290 09:18 11.11.2019
4585 Clouds 6 1000 87 10000 6.7 280 08:41 11.11.2019
4586 Clouds 7 999 93 10000 5.1 250 08:22 11.11.2019
4587 Rain 7 999 93 10000 4.6 240 07:57 11.11.2019
4588 Rain 7 999 87 10000 3.6 200 07:37 11.11.2019
4589 Rain 7 1000 87 10000 4.1 170 07:19 11.11.2019
4590 Rain 7 1000 87 10000 4.1 170 07:19 11.11.2019
4591 Rain 8 1001 93 7000 2.6 180 06:48 11.11.2019
4592 Rain 7 1002 87 9000 3.6 180 06:23 11.11.2019
4593 Rain 7 1002 93 10000 3.1 170 05:51 11.11.2019
4594 Rain 7 1003 93 8000 2.6 180 04:43 11.11.2019
4595 Rain 6 1006 93 10000 3.1 150 03:24 11.11.2019
4596 Rain 5 1007 93 10000 3.6 140 02:30 11.11.2019
4597 Rain 5 1008 93 10000 2.6 140 01:56 11.11.2019
4598 Clouds 5 1009 93 10000 2.1 150 01:35 11.11.2019
4599 Clouds 5 1010 93 10000 1 0 00:50 11.11.2019
4600 Clouds 5 1010 93 10000 1 0 00:26 11.11.2019
4601 Clouds 4 1011 93 10000 3.1 150 23:55 10.11.2019
4602 Clouds 4 1011 93 10000 3.1 150 23:36 10.11.2019
4603 Clouds 4 1011 100 7000 2.1 150 23:18 10.11.2019
4604 Clouds 4 1012 93 10000 2.6 150 22:54 10.11.2019
4605 Clouds 4 1012 93 10000 2.6 150 22:36 10.11.2019
4606 Clouds 4 1012 93 10000 1 220 22:18 10.11.2019
4607 Clouds 4 1012 93 10000 1.5 0 21:40 10.11.2019
4608 Clouds 4 1012 93 10000 2.6 140 21:21 10.11.2019
4609 Clouds 4 1012 93 10000 2.6 140 20:59 10.11.2019
4610 Clouds 4 1012 93 10000 3.1 140 20:39 10.11.2019
4611 Clouds 4 1012 86 10000 3.1 140 20:21 10.11.2019
4612 Clear 4 1012 86 10000 3.1 140 19:56 10.11.2019
4613 Clear 4 1013 86 10000 2.1 130 19:37 10.11.2019
4614 Clear 4 1014 93 10000 1.5 160 19:18 10.11.2019
4615 Clear 5 1014 93 10000 1.5 160 18:56 10.11.2019
4616 Clear 5 1014 93 10000 1.5 160 18:56 10.11.2019
4617 Clear 5 1014 93 10000 1.5 160 18:56 10.11.2019
4618 Clear 5 1014 93 10000 1 150 18:38 10.11.2019
4619 Clear 5 1014 81 10000 1 120 18:19 10.11.2019
4620 Clear 6 1014 81 10000 1 120 17:55 10.11.2019
4621 Clear 7 1014 75 10000 0.5 0 17:37 10.11.2019
4622 Clouds 8 1014 75 10000 1.5 0 17:19 10.11.2019
4623 Clouds 8 1014 81 10000 1.5 0 16:56 10.11.2019
4624 Clouds 9 1014 66 10000 3.1 50 16:37 10.11.2019
4625 Clouds 9 1014 75 10000 3.1 70 16:19 10.11.2019
4626 Clouds 10 1014 57 10000 3.1 80 15:54 10.11.2019
4627 Clouds 10 1014 57 10000 3.6 90 15:36 10.11.2019
4628 Clouds 10 1014 57 10000 4.1 80 15:18 10.11.2019
4629 Clouds 10 1014 62 10000 4.1 60 14:40 10.11.2019
4630 Clouds 10 1014 62 10000 3.6 80 14:22 10.11.2019
4631 Clouds 10 1014 62 10000 3.6 80 13:57 10.11.2019
4632 Clouds 9 1013 71 10000 2.6 50 13:39 10.11.2019
4633 Clouds 9 1013 71 10000 2.6 0 13:19 10.11.2019
4634 Clouds 9 1013 71 10000 2.6 0 12:42 10.11.2019
4635 Clouds 9 1013 76 10000 2.1 40 12:20 10.11.2019
4636 Clouds 8 1013 76 10000 2.1 0 11:57 10.11.2019
4637 Clouds 8 1013 76 10000 2.1 0 11:38 10.11.2019
4638 Clouds 7 1013 75 10000 2.6 60 11:20 10.11.2019
4639 Clouds 7 1013 75 10000 2.6 60 10:56 10.11.2019
4640 Clouds 7 1012 81 10000 2.1 0 10:38 10.11.2019
4641 Clouds 7 1012 81 10000 2.1 0 10:38 10.11.2019
4642 Clouds 6 1012 81 10000 2.1 20 10:19 10.11.2019
4643 Clouds 6 1011 81 10000 2.1 10 09:42 10.11.2019
4644 Clouds 6 1011 81 10000 2.1 10 09:42 10.11.2019
4645 Clouds 6 1011 87 10000 2.1 60 09:22 10.11.2019
4646 Clouds 6 1010 87 10000 2.1 50 08:40 10.11.2019
4647 Clouds 6 1009 87 10000 3.1 60 08:21 10.11.2019
4648 Clouds 6 1009 87 10000 3.1 60 07:58 10.11.2019
4649 Rain 6 1009 87 10000 2.6 60 07:39 10.11.2019
4650 Rain 6 1008 93 10000 3.1 60 07:18 10.11.2019
4651 Rain 6 1007 100 6000 3.6 40 06:25 10.11.2019
4652 Rain 7 1005 93 8000 4.6 70 04:46 10.11.2019
4653 Rain 6 1004 93 10000 4.1 70 03:19 10.11.2019
4654 Clouds 6 1003 93 10000 5.7 100 01:45 10.11.2019
4655 Clouds 6 1003 93 10000 5.7 100 01:19 10.11.2019
4656 Clouds 7 1002 93 10000 5.1 100 00:40 10.11.2019
4657 Clouds 7 1002 93 10000 4.6 100 23:46 09.11.2019
4658 Clouds 7 1001 93 10000 4.6 110 23:21 09.11.2019
4659 Clouds 7 1001 93 10000 4.6 110 22:59 09.11.2019
4660 Clouds 7 1001 93 10000 5.7 110 22:41 09.11.2019
4661 Clouds 7 1001 93 10000 7.2 100 22:20 09.11.2019
4662 Rain 7 1001 93 10000 7.2 100 21:56 09.11.2019
4663 Rain 7 1001 93 10000 8.2 100 21:37 09.11.2019
4664 Rain 7 1001 93 8000 6.7 90 21:19 09.11.2019
4665 Rain 7 1001 93 8000 6.2 110 20:42 09.11.2019
4666 Rain 7 1002 87 10000 5.7 100 20:22 09.11.2019
4667 Rain 7 1002 87 10000 5.7 100 19:58 09.11.2019
4668 Rain 7 1002 87 10000 5.1 100 19:39 09.11.2019
4669 Rain 7 1002 87 10000 5.1 100 19:21 09.11.2019
4670 Rain 7 1002 87 10000 5.1 100 19:21 09.11.2019
4671 Rain 7 1002 87 10000 5.1 100 18:55 09.11.2019
4672 Rain 7 1002 87 10000 4.1 110 18:36 09.11.2019
4673 Rain 7 1002 87 10000 4.1 100 18:18 09.11.2019
4674 Rain 7 1002 87 10000 4.6 100 17:41 09.11.2019
4675 Rain 7 1002 87 10000 5.1 100 17:22 09.11.2019
4676 Rain 7 1003 87 10000 4.6 100 16:55 09.11.2019
4677 Rain 7 1003 87 10000 4.6 100 16:36 09.11.2019
4678 Rain 6 1003 81 10000 4.6 110 16:18 09.11.2019
4679 Rain 7 1003 81 10000 4.6 110 15:41 09.11.2019
4680 Rain 7 1004 75 10000 4.6 110 15:23 09.11.2019
4681 Clouds 7 1004 75 10000 4.1 100 14:46 09.11.2019
4682 Clouds 7 1005 75 10000 3.1 130 14:22 09.11.2019
4683 Clouds 7 1005 75 10000 3.1 130 13:58 09.11.2019
4684 Clouds 6 1005 70 10000 4.1 110 13:39 09.11.2019
4685 Clouds 6 1006 70 10000 3.6 130 13:21 09.11.2019
4686 Clouds 6 1006 70 10000 3.6 130 12:57 09.11.2019
4687 Clouds 6 1006 87 10000 3.1 80 12:39 09.11.2019
4688 Clouds 5 1007 87 9000 2.6 80 12:21 09.11.2019
4689 Haze 4 1008 93 4300 3.1 90 11:48 09.11.2019
4690 Clouds 3 1008 86 8000 1.5 0 11:22 09.11.2019
4691 Clouds 3 1007 86 10000 4.6 170 10:58 09.11.2019
4692 Haze 2 1008 93 5000 1.5 0 10:39 09.11.2019
4693 Mist 2 1009 100 5000 1.5 0 10:19 09.11.2019
4694 Mist 1 1009 93 2300 2.1 230 09:44 09.11.2019
4695 Mist 0 1009 93 1800 2.1 260 09:21 09.11.2019
4696 Mist 0 1009 93 1800 2.1 260 08:57 09.11.2019
4697 Mist 0 1010 100 3000 1.5 0 08:38 09.11.2019
4698 Rain 0 1009 100 100 1 120 08:19 09.11.2019
4699 Rain 0 1010 79 2000 2.1 210 07:44 09.11.2019
4700 Mist 0 1010 100 3100 0.5 0 07:22 09.11.2019
4701 Mist 1 1010 100 3000 1 0 06:49 09.11.2019
4702 Haze 1 1010 93 4200 3.6 230 06:30 09.11.2019
4703 Mist 1 1011 100 3800 1 0 05:42 09.11.2019
4704 Mist 1 1011 100 5000 2.1 290 04:56 09.11.2019
4705 Clear 2 1012 93 7000 2.6 290 03:37 09.11.2019
4706 Clear 3 1012 100 10000 2.1 290 02:43 09.11.2019
4707 Rain 3 1011 93 10000 1.5 290 01:55 09.11.2019
4708 Clouds 4 1011 87 10000 3.6 290 00:51 09.11.2019
4709 Clouds 4 1011 87 10000 3.6 290 00:31 09.11.2019
4710 Clouds 5 1012 93 10000 2.6 280 23:58 08.11.2019
4711 Clouds 5 1011 81 10000 3.6 290 23:39 08.11.2019
4712 Rain 5 1011 87 10000 3.1 300 23:19 08.11.2019
4713 Rain 5 1011 87 10000 3.1 300 22:48 08.11.2019
4714 Rain 6 1011 87 10000 3.6 300 22:22 08.11.2019
4715 Rain 6 1011 93 10000 5.1 320 21:56 08.11.2019
4716 Rain 6 1011 87 10000 4.1 300 21:38 08.11.2019
4717 Clouds 6 1010 87 10000 4.1 320 21:18 08.11.2019
4718 Clouds 6 1010 93 10000 3.6 310 20:42 08.11.2019
4719 Drizzle 6 1010 81 10000 4.1 300 20:22 08.11.2019
4720 Clouds 6 1010 81 10000 3.6 300 19:59 08.11.2019
4721 Clouds 6 1010 81 10000 3.6 300 19:39 08.11.2019
4722 Clouds 6 1009 87 10000 3.1 310 19:19 08.11.2019
4723 Clouds 7 1009 87 10000 4.1 310 18:56 08.11.2019
4724 Clouds 7 1009 87 10000 4.1 310 18:38 08.11.2019
4725 Clouds 7 1009 87 10000 3.6 310 18:20 08.11.2019
4726 Clouds 7 1008 87 10000 4.6 320 17:56 08.11.2019
4727 Clouds 7 1008 87 10000 4.6 320 17:56 08.11.2019
4728 Clouds 7 1008 87 10000 4.6 320 17:37 08.11.2019
4729 Clouds 7 1008 93 10000 2.6 310 17:19 08.11.2019
4730 Clouds 7 1008 93 10000 2.6 310 17:19 08.11.2019
4731 Clouds 7 1008 93 10000 2.6 310 16:58 08.11.2019
4732 Clouds 7 1008 93 10000 4.1 330 16:39 08.11.2019
4733 Clouds 7 1008 93 10000 4.1 330 16:39 08.11.2019
4734 Clouds 8 1008 70 10000 3.6 340 16:20 08.11.2019
4735 Clouds 8 1008 70 10000 3.6 340 15:59 08.11.2019
4736 Rain 8 1008 81 10000 2.6 300 15:40 08.11.2019
4737 Rain 8 1007 76 10000 3.6 300 15:22 08.11.2019
4738 Rain 8 1007 81 10000 2.6 310 14:56 08.11.2019
4739 Rain 7 1007 81 10000 2.6 310 14:37 08.11.2019
4740 Rain 7 1007 76 10000 3.6 320 14:18 08.11.2019
4741 Clouds 7 1007 81 10000 2.6 300 13:57 08.11.2019
4742 Clouds 7 1007 81 10000 2.6 300 13:38 08.11.2019
4743 Clouds 7 1007 87 9000 3.1 300 13:19 08.11.2019
4744 Clouds 6 1007 87 8000 2.6 290 12:44 08.11.2019
4745 Clouds 6 1007 87 8000 2.6 290 12:26 08.11.2019
4746 Rain 6 1006 87 7000 2.6 300 11:57 08.11.2019
4747 Clouds 5 1006 87 7000 2.6 300 11:39 08.11.2019
4748 Rain 4 1006 87 10000 2.6 300 11:20 08.11.2019
4749 Rain 4 1006 87 10000 2.6 300 11:20 08.11.2019
4750 Clouds 4 1005 87 10000 1.5 290 10:57 08.11.2019
4751 Clouds 3 1005 87 10000 1.5 290 10:39 08.11.2019
4752 Clouds 3 1005 93 10000 1.5 0 10:21 08.11.2019
4753 Clouds 2 1005 93 10000 1.5 0 09:55 08.11.2019
4754 Clouds 2 1005 93 10000 1.5 0 09:36 08.11.2019
4755 Clouds 1 1004 93 10000 2.1 250 09:18 08.11.2019
4756 Clouds 0 1004 93 10000 2.1 260 08:41 08.11.2019
4757 Clear 0 1003 93 10000 2.1 260 08:19 08.11.2019
4758 Clear 0 1003 100 10000 2.1 210 07:43 08.11.2019
4759 Clear 0 1002 100 10000 1 0 07:23 08.11.2019
4760 Clear 0 1002 100 10000 1 0 06:56 08.11.2019
4761 Fog 0 1002 100 300 1 0 06:36 08.11.2019
4762 Haze 0 1001 100 1900 0.5 0 06:18 08.11.2019
4763 Clear 0 1001 100 6000 1 300 05:25 08.11.2019
4764 Clear 1 1000 93 8000 0.5 0 04:19 08.11.2019
4765 Clear 1 1000 100 7000 2.1 340 03:42 08.11.2019
4766 Clear 1 999 100 8000 0.5 0 02:55 08.11.2019
4767 Clouds 1 999 100 10000 0.5 120 01:53 08.11.2019
4768 Clouds 1 999 100 10000 0.5 120 01:33 08.11.2019
4769 Clear 3 998 81 10000 1.5 240 00:40 08.11.2019
4770 Clear 3 998 81 10000 1.5 250 00:20 08.11.2019
4771 Clear 3 998 81 10000 2.1 240 23:46 07.11.2019
4772 Clear 3 997 93 10000 3.6 180 23:27 07.11.2019
4773 Clear 3 997 93 10000 3.6 180 22:57 07.11.2019
4774 Clear 3 997 93 10000 3.6 180 22:39 07.11.2019
4775 Clear 3 997 93 10000 4.6 190 22:20 07.11.2019
4776 Clear 4 997 81 10000 2.6 0 21:39 07.11.2019
4777 Clear 4 996 75 10000 2.6 250 21:21 07.11.2019
4778 Clouds 4 996 81 10000 1.34 197 20:59 07.11.2019
4779 Clouds 5 996 81 10000 1.34 197 20:40 07.11.2019
4780 Clear 5 996 86 10000 4.6 200 20:22 07.11.2019
4781 Clear 5 995 81 10000 0.5 200 19:58 07.11.2019
4782 Clear 5 995 81 10000 0.5 200 19:39 07.11.2019
4783 Clear 5 995 86 10000 4.6 190 19:21 07.11.2019
4784 Clear 5 995 86 10000 4.6 190 18:57 07.11.2019
4785 Clouds 6 994 75 10000 2.1 220 18:39 07.11.2019
4786 Clear 6 995 81 10000 3.1 180 18:19 07.11.2019
4787 Clear 7 995 81 10000 3.1 180 17:57 07.11.2019
4788 Clouds 7 994 75 10000 2.6 210 17:38 07.11.2019
4789 Clouds 8 993 75 10000 4.1 230 17:20 07.11.2019
4790 Clouds 9 994 61 10000 5.1 240 16:55 07.11.2019
4791 Clouds 9 994 66 10000 2.6 270 16:37 07.11.2019
4792 Clouds 9 994 66 10000 2.6 270 16:19 07.11.2019
4793 Clouds 10 993 57 10000 7.2 250 15:42 07.11.2019
4794 Rain 10 993 57 10000 7.2 250 15:21 07.11.2019
4795 Rain 10 993 62 10000 7.2 260 14:59 07.11.2019
4796 Rain 10 992 62 10000 6.7 260 14:39 07.11.2019
4797 Clouds 10 992 62 10000 6.7 260 14:21 07.11.2019
4798 Clouds 10 992 71 10000 5.7 260 13:55 07.11.2019
4799 Clouds 10 992 66 10000 6.2 240 13:37 07.11.2019
4800 -273 0 0 0 0 0 13:19 07.11.2019
4801 Clouds 9 992 71 10000 6.7 260 12:57 07.11.2019
4802 Clouds 9 992 76 10000 6.2 250 12:38 07.11.2019
4803 Clouds 9 992 76 10000 6.2 250 12:19 07.11.2019
4804 Clouds 8 992 81 10000 5.7 250 11:42 07.11.2019
4805 Clouds 8 992 81 10000 5.7 250 11:42 07.11.2019
4806 Clouds 7 991 87 10000 5.7 240 11:23 07.11.2019
4807 Clouds 7 991 87 10000 5.7 240 10:55 07.11.2019
4808 Clouds 7 991 87 10000 5.1 250 10:37 07.11.2019
4809 Clouds 7 991 87 10000 5.7 250 10:18 07.11.2019
4810 -273 0 0 0 0 0 09:41 07.11.2019
4811 Clouds 6 990 87 10000 4.6 260 09:40 07.11.2019
4812 Clouds 6 991 93 10000 5.1 250 09:20 07.11.2019
4813 Clouds 6 990 87 10000 3.6 250 08:47 07.11.2019
4814 Clouds 6 990 87 10000 3.6 250 08:46 07.11.2019
4815 Clouds 6 990 87 10000 3.6 250 08:46 07.11.2019
4816 Clouds 6 990 87 10000 3.6 250 08:46 07.11.2019
4817 Clouds 7 990 87 10000 4.6 250 08:25 07.11.2019
4818 Clouds 7 990 87 10000 4.6 250 08:25 07.11.2019
4819 Clouds 7 990 87 10000 4.6 250 08:25 07.11.2019
4820 Clouds 7 990 87 10000 4.1 230 07:59 07.11.2019
4821 Rain 7 989 93 10000 4.6 250 07:41 07.11.2019
4822 Rain 7 989 93 10000 4.6 250 07:21 07.11.2019
4823 Rain 7 990 87 10000 4.6 220 06:48 07.11.2019
4824 Rain 7 989 93 10000 5.7 260 06:28 07.11.2019
4825 Rain 8 990 93 10000 4.1 120 05:57 07.11.2019
4826 Rain 8 990 93 10000 4.6 100 05:38 07.11.2019
4827 -273 0 0 0 0 0 05:19 07.11.2019
4828 Rain 8 990 93 10000 4.6 100 05:19 07.11.2019
4829 Rain 8 991 93 6000 5.7 110 04:41 07.11.2019
4830 -273 0 0 0 0 0 02:58 07.11.2019
4831 Clouds 8 996 81 10000 4.6 120 00:57 07.11.2019
4832 Clouds 7 996 76 10000 3.6 120 00:22 07.11.2019
4833 -273 0 0 0 0 0 00:21 07.11.2019
4834 Clouds 7 996 76 10000 3.6 120 00:21 07.11.2019
4835 Rain 7 997 81 10000 4.1 100 23:48 06.11.2019
4836 Rain 7 998 76 10000 3.6 100 23:22 06.11.2019
4837 Clouds 7 998 76 10000 4.1 100 22:57 06.11.2019
4838 Rain 7 999 76 10000 4.1 110 22:38 06.11.2019
4839 Rain 7 998 87 10000 4.6 140 22:19 06.11.2019
4840 Rain 7 999 87 10000 5.1 140 21:56 06.11.2019
4841 Clouds 7 999 81 10000 5.1 140 21:38 06.11.2019
4842 Clouds 7 999 81 10000 5.1 140 21:38 06.11.2019
4843 Clouds 7 999 81 10000 5.1 140 21:18 06.11.2019
4844 Rain 7 1000 87 10000 4.1 140 20:55 06.11.2019
4845 Rain 7 1000 87 10000 5.1 150 20:36 06.11.2019
4846 Clouds 7 1000 87 10000 5.1 150 20:18 06.11.2019
4847 Clouds 7 1001 81 10000 4.1 150 19:40 06.11.2019
4848 Clouds 7 1001 81 10000 4.1 150 19:21 06.11.2019
4849 Clouds 7 1001 81 10000 4.1 150 18:59 06.11.2019
4850 Rain 7 1001 81 10000 2.1 150 18:39 06.11.2019
4851 Clouds 8 1002 81 10000 3.1 140 18:19 06.11.2019
4852 Rain 8 1002 81 10000 2.6 170 17:58 06.11.2019
4853 Rain 8 1002 81 10000 2.6 170 17:40 06.11.2019
4854 Clouds 8 1002 81 10000 3.1 150 17:21 06.11.2019
4855 Clouds 8 1002 76 10000 2.6 160 16:56 06.11.2019
4856 Clouds 8 1002 76 10000 2.6 160 16:38 06.11.2019
4857 Clouds 9 1003 70 10000 2.6 170 16:19 06.11.2019
4858 Clouds 9 1003 66 10000 2.1 0 15:56 06.11.2019
4859 Clouds 9 1004 66 10000 2.1 220 15:56 06.11.2019
4860 Clouds 9 1004 66 10000 2.1 220 15:37 06.11.2019
4861 Clouds 9 1004 66 10000 3.1 220 15:19 06.11.2019
4862 Clouds 9 1004 66 10000 3.1 220 14:56 06.11.2019
4863 Clouds 9 1004 76 10000 2.1 240 14:38 06.11.2019
4864 Clear 9 1004 71 10000 2.1 260 14:20 06.11.2019
4865 Clear 9 1005 70 10000 1 0 13:54 06.11.2019
4866 Clear 9 1005 70 10000 1 0 13:36 06.11.2019
4867 Clouds 9 1005 76 9000 2.1 220 13:18 06.11.2019
4868 Clouds 8 1005 81 8000 2.6 240 12:54 06.11.2019
4869 Clouds 8 1005 81 8000 2.6 240 12:36 06.11.2019
4870 Clouds 8 1006 81 9000 2.6 230 12:18 06.11.2019
4871 Clouds 7 1006 87 7000 2.1 240 11:54 06.11.2019
4872 Clouds 7 1006 87 7000 2.1 240 11:36 06.11.2019
4873 Clouds 6 1006 87 7000 2.6 220 11:18 06.11.2019
4874 Clouds 5 1006 81 8000 2.6 240 10:42 06.11.2019
4875 Clouds 5 1006 87 8000 3.1 230 10:24 06.11.2019
4876 Clouds 5 1006 87 8000 3.1 230 10:24 06.11.2019
4877 Clouds 4 1006 87 8000 3.1 230 09:58 06.11.2019
4878 Rain 4 1006 87 6000 1.5 0 09:39 06.11.2019
4879 Rain 4 1006 87 7000 0.5 0 09:20 06.11.2019
4880 Rain 3 1006 87 7000 2.1 290 08:55 06.11.2019
4881 Clouds 3 1006 87 7000 2.1 290 08:37 06.11.2019
4882 Clouds 3 1006 87 7000 2.1 290 08:37 06.11.2019
4883 Clouds 3 1006 87 7000 2.1 290 08:37 06.11.2019
4884 Clouds 3 1006 93 8000 1.5 290 08:18 06.11.2019
4885 Clouds 3 1006 87 7000 2.6 300 07:43 06.11.2019
4886 Clouds 3 1006 93 6000 2.1 300 07:24 06.11.2019
4887 Clouds 4 1006 87 10000 3.1 300 06:48 06.11.2019
4888 Clouds 4 1006 87 10000 3.1 300 06:30 06.11.2019
4889 Clouds 4 1006 87 10000 3.1 300 05:37 06.11.2019
4890 Clouds 6 1005 87 10000 2.1 320 03:35 06.11.2019
4891 Clouds 7 1005 81 10000 4.1 340 01:42 06.11.2019
4892 Clouds 8 1005 81 10000 3.6 340 00:47 06.11.2019
4893 Clouds 9 1004 87 10000 4.1 340 00:00 06.11.2019
4894 Clouds 9 1004 87 10000 4.1 340 23:41 05.11.2019
4895 Clouds 9 1004 87 10000 4.6 340 23:22 05.11.2019
4896 Drizzle 9 1004 93 10000 5.1 10 22:58 05.11.2019
4897 Drizzle 9 1004 93 10000 5.1 10 22:40 05.11.2019
4898 Drizzle 9 1003 93 10000 6.7 350 22:18 05.11.2019
4899 Rain 9 1003 87 10000 5.7 10 21:55 05.11.2019
4900 Rain 9 1003 87 10000 4.1 340 21:37 05.11.2019
4901 Rain 10 1003 87 10000 3.6 360 21:18 05.11.2019
4902 Clouds 10 1002 87 10000 4.1 350 20:55 05.11.2019
4903 Clouds 10 1002 87 10000 4.1 350 20:36 05.11.2019
4904 Clouds 10 1002 93 10000 5.7 350 20:18 05.11.2019
4905 Drizzle 10 1002 87 8000 4.6 30 19:42 05.11.2019
4906 Clouds 10 1001 93 10000 5.7 340 19:22 05.11.2019
4907 Clouds 10 1001 93 10000 5.7 340 18:58 05.11.2019
4908 Clouds 10 1001 87 10000 4.6 360 18:39 05.11.2019
4909 Clouds 10 1000 81 10000 3.6 340 18:21 05.11.2019
4910 Clouds 10 1000 93 10000 3.6 340 17:59 05.11.2019
4911 Clouds 11 1000 93 10000 4.1 360 17:39 05.11.2019
4912 Clouds 11 999 93 10000 3.1 330 17:20 05.11.2019
4913 Clouds 11 999 87 10000 3.1 330 16:56 05.11.2019
4914 Clouds 11 999 87 10000 3.1 330 16:38 05.11.2019
4915 Clouds 12 999 76 10000 2.6 350 16:19 05.11.2019
4916 Clouds 12 999 76 10000 2.6 350 16:19 05.11.2019
4917 Clouds 12 998 76 10000 3.1 360 15:39 05.11.2019
4918 Clouds 12 998 76 10000 2.1 330 15:20 05.11.2019
4919 Clouds 12 998 76 10000 2.1 330 15:20 05.11.2019
4920 Clouds 12 998 76 10000 2.1 330 14:59 05.11.2019
4921 Clouds 12 998 76 10000 2.1 0 14:40 05.11.2019
4922 Clouds 11 997 81 10000 2.1 340 14:22 05.11.2019
4923 Clouds 11 997 81 10000 1.5 0 13:58 05.11.2019
4924 Clouds 11 997 81 10000 1.5 0 13:40 05.11.2019
4925 Clouds 11 997 81 10000 3.1 340 13:22 05.11.2019
4926 Clouds 10 997 87 10000 2.6 360 12:40 05.11.2019
4927 Clouds 10 997 87 8000 2.6 360 12:21 05.11.2019
4928 Clouds 10 996 93 6000 2.1 320 11:57 05.11.2019
4929 Clouds 9 996 93 6000 2.1 320 11:38 05.11.2019
4930 Clouds 9 996 93 6000 2.6 340 11:19 05.11.2019
4931 Mist 9 996 100 4000 2.6 340 10:48 05.11.2019
4932 Clouds 9 995 93 7000 3.1 300 10:27 05.11.2019
4933 Clouds 8 995 93 7000 3.1 300 09:59 05.11.2019
4934 Clouds 8 995 93 7000 3.1 310 09:41 05.11.2019
4935 Clouds 8 994 87 10000 3.1 300 09:21 05.11.2019
4936 Clouds 8 994 87 10000 3.1 300 09:21 05.11.2019
4937 Clouds 8 994 87 10000 3.1 300 08:59 05.11.2019
4938 Clouds 8 994 93 9000 2.1 340 08:38 05.11.2019
4939 Clouds 8 993 100 8000 2.1 330 08:19 05.11.2019
4940 Clouds 8 993 100 6000 1.5 0 07:55 05.11.2019
4941 Clouds 8 993 100 6000 1.5 0 07:37 05.11.2019
4942 Mist 8 992 93 5000 0.5 0 07:19 05.11.2019
4943 Mist 8 992 93 4400 1 0 06:43 05.11.2019
4944 Mist 8 992 93 4400 1 0 06:43 05.11.2019
4945 Fog 8 991 100 400 1.5 0 05:51 05.11.2019
4946 Mist 8 991 100 1000 3.1 10 05:22 05.11.2019
4947 Rain 7 990 100 1500 2.6 340 04:24 05.11.2019
4948 Rain 7 990 93 10000 1.5 350 03:49 05.11.2019
4949 Clouds 7 989 100 9000 1.5 10 02:43 05.11.2019
4950 Clouds 7 989 93 8000 2.1 90 01:57 05.11.2019
4951 Clouds 7 988 93 8000 2.1 60 00:50 05.11.2019
4952 Clouds 7 988 93 8000 2.1 60 00:29 05.11.2019
4953 Clouds 7 988 93 8000 1.5 80 23:55 04.11.2019
4954 Clouds 7 988 93 8000 1.5 80 23:36 04.11.2019
4955 Clouds 7 987 93 10000 1.5 0 23:18 04.11.2019
4956 Clouds 7 987 93 10000 1.5 0 23:18 04.11.2019
4957 Clouds 7 987 93 10000 1.5 100 22:41 04.11.2019
4958 Clouds 7 987 93 10000 2.6 120 22:23 04.11.2019
4959 Clouds 7 987 93 10000 2.6 120 22:23 04.11.2019
4960 Clouds 7 986 93 10000 2.1 130 21:56 04.11.2019
4961 Clouds 7 986 93 10000 2.1 130 21:38 04.11.2019
4962 Clouds 7 986 100 10000 2.6 170 21:19 04.11.2019
4963 Clouds 7 986 100 10000 2.6 170 20:58 04.11.2019
4964 Clouds 7 986 100 10000 3.1 170 20:39 04.11.2019
4965 Rain 7 985 93 10000 3.1 160 20:21 04.11.2019
4966 Rain 8 985 93 10000 3.1 160 19:59 04.11.2019
4967 Rain 8 985 93 10000 4.1 160 19:40 04.11.2019
4968 Rain 8 985 100 10000 3.1 160 19:21 04.11.2019
4969 Rain 8 985 100 10000 3.1 160 18:57 04.11.2019
4970 Rain 9 985 93 10000 2.6 160 18:38 04.11.2019
4971 Clouds 9 984 93 10000 1.5 140 18:19 04.11.2019
4972 Clouds 10 984 93 10000 2.1 140 17:40 04.11.2019
4973 Rain 10 984 93 10000 3.6 150 17:21 04.11.2019
4974 Rain 10 984 93 10000 3.6 150 16:59 04.11.2019
4975 Rain 11 984 93 10000 2.6 140 16:40 04.11.2019
4976 Rain 11 984 87 10000 4.1 170 16:22 04.11.2019
4977 Rain 11 984 87 10000 4.1 170 15:56 04.11.2019
4978 Rain 11 984 87 10000 4.1 170 15:38 04.11.2019
4979 Clouds 11 984 71 10000 1.5 0 15:19 04.11.2019
4980 Clouds 11 984 71 10000 1.5 0 15:19 04.11.2019
4981 Rain 11 983 76 10000 3.1 160 14:56 04.11.2019
4982 Rain 11 983 76 10000 3.1 160 14:37 04.11.2019
4983 Rain 11 983 76 10000 2.1 160 14:18 04.11.2019
4984 Rain 11 983 76 10000 2.6 160 13:54 04.11.2019
4985 Rain 11 983 76 10000 2.6 160 13:36 04.11.2019
4986 Rain 11 984 76 10000 2.6 170 13:18 04.11.2019
4987 Rain 10 984 76 10000 2.1 0 12:41 04.11.2019
4988 Clouds 10 984 76 10000 2.1 160 12:23 04.11.2019
4989 Clouds 10 983 81 10000 1.5 0 11:57 04.11.2019
4990 Clouds 10 983 81 10000 1.5 0 11:39 04.11.2019
4991 Clouds 10 983 81 10000 2.6 210 11:21 04.11.2019
4992 Clouds 9 983 93 10000 1 160 10:45 04.11.2019
4993 Clouds 9 983 93 10000 3.1 190 10:26 04.11.2019
4994 Clouds 8 983 93 10000 2.1 240 09:56 04.11.2019
4995 Rain 8 983 93 10000 2.1 240 09:38 04.11.2019
4996 Rain 8 983 100 10000 2.1 230 09:19 04.11.2019
4997 Rain 7 983 100 7000 1 210 08:42 04.11.2019
4998 Clouds 7 983 100 10000 1 0 08:21 04.11.2019
4999 Rain 8 983 100 10000 1 0 07:56 04.11.2019
5000 Clouds 8 983 93 10000 1 0 07:37 04.11.2019
5001 Rain 8 983 93 6000 0.5 0 07:19 04.11.2019
5002 Drizzle 8 982 93 4100 1 130 06:40 04.11.2019
5003 Rain 8 982 93 10000 1.5 0 06:18 04.11.2019
5004 Rain 8 982 93 10000 2.1 110 05:30 04.11.2019
5005 Rain 8 983 81 10000 1 0 04:27 04.11.2019
5006 Clouds 8 983 87 10000 1.5 0 03:31 04.11.2019
5007 Clouds 8 984 93 10000 3.1 220 01:24 04.11.2019
5008 Clouds 8 984 93 10000 3.6 230 00:59 04.11.2019
5009 Clouds 9 984 93 10000 4.1 250 00:22 04.11.2019
5010 Rain 9 984 93 10000 4.1 250 23:58 03.11.2019
5011 Rain 9 984 93 9000 4.6 240 23:38 03.11.2019
5012 Rain 9 984 87 10000 2.1 210 23:19 03.11.2019
5013 Clear 9 984 87 10000 2.1 220 22:56 03.11.2019
5014 Clear 9 984 87 10000 2.1 220 22:56 03.11.2019
5015 Clear 9 984 87 10000 2.1 220 22:38 03.11.2019
5016 Clear 9 984 87 10000 2.1 0 22:19 03.11.2019
5017 Clear 8 984 87 10000 2.1 220 21:43 03.11.2019
5018 Clear 8 984 87 10000 2.1 220 21:43 03.11.2019
5019 Clear 8 984 100 10000 3.6 200 21:22 03.11.2019
5020 Fog 8 984 100 10000 3.1 220 20:58 03.11.2019
5021 Fog 8 984 100 10000 3.1 220 20:38 03.11.2019
5022 Rain 8 984 100 10000 2.6 220 20:19 03.11.2019
5023 Clouds 8 984 93 10000 3.1 220 19:57 03.11.2019
5024 Rain 8 984 100 10000 2.6 220 19:57 03.11.2019
5025 Clouds 9 984 93 10000 3.1 220 19:39 03.11.2019
5026 Clouds 9 984 93 10000 3.1 220 19:39 03.11.2019
5027 Clouds 9 984 87 10000 3.1 250 19:20 03.11.2019
5028 Clouds 9 984 87 10000 3.1 250 18:58 03.11.2019
5029 Clouds 10 984 100 10000 2.1 240 18:37 03.11.2019
5030 Clouds 10 984 100 10000 2.6 260 18:18 03.11.2019
5031 Clouds 10 983 93 10000 2.6 280 17:43 03.11.2019
5032 Clouds 11 983 81 10000 3.1 280 17:23 03.11.2019
5033 Clouds 11 983 81 10000 3.1 280 17:23 03.11.2019
5034 Clouds 11 983 81 10000 3.1 280 17:00 03.11.2019
5035 Clouds 11 983 81 10000 3.6 290 16:41 03.11.2019
5036 Rain 11 983 87 10000 3.6 280 16:22 03.11.2019
5037 Rain 11 983 87 10000 3.6 280 15:59 03.11.2019
5038 Rain 11 982 71 10000 4.1 240 15:41 03.11.2019
5039 Clouds 11 982 76 10000 3.6 260 15:23 03.11.2019
5040 Clouds 11 982 71 10000 4.1 250 14:56 03.11.2019
5041 Clouds 11 982 71 10000 4.1 250 14:37 03.11.2019
5042 Clouds 12 982 71 10000 4.1 240 14:18 03.11.2019
5043 Clouds 12 982 71 10000 4.1 240 14:18 03.11.2019
5044 Clouds 12 981 71 10000 3.6 240 13:43 03.11.2019
5045 Clouds 11 981 71 10000 3.6 250 13:20 03.11.2019
5046 Clouds 11 982 71 10000 4.1 250 12:58 03.11.2019
5047 Clouds 11 982 71 10000 4.1 250 12:37 03.11.2019
5048 Clouds 11 982 71 10000 3.6 240 12:18 03.11.2019
5049 Clouds 10 982 71 10000 2.6 230 11:43 03.11.2019
5050 Clouds 10 981 76 10000 1.5 0 11:22 03.11.2019
5051 Clouds 9 981 81 10000 1.5 0 10:58 03.11.2019
5052 Clouds 8 981 81 10000 1.5 0 10:40 03.11.2019
5053 Clouds 8 981 81 10000 1.5 0 10:22 03.11.2019
5054 Clouds 7 981 87 10000 1.5 220 09:56 03.11.2019
5055 Clouds 7 981 87 10000 1.5 220 09:38 03.11.2019
5056 Clouds 6 981 87 10000 2.1 240 09:20 03.11.2019
5057 Clouds 6 980 87 10000 2.6 240 08:39 03.11.2019
5058 Fog 6 980 100 10000 1 150 08:20 03.11.2019
5059 Clouds 5 980 100 10000 2.6 190 07:46 03.11.2019
5060 Clouds 6 980 93 10000 2.6 180 07:25 03.11.2019
5061 Clouds 6 979 87 10000 1.5 230 06:50 03.11.2019
5062 Clouds 6 979 87 10000 1.5 230 06:31 03.11.2019
5063 Clouds 6 979 87 10000 2.6 190 05:39 03.11.2019
5064 Clouds 7 979 81 10000 2.6 240 04:58 03.11.2019
5065 Clouds 7 979 81 10000 2.6 240 04:36 03.11.2019
5066 Clouds 7 979 81 10000 3.1 220 03:35 03.11.2019
5067 Clouds 8 979 87 10000 4.1 210 02:42 03.11.2019
5068 Clouds 8 979 87 10000 4.1 210 02:20 03.11.2019
5069 Clouds 8 979 87 10000 4.1 210 01:39 03.11.2019
5070 Clouds 9 979 81 10000 3.6 220 01:20 03.11.2019
5071 Clouds 9 979 81 10000 4.6 220 00:45 03.11.2019
5072 Clouds 9 979 81 10000 4.6 220 00:26 03.11.2019
5073 Clouds 9 980 87 10000 1.5 220 23:58 02.11.2019
5074 Clouds 9 980 87 10000 2.6 220 23:38 02.11.2019
5075 Clouds 10 979 81 10000 6.2 220 23:19 02.11.2019
5076 Clouds 10 980 87 10000 7.2 210 22:56 02.11.2019
5077 Clouds 10 980 87 10000 7.2 210 22:37 02.11.2019
5078 Clouds 10 980 87 10000 6.7 210 22:18 02.11.2019
5079 Clouds 10 979 93 10000 8.2 210 21:56 02.11.2019
5080 Clouds 10 979 93 10000 8.2 210 21:38 02.11.2019
5081 Clouds 10 979 81 10000 8.2 220 21:18 02.11.2019
5082 Clouds 10 979 81 10000 8.2 220 21:18 02.11.2019
5083 Clouds 10 979 81 10000 8.2 220 21:18 02.11.2019
5084 Clouds 10 979 87 10000 8.2 210 20:59 02.11.2019
5085 Clouds 10 979 87 10000 8.2 210 20:39 02.11.2019
5086 Clouds 10 979 87 10000 8.7 220 20:20 02.11.2019
5087 Clouds 10 979 87 10000 8.7 220 19:55 02.11.2019
5088 Rain 11 979 76 10000 8.7 230 19:36 02.11.2019
5089 Clouds 11 979 87 10000 9.3 220 19:18 02.11.2019
5090 Clouds 11 979 87 10000 10.3 220 18:42 02.11.2019
5091 Rain 11 978 76 10000 10.3 230 18:24 02.11.2019
5092 Rain 11 977 82 10000 7.7 230 17:59 02.11.2019
5093 Rain 11 977 82 10000 7.7 230 17:39 02.11.2019
5094 Rain 11 977 87 1700 8.2 240 17:21 02.11.2019
5095 Rain 12 977 87 1700 8.2 240 16:58 02.11.2019
5096 Rain 12 978 93 2500 9.8 220 16:38 02.11.2019
5097 Rain 12 978 93 2500 9.8 220 16:38 02.11.2019
5098 Rain 12 978 93 10000 8.7 220 16:20 02.11.2019
5099 Rain 12 978 87 10000 8.2 220 15:42 02.11.2019
5100 Rain 12 978 87 10000 8.7 210 15:20 02.11.2019
5101 Rain 12 977 71 10000 7.2 240 14:43 02.11.2019
5102 Rain 12 977 71 10000 7.2 240 14:43 02.11.2019
5103 Clouds 12 977 76 10000 7.7 230 14:24 02.11.2019
5104 Clouds 12 977 76 10000 7.7 230 13:59 02.11.2019
5105 Rain 12 976 76 10000 8.7 230 13:40 02.11.2019
5106 Rain 12 976 82 10000 8.2 230 13:20 02.11.2019
5107 Rain 12 977 82 8000 8.7 210 12:56 02.11.2019
5108 Rain 12 977 82 8000 8.7 210 12:37 02.11.2019
5109 Rain 11 977 81 4600 7.7 200 12:19 02.11.2019
5110 Rain 11 978 81 10000 9.3 180 11:42 02.11.2019
5111 Rain 11 978 81 10000 9.3 180 11:42 02.11.2019
5112 Rain 10 980 81 3100 9.3 200 11:23 02.11.2019
5113 Rain 10 980 81 3100 9.3 200 10:57 02.11.2019
5114 Rain 10 981 87 5000 12.9 190 10:39 02.11.2019
5115 Rain 10 982 76 10000 11.8 190 10:18 02.11.2019
5116 Clouds 11 983 66 10000 6.2 200 09:42 02.11.2019
5117 Clouds 11 983 66 10000 5.1 210 09:22 02.11.2019
5118 Clouds 10 984 66 10000 4.6 210 08:51 02.11.2019
5119 Clouds 10 983 76 10000 5.1 220 08:25 02.11.2019
5120 Clouds 10 984 76 10000 6.7 220 07:58 02.11.2019
5121 Clouds 10 984 66 10000 6.2 230 07:40 02.11.2019
5122 Clouds 10 984 66 10000 6.2 230 07:40 02.11.2019
5123 Clouds 10 985 76 10000 6.2 220 07:22 02.11.2019
5124 Clouds 11 985 71 10000 7.2 220 06:50 02.11.2019
5125 Clouds 11 985 76 10000 6.2 210 06:23 02.11.2019
5126 Clouds 11 985 81 10000 7.2 230 05:44 02.11.2019
5127 Clouds 12 986 93 10000 5.1 240 04:25 02.11.2019
5128 Clouds 12 986 87 10000 4.6 220 03:52 02.11.2019
5129 Clouds 13 986 87 10000 4.6 220 03:31 02.11.2019
5130 Clouds 13 986 87 10000 6.7 230 02:31 02.11.2019
5131 Clouds 14 987 93 10000 6.2 220 01:36 02.11.2019
5132 Clouds 14 987 93 10000 5.1 210 01:18 02.11.2019
5133 Rain 14 987 93 10000 7.2 230 00:42 02.11.2019
5134 Rain 14 987 100 10000 6.2 210 00:21 02.11.2019
5135 Rain 15 988 87 10000 5.1 200 23:42 01.11.2019
5136 Rain 15 989 100 6000 8.7 210 23:19 01.11.2019
5137 Drizzle 15 989 100 8000 7.2 200 22:42 01.11.2019
5138 Drizzle 14 990 100 3000 6.7 200 22:21 01.11.2019
5139 Drizzle 14 991 100 3000 7.2 200 21:56 01.11.2019
5140 Drizzle 14 991 100 3000 7.2 200 21:37 01.11.2019
5141 Drizzle 14 991 100 3000 7.7 210 21:18 01.11.2019
5142 Drizzle 14 991 93 3000 7.2 210 20:42 01.11.2019
5143 Clouds 14 991 93 10000 5.1 190 20:24 01.11.2019
5144 Clouds 14 991 93 10000 5.1 190 19:59 01.11.2019
5145 Clouds 14 992 93 10000 4.6 180 19:41 01.11.2019
5146 Rain 14 993 87 10000 3.6 210 19:22 01.11.2019
5147 Clouds 14 993 87 10000 3.6 210 18:42 01.11.2019
5148 Clouds 14 994 87 10000 3.6 220 18:21 01.11.2019
5149 Clouds 14 994 87 10000 3.6 220 17:59 01.11.2019
5150 Clouds 14 994 82 10000 3.6 230 17:41 01.11.2019
5151 Clouds 14 994 82 10000 4.6 230 17:23 01.11.2019
5152 Clouds 14 995 93 10000 4.6 220 16:57 01.11.2019
5153 Clouds 14 995 93 10000 4.6 220 16:36 01.11.2019
5154 Clouds 14 996 93 10000 6.2 220 16:18 01.11.2019
5155 Clouds 14 996 93 10000 6.7 220 15:40 01.11.2019
5156 Clouds 15 996 87 10000 4.6 230 15:22 01.11.2019
5157 Clouds 15 996 87 10000 3.6 230 14:56 01.11.2019
5158 Clouds 15 996 87 10000 3.6 230 14:38 01.11.2019
5159 Clouds 15 997 87 10000 2.6 220 14:19 01.11.2019
5160 Clouds 15 997 93 10000 2.1 230 13:55 01.11.2019
5161 Clouds 14 997 93 10000 2.1 230 13:36 01.11.2019
5162 Clouds 15 998 87 10000 2.6 150 13:18 01.11.2019
5163 Clouds 14 999 87 10000 3.1 170 12:42 01.11.2019
5164 Clouds 14 999 87 10000 3.1 180 12:24 01.11.2019
5165 Clouds 14 1000 87 10000 4.6 170 11:42 01.11.2019
5166 Clouds 14 1000 93 10000 3.1 170 11:24 01.11.2019
5167 Rain 13 1001 87 10000 3.1 150 10:56 01.11.2019
5168 Rain 13 1001 87 10000 3.1 150 10:38 01.11.2019
5169 Rain 13 1002 93 10000 2.1 120 10:19 01.11.2019
5170 Rain 13 1003 93 10000 2.6 150 09:43 01.11.2019
5171 Drizzle 12 1003 100 4000 2.1 100 09:25 01.11.2019
5172 Drizzle 12 1003 100 4000 2.1 100 08:57 01.11.2019
5173 Drizzle 12 1003 100 4300 2.6 110 08:39 01.11.2019
5174 Drizzle 12 1004 93 2400 2.6 110 08:20 01.11.2019
5175 Drizzle 12 1004 93 4300 2.6 110 07:51 01.11.2019
5176 Drizzle 11 1005 93 3700 2.6 130 07:24 01.11.2019
5177 Drizzle 11 1006 93 1900 2.6 100 06:56 01.11.2019
5178 Rain 11 1006 93 2500 3.1 100 06:23 01.11.2019
5179 Rain 11 1006 93 2500 3.1 100 05:59 01.11.2019
5180 Haze 10 1007 100 2600 3.1 100 05:38 01.11.2019
5181 Rain 9 1010 93 3100 3.1 90 03:33 01.11.2019
5182 Haze 9 1013 87 4100 2.1 70 01:51 01.11.2019
5183 Haze 8 1013 87 4400 2.1 80 01:26 01.11.2019
5184 Haze 8 1014 87 4700 2.1 110 00:21 01.11.2019
5185 Haze 8 1014 87 6000 1.5 130 23:55 31.10.2019
5186 Haze 8 1014 87 6000 1.5 130 23:36 31.10.2019
5187 Haze 8 1015 87 5000 2.1 80 23:18 31.10.2019
5188 Haze 7 1016 81 5000 1.5 0 22:42 31.10.2019
5189 Clouds 7 1016 87 6000 1.5 110 22:23 31.10.2019
5190 Clouds 7 1016 87 6000 1.5 110 21:57 31.10.2019
5191 Clouds 7 1016 81 6000 2.1 110 21:39 31.10.2019
5192 Clouds 7 1017 81 6000 2.1 140 21:18 31.10.2019
5193 Clouds 7 1017 81 8000 2.6 110 20:41 31.10.2019
5194 Clouds 7 1017 81 8000 2.6 120 20:23 31.10.2019
5195 Clouds 7 1017 81 8000 2.6 120 19:59 31.10.2019
5196 Clouds 7 1017 76 8000 3.1 120 19:38 31.10.2019
5197 Clouds 8 1018 76 10000 3.1 110 19:20 31.10.2019
5198 Clouds 8 1018 76 10000 3.6 100 18:44 31.10.2019
5199 Clouds 9 1018 76 10000 4.6 100 18:26 31.10.2019
5200 Clouds 9 1018 76 10000 5.1 100 17:59 31.10.2019
5201 Clouds 9 1018 76 10000 5.1 100 17:41 31.10.2019
5202 Clouds 10 1018 71 10000 5.1 100 17:20 31.10.2019
5203 Clouds 10 1018 76 10000 5.7 100 16:55 31.10.2019
5204 Clouds 11 1018 76 10000 5.7 100 16:37 31.10.2019
5205 Clouds 11 1019 76 10000 5.1 90 16:18 31.10.2019
5206 Clouds 11 1019 71 10000 5.1 90 15:40 31.10.2019
5207 Clouds 11 1019 71 10000 5.1 90 15:22 31.10.2019
5208 Clouds 12 1019 71 10000 6.2 100 14:59 31.10.2019
5209 Clouds 12 1019 71 10000 6.2 100 14:41 31.10.2019
5210 Clouds 11 1019 76 10000 6.2 90 14:23 31.10.2019
5211 Clouds 11 1019 76 10000 6.2 90 13:59 31.10.2019
5212 Clouds 11 1020 71 10000 5.7 90 13:39 31.10.2019
5213 Clouds 11 1020 71 10000 6.2 100 13:19 31.10.2019
5214 Clouds 11 1020 71 10000 6.2 100 12:58 31.10.2019
5215 Clouds 11 1020 76 10000 6.7 100 12:38 31.10.2019
5216 Clouds 10 1020 76 10000 7.2 100 12:20 31.10.2019
5217 Clouds 10 1020 81 8000 6.7 100 11:46 31.10.2019
5218 Clouds 9 1020 81 7000 5.1 100 11:21 31.10.2019
5219 Clouds 8 1020 87 6000 3.6 90 10:59 31.10.2019
5220 Clouds 8 1020 87 6000 3.6 90 10:40 31.10.2019
5221 Haze 8 1020 93 5000 3.6 90 10:21 31.10.2019
5222 Haze 7 1020 87 5000 3.1 80 09:56 31.10.2019
5223 Haze 6 1020 87 5000 3.1 80 09:38 31.10.2019
5224 Haze 6 1020 93 4900 3.6 100 09:18 31.10.2019
5225 Haze 6 1020 93 5000 2.6 80 08:46 31.10.2019
5226 Haze 6 1020 87 4900 3.6 100 08:26 31.10.2019
5227 Haze 6 1020 87 4400 2.6 90 07:48 31.10.2019
5228 Haze 6 1020 93 5000 2.1 60 07:28 31.10.2019
5229 Clouds 6 1020 87 6000 4.1 100 06:55 31.10.2019
5230 Clouds 6 1020 87 6000 4.1 100 06:32 31.10.2019
5231 Clouds 6 1020 87 7000 3.6 100 05:32 31.10.2019
5232 Clouds 6 1021 87 7000 5.7 100 03:21 31.10.2019
5233 Clouds 6 1021 87 8000 6.2 100 02:38 31.10.2019
5234 Clouds 7 1021 87 8000 5.1 80 01:43 31.10.2019
5235 Clouds 7 1022 87 8000 5.1 100 00:35 31.10.2019
5236 Clouds 7 1022 81 9000 5.7 100 23:53 30.10.2019
5237 Clouds 7 1022 81 10000 6.2 110 23:28 30.10.2019
5238 Clouds 7 1022 93 10000 4.6 100 22:43 30.10.2019
5239 Clouds 7 1022 93 10000 4.6 100 22:43 30.10.2019
5240 Clouds 7 1022 81 10000 4.6 100 22:21 30.10.2019
5241 Clouds 7 1022 81 10000 3.6 80 21:55 30.10.2019
5242 Clouds 7 1022 81 10000 3.6 80 21:37 30.10.2019
5243 Clouds 7 1022 81 10000 4.1 70 21:18 30.10.2019
5244 Clouds 7 1022 81 10000 4.1 70 20:59 30.10.2019
5245 Clouds 7 1023 81 10000 4.1 70 20:41 30.10.2019
5246 Clouds 7 1022 87 10000 4.1 80 20:22 30.10.2019
5247 Clouds 7 1022 87 10000 4.1 80 19:58 30.10.2019
5248 Clouds 8 1022 87 10000 4.1 80 19:38 30.10.2019
5249 Clouds 8 1022 87 10000 3.1 90 19:20 30.10.2019
5250 Clouds 8 1022 81 10000 4.1 80 18:57 30.10.2019
5251 Clouds 8 1023 76 10000 4.1 70 18:37 30.10.2019
5252 Clouds 8 1022 81 10000 4.1 80 18:18 30.10.2019
5253 Clouds 9 1022 66 10000 5.7 100 17:41 30.10.2019
5254 Clouds 10 1023 62 10000 7.7 100 17:20 30.10.2019
5255 Clouds 10 1023 66 10000 8.2 100 16:59 30.10.2019
5256 Clouds 10 1023 66 10000 8.2 100 16:40 30.10.2019
5257 Clouds 11 1023 66 10000 8.7 90 16:22 30.10.2019
5258 Clouds 11 1024 62 10000 8.7 90 15:57 30.10.2019
5259 Clouds 11 1024 62 10000 8.7 90 15:38 30.10.2019
5260 Clouds 11 1024 62 10000 8.7 90 15:38 30.10.2019
5261 Clouds 11 1024 58 10000 8.2 90 15:19 30.10.2019
5262 Clouds 11 1024 58 10000 8.7 100 14:56 30.10.2019
5263 Clouds 11 1024 58 10000 8.7 100 14:56 30.10.2019
5264 Clouds 11 1024 58 10000 8.7 100 14:38 30.10.2019
5265 Clouds 12 1024 58 10000 8.7 100 14:19 30.10.2019
5266 Clouds 12 1024 58 10000 10.3 90 13:54 30.10.2019
5267 Clouds 12 1024 58 10000 10.3 90 13:36 30.10.2019
5268 Clouds 12 1025 58 10000 8.7 100 13:18 30.10.2019
5269 Clouds 11 1025 58 10000 9.8 100 12:42 30.10.2019
5270 Clouds 11 1025 58 10000 8.7 90 12:23 30.10.2019
5271 Clouds 11 1025 58 10000 8.7 90 11:56 30.10.2019
5272 Clouds 11 1025 62 10000 9.3 90 11:56 30.10.2019
5273 Clouds 10 1025 62 10000 9.3 90 11:38 30.10.2019
5274 Clouds 10 1025 62 10000 8.2 100 11:18 30.10.2019
5275 Clouds 10 1025 66 10000 7.2 110 10:42 30.10.2019
5276 Clouds 9 1025 71 10000 4.1 100 10:23 30.10.2019
5277 Clouds 8 1025 76 10000 3.6 70 09:42 30.10.2019
5278 Clouds 8 1025 81 10000 3.6 70 09:23 30.10.2019
5279 Clouds 7 1025 81 10000 3.1 60 08:57 30.10.2019
5280 Clouds 7 1025 81 10000 3.1 60 08:39 30.10.2019
5281 Clouds 7 1025 81 10000 2.6 50 08:19 30.10.2019
5282 Clouds 7 1025 87 10000 2.1 20 07:43 30.10.2019
5283 Clouds 8 1025 81 10000 1.5 0 07:20 30.10.2019
5284 Clouds 8 1025 76 10000 2.6 50 06:42 30.10.2019
5285 Clouds 8 1025 76 10000 2.6 30 06:18 30.10.2019
5286 Clouds 8 1025 76 10000 3.6 70 05:41 30.10.2019
5287 Clouds 8 1025 76 10000 2.6 60 04:42 30.10.2019
5288 Clouds 8 1025 71 10000 2.6 40 03:43 30.10.2019
5289 Clouds 8 1026 81 10000 2.1 70 02:51 30.10.2019
5290 Clouds 8 1026 76 10000 2.6 50 01:55 30.10.2019
5291 Clouds 8 1026 76 10000 2.6 50 00:57 30.10.2019
5292 Clouds 8 1026 76 10000 2.6 50 00:28 30.10.2019
5293 Clouds 8 1026 76 10000 2.6 60 23:43 29.10.2019
5294 Clouds 8 1026 71 10000 2.1 50 23:23 29.10.2019
5295 Clouds 8 1026 71 10000 2.6 60 22:48 29.10.2019
5296 Clouds 8 1026 76 10000 3.1 60 22:20 29.10.2019
5297 Clouds 8 1026 76 10000 3.1 60 21:59 29.10.2019
5298 Clouds 8 1026 76 10000 3.6 60 21:41 29.10.2019
5299 Clouds 8 1026 76 10000 3.6 90 21:20 29.10.2019
5300 Clouds 8 1026 76 10000 3.1 60 20:56 29.10.2019
5301 Clouds 8 1026 76 10000 3.6 90 20:38 29.10.2019
5302 Clouds 8 1026 76 10000 3.1 60 20:38 29.10.2019
5303 Clouds 9 1026 76 10000 3.6 90 20:20 29.10.2019
5304 Clouds 9 1025 76 10000 4.6 60 19:56 29.10.2019
5305 Clouds 9 1025 76 10000 4.6 60 19:38 29.10.2019
5306 Clouds 9 1025 76 10000 4.1 60 19:19 29.10.2019
5307 Clouds 9 1025 87 10000 2.1 90 18:55 29.10.2019
5308 Clouds 9 1025 87 10000 2.1 90 18:36 29.10.2019
5309 Clouds 9 1025 87 10000 2.1 90 18:36 29.10.2019
5310 Clouds 9 1025 87 10000 3.1 70 18:18 29.10.2019
5311 Clouds 9 1025 87 10000 4.1 70 17:54 29.10.2019
5312 Clouds 9 1025 87 10000 4.1 70 17:54 29.10.2019
5313 Clouds 10 1025 87 10000 4.1 70 17:36 29.10.2019
5314 Clouds 10 1025 87 10000 4.1 70 17:36 29.10.2019
5315 Clouds 10 1025 66 10000 4.1 90 17:18 29.10.2019
5316 Clouds 10 1025 66 10000 4.1 90 17:18 29.10.2019
5317 Clouds 10 1025 87 10000 3.6 70 16:39 29.10.2019
5318 Clouds 10 1025 87 10000 3.6 70 16:39 29.10.2019
5319 Clouds 11 1025 66 10000 6.2 90 16:20 29.10.2019
5320 Clouds 11 1025 76 10000 6.7 100 15:56 29.10.2019
5321 Clouds 11 1025 76 10000 6.7 100 15:38 29.10.2019
5322 Clouds 11 1025 71 10000 6.2 100 15:19 29.10.2019
5323 Clouds 11 1025 71 10000 6.2 70 14:55 29.10.2019
5324 Clouds 11 1025 71 10000 6.2 70 14:37 29.10.2019
5325 Clouds 11 1025 71 10000 5.1 70 14:18 29.10.2019
5326 Clouds 11 1025 76 10000 4.1 70 13:40 29.10.2019
5327 Clouds 11 1025 76 10000 4.1 70 13:40 29.10.2019
5328 Rain 10 1025 81 10000 4.1 90 13:22 29.10.2019
5329 Clouds 10 1026 71 10000 5.1 70 12:45 29.10.2019
5330 Rain 10 1026 76 10000 4.6 70 12:26 29.10.2019
5331 Rain 10 1026 76 10000 4.6 70 12:26 29.10.2019
5332 Rain 9 1026 76 10000 4.1 80 11:59 29.10.2019
5333 Rain 9 1026 76 10000 4.1 80 11:41 29.10.2019
5334 Clouds 9 1026 71 10000 4.6 70 11:19 29.10.2019
5335 Clouds 9 1026 71 10000 4.6 70 11:19 29.10.2019
5336 Rain 8 1026 76 10000 4.1 70 10:57 29.10.2019
5337 Rain 8 1026 76 10000 4.1 70 10:38 29.10.2019
5338 Clouds 8 1025 76 10000 4.6 70 10:20 29.10.2019
5339 Clouds 8 1025 75 10000 3.6 60 09:55 29.10.2019
5340 Clouds 8 1025 75 10000 3.6 60 09:37 29.10.2019
5341 Clouds 7 1025 75 10000 2.1 50 09:19 29.10.2019
5342 Clouds 7 1025 75 10000 2.1 50 09:19 29.10.2019
5343 Clouds 7 1025 81 10000 2.1 60 08:43 29.10.2019
5344 Clouds 6 1025 81 10000 2.1 50 08:24 29.10.2019
5345 Clouds 6 1024 81 10000 2.1 60 07:55 29.10.2019
5346 Clouds 6 1024 81 10000 2.1 60 07:36 29.10.2019
5347 Clouds 6 1024 81 10000 2.1 60 07:18 29.10.2019
5348 Clouds 6 1024 81 10000 1.5 0 06:43 29.10.2019
5349 Clouds 6 1024 81 10000 2.6 60 06:21 29.10.2019
5350 Clouds 6 1024 81 10000 3.1 60 05:50 29.10.2019
5351 Clouds 6 1024 81 10000 2.6 60 05:25 29.10.2019
5352 Clouds 7 1024 81 10000 3.6 60 04:30 29.10.2019
5353 Clouds 7 1024 81 10000 2.6 60 02:33 29.10.2019
5354 Clouds 7 1024 81 10000 1.5 0 01:47 29.10.2019
5355 Clouds 7 1024 81 10000 2.1 30 01:18 29.10.2019
5356 Clouds 7 1024 76 10000 1.5 0 00:43 29.10.2019
5357 Clouds 7 1024 76 10000 3.1 60 23:43 28.10.2019
5358 Clouds 7 1024 76 10000 3.1 60 23:21 28.10.2019
5359 Clouds 7 1024 76 10000 3.6 60 22:58 28.10.2019
5360 Clouds 7 1024 76 10000 3.6 60 22:37 28.10.2019
5361 Clouds 8 1024 76 10000 3.6 60 22:18 28.10.2019
5362 Clouds 8 1024 76 10000 3.6 60 21:56 28.10.2019
5363 Clouds 8 1024 76 10000 3.6 60 21:38 28.10.2019
5364 Clouds 8 1024 87 10000 4.1 40 21:20 28.10.2019
5365 Clouds 8 1024 93 10000 4.1 40 20:54 28.10.2019
5366 Clouds 8 1024 93 10000 4.1 40 20:36 28.10.2019
5367 Clouds 8 1023 93 10000 3.6 40 20:18 28.10.2019
5368 Clouds 8 1024 87 10000 3.1 60 19:39 28.10.2019
5369 Clouds 8 1024 100 10000 2.1 30 19:21 28.10.2019
5370 Clouds 8 1024 100 10000 2.1 30 18:59 28.10.2019
5371 Clouds 8 1024 81 10000 2.6 50 18:41 28.10.2019
5372 Clouds 8 1024 81 10000 3.6 50 18:21 28.10.2019
5373 Clouds 8 1024 81 10000 1.5 0 17:57 28.10.2019
5374 Clouds 9 1024 81 10000 1.5 0 17:38 28.10.2019
5375 Clouds 9 1024 81 10000 2.6 0 17:20 28.10.2019
5376 Clouds 9 1024 76 10000 4.6 60 16:57 28.10.2019
5377 Clouds 9 1024 76 10000 2.1 40 16:39 28.10.2019
5378 Clouds 10 1024 71 10000 3.1 60 16:21 28.10.2019
5379 Clouds 10 1024 71 10000 3.1 60 16:21 28.10.2019
5380 Clouds 10 1024 71 10000 3.1 60 15:58 28.10.2019
5381 Clouds 10 1024 66 10000 3.6 70 15:40 28.10.2019
5382 Clouds 10 1024 66 10000 3.1 50 15:21 28.10.2019
5383 Clouds 10 1024 66 10000 2.1 40 14:57 28.10.2019
5384 Clouds 10 1024 66 10000 2.1 40 14:38 28.10.2019
5385 Clouds 10 1024 66 10000 1 0 14:18 28.10.2019
5386 Clouds 10 1024 66 10000 1 0 13:56 28.10.2019
5387 Clouds 10 1024 66 10000 1 0 13:56 28.10.2019
5388 Clouds 10 1024 66 10000 1 0 13:38 28.10.2019
5389 Clouds 10 1025 71 10000 2.1 30 13:18 28.10.2019
5390 Clouds 9 1025 71 10000 1 0 12:42 28.10.2019
5391 Clouds 9 1025 76 10000 2.1 100 12:21 28.10.2019
5392 Clouds 8 1025 76 10000 1.5 70 11:54 28.10.2019
5393 Clouds 7 1025 76 10000 1.5 70 11:36 28.10.2019
5394 Clouds 6 1025 81 10000 1.5 0 11:18 28.10.2019
5395 Clouds 5 1025 81 10000 1.5 0 10:39 28.10.2019
5396 Clouds 4 1025 81 10000 1 0 10:21 28.10.2019
5397 Clouds 4 1025 81 10000 1 0 09:57 28.10.2019
5398 Clouds 4 1025 87 10000 0.5 0 09:39 28.10.2019
5399 Rain 3 1025 86 10000 1 0 09:19 28.10.2019
5400 Rain 3 1025 86 10000 1 0 08:57 28.10.2019
5401 Rain 3 1025 93 10000 1 0 08:38 28.10.2019
5402 Rain 3 1025 93 10000 1 0 08:38 28.10.2019
5403 Clouds 1 1025 93 10000 2.1 330 08:19 28.10.2019
5404 Clouds 1 1025 86 10000 1.5 330 07:56 28.10.2019
5405 Fog 0 1025 93 10000 1 330 07:36 28.10.2019
5406 Haze 1 1025 93 5000 1 250 07:18 28.10.2019
5407 Clouds 1 1025 93 10000 1.5 230 06:40 28.10.2019
5408 Clouds 1 1025 86 10000 1.5 0 05:41 28.10.2019
5409 Mist 1 1025 93 5000 1 300 03:48 28.10.2019
5410 Clouds 2 1025 100 7000 1.5 320 02:54 28.10.2019
5411 Clouds 2 1025 100 7000 1.5 320 02:34 28.10.2019
5412 Clear 3 1026 86 6000 1.5 290 00:57 28.10.2019
5413 Clear 3 1026 86 6000 1.5 290 00:38 28.10.2019
5414 Clear 3 1026 81 8000 1.5 0 00:19 28.10.2019
5415 Haze 3 1026 81 4500 1 0 23:42 27.10.2019
5416 Clear 4 1026 81 8000 1.5 350 23:18 27.10.2019
5417 Clear 4 1025 81 10000 2.6 320 22:42 27.10.2019
5418 Clear 4 1025 86 10000 2.1 330 22:22 27.10.2019
5419 Clear 4 1025 86 10000 2.6 340 21:58 27.10.2019
5420 Clear 4 1025 86 10000 2.6 340 21:39 27.10.2019
5421 Clear 4 1025 81 10000 1.5 0 21:21 27.10.2019
5422 Clouds 4 1025 81 10000 1.5 0 20:58 27.10.2019
5423 Clear 5 1025 81 10000 1.5 0 20:39 27.10.2019
5424 Clouds 5 1025 93 10000 0.5 320 20:21 27.10.2019
5425 Clouds 6 1025 81 10000 1.5 0 19:56 27.10.2019
5426 Clouds 6 1025 81 10000 1.5 0 19:36 27.10.2019
5427 Clouds 6 1025 81 10000 1.5 320 19:18 27.10.2019
5428 Clouds 7 1025 81 10000 2.1 320 18:55 27.10.2019
5429 Clouds 7 1025 81 10000 2.1 320 18:37 27.10.2019
5430 Clouds 7 1024 70 10000 2.1 300 18:19 27.10.2019
5431 Clouds 7 1024 70 10000 2.1 300 18:19 27.10.2019
5432 Clouds 9 1024 70 10000 2.1 320 17:40 27.10.2019
5433 Clear 10 1024 70 10000 2.1 290 17:21 27.10.2019
5434 Clear 10 1024 70 10000 2.1 290 16:59 27.10.2019
5435 Clouds 10 1024 62 10000 3.1 330 16:40 27.10.2019
5436 Clear 11 1024 58 10000 3.1 300 16:22 27.10.2019
5437 Clear 11 1024 58 10000 2.6 300 15:57 27.10.2019
5438 Clear 11 1024 58 10000 2.6 300 15:39 27.10.2019
5439 Clear 11 1024 58 10000 2.6 300 15:39 27.10.2019
5440 Clear 11 1024 54 10000 3.1 300 15:20 27.10.2019
5441 Clear 11 1024 58 10000 3.1 290 14:44 27.10.2019
5442 Clouds 11 1024 58 10000 2.6 310 14:24 27.10.2019
5443 Clouds 11 1024 58 10000 2.6 310 13:59 27.10.2019
5444 Clouds 11 1024 62 10000 3.1 280 13:40 27.10.2019
5445 Clouds 10 1024 62 10000 4.1 300 13:22 27.10.2019
5446 Clouds 10 1024 62 10000 4.1 300 12:59 27.10.2019
5447 Clouds 10 1024 66 10000 3.6 290 12:41 27.10.2019
5448 Clouds 9 1024 66 10000 3.6 300 12:23 27.10.2019
5449 Clouds 8 1024 70 10000 4.1 290 11:43 27.10.2019
5450 Clouds 8 1024 70 10000 3.6 280 11:25 27.10.2019
5451 Clouds 7 1024 70 10000 3.6 280 11:25 27.10.2019
5452 Clouds 7 1024 87 10000 3.1 300 10:57 27.10.2019
5453 Clouds 6 1024 70 10000 3.6 290 10:39 27.10.2019
5454 Clouds 6 1024 70 10000 3.6 290 10:38 27.10.2019
5455 Clouds 5 1023 86 10000 1.5 0 10:20 27.10.2019
5456 Clouds 5 1023 93 10000 2.1 300 09:43 27.10.2019
5457 Clouds 4 1023 93 10000 2.6 270 09:19 27.10.2019
5458 Clouds 4 1023 75 10000 3.6 280 08:57 27.10.2019
5459 Clouds 4 1023 75 10000 3.6 280 08:38 27.10.2019
5460 Clouds 4 1022 93 10000 1 190 08:19 27.10.2019
5461 Clouds 4 1022 93 10000 2.6 250 07:48 27.10.2019
5462 Clouds 4 1021 86 10000 2.1 270 07:28 27.10.2019
5463 Clouds 4 1021 86 10000 2.6 270 06:55 27.10.2019
5464 Clouds 4 1021 86 10000 2.6 270 06:29 27.10.2019
5465 Clouds 4 1020 93 10000 3.1 270 05:58 27.10.2019
5466 Clouds 4 1020 93 10000 3.1 270 05:36 27.10.2019
5467 Clouds 5 1020 93 10000 2.6 270 04:25 27.10.2019
5468 Clouds 6 1018 87 10000 3.1 280 02:42 27.10.2019
5469 Clouds 6 1017 93 10000 2.6 290 01:28 27.10.2019
5470 Clouds 6 1017 93 10000 2.6 290 01:28 27.10.2019
5471 Clouds 6 1016 87 10000 3.6 290 00:56 27.10.2019
5472 Clouds 7 1016 87 10000 1.5 280 00:37 27.10.2019
5473 Rain 7 1015 87 10000 2.6 300 23:59 26.10.2019
5474 Rain 7 1016 87 10000 2.1 300 23:59 26.10.2019
5475 Rain 7 1015 87 10000 2.6 300 23:40 26.10.2019
5476 Rain 7 1015 87 10000 2.6 310 23:22 26.10.2019
5477 Clouds 7 1013 100 9000 6.2 340 22:59 26.10.2019
5478 Clouds 7 1013 100 9000 6.2 340 22:39 26.10.2019
5479 Rain 7 1013 87 10000 3.6 300 22:20 26.10.2019
5480 Rain 7 1013 87 10000 3.6 300 21:59 26.10.2019
5481 Rain 7 1012 93 8000 3.1 300 21:41 26.10.2019
5482 Drizzle 8 1011 93 3600 5.1 300 21:20 26.10.2019
5483 Drizzle 8 1011 93 2900 3.1 310 20:45 26.10.2019
5484 Drizzle 8 1009 87 5000 5.1 300 20:20 26.10.2019
5485 Drizzle 8 1009 87 5000 5.1 300 19:57 26.10.2019
5486 Rain 10 1008 87 6000 6.2 310 19:38 26.10.2019
5487 Rain 11 1006 93 6000 6.7 240 19:19 26.10.2019
5488 Rain 12 1006 93 6000 6.7 240 18:56 26.10.2019
5489 Rain 12 1005 87 10000 6.7 230 18:37 26.10.2019
5490 Rain 12 1005 87 10000 6.7 230 18:37 26.10.2019
5491 Rain 14 1005 87 10000 5.1 230 18:18 26.10.2019
5492 Rain 15 1005 87 10000 5.7 230 17:39 26.10.2019
5493 Rain 15 1005 87 10000 5.7 220 17:21 26.10.2019
5494 Rain 15 1005 87 10000 5.7 220 16:59 26.10.2019
5495 Rain 15 1005 87 10000 6.2 220 16:41 26.10.2019
5496 Rain 15 1005 87 10000 6.7 220 16:22 26.10.2019
5497 Rain 15 1005 87 10000 6.2 220 15:41 26.10.2019
5498 Rain 15 1006 72 9000 7.2 220 15:20 26.10.2019
5499 Rain 15 1006 72 9000 8.06 217 14:54 26.10.2019
5500 Rain 15 1006 72 9000 8.82 213 14:36 26.10.2019
5501 Rain 16 1006 82 10000 11.8 210 14:18 26.10.2019
5502 Clouds 17 1006 67 0 8.82 213 13:41 26.10.2019
5503 Clouds 17 1006 67 0 8.82 213 13:22 26.10.2019
5504 Clouds 16 1008 82 0 8.82 213 12:49 26.10.2019
5505 Clouds 16 1007 72 10000 7.7 210 12:49 26.10.2019
5506 Clouds 16 1008 82 0 8.82 213 12:25 26.10.2019
5507 Clouds 16 1007 72 10000 8.2 230 11:56 26.10.2019
5508 Clouds 16 1007 72 10000 8.2 230 11:36 26.10.2019
5509 Clouds 16 1007 72 10000 8.2 230 11:36 26.10.2019
5510 Clouds 15 1008 82 10000 10.3 210 11:18 26.10.2019
5511 Clouds 15 1007 72 10000 8.2 230 10:42 26.10.2019
5512 Clouds 15 1007 77 10000 8.2 220 10:23 26.10.2019
5513 Clouds 15 1007 82 10000 6.7 220 09:48 26.10.2019
5514 Clouds 15 1007 82 10000 7.2 210 09:28 26.10.2019
5515 Clouds 15 1007 82 10000 6.7 210 08:44 26.10.2019
5516 Clouds 16 1007 82 10000 6.7 220 08:26 26.10.2019
5517 Clouds 16 1007 82 10000 6.7 220 07:56 26.10.2019
5518 Clouds 16 1007 77 10000 7.7 220 07:33 26.10.2019
5519 Clouds 16 1007 77 10000 6.7 210 06:48 26.10.2019
5520 Clouds 16 1007 77 10000 6.7 220 06:29 26.10.2019
5521 Clouds 16 1008 77 10000 6.7 220 05:21 26.10.2019
5522 Clouds 16 1008 77 10000 6.7 220 04:58 26.10.2019
5523 Clouds 15 1009 82 10000 7.7 210 03:24 26.10.2019
5524 Clouds 15 1008 82 10000 7.7 210 02:23 26.10.2019
5525 Clouds 15 1008 82 10000 7.7 210 01:44 26.10.2019
5526 Clouds 15 1008 82 10000 7.7 210 00:33 26.10.2019
5527 Clouds 15 1009 82 10000 8.7 210 23:47 25.10.2019
5528 Clouds 15 1009 82 10000 8.2 210 23:22 25.10.2019
5529 Drizzle 15 1009 87 9000 12.3 200 22:56 25.10.2019
5530 Drizzle 15 1009 87 9000 12.3 200 22:38 25.10.2019
5531 Drizzle 15 1009 87 10000 14.4 200 22:20 25.10.2019
5532 Clouds 15 1009 87 10000 12.9 200 21:55 25.10.2019
5533 Clouds 15 1009 72 10000 8.2 210 21:37 25.10.2019
5534 Clouds 16 1009 72 10000 8.7 210 21:18 25.10.2019
5535 Clouds 16 1009 72 10000 7.7 220 20:42 25.10.2019
5536 Clouds 16 1010 87 10000 11.3 210 20:19 25.10.2019
5537 Clouds 16 1010 87 10000 11.8 200 19:47 25.10.2019
5538 Clouds 16 1010 87 10000 11.8 200 19:27 25.10.2019
5539 Clouds 15 1010 87 10000 10.3 210 18:55 25.10.2019
5540 Clouds 15 1010 87 10000 10.3 210 18:37 25.10.2019
5541 Rain 15 1008 82 10000 8.2 220 18:18 25.10.2019
5542 Drizzle 15 1011 93 10000 9.3 210 17:39 25.10.2019
5543 Clouds 15 1011 93 10000 8.2 210 17:18 25.10.2019
5544 Rain 15 1010 87 10000 6.2 200 16:46 25.10.2019
5545 Rain 15 1010 87 10000 6.2 200 16:22 25.10.2019
5546 Rain 14 1011 87 10000 5.1 170 15:56 25.10.2019
5547 Rain 14 1011 87 10000 5.1 170 15:38 25.10.2019
5548 Clouds 14 1012 82 10000 4.6 180 15:19 25.10.2019
5549 Clouds 14 1011 82 10000 6.2 190 14:42 25.10.2019
5550 Clouds 14 1012 77 10000 4.1 170 14:23 25.10.2019
5551 Clouds 14 1012 77 10000 4.1 170 13:57 25.10.2019
5552 Clouds 14 1013 77 10000 3.6 180 13:38 25.10.2019
5553 Clouds 14 1013 77 10000 3.6 180 13:38 25.10.2019
5554 Clouds 14 1014 82 10000 4.1 170 13:20 25.10.2019
5555 Clouds 13 1014 82 10000 3.6 170 12:42 25.10.2019
5556 Clouds 13 1014 82 10000 2.6 0 12:22 25.10.2019
5557 Clouds 12 1014 82 10000 2.6 0 11:58 25.10.2019
5558 Clouds 12 1015 93 10000 4.6 180 11:38 25.10.2019
5559 Clouds 11 1014 82 10000 3.1 170 11:19 25.10.2019
5560 Clouds 11 1015 82 10000 3.1 190 10:41 25.10.2019
5561 Clouds 10 1015 81 10000 2.1 230 10:23 25.10.2019
5562 Clouds 10 1014 87 10000 2.1 230 09:58 25.10.2019
5563 Clouds 10 1014 87 10000 2.1 230 09:38 25.10.2019
5564 Clouds 9 1014 87 10000 2.6 0 09:19 25.10.2019
5565 Clouds 9 1014 93 10000 4.6 210 08:51 25.10.2019
5566 Clouds 9 1014 93 10000 4.6 210 08:33 25.10.2019
5567 Clouds 9 1014 87 10000 2.1 220 07:57 25.10.2019
5568 Rain 9 1014 87 10000 2.1 220 07:35 25.10.2019
5569 Rain 9 1014 87 10000 1.5 220 06:42 25.10.2019
5570 Clouds 9 1013 87 10000 1.5 230 05:59 25.10.2019
5571 Clouds 9 1013 93 10000 2.6 240 05:37 25.10.2019
5572 Clouds 10 1012 93 10000 3.1 200 04:53 25.10.2019
5573 Rain 10 1012 93 10000 3.6 210 03:45 25.10.2019
5574 Clouds 10 1011 87 10000 3.1 210 01:54 25.10.2019
5575 Clouds 9 1011 87 10000 3.1 210 01:35 25.10.2019
5576 Clouds 10 1011 93 10000 4.6 230 00:26 25.10.2019
5577 Clouds 10 1010 93 10000 4.1 220 23:41 24.10.2019
5578 Clouds 10 1010 100 10000 4.6 220 23:23 24.10.2019
5579 Clouds 10 1010 100 10000 4.6 220 22:57 24.10.2019
5580 Clouds 10 1010 100 10000 4.6 210 22:38 24.10.2019
5581 Clouds 10 1009 100 10000 4.6 220 22:19 24.10.2019
5582 Clouds 10 1009 100 10000 4.6 220 22:19 24.10.2019
5583 Clouds 10 1009 100 10000 5.7 210 21:57 24.10.2019
5584 Clouds 10 1009 100 10000 5.7 210 21:38 24.10.2019
5585 Clouds 10 1009 100 10000 5.7 210 21:38 24.10.2019
5586 Clouds 10 1009 100 10000 6.2 220 21:19 24.10.2019
5587 Clouds 10 1009 100 10000 6.2 220 21:19 24.10.2019
5588 Clouds 11 1008 93 10000 3.1 230 20:57 24.10.2019
5589 Clouds 11 1008 93 10000 3.1 230 20:38 24.10.2019
5590 Clouds 11 1007 93 10000 3.6 230 20:20 24.10.2019
5591 Clouds 11 1007 100 10000 3.6 230 19:55 24.10.2019
5592 Rain 11 1007 100 10000 3.6 230 19:37 24.10.2019
5593 Rain 11 1006 93 10000 5.1 250 19:18 24.10.2019
5594 Rain 11 1006 93 10000 5.7 250 18:41 24.10.2019
5595 Rain 11 1005 87 10000 5.7 250 18:23 24.10.2019
5596 Rain 11 1005 87 10000 3.6 240 17:59 24.10.2019
5597 Rain 11 1005 87 10000 3.6 240 17:40 24.10.2019
5598 Clouds 11 1004 87 10000 3.6 230 17:20 24.10.2019
5599 Rain 11 1004 87 10000 4.1 240 16:56 24.10.2019
5600 Rain 11 1004 87 10000 4.1 240 16:38 24.10.2019
5601 Rain 11 1003 87 6000 5.7 270 16:19 24.10.2019
5602 Rain 11 1003 87 6000 5.7 270 15:58 24.10.2019
5603 Rain 11 1003 87 7000 8.2 280 15:39 24.10.2019
5604 Rain 11 1004 87 5000 4.6 260 15:21 24.10.2019
5605 Rain 11 1004 87 5000 4.6 260 14:57 24.10.2019
5606 Rain 12 1003 93 4200 3.6 260 14:38 24.10.2019
5607 Rain 12 1003 93 2100 3.1 290 14:19 24.10.2019
5608 Drizzle 12 1003 93 1600 0.5 0 13:40 24.10.2019
5609 Drizzle 12 1003 93 2100 2.1 350 13:19 24.10.2019
5610 Drizzle 12 1002 93 2200 1 0 12:57 24.10.2019
5611 Drizzle 12 1002 93 2200 1 0 12:57 24.10.2019
5612 Drizzle 12 1002 93 2200 1 0 12:39 24.10.2019
5613 Rain 12 1003 100 2600 1.5 0 12:19 24.10.2019
5614 Rain 12 1003 100 2500 1 0 11:57 24.10.2019
5615 Rain 12 1003 100 2500 1 0 11:38 24.10.2019
5616 Drizzle 12 1003 100 1600 1.5 300 11:19 24.10.2019
5617 Drizzle 12 1003 100 1600 1.5 300 10:57 24.10.2019
5618 Drizzle 12 1003 93 1900 0.63 233 10:38 24.10.2019
5619 Drizzle 12 1003 100 1600 0.63 233 10:20 24.10.2019
5620 Drizzle 12 1003 93 1600 0.5 0 09:38 24.10.2019
5621 Drizzle 12 1003 93 1600 0.5 0 09:38 24.10.2019
5622 Mist 12 1003 93 2700 1 0 09:18 24.10.2019
5623 Rain 12 1003 93 2100 0.5 0 08:54 24.10.2019
5624 Rain 12 1003 93 2100 0.5 0 08:36 24.10.2019
5625 Drizzle 12 1003 93 1700 1 340 08:18 24.10.2019
5626 Drizzle 12 1004 93 2000 0.5 0 07:42 24.10.2019
5627 Rain 12 1003 93 1800 1 0 07:21 24.10.2019
5628 Drizzle 12 1003 93 1700 0.5 0 06:40 24.10.2019
5629 Mist 12 1004 93 2300 1 0 06:20 24.10.2019
5630 Mist 12 1004 93 2500 0.5 340 05:48 24.10.2019
5631 Mist 12 1004 93 2500 0.5 340 05:28 24.10.2019
5632 Haze 12 1005 93 3300 0.5 0 03:37 24.10.2019
5633 Haze 12 1005 93 3400 1 0 02:55 24.10.2019
5634 Haze 12 1005 93 3600 1 0 02:25 24.10.2019
5635 Haze 12 1005 93 3300 1 0 01:51 24.10.2019
5636 Haze 12 1005 93 3300 1 0 01:27 24.10.2019
5637 Haze 12 1006 93 3400 1 0 00:41 24.10.2019
5638 Haze 12 1006 93 4500 2.1 100 00:23 24.10.2019
5639 Haze 12 1007 93 4600 1.5 90 23:43 23.10.2019
5640 Drizzle 12 1007 93 5000 1.5 70 23:23 23.10.2019
5641 Drizzle 12 1007 93 5000 1.5 70 22:57 23.10.2019
5642 Rain 12 1007 93 5000 1.5 70 22:38 23.10.2019
5643 Clouds 12 1008 93 7000 2.1 100 22:19 23.10.2019
5644 Clouds 12 1008 93 6000 1 0 21:57 23.10.2019
5645 Clouds 12 1008 93 6000 1 0 21:38 23.10.2019
5646 Rain 12 1008 93 6000 3.1 60 21:20 23.10.2019
5647 Rain 12 1008 93 7000 3.6 70 20:58 23.10.2019
5648 Rain 12 1008 93 7000 3.6 70 20:39 23.10.2019
5649 Rain 12 1008 93 7000 3.6 70 20:39 23.10.2019
5650 Rain 12 1008 87 9000 3.1 60 20:20 23.10.2019
5651 Rain 12 1008 100 4000 2.6 50 19:58 23.10.2019
5652 Mist 12 1008 100 4000 2.6 50 19:39 23.10.2019
5653 Clouds 13 1009 87 10000 3.1 100 19:18 23.10.2019
5654 Rain 13 1009 87 10000 3.6 80 18:55 23.10.2019
5655 Rain 13 1009 87 10000 3.6 80 18:36 23.10.2019
5656 Rain 13 1010 82 10000 4.1 90 18:18 23.10.2019
5657 Rain 13 1010 82 10000 5.1 90 17:44 23.10.2019
5658 Rain 13 1010 82 10000 4.1 90 17:20 23.10.2019
5659 Rain 14 1010 82 10000 4.1 90 16:57 23.10.2019
5660 Clouds 14 1011 82 10000 4.6 90 16:38 23.10.2019
5661 Clouds 14 1011 77 10000 5.1 100 16:19 23.10.2019
5662 Clouds 14 1011 77 10000 5.1 100 15:42 23.10.2019
5663 Clouds 14 1012 77 10000 4.6 70 15:23 23.10.2019
5664 Clouds 13 1013 82 10000 5.1 100 14:58 23.10.2019
5665 Clouds 13 1013 82 10000 5.1 100 14:39 23.10.2019
5666 Clouds 13 1013 87 9000 1.5 0 14:20 23.10.2019
5667 Clouds 12 1014 87 9000 1.5 0 13:59 23.10.2019
5668 Clouds 12 1014 87 9000 1.5 0 13:40 23.10.2019
5669 Clouds 12 1014 87 10000 1 0 13:22 23.10.2019
5670 Clouds 11 1015 93 10000 1.5 80 12:56 23.10.2019
5671 Clouds 11 1015 93 10000 1.5 80 12:37 23.10.2019
5672 Clouds 10 1015 93 10000 1.5 70 12:18 23.10.2019
5673 Clouds 9 1016 100 10000 1 0 11:57 23.10.2019
5674 Clouds 9 1016 100 10000 1 0 11:38 23.10.2019
5675 Clouds 8 1016 93 8000 1 340 11:20 23.10.2019
5676 Clouds 8 1016 100 8000 1 0 10:45 23.10.2019
5677 Clouds 7 1017 93 7000 1 0 10:26 23.10.2019
5678 Clouds 7 1017 93 7000 1 0 10:26 23.10.2019
5679 Clouds 7 1017 93 8000 1.5 0 09:57 23.10.2019
5680 Clouds 7 1017 93 8000 1.5 0 09:38 23.10.2019
5681 Fog 5 1017 93 650 1.5 0 09:20 23.10.2019
5682 Rain 4 1017 100 7000 1.5 0 08:43 23.10.2019
5683 Rain 4 1018 100 1000 1 10 08:25 23.10.2019
5684 Rain 4 1018 100 100 1.5 360 07:47 23.10.2019
5685 Fog 4 1018 100 100 1 0 07:25 23.10.2019
5686 Fog 4 1018 100 100 1 0 06:48 23.10.2019
5687 Fog 4 1019 93 250 1 0 06:22 23.10.2019
5688 Mist 4 1019 100 4200 1.5 90 05:55 23.10.2019
5689 Clouds 4 1019 93 8000 1 0 04:59 23.10.2019
5690 Clouds 4 1020 93 8000 1 0 03:36 23.10.2019
5691 Clear 5 1021 93 10000 1 40 02:41 23.10.2019
5692 Clear 5 1021 93 10000 0.5 0 01:34 23.10.2019
5693 Clear 6 1022 87 10000 1.5 0 00:58 23.10.2019
5694 Clear 6 1022 87 10000 0.5 0 00:32 23.10.2019
5695 Clear 6 1022 93 10000 3.6 180 23:42 22.10.2019
5696 Clear 6 1022 81 10000 3.6 170 23:19 22.10.2019
5697 Clear 7 1022 93 10000 3.1 190 22:59 22.10.2019
5698 Clear 7 1022 93 10000 3.1 190 22:40 22.10.2019
5699 Clear 7 1022 87 10000 3.1 180 22:21 22.10.2019
5700 Clear 7 1022 87 10000 2.6 190 21:56 22.10.2019
5701 Clear 7 1022 87 10000 2.6 190 21:38 22.10.2019
5702 Clear 8 1022 81 10000 3.6 170 21:19 22.10.2019
5703 Clear 8 1022 81 10000 2.1 180 20:58 22.10.2019
5704 Clear 8 1022 81 10000 2.1 180 20:58 22.10.2019
5705 Clear 8 1022 81 10000 2.1 180 20:40 22.10.2019
5706 Clear 9 1022 81 10000 2.1 190 20:21 22.10.2019
5707 Clear 10 1023 81 10000 2.1 180 19:56 22.10.2019
5708 Clear 10 1023 81 10000 2.1 180 19:38 22.10.2019
5709 Clear 11 1022 76 10000 2.1 200 19:20 22.10.2019
5710 Clear 11 1023 71 10000 2.6 200 18:55 22.10.2019
5711 Clear 12 1023 71 10000 2.6 200 18:37 22.10.2019
5712 Clear 13 1022 54 10000 2.6 220 18:19 22.10.2019
5713 Clear 14 1023 54 10000 3.1 240 17:54 22.10.2019
5714 Clear 14 1023 54 10000 3.1 240 17:36 22.10.2019
5715 Clear 14 1023 54 10000 3.1 0 17:18 22.10.2019
5716 Clear 14 1023 54 10000 3.1 250 16:39 22.10.2019
5717 Clear 14 1023 54 10000 3.1 250 16:39 22.10.2019
5718 Clear 14 1023 54 10000 2.6 220 16:20 22.10.2019
5719 Clear 14 1023 54 10000 2.6 220 15:59 22.10.2019
5720 Clear 14 1023 54 10000 3.6 260 15:41 22.10.2019
5721 Clear 14 1024 58 10000 3.1 250 15:19 22.10.2019
5722 Clear 14 1024 58 10000 3.1 230 14:46 22.10.2019
5723 Clouds 13 1024 58 10000 3.1 240 14:22 22.10.2019
5724 Clouds 13 1024 66 10000 2.6 310 13:55 22.10.2019
5725 Clouds 13 1024 66 10000 2.6 310 13:37 22.10.2019
5726 Clouds 13 1024 71 10000 1.5 0 13:18 22.10.2019
5727 Clear 12 1024 81 10000 2.1 250 12:54 22.10.2019
5728 Clear 12 1024 81 10000 2.1 250 12:36 22.10.2019
5729 Clear 11 1025 76 10000 1.5 0 12:18 22.10.2019
5730 Clear 10 1025 81 9000 1.5 0 11:40 22.10.2019
5731 Clear 9 1025 87 8000 1.5 0 11:22 22.10.2019
5732 Clear 8 1025 87 8000 1.5 0 10:58 22.10.2019
5733 Clouds 8 1025 93 9000 2.6 220 10:38 22.10.2019
5734 Clouds 7 1024 93 10000 2.6 220 10:19 22.10.2019
5735 Clouds 7 1024 93 10000 2.6 220 10:19 22.10.2019
5736 Clouds 7 1024 93 10000 2.6 220 09:57 22.10.2019
5737 Clear 7 1024 93 9000 2.1 230 09:39 22.10.2019
5738 Clouds 6 1024 93 10000 1.5 0 09:21 22.10.2019
5739 Clouds 6 1023 93 10000 2.1 240 08:43 22.10.2019
5740 Clouds 6 1023 93 10000 2.1 230 08:22 22.10.2019
5741 Clouds 6 1023 93 10000 1.5 240 07:57 22.10.2019
5742 Clouds 6 1023 93 10000 1.5 240 07:39 22.10.2019
5743 Clouds 6 1023 93 6000 1 280 07:20 22.10.2019
5744 Clouds 7 1023 100 6000 1.5 170 06:37 22.10.2019
5745 Clear 7 1023 100 8000 0.5 0 06:19 22.10.2019
5746 Clear 7 1023 87 10000 1.5 300 05:27 22.10.2019
5747 Clouds 8 1023 87 10000 1.5 290 04:19 22.10.2019
5748 Clouds 9 1023 87 10000 1.5 280 02:30 22.10.2019
5749 Clouds 9 1023 87 10000 1.5 310 01:37 22.10.2019
5750 Clouds 10 1023 81 10000 2.1 320 01:18 22.10.2019
5751 Clouds 10 1023 81 10000 2.1 310 00:42 22.10.2019
5752 Clouds 10 1023 81 10000 2.6 300 00:24 22.10.2019
5753 Clouds 10 1023 81 10000 2.6 300 23:58 21.10.2019
5754 Clouds 10 1022 87 10000 3.1 310 23:38 21.10.2019
5755 Rain 10 1022 100 10000 2.6 330 23:19 21.10.2019
5756 Rain 10 1022 100 10000 2.6 330 22:58 21.10.2019
5757 Rain 10 1022 100 10000 3.1 330 22:39 21.10.2019
5758 Clouds 10 1022 100 10000 3.1 330 22:20 21.10.2019
5759 Clouds 10 1022 100 10000 3.1 330 22:20 21.10.2019
5760 Clouds 10 1022 100 10000 3.1 330 21:56 21.10.2019
5761 Clouds 10 1021 100 10000 3.6 340 21:38 21.10.2019
5762 Clouds 10 1021 81 10000 2.1 0 21:19 21.10.2019
5763 Clouds 10 1021 81 10000 2.1 0 21:19 21.10.2019
5764 Clouds 11 1021 81 10000 2.1 0 20:57 21.10.2019
5765 Clouds 11 1021 81 10000 2.1 0 20:57 21.10.2019
5766 Clouds 11 1021 81 10000 2.6 320 20:38 21.10.2019
5767 Clouds 11 1021 81 10000 2.1 330 20:20 21.10.2019
5768 Clouds 11 1020 81 10000 2.1 330 19:55 21.10.2019
5769 Clouds 11 1020 81 10000 2.1 330 19:55 21.10.2019
5770 Clouds 11 1020 81 10000 2.1 330 19:36 21.10.2019
5771 Clouds 11 1020 81 10000 3.1 340 19:18 21.10.2019
5772 Clouds 11 1020 76 10000 3.6 360 18:55 21.10.2019
5773 Rain 11 1020 76 10000 3.6 360 18:36 21.10.2019
5774 Rain 11 1020 76 10000 3.6 360 18:36 21.10.2019
5775 Rain 12 1020 82 10000 3.6 340 18:18 21.10.2019
5776 Rain 12 1020 82 10000 3.6 340 18:18 21.10.2019
5777 Rain 12 1020 82 10000 3.6 340 18:18 21.10.2019
5778 Rain 12 1019 82 10000 3.1 330 17:39 21.10.2019
5779 Rain 12 1019 82 10000 3.1 330 17:39 21.10.2019
5780 Rain 12 1019 82 10000 3.1 340 17:19 21.10.2019
5781 Rain 12 1019 82 10000 3.1 340 16:58 21.10.2019
5782 Rain 12 1019 82 10000 4.1 350 16:40 21.10.2019
5783 Rain 12 1019 82 10000 3.1 330 16:22 21.10.2019
5784 Rain 12 1019 82 10000 3.6 340 15:58 21.10.2019
5785 Rain 12 1019 82 10000 3.6 340 15:39 21.10.2019
5786 Rain 12 1019 82 10000 4.1 350 15:19 21.10.2019
5787 Rain 12 1018 82 10000 4.6 350 14:40 21.10.2019
5788 Clouds 12 1018 82 10000 4.1 340 14:22 21.10.2019
5789 Rain 12 1018 82 10000 4.1 340 13:59 21.10.2019
5790 Rain 12 1018 82 10000 4.6 350 13:41 21.10.2019
5791 Rain 12 1018 82 10000 5.1 340 13:20 21.10.2019
5792 Rain 12 1018 82 10000 5.1 340 13:20 21.10.2019
5793 Rain 12 1018 87 10000 3.6 340 12:58 21.10.2019
5794 Rain 11 1018 87 10000 3.6 340 12:40 21.10.2019
5795 Rain 11 1017 87 10000 3.1 340 12:20 21.10.2019
5796 Rain 11 1017 87 10000 3.6 340 11:54 21.10.2019
5797 Rain 11 1017 87 10000 3.6 340 11:54 21.10.2019
5798 Rain 11 1017 87 10000 3.6 340 11:54 21.10.2019
5799 Rain 11 1017 87 10000 3.6 340 11:36 21.10.2019
5800 Rain 11 1017 87 10000 3.1 350 11:18 21.10.2019
5801 Rain 11 1017 87 10000 3.1 10 10:54 21.10.2019
5802 Rain 11 1017 93 7000 5.7 350 10:36 21.10.2019
5803 Rain 11 1016 93 7000 5.1 350 10:18 21.10.2019
5804 Rain 10 1016 87 10000 4.1 10 09:42 21.10.2019
5805 Rain 10 1015 93 5000 5.7 340 09:22 21.10.2019
5806 Rain 10 1015 93 7000 5.1 340 08:43 21.10.2019
5807 Rain 10 1015 93 7000 5.1 340 08:43 21.10.2019
5808 Rain 10 1015 93 10000 4.6 360 08:23 21.10.2019
5809 Rain 10 1015 93 10000 4.6 360 07:58 21.10.2019
5810 Rain 10 1014 93 10000 3.1 350 07:37 21.10.2019
5811 Rain 10 1014 93 10000 3.6 350 07:18 21.10.2019
5812 Rain 10 1014 93 10000 4.1 340 06:50 21.10.2019
5813 Rain 10 1014 93 10000 4.1 340 06:31 21.10.2019
5814 Rain 10 1014 93 10000 4.1 350 05:43 21.10.2019
5815 Rain 11 1014 87 10000 4.1 10 04:42 21.10.2019
5816 Clouds 10 1014 87 10000 4.1 10 02:41 21.10.2019
5817 Clouds 10 1014 87 10000 2.6 10 02:21 21.10.2019
5818 Clouds 10 1014 87 10000 2.6 10 02:21 21.10.2019
5819 Clouds 10 1014 87 10000 3.1 360 01:49 21.10.2019
5820 Clouds 10 1014 87 10000 2.6 360 01:22 21.10.2019
5821 Clouds 10 1014 87 10000 2.6 350 00:42 21.10.2019
5822 Clouds 10 1014 87 10000 2.6 350 00:42 21.10.2019
5823 Clouds 10 1014 87 10000 2.1 340 00:23 21.10.2019
5824 Clouds 10 1014 87 10000 2.1 340 00:23 21.10.2019
5825 Rain 10 1013 87 10000 3.1 10 23:40 20.10.2019
5826 Rain 10 1013 87 10000 2.6 350 23:22 20.10.2019
5827 Clouds 10 1013 87 10000 3.1 350 22:55 20.10.2019
5828 Clouds 10 1013 87 10000 3.1 350 22:36 20.10.2019
5829 Clouds 10 1013 81 10000 3.1 360 22:18 20.10.2019
5830 Clouds 10 1013 81 10000 3.1 360 21:56 20.10.2019
5831 Rain 10 1013 87 10000 2.6 350 21:38 20.10.2019
5832 Rain 10 1013 87 10000 3.1 360 21:19 20.10.2019
5833 Clouds 10 1012 93 10000 5.7 360 20:39 20.10.2019
5834 Clouds 10 1012 93 10000 5.7 350 20:18 20.10.2019
5835 Rain 10 1012 93 10000 5.7 350 19:56 20.10.2019
5836 Rain 10 1012 93 10000 5.7 350 19:56 20.10.2019
5837 Rain 10 1012 87 10000 5.1 350 19:37 20.10.2019
5838 Rain 10 1012 87 10000 4.6 350 19:19 20.10.2019
5839 Rain 11 1012 76 10000 2.6 360 18:42 20.10.2019
5840 Rain 11 1012 76 10000 2.6 360 18:24 20.10.2019
5841 Rain 11 1012 76 10000 2.6 360 17:59 20.10.2019
5842 Rain 11 1012 76 10000 2.6 360 17:59 20.10.2019
5843 Rain 11 1012 71 10000 3.1 360 17:41 20.10.2019
5844 Rain 11 1011 71 10000 3.1 10 17:22 20.10.2019
5845 Rain 11 1011 71 10000 3.1 10 16:56 20.10.2019
5846 Clouds 12 1011 71 10000 3.6 0 16:38 20.10.2019
5847 Clouds 12 1011 71 10000 3.6 20 16:19 20.10.2019
5848 Clouds 11 1011 76 10000 4.6 10 15:55 20.10.2019
5849 Clouds 12 1011 76 10000 4.6 10 15:37 20.10.2019
5850 Clouds 11 1011 76 10000 3.6 360 15:18 20.10.2019
5851 Clouds 11 1011 76 10000 3.6 360 14:55 20.10.2019
5852 Clouds 11 1010 76 10000 3.6 10 14:37 20.10.2019
5853 Clouds 11 1010 76 10000 3.6 360 14:18 20.10.2019
5854 Clouds 11 1011 81 10000 3.1 340 13:54 20.10.2019
5855 Clouds 11 1011 81 10000 3.1 340 13:54 20.10.2019
5856 Clouds 11 1011 81 10000 3.1 340 13:54 20.10.2019
5857 Clouds 11 1011 81 10000 3.1 340 13:54 20.10.2019
5858 Clouds 11 1011 81 10000 3.1 340 13:36 20.10.2019
5859 Clouds 10 1010 81 10000 2.1 350 13:18 20.10.2019
5860 Clouds 10 1010 81 10000 2.1 350 13:18 20.10.2019
5861 Clouds 10 1010 81 10000 2.6 340 12:54 20.10.2019
5862 Clouds 10 1010 81 10000 2.6 340 12:36 20.10.2019
5863 Clouds 9 1010 81 10000 2.1 360 12:18 20.10.2019
5864 Rain 9 1010 93 10000 2.1 300 11:41 20.10.2019
5865 Rain 8 1010 87 10000 2.1 300 11:23 20.10.2019
5866 Rain 8 1010 87 10000 2.1 300 10:58 20.10.2019
5867 Fog 7 1010 87 10000 2.1 300 10:39 20.10.2019
5868 Mist 7 1009 87 9000 2.1 300 10:21 20.10.2019
5869 Mist 7 1009 87 9000 2.1 300 10:21 20.10.2019
5870 Mist 6 1009 87 9000 2.1 300 09:56 20.10.2019
5871 Mist 6 1009 87 10000 1.5 300 09:37 20.10.2019
5872 Mist 6 1009 93 10000 2.1 290 09:19 20.10.2019
5873 Haze 5 1008 87 10000 1.5 300 08:43 20.10.2019
5874 Mist 5 1008 11 10000 0.5 300 08:22 20.10.2019
5875 Mist 5 1008 93 10000 1.5 290 07:49 20.10.2019
5876 Mist 5 1008 93 10000 1.5 290 07:28 20.10.2019
5877 Mist 5 1007 93 10000 1.5 230 06:31 20.10.2019
5878 Mist 5 1006 93 10000 1.5 230 04:41 20.10.2019
5879 Clouds 5 1006 87 10000 2.1 230 03:59 20.10.2019
5880 Mist 5 1006 87 10000 2.6 250 03:39 20.10.2019
5881 Clear 6 1006 87 10000 2.1 230 03:18 20.10.2019
5882 Clear 6 1006 87 10000 1.5 220 02:28 20.10.2019
5883 Clear 6 1006 81 10000 3.1 230 01:54 20.10.2019
5884 Drizzle 7 1006 81 10000 2.6 230 01:23 20.10.2019
5885 Clouds 7 1005 81 10000 2.6 230 00:53 20.10.2019
5886 Clear 7 1005 93 10000 3.6 260 00:21 20.10.2019
5887 Clear 7 1005 87 10000 3.1 280 23:55 19.10.2019
5888 Clear 7 1005 87 10000 3.1 280 23:37 19.10.2019
5889 Clear 7 1005 87 10000 2.6 230 23:19 19.10.2019
5890 Clear 8 1004 87 10000 2.6 230 22:42 19.10.2019
5891 Clear 8 1004 93 10000 3.1 230 22:23 19.10.2019
5892 Clear 8 1004 93 10000 3.1 230 21:58 19.10.2019
5893 Clear 8 1004 93 10000 2.6 220 21:40 19.10.2019
5894 Clear 9 1003 93 10000 3.6 210 21:20 19.10.2019
5895 Clear 9 1003 87 10000 2.6 200 20:43 19.10.2019
5896 Clear 9 1003 87 10000 2.6 210 20:22 19.10.2019
5897 Clear 10 1003 87 10000 2.6 210 19:56 19.10.2019
5898 Clouds 11 1002 66 10000 2.1 240 19:38 19.10.2019
5899 Clouds 11 1002 76 10000 2.6 230 19:20 19.10.2019
5900 Clouds 12 1002 62 10000 4.1 240 18:41 19.10.2019
5901 Clouds 13 1001 67 10000 4.1 250 18:23 19.10.2019
5902 Rain 14 1001 67 10000 5.1 260 17:55 19.10.2019
5903 Rain 14 1001 67 10000 5.1 260 17:36 19.10.2019
5904 Rain 14 1001 67 10000 5.1 280 17:18 19.10.2019
5905 Clouds 14 1001 58 10000 5.1 260 16:38 19.10.2019
5906 Rain 14 1001 66 10000 4.6 220 16:20 19.10.2019
5907 Rain 14 1000 62 10000 5.1 250 15:44 19.10.2019
5908 Rain 14 1000 62 10000 5.1 250 15:44 19.10.2019
5909 Rain 14 1000 62 10000 5.1 250 15:26 19.10.2019
5910 Rain 14 1000 62 10000 5.1 250 15:26 19.10.2019
5911 Clear 14 1000 62 10000 4.6 240 14:55 19.10.2019
5912 Clear 14 1000 62 10000 4.6 240 14:37 19.10.2019
5913 Clouds 14 1000 67 10000 6.2 240 14:19 19.10.2019
5914 Clouds 14 1000 67 10000 6.2 240 14:19 19.10.2019
5915 Clouds 14 1000 62 10000 5.7 250 13:54 19.10.2019
5916 Clouds 14 1000 62 10000 5.7 250 13:36 19.10.2019
5917 Clouds 14 1000 62 10000 5.7 250 13:36 19.10.2019
5918 Clouds 13 1000 67 10000 5.7 250 13:18 19.10.2019
5919 Clear 13 1000 67 10000 5.1 240 12:39 19.10.2019
5920 Clear 12 1000 71 10000 5.1 250 12:21 19.10.2019
5921 Rain 12 1000 71 10000 5.1 250 11:56 19.10.2019
5922 Rain 11 1000 76 10000 5.1 240 11:37 19.10.2019
5923 Rain 11 1000 81 10000 3.6 220 11:18 19.10.2019
5924 Clouds 10 999 93 10000 5.1 220 10:41 19.10.2019
5925 Clouds 10 999 93 10000 5.1 220 10:23 19.10.2019
5926 Clear 9 999 93 10000 3.1 230 09:59 19.10.2019
5927 Clear 9 998 93 10000 2.6 240 09:40 19.10.2019
5928 Clear 9 998 93 10000 2.6 240 09:22 19.10.2019
5929 Clear 9 998 93 10000 3.1 230 08:56 19.10.2019
5930 Clear 9 998 93 10000 3.1 220 08:37 19.10.2019
5931 Clouds 9 998 87 10000 3.6 200 08:19 19.10.2019
5932 Clouds 9 998 87 10000 4.1 200 07:41 19.10.2019
5933 Clouds 9 998 87 10000 4.1 200 07:23 19.10.2019
5934 Rain 9 999 93 10000 2.1 150 06:36 19.10.2019
5935 Rain 10 998 81 10000 3.1 200 05:51 19.10.2019
5936 Rain 10 998 93 10000 4.6 180 04:54 19.10.2019
5937 Clouds 10 999 93 10000 3.6 210 03:19 19.10.2019
5938 Rain 10 999 76 10000 4.1 210 02:21 19.10.2019
5939 Rain 10 999 81 10000 5.7 210 01:49 19.10.2019
5940 Rain 11 999 93 10000 2.6 210 00:57 19.10.2019
5941 Clouds 11 999 93 10000 4.1 200 00:37 19.10.2019
5942 Rain 11 999 87 10000 4.1 190 00:19 19.10.2019
5943 Rain 11 1000 81 10000 6.7 210 23:39 18.10.2019
5944 Rain 11 1000 81 10000 6.7 210 23:21 18.10.2019
5945 Rain 11 1000 71 10000 4.6 220 22:55 18.10.2019
5946 Rain 11 1000 81 10000 6.7 210 22:37 18.10.2019
5947 Rain 11 1000 81 10000 6.7 210 22:37 18.10.2019
5948 Clear 11 1000 81 10000 7.2 200 22:18 18.10.2019
5949 Clear 11 1000 81 10000 7.2 200 21:56 18.10.2019
5950 Clouds 11 1000 87 10000 5.7 210 21:36 18.10.2019
5951 Rain 11 1001 81 10000 6.7 210 21:18 18.10.2019
5952 Rain 11 1000 71 10000 4.6 210 20:43 18.10.2019
5953 Rain 11 1001 81 10000 6.2 210 20:24 18.10.2019
5954 Rain 11 1001 81 10000 6.2 210 19:59 18.10.2019
5955 Rain 12 999 76 10000 7.2 220 19:41 18.10.2019
5956 Rain 12 1001 81 10000 7.7 200 19:22 18.10.2019
5957 Rain 12 1001 81 10000 7.7 200 19:22 18.10.2019
5958 Rain 12 1001 81 10000 7.7 200 18:59 18.10.2019
5959 Rain 12 1000 71 10000 6.2 230 18:41 18.10.2019
5960 Rain 12 1000 71 10000 6.7 230 18:23 18.10.2019
5961 Rain 13 1000 71 10000 6.7 230 17:57 18.10.2019
5962 Rain 13 1000 62 10000 8.7 240 17:37 18.10.2019
5963 Rain 13 1001 76 10000 9.3 210 17:19 18.10.2019
5964 Clouds 14 1001 76 10000 9.3 220 16:44 18.10.2019
5965 Clouds 14 1001 76 10000 9.3 220 16:43 18.10.2019
5966 Clouds 14 1000 62 10000 7.7 230 16:22 18.10.2019
5967 Rain 14 1000 67 10000 8.2 230 15:58 18.10.2019
5968 Rain 14 1000 67 10000 8.2 230 15:39 18.10.2019
5969 Rain 13 1000 71 10000 6.7 230 15:20 18.10.2019
5970 Rain 13 1000 71 10000 6.7 230 14:57 18.10.2019
5971 Rain 13 1000 67 10000 6.7 230 14:38 18.10.2019
5972 Rain 13 1000 62 10000 8.2 230 14:20 18.10.2019
5973 Rain 14 1000 62 10000 7.2 240 13:57 18.10.2019
5974 Rain 14 1000 62 10000 7.2 240 13:39 18.10.2019
5975 Rain 14 1000 67 10000 6.2 230 13:20 18.10.2019
5976 Rain 13 1000 67 10000 6.2 240 12:56 18.10.2019
5977 Rain 13 1000 67 10000 6.2 240 12:37 18.10.2019
5978 Clouds 12 1000 71 10000 6.7 250 12:19 18.10.2019
5979 Clouds 11 1000 76 10000 6.2 250 11:42 18.10.2019
5980 Clouds 11 1000 76 10000 5.1 240 11:21 18.10.2019
5981 Clouds 10 1000 76 10000 5.1 240 10:59 18.10.2019
5982 Clouds 10 999 81 10000 5.1 250 10:41 18.10.2019
5983 Clouds 9 999 81 10000 5.7 250 10:22 18.10.2019
5984 Clear 9 999 100 10000 4.6 230 09:58 18.10.2019
5985 Clouds 9 999 100 10000 4.6 230 09:40 18.10.2019
5986 Rain 9 998 100 10000 4.6 230 09:20 18.10.2019
5987 Rain 9 998 93 10000 4.6 230 08:47 18.10.2019
5988 Rain 9 998 93 10000 5.1 210 08:26 18.10.2019
5989 Rain 9 998 93 10000 5.1 210 07:59 18.10.2019
5990 Rain 9 997 93 10000 5.1 200 07:41 18.10.2019
5991 Rain 9 997 87 10000 3.6 180 07:19 18.10.2019
5992 Rain 9 998 81 10000 2.6 160 06:39 18.10.2019
5993 Rain 10 998 87 10000 3.1 180 06:20 18.10.2019
5994 Rain 10 998 87 10000 3.1 170 05:54 18.10.2019
5995 Rain 10 999 87 4300 3.1 190 05:21 18.10.2019
5996 Rain 10 1000 87 10000 3.6 140 03:43 18.10.2019
5997 Thunderstorm 10 1001 87 10000 3.6 130 03:23 18.10.2019
5998 Rain 10 1001 87 10000 3.1 160 02:33 18.10.2019
5999 Rain 11 1002 87 10000 3.6 170 01:43 18.10.2019
6000 Rain 11 1002 87 10000 3.1 170 01:25 18.10.2019
6001 Rain 10 1002 87 10000 3.6 180 00:44 18.10.2019
6002 Rain 10 1003 87 10000 3.6 180 00:20 18.10.2019
6003 Rain 10 1003 87 10000 4.1 180 23:54 17.10.2019
6004 Rain 10 1003 87 10000 4.1 180 23:36 17.10.2019
6005 Rain 10 1004 87 10000 3.6 170 23:18 17.10.2019
6006 Rain 11 1004 93 10000 4.6 180 22:54 17.10.2019
6007 Rain 11 1004 93 10000 4.6 180 22:36 17.10.2019
6008 Rain 11 1004 100 10000 4.6 170 22:18 17.10.2019
6009 Rain 11 1004 93 10000 4.1 180 21:54 17.10.2019
6010 Rain 11 1004 93 10000 4.1 180 21:36 17.10.2019
6011 Rain 11 1004 87 10000 3.1 180 21:18 17.10.2019
6012 Rain 11 1004 87 10000 4.1 0 20:54 17.10.2019
6013 Rain 11 1004 87 10000 4.1 0 20:36 17.10.2019
6014 Rain 12 1004 82 9000 5.1 200 20:18 17.10.2019
6015 Rain 12 1004 93 6000 5.7 240 19:41 17.10.2019
6016 Rain 12 1005 100 10000 5.1 190 19:20 17.10.2019
6017 Rain 12 1005 100 10000 5.1 190 19:20 17.10.2019
6018 Rain 12 1005 100 10000 5.1 190 19:20 17.10.2019
6019 Rain 12 1005 100 10000 5.1 190 18:58 17.10.2019
6020 Rain 13 1003 71 10000 3.6 220 18:38 17.10.2019
6021 Rain 13 1004 77 10000 4.1 200 18:20 17.10.2019
6022 Clouds 13 1004 77 10000 3.6 210 17:43 17.10.2019
6023 Rain 14 1004 77 10000 4.6 210 17:24 17.10.2019
6024 Rain 14 1004 77 10000 4.6 210 16:58 17.10.2019
6025 Rain 14 1005 82 10000 4.6 210 16:40 17.10.2019
6026 Rain 14 1005 82 10000 4.6 210 16:40 17.10.2019
6027 Rain 14 1005 82 10000 4.1 210 16:19 17.10.2019
6028 Rain 14 1005 82 10000 3.1 220 15:57 17.10.2019
6029 Rain 14 1005 82 10000 3.1 220 15:38 17.10.2019
6030 Rain 14 1005 72 10000 5.7 200 15:20 17.10.2019
6031 -273 0 0 0 0 0 14:56 17.10.2019
6032 Rain 13 1005 72 10000 6.2 180 14:38 17.10.2019
6033 Rain 13 1006 77 10000 3.6 170 14:20 17.10.2019
6034 Rain 13 1006 82 10000 2.6 170 13:40 17.10.2019
6035 Rain 13 1006 71 10000 3.6 170 13:20 17.10.2019
6036 Rain 13 1006 71 10000 3.6 170 12:58 17.10.2019
6037 Clouds 13 1007 62 10000 3.6 190 12:38 17.10.2019
6038 Rain 13 1007 67 10000 4.1 170 12:19 17.10.2019
6039 Rain 12 1007 71 10000 3.1 180 11:55 17.10.2019
6040 -273 0 0 0 0 0 11:55 17.10.2019
6041 -273 0 0 0 0 0 11:55 17.10.2019
6042 Rain 12 1007 71 10000 3.1 180 11:37 17.10.2019
6043 Rain 12 1007 71 10000 3.1 150 11:18 17.10.2019
6044 Rain 11 1007 76 10000 2.6 170 10:42 17.10.2019
6045 Rain 11 1007 76 10000 2.6 170 10:42 17.10.2019
6046 Rain 10 1007 76 10000 3.1 170 10:19 17.10.2019
6047 Rain 9 1007 93 10000 4.1 180 09:57 17.10.2019
6048 Rain 9 1007 93 10000 4.6 170 09:38 17.10.2019
6049 Rain 8 1007 81 10000 1.5 0 09:19 17.10.2019
6050 Rain 8 1007 81 10000 1.5 0 08:56 17.10.2019
6051 Clouds 8 1006 100 10000 1.5 140 08:37 17.10.2019
6052 Clouds 8 1007 81 10000 1.5 0 08:18 17.10.2019
6053 Clouds 8 1007 81 10000 1.5 0 08:18 17.10.2019
6054 Clouds 8 1007 87 10000 1.5 0 07:43 17.10.2019
6055 Clouds 8 1007 100 10000 1 140 07:21 17.10.2019
6056 Clouds 8 1007 100 10000 1 140 07:21 17.10.2019
6057 Clouds 8 1007 100 10000 1 170 06:56 17.10.2019
6058 Clouds 8 1007 100 10000 1 170 06:38 17.10.2019
6059 Clouds 8 1007 93 10000 1 170 06:19 17.10.2019
6060 Clouds 8 1007 81 10000 2.1 230 05:41 17.10.2019
6061 Clouds 8 1007 87 10000 2.1 220 05:20 17.10.2019
6062 Rain 8 1007 81 10000 2.1 230 04:48 17.10.2019
6063 Rain 9 1007 87 10000 2.1 220 03:49 17.10.2019
6064 Rain 9 1007 87 10000 2.1 220 03:49 17.10.2019
6065 Clouds 10 1007 81 10000 2.6 230 02:32 17.10.2019
6066 Clouds 9 1006 81 10000 3.1 230 00:43 17.10.2019
6067 Clouds 9 1006 81 10000 2.1 220 00:21 17.10.2019
6068 Clouds 9 1006 81 10000 2.1 220 23:59 16.10.2019
6069 Clouds 9 1006 76 10000 2.6 220 23:41 16.10.2019
6070 Clouds 9 1006 81 10000 2.6 220 23:19 16.10.2019
6071 Clouds 9 1006 81 10000 2.6 220 23:19 16.10.2019
6072 Clouds 9 1005 93 10000 0.5 330 22:55 16.10.2019
6073 Clouds 9 1005 93 10000 0.5 330 22:36 16.10.2019
6074 Clouds 9 1005 93 10000 0.5 330 22:36 16.10.2019
6075 Clouds 9 1005 66 10000 3.1 250 22:18 16.10.2019
6076 Clouds 10 1005 87 10000 2.1 230 21:55 16.10.2019
6077 Clouds 10 1005 87 10000 2.1 230 21:37 16.10.2019
6078 Clouds 10 1005 87 10000 2.1 220 21:18 16.10.2019
6079 Clouds 10 1005 87 10000 2.1 220 20:56 16.10.2019
6080 Clouds 10 1004 87 10000 2.1 220 20:38 16.10.2019
6081 Clouds 11 1004 87 10000 2.1 220 20:19 16.10.2019
6082 Clouds 11 1004 81 10000 1.5 0 19:42 16.10.2019
6083 Rain 12 1004 76 10000 2.1 250 19:21 16.10.2019
6084 Rain 12 1004 76 10000 2.1 250 19:21 16.10.2019
6085 Rain 12 1004 76 10000 2.1 250 18:59 16.10.2019
6086 Clouds 13 1003 58 10000 4.1 260 18:39 16.10.2019
6087 Clouds 13 1003 58 10000 5.1 260 18:19 16.10.2019
6088 Clouds 14 1003 58 10000 5.7 260 17:56 16.10.2019
6089 Clouds 14 1003 58 10000 5.7 260 17:38 16.10.2019
6090 Clouds 14 1003 58 10000 5.7 260 17:38 16.10.2019
6091 Rain 14 1003 82 10000 3.1 240 17:19 16.10.2019
6092 Rain 14 1003 82 10000 3.1 240 17:19 16.10.2019
6093 Clouds 14 1003 59 10000 5.7 260 16:58 16.10.2019
6094 Clouds 14 1003 59 10000 4.6 250 16:39 16.10.2019
6095 Clouds 14 1003 59 10000 5.7 240 16:20 16.10.2019
6096 Clouds 14 1003 67 10000 5.1 250 15:55 16.10.2019
6097 Clouds 14 1003 67 10000 5.1 250 15:36 16.10.2019
6098 Clouds 14 1002 72 10000 6.2 250 15:18 16.10.2019
6099 Clouds 14 1002 72 10000 6.2 250 15:18 16.10.2019
6100 Clouds 15 1002 72 10000 6.2 250 14:55 16.10.2019
6101 Rain 14 1002 72 10000 6.2 250 14:37 16.10.2019
6102 Rain 14 1002 72 10000 6.2 250 14:37 16.10.2019
6103 Rain 14 1002 77 10000 5.7 260 14:18 16.10.2019
6104 Rain 14 1002 77 10000 5.1 240 13:55 16.10.2019
6105 Clouds 14 1002 77 10000 5.1 240 13:36 16.10.2019
6106 Clouds 14 1002 82 10000 4.6 250 13:18 16.10.2019
6107 Rain 14 1002 87 10000 6.7 260 12:40 16.10.2019
6108 Rain 14 1001 82 10000 8.2 260 12:18 16.10.2019
6109 Rain 14 1001 93 10000 5.1 210 11:43 16.10.2019
6110 Clouds 14 1000 88 10000 4.6 220 11:18 16.10.2019
6111 Clouds 14 1000 93 10000 4.1 200 10:39 16.10.2019
6112 Rain 14 1000 93 10000 2.6 130 10:20 16.10.2019
6113 Rain 14 1000 87 10000 3.1 130 09:56 16.10.2019
6114 Rain 14 1000 87 10000 3.1 130 09:38 16.10.2019
6115 Rain 14 1000 87 10000 3.6 150 09:19 16.10.2019
6116 Clouds 14 1000 93 10000 4.6 150 08:43 16.10.2019
6117 Clouds 14 1001 93 10000 4.6 150 08:24 16.10.2019
6118 Rain 13 1001 93 10000 3.6 140 07:55 16.10.2019
6119 Rain 13 1001 93 10000 3.6 140 07:37 16.10.2019
6120 Rain 13 1001 87 9000 4.1 140 07:18 16.10.2019
6121 Rain 13 1002 87 10000 4.1 130 06:40 16.10.2019
6122 Rain 13 1003 87 10000 3.6 130 05:56 16.10.2019
6123 Rain 11 1005 82 10000 2.6 150 03:33 16.10.2019
6124 Rain 10 1005 81 10000 1.5 0 02:50 16.10.2019
6125 Clouds 10 1005 93 10000 2.1 180 01:20 16.10.2019
6126 Clouds 10 1006 87 10000 2.6 220 00:54 16.10.2019
6127 Clouds 10 1006 87 10000 2.6 220 00:35 16.10.2019
6128 Clear 10 1006 93 10000 4.1 210 23:42 15.10.2019
6129 Clear 11 1006 100 10000 4.6 210 23:22 15.10.2019
6130 Clear 11 1006 82 10000 2.6 230 22:58 15.10.2019
6131 Clear 11 1006 87 10000 2.6 230 22:40 15.10.2019
6132 Clear 11 1005 87 10000 3.1 220 22:21 15.10.2019
6133 Clear 11 1005 87 10000 3.1 220 21:57 15.10.2019
6134 Clear 11 1006 93 10000 5.1 200 21:38 15.10.2019
6135 Rain 11 1006 93 10000 4.6 190 21:20 15.10.2019
6136 Rain 11 1006 93 10000 4.6 190 21:20 15.10.2019
6137 Rain 12 1005 82 10000 3.6 210 20:58 15.10.2019
6138 Rain 12 1006 93 10000 4.1 200 20:40 15.10.2019
6139 Clouds 12 1005 93 10000 3.1 180 20:22 15.10.2019
6140 Clouds 13 1005 93 10000 3.1 180 19:59 15.10.2019
6141 Clouds 13 1005 87 10000 4.1 210 19:41 15.10.2019
6142 Clouds 13 1005 87 10000 3.6 200 19:20 15.10.2019
6143 Clouds 14 1004 72 10000 4.1 0 18:57 15.10.2019
6144 Clouds 15 1004 72 10000 4.1 0 18:39 15.10.2019
6145 Clouds 15 1004 72 10000 4.1 220 18:20 15.10.2019
6146 Clouds 15 1004 67 10000 2.6 200 17:42 15.10.2019
6147 Clouds 15 1004 67 10000 2.6 200 17:41 15.10.2019
6148 Clouds 15 1004 67 10000 2.6 200 17:41 15.10.2019
6149 Rain 16 1004 63 10000 3.6 210 17:21 15.10.2019
6150 Rain 16 1004 63 10000 3.6 210 16:59 15.10.2019
6151 Clouds 16 1004 63 10000 3.1 220 16:40 15.10.2019
6152 -273 0 0 0 0 0 16:21 15.10.2019
6153 Clouds 16 1004 67 10000 3.6 250 15:55 15.10.2019
6154 Clouds 16 1004 67 10000 3.6 250 15:37 15.10.2019
6155 Clouds 16 1004 67 10000 3.6 270 15:19 15.10.2019
6156 Clouds 15 1004 72 10000 3.1 280 14:38 15.10.2019
6157 Clouds 15 1004 77 10000 3.6 270 14:20 15.10.2019
6158 Clouds 15 1004 77 10000 3.6 270 13:59 15.10.2019
6159 Clouds 14 1005 77 10000 2.6 240 13:40 15.10.2019
6160 Clouds 14 1004 82 10000 2.6 230 13:20 15.10.2019
6161 Clouds 13 1004 82 10000 2.1 210 12:44 15.10.2019
6162 Clouds 13 1004 87 10000 1.5 0 12:22 15.10.2019
6163 Clouds 13 1004 87 10000 1.5 0 11:59 15.10.2019
6164 Clouds 12 1004 87 10000 2.1 0 11:40 15.10.2019
6165 Rain 12 1004 93 10000 2.6 210 11:19 15.10.2019
6166 Rain 11 1004 93 10000 1.5 0 10:46 15.10.2019
6167 Rain 11 1004 87 10000 1.5 270 10:24 15.10.2019
6168 Rain 11 1003 87 7000 3.6 250 09:59 15.10.2019
6169 Rain 11 1003 87 7000 3.6 250 09:40 15.10.2019
6170 Drizzle 11 1003 87 10000 2.6 250 09:21 15.10.2019
6171 Drizzle 11 1003 87 10000 2.6 250 08:57 15.10.2019
6172 Mist 11 1003 87 10000 3.6 260 08:39 15.10.2019
6173 Drizzle 11 1003 87 10000 4.1 250 08:19 15.10.2019
6174 Rain 11 1003 87 10000 4.1 250 07:43 15.10.2019
6175 Rain 11 1003 87 10000 4.1 250 07:43 15.10.2019
6176 Mist 11 1003 87 10000 4.1 240 07:22 15.10.2019
6177 Mist 11 1003 87 10000 2.6 250 06:56 15.10.2019
6178 Mist 11 1003 87 10000 2.6 250 06:37 15.10.2019
6179 Mist 11 1002 87 10000 4.6 250 05:56 15.10.2019
6180 Mist 11 1002 87 10000 4.6 250 05:36 15.10.2019
6181 Mist 11 1002 87 10000 4.6 240 04:48 15.10.2019
6182 Clouds 11 1002 87 10000 7.2 250 04:18 15.10.2019
6183 Clouds 11 1002 87 10000 6.2 250 03:35 15.10.2019
6184 Drizzle 12 1001 82 10000 5.7 230 01:52 15.10.2019
6185 Drizzle 12 1001 82 10000 5.7 230 01:52 15.10.2019
6186 Drizzle 12 1001 82 10000 5.7 230 01:31 15.10.2019
6187 Rain 13 1000 87 10000 4.6 210 00:59 15.10.2019
6188 Clouds 13 999 87 10000 5.1 210 00:25 15.10.2019
6189 Drizzle 14 999 87 10000 5.1 210 23:59 14.10.2019
6190 Rain 14 1000 100 10000 7.2 200 23:37 14.10.2019
6191 Rain 15 1000 100 10000 7.2 180 23:18 14.10.2019
6192 Rain 15 999 100 8000 3.6 160 22:39 14.10.2019
6193 Rain 15 1000 93 9000 3.1 130 22:21 14.10.2019
6194 Mist 15 1000 93 7000 2.6 110 21:58 14.10.2019
6195 Mist 15 1000 93 7000 2.6 110 21:40 14.10.2019
6196 Rain 15 1000 93 6000 2.6 110 21:21 14.10.2019
6197 Rain 15 1000 93 6000 2.6 110 20:58 14.10.2019
6198 Rain 15 999 93 5000 4.6 80 20:38 14.10.2019
6199 Rain 15 1001 93 4400 4.6 100 20:19 14.10.2019
6200 Rain 15 1001 87 4000 5.1 110 19:55 14.10.2019
6201 Rain 14 1001 87 4000 5.1 110 19:37 14.10.2019
6202 Rain 14 1001 93 6000 4.6 90 19:19 14.10.2019
6203 Rain 14 1002 87 6000 3.1 110 18:57 14.10.2019
6204 Rain 14 1002 87 6000 3.1 110 18:37 14.10.2019
6205 Rain 14 1001 87 8000 5.7 100 18:18 14.10.2019
6206 Rain 14 1002 87 10000 6.2 100 17:41 14.10.2019
6207 Drizzle 14 1002 87 10000 5.7 110 17:23 14.10.2019
6208 Drizzle 13 1003 82 10000 8.2 100 16:56 14.10.2019
6209 Drizzle 13 1003 87 10000 8.2 100 16:38 14.10.2019
6210 Drizzle 13 1003 87 10000 8.2 100 16:19 14.10.2019
6211 Drizzle 12 1004 82 10000 8.7 100 15:41 14.10.2019
6212 Rain 12 1005 87 10000 9.3 100 15:22 14.10.2019
6213 Rain 12 1005 87 10000 6.7 80 14:44 14.10.2019
6214 Drizzle 12 1005 93 10000 6.7 80 14:26 14.10.2019
6215 Drizzle 12 1005 93 10000 6.7 80 13:59 14.10.2019
6216 Rain 12 1006 93 10000 6.2 70 13:40 14.10.2019
6217 Rain 12 1007 93 10000 5.7 80 13:21 14.10.2019
6218 Rain 12 1007 93 10000 5.7 80 13:21 14.10.2019
6219 Rain 12 1008 87 10000 4.6 70 12:42 14.10.2019
6220 Rain 12 1008 87 10000 5.7 80 12:21 14.10.2019
6221 Rain 12 1008 87 10000 4.6 70 11:57 14.10.2019
6222 Rain 12 1008 93 10000 4.1 80 11:39 14.10.2019
6223 Rain 12 1009 93 10000 3.1 70 11:20 14.10.2019
6224 Rain 11 1010 87 10000 3.1 80 10:44 14.10.2019
6225 Rain 11 1010 93 10000 3.6 80 10:23 14.10.2019
6226 Rain 11 1010 93 10000 3.6 100 09:59 14.10.2019
6227 -273 0 0 0 0 0 09:40 14.10.2019
6228 Rain 11 1010 93 10000 3.6 100 09:40 14.10.2019
6229 Rain 11 1010 93 10000 3.1 100 09:20 14.10.2019
6230 Rain 11 1010 93 10000 2.1 70 08:48 14.10.2019
6231 Rain 11 1010 93 10000 2.6 100 08:23 14.10.2019
6232 Rain 10 1010 93 10000 2.6 70 07:45 14.10.2019
6233 Rain 10 1010 93 10000 2.6 100 07:23 14.10.2019
6234 Rain 10 1011 93 10000 2.6 100 06:56 14.10.2019
6235 Rain 10 1011 93 10000 1.5 80 06:28 14.10.2019
6236 Rain 10 1011 87 10000 1.5 80 05:55 14.10.2019
6237 Clouds 10 1010 87 10000 2.1 100 04:59 14.10.2019
6238 Clouds 10 1011 93 10000 2.1 180 03:50 14.10.2019
6239 Clouds 10 1011 81 10000 2.1 230 03:23 14.10.2019
6240 Clouds 10 1011 93 10000 2.6 180 02:25 14.10.2019
6241 Clouds 10 1011 81 10000 2.1 220 01:19 14.10.2019
6242 Clouds 10 1011 81 10000 2.1 230 00:42 14.10.2019
6243 Clouds 10 1011 87 10000 2.6 220 00:18 14.10.2019
6244 Clouds 10 1010 87 10000 2.1 190 23:40 13.10.2019
6245 Clouds 10 1010 81 10000 2.1 220 23:19 13.10.2019
6246 Clouds 10 1010 81 10000 2.1 220 22:57 13.10.2019
6247 Clouds 10 1009 76 10000 3.1 230 22:38 13.10.2019
6248 Clear 11 1009 87 10000 3.6 220 22:19 13.10.2019
6249 Clear 11 1009 81 10000 3.1 230 21:57 13.10.2019
6250 Clear 11 1009 81 10000 3.1 230 21:36 13.10.2019
6251 Clouds 12 1008 67 10000 6.2 250 21:18 13.10.2019
6252 Clouds 12 1008 81 10000 4.6 230 20:56 13.10.2019
6253 Clouds 12 1008 81 10000 4.6 230 20:37 13.10.2019
6254 Clouds 12 1008 81 10000 4.6 230 20:37 13.10.2019
6255 Clouds 12 1008 81 10000 4.6 240 20:18 13.10.2019
6256 Clouds 13 1006 67 10000 8.7 260 19:55 13.10.2019
6257 Clouds 13 1006 67 10000 8.7 260 19:36 13.10.2019
6258 Clouds 13 1006 67 10000 8.7 260 19:36 13.10.2019
6259 Clouds 14 1006 87 10000 5.1 230 19:18 13.10.2019
6260 Clouds 14 1005 72 10000 6.2 250 18:41 13.10.2019
6261 Clouds 15 1005 82 10000 6.7 230 18:21 13.10.2019
6262 Rain 15 1005 82 10000 6.7 230 17:59 13.10.2019
6263 Rain 15 1004 87 10000 7.7 210 17:41 13.10.2019
6264 Clouds 15 1004 87 10000 7.7 220 17:23 13.10.2019
6265 Clouds 15 1003 77 10000 6.7 240 16:45 13.10.2019
6266 Clouds 15 1003 77 10000 6.7 240 16:45 13.10.2019
6267 Clouds 15 1002 77 10000 6.7 240 16:20 13.10.2019
6268 Rain 15 1002 77 10000 7.2 240 15:59 13.10.2019
6269 Rain 15 1002 77 10000 7.2 240 15:59 13.10.2019
6270 Rain 15 1002 77 10000 7.2 240 15:39 13.10.2019
6271 Rain 15 1001 77 10000 6.2 220 15:21 13.10.2019
6272 Rain 15 1001 82 10000 9.3 230 14:59 13.10.2019
6273 Rain 15 1001 82 10000 9.3 230 14:40 13.10.2019
6274 Rain 15 1001 93 8000 9.8 210 14:22 13.10.2019
6275 Rain 16 1001 93 8000 9.8 210 13:59 13.10.2019
6276 Rain 16 1000 77 10000 6.2 210 13:38 13.10.2019
6277 Rain 16 1001 87 10000 12.3 200 13:20 13.10.2019
6278 Rain 16 1000 77 10000 6.7 200 12:56 13.10.2019
6279 Rain 16 1000 77 10000 6.7 200 12:38 13.10.2019
6280 Rain 16 1000 77 10000 5.1 190 12:19 13.10.2019
6281 Rain 16 1000 82 10000 5.1 180 11:56 13.10.2019
6282 Rain 16 1000 82 10000 5.1 180 11:38 13.10.2019
6283 Rain 15 1001 82 10000 4.6 170 11:19 13.10.2019
6284 Clouds 15 1001 82 10000 4.1 180 10:42 13.10.2019
6285 Mist 15 1001 87 10000 3.6 180 10:23 13.10.2019
6286 Mist 15 1001 87 10000 3.6 180 09:57 13.10.2019
6287 Mist 14 1001 87 10000 3.1 170 09:38 13.10.2019
6288 Mist 14 1001 93 10000 3.6 160 09:19 13.10.2019
6289 Mist 13 1001 93 5000 3.1 110 08:43 13.10.2019
6290 Rain 13 1002 100 5000 2.6 110 08:22 13.10.2019
6291 Rain 12 1002 93 4800 2.6 100 07:46 13.10.2019
6292 Rain 12 1003 93 8000 3.6 100 07:23 13.10.2019
6293 Rain 12 1003 93 7000 3.6 70 06:46 13.10.2019
6294 Rain 11 1004 100 7000 2.6 70 05:50 13.10.2019
6295 Rain 11 1005 100 5000 3.6 70 04:52 13.10.2019
6296 Rain 11 1005 100 5000 3.6 70 04:33 13.10.2019
6297 Rain 11 1006 93 3500 3.6 80 02:47 13.10.2019
6298 Rain 11 1007 93 3900 4.1 90 02:23 13.10.2019
6299 Rain 11 1007 93 3600 2.6 100 01:34 13.10.2019
6300 Rain 11 1007 93 3600 2.6 100 01:34 13.10.2019
6301 Rain 11 1008 93 9000 2.6 100 00:52 13.10.2019
6302 Rain 11 1008 93 6000 1.5 110 00:22 13.10.2019
6303 Rain 11 1008 93 6000 1.5 110 23:59 12.10.2019
6304 Rain 11 1008 93 10000 2.6 110 23:40 12.10.2019
6305 Rain 11 1008 93 10000 2.6 110 23:40 12.10.2019
6306 Rain 11 1008 93 10000 1.5 120 23:21 12.10.2019
6307 Rain 11 1008 93 10000 1.5 0 22:58 12.10.2019
6308 Rain 11 1008 93 10000 1.5 0 22:40 12.10.2019
6309 Rain 11 1009 93 10000 1.5 0 22:21 12.10.2019
6310 Rain 11 1009 93 10000 1 0 21:56 12.10.2019
6311 Rain 11 1009 93 10000 1 0 21:38 12.10.2019
6312 Rain 11 1008 93 10000 1 0 21:20 12.10.2019
6313 Rain 11 1008 93 10000 1.5 0 20:45 12.10.2019
6314 Rain 11 1008 100 10000 2.6 150 20:27 12.10.2019
6315 Rain 12 1008 87 10000 1.5 0 19:42 12.10.2019
6316 Rain 12 1008 87 10000 2.1 150 19:23 12.10.2019
6317 Rain 12 1008 93 10000 1.5 0 18:59 12.10.2019
6318 Rain 12 1008 93 10000 1.5 0 18:41 12.10.2019
6319 Rain 12 1008 87 10000 1.5 0 18:23 12.10.2019
6320 Rain 12 1009 87 10000 1.5 160 17:45 12.10.2019
6321 Rain 12 1009 87 10000 2.1 190 17:21 12.10.2019
6322 Rain 12 1009 87 10000 2.1 170 16:57 12.10.2019
6323 Rain 12 1009 87 10000 2.1 170 16:57 12.10.2019
6324 Rain 12 1009 87 10000 2.1 170 16:38 12.10.2019
6325 Rain 12 1009 87 10000 2.6 160 16:19 12.10.2019
6326 Rain 13 1009 87 10000 2.1 160 15:45 12.10.2019
6327 Rain 12 1009 87 10000 1.5 0 15:26 12.10.2019
6328 Rain 12 1009 87 10000 1.5 0 14:59 12.10.2019
6329 Rain 12 1009 87 10000 1.5 220 14:38 12.10.2019
6330 Rain 12 1009 82 10000 2.1 240 14:20 12.10.2019
6331 Rain 12 1009 82 10000 2.1 250 13:49 12.10.2019
6332 Rain 12 1009 82 10000 2.1 250 13:31 12.10.2019
6333 Rain 12 1009 93 10000 3.1 250 12:55 12.10.2019
6334 Rain 12 1009 93 10000 3.1 250 12:37 12.10.2019
6335 Rain 12 1009 87 10000 2.6 260 12:18 12.10.2019
6336 Rain 11 1009 87 10000 3.1 250 11:41 12.10.2019
6337 Rain 11 1008 87 10000 3.6 250 11:22 12.10.2019
6338 Rain 11 1008 87 10000 3.6 240 10:57 12.10.2019
6339 Rain 11 1008 87 10000 3.6 240 10:38 12.10.2019
6340 Rain 11 1008 93 10000 2.6 220 10:19 12.10.2019
6341 Rain 11 1008 93 10000 2.6 220 09:56 12.10.2019
6342 Rain 11 1008 93 10000 2.6 230 09:37 12.10.2019
6343 Rain 10 1008 93 10000 2.1 220 09:19 12.10.2019
6344 Rain 11 1007 93 10000 2.1 240 08:43 12.10.2019
6345 Rain 10 1007 87 10000 3.6 230 08:23 12.10.2019
6346 Rain 10 1007 87 10000 3.1 240 07:49 12.10.2019
6347 Clouds 11 1007 87 10000 2.6 240 07:30 12.10.2019
6348 Clouds 11 1007 93 10000 2.1 260 06:27 12.10.2019
6349 Rain 11 1007 87 10000 2.6 220 05:42 12.10.2019
6350 Rain 11 1007 93 7000 3.1 240 04:34 12.10.2019
6351 Rain 11 1007 87 8000 3.1 230 03:53 12.10.2019
6352 Rain 11 1007 93 10000 3.1 260 02:45 12.10.2019
6353 Rain 12 1007 93 10000 4.1 270 01:32 12.10.2019
6354 Rain 12 1007 93 10000 4.1 270 01:32 12.10.2019
6355 Rain 12 1006 93 10000 3.6 230 00:55 12.10.2019
6356 Rain 12 1006 93 10000 3.6 230 00:55 12.10.2019
6357 Rain 12 1006 93 10000 3.6 230 00:37 12.10.2019
6358 Rain 12 1005 93 10000 3.6 230 23:55 11.10.2019
6359 Rain 13 1006 87 10000 3.1 240 23:36 11.10.2019
6360 Rain 13 1005 87 10000 2.6 260 23:18 11.10.2019
6361 Rain 13 1006 87 10000 3.6 250 22:37 11.10.2019
6362 Rain 13 1005 93 9000 5.1 250 22:19 11.10.2019
6363 Rain 14 1005 93 6000 5.1 250 21:43 11.10.2019
6364 Rain 14 1005 87 2000 9.8 260 21:21 11.10.2019
6365 Rain 15 1005 100 3000 8.2 220 20:57 11.10.2019
6366 Rain 15 1005 100 3000 8.2 220 20:39 11.10.2019
6367 Drizzle 15 1005 100 8000 7.7 220 20:20 11.10.2019
6368 Drizzle 15 1005 100 9000 8.7 220 19:55 11.10.2019
6369 Drizzle 15 1005 100 9000 8.7 220 19:37 11.10.2019
6370 Drizzle 16 1005 100 9000 8.7 220 19:37 11.10.2019
6371 Rain 16 1004 82 10000 8.7 240 19:18 11.10.2019
6372 Rain 16 1004 82 10000 8.7 240 19:18 11.10.2019
6373 Rain 16 1004 82 10000 8.7 240 19:18 11.10.2019
6374 Rain 16 1004 82 10000 8.7 240 19:18 11.10.2019
6375 Rain 16 1004 82 10000 8.7 240 19:18 11.10.2019
6376 Rain 16 1004 82 10000 8.7 230 18:56 11.10.2019
6377 Rain 16 1004 82 10000 8.7 230 18:37 11.10.2019
6378 Rain 16 1004 82 10000 8.2 230 18:18 11.10.2019
6379 Rain 16 1004 82 10000 7.2 230 17:57 11.10.2019
6380 Rain 16 1004 82 10000 7.2 230 17:37 11.10.2019
6381 Drizzle 16 1006 93 9000 9.8 210 17:18 11.10.2019
6382 Drizzle 16 1006 93 9000 9.8 210 17:18 11.10.2019
6383 Rain 16 1005 82 10000 9.8 230 16:41 11.10.2019
6384 Rain 16 1005 82 10000 8.7 230 16:21 11.10.2019
6385 Rain 16 1005 77 10000 7.7 230 15:59 11.10.2019
6386 Rain 16 1005 77 10000 7.7 230 15:39 11.10.2019
6387 Rain 16 1005 82 10000 8.2 230 15:19 11.10.2019
6388 Rain 16 1005 82 10000 7.7 230 14:48 11.10.2019
6389 Rain 16 1005 82 10000 7.7 230 14:29 11.10.2019
6390 Rain 16 1006 82 10000 6.7 230 13:57 11.10.2019
6391 Rain 16 1006 82 10000 6.7 230 13:39 11.10.2019
6392 Rain 16 1006 82 10000 6.7 230 13:21 11.10.2019
6393 Rain 16 1006 82 10000 7.7 230 12:56 11.10.2019
6394 Rain 15 1007 93 4000 9.8 210 12:38 11.10.2019
6395 Rain 15 1007 100 10000 9.3 210 12:19 11.10.2019
6396 Rain 15 1006 87 5000 6.7 220 11:41 11.10.2019
6397 Rain 15 1006 87 5000 6.7 220 11:41 11.10.2019
6398 Rain 15 1006 87 5000 6.7 220 11:41 11.10.2019
6399 Rain 15 1007 87 10000 6.7 230 11:22 11.10.2019
6400 Rain 15 1007 87 10000 6.7 230 11:22 11.10.2019
6401 Rain 15 1007 87 9000 5.7 220 10:59 11.10.2019
6402 Rain 15 1007 87 9000 5.7 220 10:41 11.10.2019
6403 Rain 15 1008 93 5000 9.3 210 10:23 11.10.2019
6404 Rain 15 1008 93 5000 9.8 210 09:56 11.10.2019
6405 Drizzle 15 1008 93 5000 9.8 210 09:37 11.10.2019
6406 Drizzle 15 1008 93 3500 8.7 210 09:19 11.10.2019
6407 Drizzle 15 1006 93 10000 6.2 220 08:55 11.10.2019
6408 Drizzle 15 1006 93 10000 6.2 220 08:37 11.10.2019
6409 Drizzle 15 1007 87 10000 6.2 220 08:19 11.10.2019
6410 Rain 15 1008 100 4000 8.7 210 07:44 11.10.2019
6411 Rain 15 1007 93 10000 6.2 210 07:25 11.10.2019
6412 Rain 15 1008 93 10000 6.2 210 06:49 11.10.2019
6413 Rain 15 1008 93 10000 5.7 210 06:24 11.10.2019
6414 Rain 15 1008 93 9000 5.1 220 05:41 11.10.2019
6415 Rain 15 1009 87 5000 5.7 240 04:59 11.10.2019
6416 Rain 15 1009 87 10000 7.7 220 04:28 11.10.2019
6417 Rain 16 1009 82 10000 8.2 230 02:41 11.10.2019
6418 Rain 15 1010 87 10000 8.2 230 00:52 11.10.2019
6419 Rain 15 1010 87 10000 8.2 230 00:29 11.10.2019
6420 Rain 15 1010 82 10000 7.7 230 23:46 10.10.2019
6421 Rain 15 1010 82 10000 6.2 230 23:23 10.10.2019
6422 Rain 15 1010 82 10000 6.2 230 22:58 10.10.2019
6423 Clouds 15 1011 82 10000 6.2 230 22:39 10.10.2019
6424 Drizzle 15 1011 77 10000 6.2 220 22:21 10.10.2019
6425 Drizzle 15 1011 77 10000 6.2 220 21:58 10.10.2019
6426 Drizzle 15 1011 87 10000 8.7 210 21:40 10.10.2019
6427 Drizzle 15 1010 87 8000 6.7 220 21:21 10.10.2019
6428 Rain 15 1011 77 10000 6.7 220 20:57 10.10.2019
6429 Rain 15 1011 77 10000 6.7 220 20:57 10.10.2019
6430 Rain 14 1011 82 10000 6.2 220 20:38 10.10.2019
6431 Rain 14 1011 77 10000 5.7 230 20:18 10.10.2019
6432 Rain 14 1011 77 10000 5.7 230 20:18 10.10.2019
6433 Rain 14 1011 77 10000 5.7 230 20:18 10.10.2019
6434 Clouds 15 1011 67 10000 5.1 220 19:54 10.10.2019
6435 Clouds 15 1011 77 10000 6.7 230 19:36 10.10.2019
6436 Clouds 15 1011 67 10000 6.2 230 19:18 10.10.2019
6437 Clouds 15 1013 76 10000 8.2 220 18:41 10.10.2019
6438 Clouds 15 1013 71 10000 8.2 220 18:20 10.10.2019
6439 Clouds 16 1012 55 10000 7.2 230 17:56 10.10.2019
6440 Clouds 16 1012 55 10000 7.2 230 17:37 10.10.2019
6441 Clouds 16 1012 55 10000 8.2 240 17:18 10.10.2019
6442 Clouds 16 1012 55 10000 6.7 240 16:48 10.10.2019
6443 Clouds 16 1012 55 10000 6.7 250 16:26 10.10.2019
6444 Clouds 16 1012 55 10000 6.7 250 15:59 10.10.2019
6445 Clouds 16 1012 55 10000 6.2 250 15:39 10.10.2019
6446 Clouds 16 1013 55 10000 6.7 240 15:20 10.10.2019
6447 Clouds 16 1013 59 10000 6.2 240 14:56 10.10.2019
6448 Clouds 16 1013 59 10000 6.2 240 14:37 10.10.2019
6449 Clouds 15 1013 55 10000 7.7 250 14:18 10.10.2019
6450 Clouds 15 1013 63 10000 7.7 250 13:47 10.10.2019
6451 Clouds 15 1013 63 10000 7.7 250 13:29 10.10.2019
6452 Clouds 15 1013 67 10000 7.7 250 12:59 10.10.2019
6453 Clouds 14 1013 67 10000 7.7 250 12:40 10.10.2019
6454 Clouds 14 1012 71 10000 6.7 250 12:20 10.10.2019
6455 Clouds 13 1012 71 10000 6.7 250 11:58 10.10.2019
6456 Clouds 13 1012 71 10000 6.2 250 11:39 10.10.2019
6457 Clouds 12 1012 76 10000 6.7 250 11:19 10.10.2019
6458 Clouds 11 1012 76 10000 6.2 250 10:45 10.10.2019
6459 Clouds 10 1012 81 10000 6.2 250 10:27 10.10.2019
6460 Clouds 10 1012 81 10000 6.2 250 09:58 10.10.2019
6461 Clouds 9 1011 81 10000 5.7 250 09:39 10.10.2019
6462 Clouds 9 1011 87 10000 5.7 250 09:21 10.10.2019
6463 Clouds 9 1010 87 10000 6.7 250 08:58 10.10.2019
6464 Clouds 8 1010 87 10000 6.7 250 08:38 10.10.2019
6465 Clouds 8 1010 87 10000 6.7 250 08:19 10.10.2019
6466 Clouds 8 1010 87 10000 5.7 250 07:45 10.10.2019
6467 Clouds 8 1009 87 10000 6.2 250 07:23 10.10.2019
6468 Clouds 8 1009 87 10000 5.1 250 06:49 10.10.2019
6469 Clouds 8 1008 93 10000 6.2 240 06:29 10.10.2019
6470 Clear 8 1009 87 10000 5.7 250 05:28 10.10.2019
6471 Clear 8 1008 87 10000 5.7 250 04:55 10.10.2019
6472 Clear 8 1008 87 10000 5.7 250 04:33 10.10.2019
6473 Clouds 9 1007 93 10000 4.1 260 02:19 10.10.2019
6474 Clouds 9 1007 93 10000 4.1 260 02:19 10.10.2019
6475 Clouds 9 1007 87 10000 4.1 270 01:36 10.10.2019
6476 Clouds 9 1007 87 10000 4.1 270 01:18 10.10.2019
6477 Clouds 9 1006 81 10000 6.7 250 00:29 10.10.2019
6478 Rain 9 1006 81 10000 6.7 250 23:42 09.10.2019
6479 Clear 10 1006 93 10000 4.6 240 23:24 09.10.2019
6480 Clear 10 1006 93 10000 4.6 240 22:59 09.10.2019
6481 Rain 10 1006 93 10000 4.6 230 22:41 09.10.2019
6482 Rain 10 1006 93 10000 5.1 220 22:22 09.10.2019
6483 Rain 10 1006 93 10000 5.1 220 21:56 09.10.2019
6484 Rain 10 1006 93 10000 5.1 220 21:38 09.10.2019
6485 Rain 10 1005 71 10000 5.1 240 21:19 09.10.2019
6486 Rain 10 1006 87 10000 5.1 220 20:55 09.10.2019
6487 Rain 10 1006 87 10000 5.1 220 20:36 09.10.2019
6488 Clear 11 1006 81 10000 5.1 220 20:18 09.10.2019
6489 Clear 11 1006 81 10000 5.1 220 20:18 09.10.2019
6490 Clear 11 1006 81 10000 4.6 230 19:43 09.10.2019
6491 Clouds 11 1005 71 10000 5.7 240 19:23 09.10.2019
6492 Rain 12 1006 66 10000 5.1 240 18:40 09.10.2019
6493 Rain 13 1005 58 10000 7.7 250 18:21 09.10.2019
6494 Rain 13 1005 58 10000 7.7 250 17:59 09.10.2019
6495 Rain 14 1005 58 10000 6.7 250 17:40 09.10.2019
6496 Rain 14 1005 58 10000 6.7 250 17:40 09.10.2019
6497 Rain 14 1005 54 10000 8.7 260 17:22 09.10.2019
6498 Rain 14 1005 54 10000 8.7 260 16:58 09.10.2019
6499 Rain 14 1005 51 10000 8.2 260 16:40 09.10.2019
6500 Clouds 14 1005 54 10000 8.7 260 16:21 09.10.2019
6501 Clouds 14 1005 54 10000 8.7 260 15:57 09.10.2019
6502 Clouds 14 1004 51 10000 10.3 250 15:57 09.10.2019
6503 Clouds 14 1004 51 10000 10.3 250 15:39 09.10.2019
6504 Clouds 15 1004 54 10000 9.3 260 15:19 09.10.2019
6505 Clouds 14 1004 58 10000 8.2 260 14:56 09.10.2019
6506 Clouds 14 1004 58 10000 8.2 260 14:37 09.10.2019
6507 Clouds 14 1004 58 10000 8.2 250 14:18 09.10.2019
6508 Clouds 14 1004 58 10000 8.2 250 14:18 09.10.2019
6509 Clouds 14 1004 62 10000 8.7 260 13:39 09.10.2019
6510 Clouds 14 1004 67 10000 6.7 260 13:21 09.10.2019
6511 Clouds 14 1003 71 10000 8.2 270 12:58 09.10.2019
6512 Clouds 13 1004 67 10000 6.2 260 12:40 09.10.2019
6513 Clouds 13 1004 67 10000 6.7 260 12:21 09.10.2019
6514 Clouds 13 1004 67 10000 6.7 260 12:21 09.10.2019
6515 Rain 13 1004 71 10000 6.7 250 11:55 09.10.2019
6516 Rain 12 1004 71 10000 5.1 250 11:36 09.10.2019
6517 Rain 12 1004 71 10000 5.1 250 11:18 09.10.2019
6518 Rain 11 1004 76 10000 4.1 240 10:43 09.10.2019
6519 Clear 11 1004 93 10000 3.6 220 10:21 09.10.2019
6520 Rain 11 1004 93 10000 4.1 220 09:57 09.10.2019
6521 Rain 11 1004 93 10000 3.6 220 09:57 09.10.2019
6522 Rain 10 1004 93 10000 4.1 220 09:38 09.10.2019
6523 Rain 10 1004 81 10000 4.6 250 09:18 09.10.2019
6524 Rain 10 1004 81 10000 4.6 250 08:40 09.10.2019
6525 Rain 10 1004 81 10000 3.6 250 08:21 09.10.2019
6526 Rain 10 1004 81 10000 3.6 250 08:21 09.10.2019
6527 Rain 10 1004 81 10000 4.1 250 07:56 09.10.2019
6528 Rain 10 1004 81 10000 4.1 250 07:37 09.10.2019
6529 Clouds 10 1005 76 10000 4.6 240 07:19 09.10.2019
6530 Clouds 10 1005 76 10000 4.6 240 07:19 09.10.2019
6531 Clouds 10 1005 76 10000 4.1 240 06:49 09.10.2019
6532 Clouds 10 1005 76 10000 4.1 240 05:55 09.10.2019
6533 Clouds 10 1005 81 10000 4.6 240 05:28 09.10.2019
6534 Clouds 10 1006 76 10000 5.7 240 04:24 09.10.2019
6535 Clouds 10 1006 81 10000 5.1 230 02:50 09.10.2019
6536 Clouds 10 1007 81 10000 5.1 240 01:43 09.10.2019
6537 Clouds 10 1006 76 10000 5.1 240 01:20 09.10.2019
6538 Clouds 10 1006 76 10000 5.1 240 01:20 09.10.2019
6539 Clouds 10 1006 76 10000 5.1 240 00:56 09.10.2019
6540 Clouds 10 1006 76 10000 5.1 240 00:38 09.10.2019
6541 Clear 10 1006 76 10000 4.6 240 00:20 09.10.2019
6542 Clear 11 1007 87 10000 5.1 230 23:39 08.10.2019
6543 Clear 11 1007 87 10000 5.1 240 23:19 08.10.2019
6544 Clear 11 1007 87 10000 4.6 230 22:56 08.10.2019
6545 Clear 11 1007 87 10000 4.6 230 22:38 08.10.2019
6546 Clouds 11 1006 87 10000 5.1 220 22:19 08.10.2019
6547 Clear 11 1006 76 10000 6.2 250 21:57 08.10.2019
6548 Clear 11 1006 76 10000 6.2 250 21:39 08.10.2019
6549 Clouds 11 1006 93 10000 6.2 240 21:19 08.10.2019
6550 Clouds 11 1006 93 10000 6.2 240 21:19 08.10.2019
6551 Clouds 12 1006 87 10000 6.2 240 20:56 08.10.2019
6552 Clouds 12 1006 87 10000 6.2 240 20:37 08.10.2019
6553 Clouds 12 1006 93 10000 6.2 220 20:19 08.10.2019
6554 Clouds 12 1006 93 10000 6.2 220 19:57 08.10.2019
6555 Rain 12 1006 93 10000 5.7 220 19:38 08.10.2019
6556 Rain 13 1005 82 10000 5.1 240 19:20 08.10.2019
6557 Rain 13 1005 82 10000 5.1 240 19:20 08.10.2019
6558 Rain 13 1005 82 10000 5.1 240 18:54 08.10.2019
6559 Rain 13 1005 82 10000 5.1 240 18:36 08.10.2019
6560 Rain 13 1005 82 10000 5.1 240 18:18 08.10.2019
6561 Rain 14 1005 76 10000 10.3 260 17:40 08.10.2019
6562 Rain 15 1005 76 10000 6.2 230 17:20 08.10.2019
6563 Rain 15 1005 59 10000 6.7 230 16:58 08.10.2019
6564 Rain 15 1005 59 10000 6.7 230 16:39 08.10.2019
6565 Rain 16 1005 63 10000 7.2 240 16:21 08.10.2019
6566 Rain 16 1005 63 10000 7.2 240 15:41 08.10.2019
6567 Rain 16 1005 63 10000 7.2 240 15:41 08.10.2019
6568 Clouds 16 1006 67 10000 6.2 250 15:21 08.10.2019
6569 Clouds 16 1006 67 10000 6.2 250 14:58 08.10.2019
6570 Clouds 16 1006 67 10000 6.2 250 14:58 08.10.2019
6571 Clouds 15 1006 67 10000 6.2 240 14:39 08.10.2019
6572 Clouds 15 1006 63 10000 6.7 250 14:20 08.10.2019
6573 Clouds 15 1006 67 10000 5.7 250 13:57 08.10.2019
6574 Clouds 15 1006 67 10000 5.7 250 13:38 08.10.2019
6575 Clouds 15 1007 67 10000 5.7 250 13:19 08.10.2019
6576 Clouds 15 1007 72 10000 5.7 240 12:58 08.10.2019
6577 Clouds 15 1007 72 10000 5.7 240 12:37 08.10.2019
6578 Clouds 15 1007 72 10000 5.7 240 12:18 08.10.2019
6579 Clouds 14 1007 77 10000 5.7 240 11:42 08.10.2019
6580 Clouds 13 1007 77 10000 3.6 240 11:24 08.10.2019
6581 Clouds 13 1008 82 10000 3.6 240 10:58 08.10.2019
6582 Clouds 13 1008 82 10000 3.6 240 10:37 08.10.2019
6583 Clear 12 1008 93 10000 4.1 220 10:19 08.10.2019
6584 Clear 12 1008 100 10000 3.6 230 09:55 08.10.2019
6585 Clear 12 1008 100 10000 3.6 230 09:37 08.10.2019
6586 Mist 12 1008 93 10000 3.6 230 09:19 08.10.2019
6587 Mist 11 1008 93 10000 3.6 230 08:42 08.10.2019
6588 Mist 11 1008 100 10000 3.6 240 08:23 08.10.2019
6589 Mist 12 1008 87 9000 3.6 240 07:44 08.10.2019
6590 Clouds 12 1008 93 9000 4.1 250 07:21 08.10.2019
6591 Clouds 12 1008 93 9000 3.6 250 06:51 08.10.2019
6592 Clear 12 1008 93 8000 4.6 250 06:28 08.10.2019
6593 Clouds 13 1008 93 8000 4.1 240 05:46 08.10.2019
6594 Clouds 13 1008 93 8000 4.1 240 05:26 08.10.2019
6595 Haze 13 1008 93 9000 4.6 240 04:31 08.10.2019
6596 Clouds 14 1008 87 10000 3.1 250 03:29 08.10.2019
6597 Rain 14 1009 93 9000 4.1 240 02:37 08.10.2019
6598 Rain 14 1009 93 10000 4.1 230 01:47 08.10.2019
6599 Rain 14 1009 100 10000 3.6 240 01:28 08.10.2019
6600 Rain 14 1009 93 10000 3.6 250 00:48 08.10.2019
6601 Rain 14 1009 93 10000 3.6 260 00:21 08.10.2019
6602 Rain 15 1009 93 10000 3.1 240 23:41 07.10.2019
6603 Rain 15 1009 100 10000 3.6 210 23:20 07.10.2019
6604 Rain 15 1009 100 10000 3.6 210 23:20 07.10.2019
6605 Rain 15 1010 100 7000 5.1 210 22:58 07.10.2019
6606 Rain 15 1010 100 7000 5.1 210 22:40 07.10.2019
6607 Rain 14 1010 93 10000 4.1 230 22:20 07.10.2019
6608 Rain 14 1010 93 10000 4.1 230 21:57 07.10.2019
6609 Rain 14 1010 93 4200 4.1 220 21:39 07.10.2019
6610 Rain 14 1010 93 2700 5.1 210 21:20 07.10.2019
6611 Rain 14 1011 87 10000 4.1 230 20:58 07.10.2019
6612 Drizzle 14 1011 87 10000 4.1 230 20:39 07.10.2019
6613 Rain 14 1010 87 10000 4.1 190 20:20 07.10.2019
6614 Rain 14 1010 87 10000 4.1 190 19:58 07.10.2019
6615 Rain 14 1011 87 10000 3.6 200 19:40 07.10.2019
6616 Rain 14 1012 87 6000 4.1 210 19:19 07.10.2019
6617 Rain 14 1012 82 10000 4.1 0 18:57 07.10.2019
6618 Rain 14 1012 82 10000 4.1 0 18:38 07.10.2019
6619 Rain 14 1012 82 10000 4.6 210 18:18 07.10.2019
6620 Rain 14 1012 77 10000 5.7 210 17:43 07.10.2019
6621 Rain 14 1013 87 10000 6.7 190 17:22 07.10.2019
6622 Rain 14 1013 77 10000 5.7 200 16:58 07.10.2019
6623 Rain 14 1013 77 10000 5.7 200 16:39 07.10.2019
6624 Rain 14 1013 77 10000 5.7 200 16:39 07.10.2019
6625 Rain 14 1014 87 10000 8.7 190 16:20 07.10.2019
6626 Rain 14 1014 67 10000 5.1 210 15:45 07.10.2019
6627 Rain 14 1014 63 10000 5.1 220 15:26 07.10.2019
6628 Rain 14 1014 63 10000 5.1 220 15:26 07.10.2019
6629 Rain 14 1015 63 10000 5.7 220 14:56 07.10.2019
6630 Rain 14 1015 71 10000 6.2 210 14:38 07.10.2019
6631 Rain 14 1015 63 10000 3.6 210 14:20 07.10.2019
6632 Rain 14 1015 62 10000 3.6 210 13:43 07.10.2019
6633 Clouds 14 1016 76 10000 3.1 0 13:21 07.10.2019
6634 Rain 13 1016 82 10000 3.1 240 12:57 07.10.2019
6635 Rain 13 1016 82 10000 3.1 240 12:39 07.10.2019
6636 Rain 13 1017 87 10000 2.6 240 12:19 07.10.2019
6637 Rain 12 1017 87 10000 2.6 240 11:57 07.10.2019
6638 Rain 12 1017 87 10000 2.6 240 11:38 07.10.2019
6639 Rain 12 1017 82 10000 3.6 250 11:20 07.10.2019
6640 Rain 11 1017 87 10000 2.6 250 10:42 07.10.2019
6641 Rain 11 1017 87 10000 2.1 0 10:21 07.10.2019
6642 Rain 10 1016 87 10000 0.5 0 09:55 07.10.2019
6643 Rain 10 1016 87 10000 0.5 0 09:54 07.10.2019
6644 Rain 10 1016 87 10000 0.5 0 09:36 07.10.2019
6645 Rain 10 1017 87 10000 1.5 0 09:18 07.10.2019
6646 Rain 10 1017 87 10000 0.5 0 08:41 07.10.2019
6647 Rain 10 1017 87 10000 1 0 08:20 07.10.2019
6648 Clouds 10 1017 87 10000 1 0 07:44 07.10.2019
6649 Clouds 10 1016 87 10000 1 0 07:25 07.10.2019
6650 Mist 10 1017 93 10000 1 330 06:56 07.10.2019
6651 Mist 10 1017 93 10000 1 330 06:37 07.10.2019
6652 Clouds 10 1017 87 10000 2.1 280 05:54 07.10.2019
6653 Clouds 10 1016 93 10000 1 0 05:25 07.10.2019
6654 Clouds 10 1017 100 10000 1.5 0 04:47 07.10.2019
6655 Clouds 10 1017 87 10000 1 0 03:45 07.10.2019
6656 Clouds 11 1017 87 10000 1.5 0 03:27 07.10.2019
6657 Clouds 11 1017 87 10000 2.1 300 02:37 07.10.2019
6658 Clouds 11 1016 87 10000 1.5 0 02:18 07.10.2019
6659 Clouds 12 1016 87 10000 1.5 0 02:18 07.10.2019
6660 Rain 12 1016 87 10000 3.1 360 01:23 07.10.2019
6661 Clouds 12 1016 82 10000 5.7 310 00:49 07.10.2019
6662 Drizzle 13 1016 76 10000 5.7 300 00:24 07.10.2019
6663 Drizzle 13 1016 76 10000 5.7 300 23:59 06.10.2019
6664 Rain 13 1015 76 10000 6.2 300 23:40 06.10.2019
6665 Rain 13 1015 76 10000 6.2 300 23:40 06.10.2019
6666 Clouds 13 1016 71 10000 3.6 290 23:19 06.10.2019
6667 Rain 13 1015 76 10000 4.6 300 22:56 06.10.2019
6668 Rain 13 1015 76 10000 4.6 300 22:37 06.10.2019
6669 Clouds 13 1014 76 10000 4.6 300 22:18 06.10.2019
6670 Clouds 13 1014 71 10000 5.1 300 21:55 06.10.2019
6671 Clouds 13 1014 71 10000 5.1 300 21:36 06.10.2019
6672 Rain 14 1013 67 10000 7.2 300 21:18 06.10.2019
6673 Rain 14 1013 71 10000 5.7 300 20:55 06.10.2019
6674 Rain 14 1013 71 10000 5.7 300 20:36 06.10.2019
6675 Rain 14 1013 71 10000 6.7 300 20:18 06.10.2019
6676 Rain 14 1012 67 10000 5.7 310 19:55 06.10.2019
6677 Rain 14 1012 59 10000 7.7 300 19:36 06.10.2019
6678 Rain 15 1012 67 10000 6.7 300 19:18 06.10.2019
6679 Rain 15 1011 55 10000 8.7 300 18:55 06.10.2019
6680 Rain 15 1011 55 10000 8.7 300 18:36 06.10.2019
6681 Clouds 16 1010 55 10000 7.2 290 18:18 06.10.2019
6682 Clouds 16 1010 55 10000 9.3 290 17:42 06.10.2019
6683 Clouds 16 1010 59 10000 6.2 290 17:20 06.10.2019
6684 Clouds 16 1010 59 10000 6.2 290 17:20 06.10.2019
6685 Clouds 16 1010 59 10000 6.2 290 17:20 06.10.2019
6686 Rain 16 1010 59 10000 8.7 270 16:55 06.10.2019
6687 Rain 16 1010 59 10000 8.7 270 16:37 06.10.2019
6688 Rain 16 1009 59 10000 8.7 280 16:18 06.10.2019
6689 Thunderstorm 16 1009 59 10000 10.3 280 15:43 06.10.2019
6690 Rain 16 1009 59 10000 9.3 290 15:22 06.10.2019
6691 Rain 16 1009 59 10000 7.7 280 14:56 06.10.2019
6692 Rain 16 1009 59 10000 7.7 280 14:38 06.10.2019
6693 Rain 16 1009 67 10000 6.7 290 14:19 06.10.2019
6694 Rain 15 1009 67 10000 8.2 290 13:42 06.10.2019
6695 Rain 15 1009 67 10000 8.2 290 13:42 06.10.2019
6696 Clouds 15 1009 72 10000 8.2 280 13:24 06.10.2019
6697 Clouds 15 1009 72 10000 8.2 280 12:59 06.10.2019
6698 Clouds 15 1008 72 10000 9.3 290 12:41 06.10.2019
6699 Clouds 14 1008 77 10000 7.7 290 12:21 06.10.2019
6700 Clouds 14 1008 77 10000 7.7 290 11:59 06.10.2019
6701 Clouds 14 1008 82 10000 6.7 290 11:41 06.10.2019
6702 Rain 14 1008 82 10000 6.7 280 11:23 06.10.2019
6703 Rain 13 1008 87 10000 6.7 280 10:56 06.10.2019
6704 Rain 13 1008 87 10000 5.7 290 10:37 06.10.2019
6705 Rain 13 1008 100 10000 6.7 280 10:19 06.10.2019
6706 Rain 13 1008 100 10000 6.7 280 10:19 06.10.2019
6707 Rain 13 1008 100 10000 5.7 280 09:41 06.10.2019
6708 Rain 13 1008 100 10000 5.7 280 09:41 06.10.2019
6709 Rain 13 1008 100 10000 6.2 280 09:19 06.10.2019
6710 Rain 13 1008 100 10000 6.2 280 09:19 06.10.2019
6711 Rain 13 1007 100 5000 3.1 260 08:49 06.10.2019
6712 Rain 13 1007 93 3000 1 0 08:24 06.10.2019
6713 Rain 13 1007 93 10000 4.1 140 07:58 06.10.2019
6714 Rain 13 1007 93 10000 4.1 140 07:39 06.10.2019
6715 Rain 13 1008 93 7000 3.6 130 06:53 06.10.2019
6716 Rain 13 1009 100 3000 2.6 120 05:41 06.10.2019
6717 Rain 13 1009 100 3000 2.6 120 05:41 06.10.2019
6718 Rain 12 1011 93 1900 3.1 100 04:35 06.10.2019
6719 Rain 12 1012 87 3800 2.6 100 02:56 06.10.2019
6720 Rain 12 1012 87 3800 2.6 100 02:32 06.10.2019
6721 Rain 12 1013 82 7000 3.6 110 01:49 06.10.2019
6722 Rain 12 1013 82 7000 3.6 110 01:30 06.10.2019
6723 Rain 12 1013 82 7000 3.6 110 01:30 06.10.2019
6724 Rain 12 1014 82 10000 2.1